<?xml version="1.0" encoding="UTF-8" standalone="no" ?>
<gpx xmlns="http://www.topografix.com/GPX/1/1" xmlns:gpxtpx="http://www.garmin.com/xmlschemas/TrackPointExtension/v1" creator="OruxMaps v.7.0.2" version="1.1" xmlns:xsi="http://www.w3.org/2001/XMLSchema-instance" xsi:schemaLocation="http://www.topografix.com/GPX/1/1 http://www.topografix.com/GPX/1/1/gpx.xsd">
<metadata>
<name><![CDATA[Puig de Randa Mallorca 18.10.2016]]></name>
<link href="http://www.oruxmaps.com">
<text>OruxMaps</text>
</link>
<time>2016-10-18T08:08:32Z</time><bounds maxlat="39.7694665" maxlon="3.1575640" minlat="39.5188328" minlon="2.8939542"/>
</metadata>
<trk>
<name><![CDATA[Puig de Randa Mallorca 18.10.2016]]></name>
<desc><![CDATA[<p>Startzeit: 10/18/2016 10:08<br/>Zielzeit: 10/18/2016 17:31<br/>Strecke: 102,9 km (07:22)<br/>Bewegungszeit: 04:59<br/>Ø-Geschwindigkeit: 13,97 km/h<br/>Netto-Geschwindigkeit: 20,64 km/h<br/>Max. Geschwindigkeit: 52,82 km/h<br/>Minimale Höhe: -23 m<br/>Maximale Höhe: 558 m<br/>Steig-Geschw.: 397,4 m/h<br/>Sink-Geschw.: -949,8 m/h<br/>Aufstieg: 1751 m<br/>Abstieg: -1796 m<br/>Steigzeit: 04:24<br/>Sinkzeit: 01:53<br/></p><hr align="center" width="480" style="height: 2px; width: 517px"/>]]></desc>
<type>Fahrrad/ Strasse</type>
<extensions>
<om:oruxmapsextensions xmlns:om="http://www.oruxmaps.com/oruxmapsextensions/1/0">
<om:ext type="TYPE" subtype="0">8</om:ext>
<om:ext type="DIFFICULTY">0</om:ext>
</om:oruxmapsextensions>
</extensions>
<trkseg>
<trkpt lat="39.7656546" lon="3.1481309">
<ele>11.48</ele>
<time>2016-10-18T08:08:32Z</time>
</trkpt>
<trkpt lat="39.7655182" lon="3.1483356">
<ele>14.56</ele>
<time>2016-10-18T08:13:37Z</time>
</trkpt>
<trkpt lat="39.7653597" lon="3.1484781">
<ele>15.47</ele>
<time>2016-10-18T08:13:42Z</time>
</trkpt>
<trkpt lat="39.7652080" lon="3.1486597">
<ele>14.84</ele>
<time>2016-10-18T08:13:47Z</time>
</trkpt>
<trkpt lat="39.7650671" lon="3.1488134">
<ele>13.54</ele>
<time>2016-10-18T08:13:51Z</time>
</trkpt>
<trkpt lat="39.7649177" lon="3.1489651">
<ele>12.58</ele>
<time>2016-10-18T08:13:55Z</time>
</trkpt>
<trkpt lat="39.7647744" lon="3.1491275">
<ele>12.53</ele>
<time>2016-10-18T08:13:59Z</time>
</trkpt>
<trkpt lat="39.7646076" lon="3.1493114">
<ele>14.18</ele>
<time>2016-10-18T08:14:04Z</time>
</trkpt>
<trkpt lat="39.7644597" lon="3.1494785">
<ele>17.27</ele>
<time>2016-10-18T08:14:08Z</time>
</trkpt>
<trkpt lat="39.7642862" lon="3.1496593">
<ele>17.56</ele>
<time>2016-10-18T08:14:13Z</time>
</trkpt>
<trkpt lat="39.7641381" lon="3.1498147">
<ele>19.40</ele>
<time>2016-10-18T08:14:17Z</time>
</trkpt>
<trkpt lat="39.7639784" lon="3.1499760">
<ele>18.49</ele>
<time>2016-10-18T08:14:21Z</time>
</trkpt>
<trkpt lat="39.7638092" lon="3.1501429">
<ele>18.11</ele>
<time>2016-10-18T08:14:25Z</time>
</trkpt>
<trkpt lat="39.7636638" lon="3.1503108">
<ele>18.77</ele>
<time>2016-10-18T08:14:29Z</time>
</trkpt>
<trkpt lat="39.7635172" lon="3.1504634">
<ele>17.68</ele>
<time>2016-10-18T08:14:33Z</time>
</trkpt>
<trkpt lat="39.7633711" lon="3.1506188">
<ele>16.40</ele>
<time>2016-10-18T08:14:37Z</time>
</trkpt>
<trkpt lat="39.7632178" lon="3.1507705">
<ele>15.42</ele>
<time>2016-10-18T08:14:41Z</time>
</trkpt>
<trkpt lat="39.7630697" lon="3.1509658">
<ele>17.32</ele>
<time>2016-10-18T08:14:46Z</time>
</trkpt>
<trkpt lat="39.7628981" lon="3.1511586">
<ele>18.37</ele>
<time>2016-10-18T08:14:51Z</time>
</trkpt>
<trkpt lat="39.7627281" lon="3.1513266">
<ele>18.46</ele>
<time>2016-10-18T08:14:55Z</time>
</trkpt>
<trkpt lat="39.7625592" lon="3.1514967">
<ele>18.96</ele>
<time>2016-10-18T08:14:58Z</time>
</trkpt>
<trkpt lat="39.7623991" lon="3.1516587">
<ele>20.29</ele>
<time>2016-10-18T08:15:02Z</time>
</trkpt>
<trkpt lat="39.7622368" lon="3.1518418">
<ele>21.77</ele>
<time>2016-10-18T08:15:06Z</time>
</trkpt>
<trkpt lat="39.7620639" lon="3.1520206">
<ele>23.73</ele>
<time>2016-10-18T08:15:10Z</time>
</trkpt>
<trkpt lat="39.7619056" lon="3.1521821">
<ele>22.85</ele>
<time>2016-10-18T08:15:14Z</time>
</trkpt>
<trkpt lat="39.7617634" lon="3.1523306">
<ele>22.93</ele>
<time>2016-10-18T08:15:17Z</time>
</trkpt>
<trkpt lat="39.7616266" lon="3.1524966">
<ele>23.11</ele>
<time>2016-10-18T08:15:20Z</time>
</trkpt>
<trkpt lat="39.7614659" lon="3.1526593">
<ele>23.10</ele>
<time>2016-10-18T08:15:24Z</time>
</trkpt>
<trkpt lat="39.7613144" lon="3.1528279">
<ele>22.96</ele>
<time>2016-10-18T08:15:29Z</time>
</trkpt>
<trkpt lat="39.7611714" lon="3.1529860">
<ele>24.58</ele>
<time>2016-10-18T08:15:33Z</time>
</trkpt>
<trkpt lat="39.7610157" lon="3.1531347">
<ele>24.83</ele>
<time>2016-10-18T08:15:37Z</time>
</trkpt>
<trkpt lat="39.7608611" lon="3.1532832">
<ele>24.06</ele>
<time>2016-10-18T08:15:41Z</time>
</trkpt>
<trkpt lat="39.7607043" lon="3.1534457">
<ele>23.25</ele>
<time>2016-10-18T08:15:45Z</time>
</trkpt>
<trkpt lat="39.7605425" lon="3.1536102">
<ele>22.10</ele>
<time>2016-10-18T08:15:49Z</time>
</trkpt>
<trkpt lat="39.7603912" lon="3.1537507">
<ele>21.94</ele>
<time>2016-10-18T08:15:53Z</time>
</trkpt>
<trkpt lat="39.7602464" lon="3.1538907">
<ele>22.33</ele>
<time>2016-10-18T08:15:57Z</time>
</trkpt>
<trkpt lat="39.7601026" lon="3.1540474">
<ele>22.17</ele>
<time>2016-10-18T08:16:01Z</time>
</trkpt>
<trkpt lat="39.7599513" lon="3.1542125">
<ele>21.25</ele>
<time>2016-10-18T08:16:06Z</time>
</trkpt>
<trkpt lat="39.7598226" lon="3.1544006">
<ele>21.70</ele>
<time>2016-10-18T08:16:11Z</time>
</trkpt>
<trkpt lat="39.7596634" lon="3.1545934">
<ele>23.07</ele>
<time>2016-10-18T08:16:16Z</time>
</trkpt>
<trkpt lat="39.7595230" lon="3.1547489">
<ele>23.22</ele>
<time>2016-10-18T08:16:20Z</time>
</trkpt>
<trkpt lat="39.7593727" lon="3.1549111">
<ele>24.20</ele>
<time>2016-10-18T08:16:24Z</time>
</trkpt>
<trkpt lat="39.7592220" lon="3.1550694">
<ele>25.11</ele>
<time>2016-10-18T08:16:28Z</time>
</trkpt>
<trkpt lat="39.7590651" lon="3.1552234">
<ele>24.63</ele>
<time>2016-10-18T08:16:32Z</time>
</trkpt>
<trkpt lat="39.7589138" lon="3.1553843">
<ele>25.43</ele>
<time>2016-10-18T08:16:36Z</time>
</trkpt>
<trkpt lat="39.7587700" lon="3.1555378">
<ele>27.47</ele>
<time>2016-10-18T08:16:40Z</time>
</trkpt>
<trkpt lat="39.7586303" lon="3.1556985">
<ele>29.77</ele>
<time>2016-10-18T08:16:44Z</time>
</trkpt>
<trkpt lat="39.7584957" lon="3.1558667">
<ele>33.31</ele>
<time>2016-10-18T08:16:48Z</time>
</trkpt>
<trkpt lat="39.7583560" lon="3.1560201">
<ele>34.54</ele>
<time>2016-10-18T08:16:52Z</time>
</trkpt>
<trkpt lat="39.7582052" lon="3.1561792">
<ele>35.23</ele>
<time>2016-10-18T08:16:56Z</time>
</trkpt>
<trkpt lat="39.7580469" lon="3.1563427">
<ele>34.32</ele>
<time>2016-10-18T08:17:00Z</time>
</trkpt>
<trkpt lat="39.7578762" lon="3.1565152">
<ele>34.58</ele>
<time>2016-10-18T08:17:04Z</time>
</trkpt>
<trkpt lat="39.7576966" lon="3.1567123">
<ele>35.55</ele>
<time>2016-10-18T08:17:08Z</time>
</trkpt>
<trkpt lat="39.7575187" lon="3.1568757">
<ele>34.54</ele>
<time>2016-10-18T08:17:12Z</time>
</trkpt>
<trkpt lat="39.7573392" lon="3.1569772">
<ele>33.28</ele>
<time>2016-10-18T08:17:15Z</time>
</trkpt>
<trkpt lat="39.7571485" lon="3.1569970">
<ele>30.64</ele>
<time>2016-10-18T08:17:18Z</time>
</trkpt>
<trkpt lat="39.7569388" lon="3.1569833">
<ele>26.62</ele>
<time>2016-10-18T08:17:21Z</time>
</trkpt>
<trkpt lat="39.7567537" lon="3.1568617">
<ele>23.73</ele>
<time>2016-10-18T08:17:24Z</time>
</trkpt>
<trkpt lat="39.7565908" lon="3.1566978">
<ele>23.37</ele>
<time>2016-10-18T08:17:27Z</time>
</trkpt>
<trkpt lat="39.7564493" lon="3.1565493">
<ele>23.28</ele>
<time>2016-10-18T08:17:30Z</time>
</trkpt>
<trkpt lat="39.7562606" lon="3.1563661">
<ele>22.57</ele>
<time>2016-10-18T08:17:34Z</time>
</trkpt>
<trkpt lat="39.7560685" lon="3.1561831">
<ele>22.72</ele>
<time>2016-10-18T08:17:38Z</time>
</trkpt>
<trkpt lat="39.7559109" lon="3.1560365">
<ele>23.21</ele>
<time>2016-10-18T08:17:41Z</time>
</trkpt>
<trkpt lat="39.7557529" lon="3.1558889">
<ele>23.39</ele>
<time>2016-10-18T08:17:44Z</time>
</trkpt>
<trkpt lat="39.7555969" lon="3.1557456">
<ele>24.30</ele>
<time>2016-10-18T08:17:47Z</time>
</trkpt>
<trkpt lat="39.7554444" lon="3.1556068">
<ele>24.74</ele>
<time>2016-10-18T08:17:50Z</time>
</trkpt>
<trkpt lat="39.7552915" lon="3.1554645">
<ele>23.76</ele>
<time>2016-10-18T08:17:53Z</time>
</trkpt>
<trkpt lat="39.7551486" lon="3.1553221">
<ele>23.64</ele>
<time>2016-10-18T08:17:56Z</time>
</trkpt>
<trkpt lat="39.7549638" lon="3.1551473">
<ele>23.41</ele>
<time>2016-10-18T08:18:00Z</time>
</trkpt>
<trkpt lat="39.7547780" lon="3.1549745">
<ele>25.20</ele>
<time>2016-10-18T08:18:04Z</time>
</trkpt>
<trkpt lat="39.7545772" lon="3.1547909">
<ele>25.51</ele>
<time>2016-10-18T08:18:08Z</time>
</trkpt>
<trkpt lat="39.7543858" lon="3.1546095">
<ele>26.84</ele>
<time>2016-10-18T08:18:12Z</time>
</trkpt>
<trkpt lat="39.7542011" lon="3.1544384">
<ele>28.07</ele>
<time>2016-10-18T08:18:16Z</time>
</trkpt>
<trkpt lat="39.7540169" lon="3.1542679">
<ele>28.61</ele>
<time>2016-10-18T08:18:20Z</time>
</trkpt>
<trkpt lat="39.7538313" lon="3.1540983">
<ele>29.89</ele>
<time>2016-10-18T08:18:24Z</time>
</trkpt>
<trkpt lat="39.7536837" lon="3.1539600">
<ele>30.79</ele>
<time>2016-10-18T08:18:27Z</time>
</trkpt>
<trkpt lat="39.7535347" lon="3.1538240">
<ele>31.01</ele>
<time>2016-10-18T08:18:30Z</time>
</trkpt>
<trkpt lat="39.7533810" lon="3.1536880">
<ele>30.77</ele>
<time>2016-10-18T08:18:33Z</time>
</trkpt>
<trkpt lat="39.7532233" lon="3.1535455">
<ele>30.19</ele>
<time>2016-10-18T08:18:36Z</time>
</trkpt>
<trkpt lat="39.7530662" lon="3.1533919">
<ele>31.10</ele>
<time>2016-10-18T08:18:39Z</time>
</trkpt>
<trkpt lat="39.7529198" lon="3.1532339">
<ele>31.82</ele>
<time>2016-10-18T08:18:42Z</time>
</trkpt>
<trkpt lat="39.7527662" lon="3.1530479">
<ele>32.65</ele>
<time>2016-10-18T08:18:45Z</time>
</trkpt>
<trkpt lat="39.7526163" lon="3.1528575">
<ele>32.99</ele>
<time>2016-10-18T08:18:48Z</time>
</trkpt>
<trkpt lat="39.7524715" lon="3.1526670">
<ele>32.65</ele>
<time>2016-10-18T08:18:51Z</time>
</trkpt>
<trkpt lat="39.7523367" lon="3.1524820">
<ele>31.83</ele>
<time>2016-10-18T08:18:54Z</time>
</trkpt>
<trkpt lat="39.7522025" lon="3.1522991">
<ele>30.33</ele>
<time>2016-10-18T08:18:57Z</time>
</trkpt>
<trkpt lat="39.7520722" lon="3.1521235">
<ele>29.28</ele>
<time>2016-10-18T08:19:00Z</time>
</trkpt>
<trkpt lat="39.7519407" lon="3.1519444">
<ele>28.45</ele>
<time>2016-10-18T08:19:03Z</time>
</trkpt>
<trkpt lat="39.7518022" lon="3.1517756">
<ele>27.81</ele>
<time>2016-10-18T08:19:06Z</time>
</trkpt>
<trkpt lat="39.7516313" lon="3.1515731">
<ele>26.88</ele>
<time>2016-10-18T08:19:10Z</time>
</trkpt>
<trkpt lat="39.7514694" lon="3.1513801">
<ele>26.73</ele>
<time>2016-10-18T08:19:14Z</time>
</trkpt>
<trkpt lat="39.7513265" lon="3.1512011">
<ele>28.53</ele>
<time>2016-10-18T08:19:18Z</time>
</trkpt>
<trkpt lat="39.7511813" lon="3.1509968">
<ele>31.72</ele>
<time>2016-10-18T08:19:22Z</time>
</trkpt>
<trkpt lat="39.7510339" lon="3.1508073">
<ele>34.82</ele>
<time>2016-10-18T08:19:26Z</time>
</trkpt>
<trkpt lat="39.7508774" lon="3.1506020">
<ele>36.77</ele>
<time>2016-10-18T08:19:30Z</time>
</trkpt>
<trkpt lat="39.7507108" lon="3.1503927">
<ele>36.94</ele>
<time>2016-10-18T08:19:34Z</time>
</trkpt>
<trkpt lat="39.7505778" lon="3.1502180">
<ele>36.37</ele>
<time>2016-10-18T08:19:37Z</time>
</trkpt>
<trkpt lat="39.7504495" lon="3.1500523">
<ele>36.73</ele>
<time>2016-10-18T08:19:40Z</time>
</trkpt>
<trkpt lat="39.7503217" lon="3.1498840">
<ele>37.28</ele>
<time>2016-10-18T08:19:43Z</time>
</trkpt>
<trkpt lat="39.7501896" lon="3.1497069">
<ele>36.94</ele>
<time>2016-10-18T08:19:46Z</time>
</trkpt>
<trkpt lat="39.7500600" lon="3.1495325">
<ele>37.53</ele>
<time>2016-10-18T08:19:49Z</time>
</trkpt>
<trkpt lat="39.7498955" lon="3.1493235">
<ele>38.54</ele>
<time>2016-10-18T08:19:53Z</time>
</trkpt>
<trkpt lat="39.7497593" lon="3.1491539">
<ele>39.02</ele>
<time>2016-10-18T08:19:56Z</time>
</trkpt>
<trkpt lat="39.7496172" lon="3.1489783">
<ele>39.32</ele>
<time>2016-10-18T08:19:59Z</time>
</trkpt>
<trkpt lat="39.7494555" lon="3.1487661">
<ele>39.75</ele>
<time>2016-10-18T08:20:03Z</time>
</trkpt>
<trkpt lat="39.7492895" lon="3.1485433">
<ele>41.17</ele>
<time>2016-10-18T08:20:07Z</time>
</trkpt>
<trkpt lat="39.7491591" lon="3.1483643">
<ele>42.20</ele>
<time>2016-10-18T08:20:10Z</time>
</trkpt>
<trkpt lat="39.7490256" lon="3.1481784">
<ele>42.76</ele>
<time>2016-10-18T08:20:13Z</time>
</trkpt>
<trkpt lat="39.7488908" lon="3.1480008">
<ele>41.88</ele>
<time>2016-10-18T08:20:16Z</time>
</trkpt>
<trkpt lat="39.7487550" lon="3.1478228">
<ele>39.70</ele>
<time>2016-10-18T08:20:19Z</time>
</trkpt>
<trkpt lat="39.7486212" lon="3.1476510">
<ele>38.62</ele>
<time>2016-10-18T08:20:22Z</time>
</trkpt>
<trkpt lat="39.7484863" lon="3.1474903">
<ele>37.56</ele>
<time>2016-10-18T08:20:25Z</time>
</trkpt>
<trkpt lat="39.7483552" lon="3.1473275">
<ele>37.17</ele>
<time>2016-10-18T08:20:28Z</time>
</trkpt>
<trkpt lat="39.7481853" lon="3.1471199">
<ele>37.76</ele>
<time>2016-10-18T08:20:32Z</time>
</trkpt>
<trkpt lat="39.7480136" lon="3.1469037">
<ele>37.49</ele>
<time>2016-10-18T08:20:36Z</time>
</trkpt>
<trkpt lat="39.7478819" lon="3.1467361">
<ele>37.23</ele>
<time>2016-10-18T08:20:39Z</time>
</trkpt>
<trkpt lat="39.7477150" lon="3.1465402">
<ele>37.49</ele>
<time>2016-10-18T08:20:43Z</time>
</trkpt>
<trkpt lat="39.7475752" lon="3.1463810">
<ele>37.81</ele>
<time>2016-10-18T08:20:46Z</time>
</trkpt>
<trkpt lat="39.7474350" lon="3.1461899">
<ele>38.50</ele>
<time>2016-10-18T08:20:49Z</time>
</trkpt>
<trkpt lat="39.7472731" lon="3.1459641">
<ele>40.36</ele>
<time>2016-10-18T08:20:53Z</time>
</trkpt>
<trkpt lat="39.7471366" lon="3.1457837">
<ele>42.05</ele>
<time>2016-10-18T08:20:56Z</time>
</trkpt>
<trkpt lat="39.7469998" lon="3.1456015">
<ele>41.70</ele>
<time>2016-10-18T08:20:59Z</time>
</trkpt>
<trkpt lat="39.7468625" lon="3.1453922">
<ele>42.11</ele>
<time>2016-10-18T08:21:02Z</time>
</trkpt>
<trkpt lat="39.7467783" lon="3.1451447">
<ele>42.76</ele>
<time>2016-10-18T08:21:05Z</time>
</trkpt>
<trkpt lat="39.7466944" lon="3.1448826">
<ele>43.08</ele>
<time>2016-10-18T08:21:08Z</time>
</trkpt>
<trkpt lat="39.7466079" lon="3.1446052">
<ele>42.43</ele>
<time>2016-10-18T08:21:11Z</time>
</trkpt>
<trkpt lat="39.7465262" lon="3.1443403">
<ele>40.68</ele>
<time>2016-10-18T08:21:14Z</time>
</trkpt>
<trkpt lat="39.7464378" lon="3.1440527">
<ele>40.18</ele>
<time>2016-10-18T08:21:17Z</time>
</trkpt>
<trkpt lat="39.7463544" lon="3.1437754">
<ele>39.82</ele>
<time>2016-10-18T08:21:20Z</time>
</trkpt>
<trkpt lat="39.7462764" lon="3.1435235">
<ele>39.52</ele>
<time>2016-10-18T08:21:23Z</time>
</trkpt>
<trkpt lat="39.7461979" lon="3.1432813">
<ele>39.11</ele>
<time>2016-10-18T08:21:26Z</time>
</trkpt>
<trkpt lat="39.7461153" lon="3.1430446">
<ele>39.28</ele>
<time>2016-10-18T08:21:29Z</time>
</trkpt>
<trkpt lat="39.7460376" lon="3.1428111">
<ele>39.81</ele>
<time>2016-10-18T08:21:32Z</time>
</trkpt>
<trkpt lat="39.7459604" lon="3.1425675">
<ele>40.33</ele>
<time>2016-10-18T08:21:35Z</time>
</trkpt>
<trkpt lat="39.7458874" lon="3.1423229">
<ele>40.66</ele>
<time>2016-10-18T08:21:38Z</time>
</trkpt>
<trkpt lat="39.7458100" lon="3.1420764">
<ele>42.23</ele>
<time>2016-10-18T08:21:41Z</time>
</trkpt>
<trkpt lat="39.7457323" lon="3.1418274">
<ele>44.08</ele>
<time>2016-10-18T08:21:44Z</time>
</trkpt>
<trkpt lat="39.7456488" lon="3.1415657">
<ele>44.84</ele>
<time>2016-10-18T08:21:47Z</time>
</trkpt>
<trkpt lat="39.7455682" lon="3.1413058">
<ele>44.59</ele>
<time>2016-10-18T08:21:50Z</time>
</trkpt>
<trkpt lat="39.7454839" lon="3.1410345">
<ele>44.21</ele>
<time>2016-10-18T08:21:53Z</time>
</trkpt>
<trkpt lat="39.7453909" lon="3.1407614">
<ele>44.00</ele>
<time>2016-10-18T08:21:56Z</time>
</trkpt>
<trkpt lat="39.7452796" lon="3.1404962">
<ele>43.45</ele>
<time>2016-10-18T08:21:59Z</time>
</trkpt>
<trkpt lat="39.7451305" lon="3.1402422">
<ele>42.63</ele>
<time>2016-10-18T08:22:02Z</time>
</trkpt>
<trkpt lat="39.7449628" lon="3.1400021">
<ele>42.15</ele>
<time>2016-10-18T08:22:05Z</time>
</trkpt>
<trkpt lat="39.7447994" lon="3.1397703">
<ele>41.67</ele>
<time>2016-10-18T08:22:08Z</time>
</trkpt>
<trkpt lat="39.7446426" lon="3.1395458">
<ele>41.29</ele>
<time>2016-10-18T08:22:11Z</time>
</trkpt>
<trkpt lat="39.7444777" lon="3.1393103">
<ele>40.82</ele>
<time>2016-10-18T08:22:14Z</time>
</trkpt>
<trkpt lat="39.7443170" lon="3.1390729">
<ele>39.71</ele>
<time>2016-10-18T08:22:17Z</time>
</trkpt>
<trkpt lat="39.7441619" lon="3.1388228">
<ele>38.92</ele>
<time>2016-10-18T08:22:20Z</time>
</trkpt>
<trkpt lat="39.7440634" lon="3.1385328">
<ele>39.66</ele>
<time>2016-10-18T08:22:23Z</time>
</trkpt>
<trkpt lat="39.7439822" lon="3.1382375">
<ele>40.96</ele>
<time>2016-10-18T08:22:26Z</time>
</trkpt>
<trkpt lat="39.7438944" lon="3.1379277">
<ele>41.72</ele>
<time>2016-10-18T08:22:29Z</time>
</trkpt>
<trkpt lat="39.7438184" lon="3.1376366">
<ele>41.99</ele>
<time>2016-10-18T08:22:32Z</time>
</trkpt>
<trkpt lat="39.7437487" lon="3.1373408">
<ele>41.37</ele>
<time>2016-10-18T08:22:35Z</time>
</trkpt>
<trkpt lat="39.7436771" lon="3.1370621">
<ele>39.60</ele>
<time>2016-10-18T08:22:38Z</time>
</trkpt>
<trkpt lat="39.7436015" lon="3.1368144">
<ele>38.17</ele>
<time>2016-10-18T08:22:41Z</time>
</trkpt>
<trkpt lat="39.7435276" lon="3.1365721">
<ele>37.71</ele>
<time>2016-10-18T08:22:44Z</time>
</trkpt>
<trkpt lat="39.7434557" lon="3.1363049">
<ele>38.20</ele>
<time>2016-10-18T08:22:47Z</time>
</trkpt>
<trkpt lat="39.7433870" lon="3.1360398">
<ele>39.31</ele>
<time>2016-10-18T08:22:50Z</time>
</trkpt>
<trkpt lat="39.7433217" lon="3.1357815">
<ele>39.57</ele>
<time>2016-10-18T08:22:53Z</time>
</trkpt>
<trkpt lat="39.7432547" lon="3.1355247">
<ele>39.50</ele>
<time>2016-10-18T08:22:56Z</time>
</trkpt>
<trkpt lat="39.7431766" lon="3.1352470">
<ele>38.32</ele>
<time>2016-10-18T08:22:59Z</time>
</trkpt>
<trkpt lat="39.7431041" lon="3.1349858">
<ele>37.45</ele>
<time>2016-10-18T08:23:02Z</time>
</trkpt>
<trkpt lat="39.7430324" lon="3.1347386">
<ele>37.43</ele>
<time>2016-10-18T08:23:05Z</time>
</trkpt>
<trkpt lat="39.7429597" lon="3.1344847">
<ele>38.26</ele>
<time>2016-10-18T08:23:08Z</time>
</trkpt>
<trkpt lat="39.7428962" lon="3.1342385">
<ele>40.17</ele>
<time>2016-10-18T08:23:11Z</time>
</trkpt>
<trkpt lat="39.7428326" lon="3.1339994">
<ele>40.66</ele>
<time>2016-10-18T08:23:14Z</time>
</trkpt>
<trkpt lat="39.7427686" lon="3.1337483">
<ele>41.15</ele>
<time>2016-10-18T08:23:17Z</time>
</trkpt>
<trkpt lat="39.7427036" lon="3.1335157">
<ele>42.40</ele>
<time>2016-10-18T08:23:20Z</time>
</trkpt>
<trkpt lat="39.7426307" lon="3.1332488">
<ele>44.52</ele>
<time>2016-10-18T08:23:24Z</time>
</trkpt>
<trkpt lat="39.7425582" lon="3.1329683">
<ele>44.73</ele>
<time>2016-10-18T08:23:28Z</time>
</trkpt>
<trkpt lat="39.7424837" lon="3.1326883">
<ele>44.20</ele>
<time>2016-10-18T08:23:33Z</time>
</trkpt>
<trkpt lat="39.7424091" lon="3.1324277">
<ele>43.96</ele>
<time>2016-10-18T08:23:37Z</time>
</trkpt>
<trkpt lat="39.7423391" lon="3.1321761">
<ele>46.49</ele>
<time>2016-10-18T08:23:41Z</time>
</trkpt>
<trkpt lat="39.7422773" lon="3.1319392">
<ele>48.50</ele>
<time>2016-10-18T08:23:44Z</time>
</trkpt>
<trkpt lat="39.7422171" lon="3.1316961">
<ele>50.23</ele>
<time>2016-10-18T08:23:47Z</time>
</trkpt>
<trkpt lat="39.7421563" lon="3.1314632">
<ele>51.31</ele>
<time>2016-10-18T08:23:50Z</time>
</trkpt>
<trkpt lat="39.7420926" lon="3.1312272">
<ele>50.76</ele>
<time>2016-10-18T08:23:53Z</time>
</trkpt>
<trkpt lat="39.7420287" lon="3.1309913">
<ele>48.80</ele>
<time>2016-10-18T08:23:56Z</time>
</trkpt>
<trkpt lat="39.7419589" lon="3.1307605">
<ele>48.01</ele>
<time>2016-10-18T08:23:59Z</time>
</trkpt>
<trkpt lat="39.7418979" lon="3.1305362">
<ele>48.46</ele>
<time>2016-10-18T08:24:02Z</time>
</trkpt>
<trkpt lat="39.7418150" lon="3.1302387">
<ele>48.29</ele>
<time>2016-10-18T08:24:06Z</time>
</trkpt>
<trkpt lat="39.7417581" lon="3.1300124">
<ele>49.04</ele>
<time>2016-10-18T08:24:09Z</time>
</trkpt>
<trkpt lat="39.7416845" lon="3.1297408">
<ele>50.44</ele>
<time>2016-10-18T08:24:13Z</time>
</trkpt>
<trkpt lat="39.7416080" lon="3.1294800">
<ele>50.99</ele>
<time>2016-10-18T08:24:17Z</time>
</trkpt>
<trkpt lat="39.7415324" lon="3.1292088">
<ele>51.15</ele>
<time>2016-10-18T08:24:21Z</time>
</trkpt>
<trkpt lat="39.7414626" lon="3.1289733">
<ele>49.68</ele>
<time>2016-10-18T08:24:24Z</time>
</trkpt>
<trkpt lat="39.7413943" lon="3.1287340">
<ele>48.65</ele>
<time>2016-10-18T08:24:27Z</time>
</trkpt>
<trkpt lat="39.7413341" lon="3.1285054">
<ele>48.77</ele>
<time>2016-10-18T08:24:30Z</time>
</trkpt>
<trkpt lat="39.7412716" lon="3.1282594">
<ele>48.63</ele>
<time>2016-10-18T08:24:33Z</time>
</trkpt>
<trkpt lat="39.7412063" lon="3.1280040">
<ele>49.13</ele>
<time>2016-10-18T08:24:36Z</time>
</trkpt>
<trkpt lat="39.7411434" lon="3.1277320">
<ele>50.13</ele>
<time>2016-10-18T08:24:39Z</time>
</trkpt>
<trkpt lat="39.7410769" lon="3.1274611">
<ele>50.30</ele>
<time>2016-10-18T08:24:42Z</time>
</trkpt>
<trkpt lat="39.7410068" lon="3.1271963">
<ele>49.85</ele>
<time>2016-10-18T08:24:45Z</time>
</trkpt>
<trkpt lat="39.7409439" lon="3.1269484">
<ele>49.72</ele>
<time>2016-10-18T08:24:48Z</time>
</trkpt>
<trkpt lat="39.7408777" lon="3.1267054">
<ele>50.20</ele>
<time>2016-10-18T08:24:51Z</time>
</trkpt>
<trkpt lat="39.7408171" lon="3.1264735">
<ele>51.49</ele>
<time>2016-10-18T08:24:54Z</time>
</trkpt>
<trkpt lat="39.7407583" lon="3.1262491">
<ele>52.75</ele>
<time>2016-10-18T08:24:57Z</time>
</trkpt>
<trkpt lat="39.7406796" lon="3.1259696">
<ele>54.19</ele>
<time>2016-10-18T08:25:01Z</time>
</trkpt>
<trkpt lat="39.7406137" lon="3.1257395">
<ele>56.30</ele>
<time>2016-10-18T08:25:05Z</time>
</trkpt>
<trkpt lat="39.7405541" lon="3.1255144">
<ele>57.72</ele>
<time>2016-10-18T08:25:09Z</time>
</trkpt>
<trkpt lat="39.7404896" lon="3.1252531">
<ele>58.45</ele>
<time>2016-10-18T08:25:13Z</time>
</trkpt>
<trkpt lat="39.7404259" lon="3.1250050">
<ele>59.39</ele>
<time>2016-10-18T08:25:17Z</time>
</trkpt>
<trkpt lat="39.7403514" lon="3.1247673">
<ele>59.55</ele>
<time>2016-10-18T08:25:21Z</time>
</trkpt>
<trkpt lat="39.7402822" lon="3.1245365">
<ele>58.98</ele>
<time>2016-10-18T08:25:25Z</time>
</trkpt>
<trkpt lat="39.7402058" lon="3.1242796">
<ele>60.66</ele>
<time>2016-10-18T08:25:30Z</time>
</trkpt>
<trkpt lat="39.7401519" lon="3.1240261">
<ele>61.20</ele>
<time>2016-10-18T08:25:37Z</time>
</trkpt>
<trkpt lat="39.7401886" lon="3.1237086">
<ele>61.50</ele>
<time>2016-10-18T08:25:53Z</time>
</trkpt>
<trkpt lat="39.7400036" lon="3.1235430">
<ele>60.36</ele>
<time>2016-10-18T08:25:58Z</time>
</trkpt>
<trkpt lat="39.7398225" lon="3.1234353">
<ele>59.83</ele>
<time>2016-10-18T08:26:02Z</time>
</trkpt>
<trkpt lat="39.7396241" lon="3.1233321">
<ele>59.87</ele>
<time>2016-10-18T08:26:06Z</time>
</trkpt>
<trkpt lat="39.7394099" lon="3.1232062">
<ele>58.24</ele>
<time>2016-10-18T08:26:10Z</time>
</trkpt>
<trkpt lat="39.7392375" lon="3.1231034">
<ele>56.07</ele>
<time>2016-10-18T08:26:13Z</time>
</trkpt>
<trkpt lat="39.7390712" lon="3.1230060">
<ele>54.49</ele>
<time>2016-10-18T08:26:16Z</time>
</trkpt>
<trkpt lat="39.7388876" lon="3.1228966">
<ele>53.71</ele>
<time>2016-10-18T08:26:19Z</time>
</trkpt>
<trkpt lat="39.7387061" lon="3.1227909">
<ele>55.05</ele>
<time>2016-10-18T08:26:22Z</time>
</trkpt>
<trkpt lat="39.7385200" lon="3.1226851">
<ele>56.89</ele>
<time>2016-10-18T08:26:25Z</time>
</trkpt>
<trkpt lat="39.7383310" lon="3.1225801">
<ele>58.39</ele>
<time>2016-10-18T08:26:28Z</time>
</trkpt>
<trkpt lat="39.7381489" lon="3.1224819">
<ele>59.37</ele>
<time>2016-10-18T08:26:31Z</time>
</trkpt>
<trkpt lat="39.7379639" lon="3.1223796">
<ele>59.10</ele>
<time>2016-10-18T08:26:34Z</time>
</trkpt>
<trkpt lat="39.7377776" lon="3.1222769">
<ele>58.78</ele>
<time>2016-10-18T08:26:37Z</time>
</trkpt>
<trkpt lat="39.7375845" lon="3.1221719">
<ele>58.93</ele>
<time>2016-10-18T08:26:40Z</time>
</trkpt>
<trkpt lat="39.7374058" lon="3.1220738">
<ele>59.01</ele>
<time>2016-10-18T08:26:43Z</time>
</trkpt>
<trkpt lat="39.7372358" lon="3.1219752">
<ele>59.26</ele>
<time>2016-10-18T08:26:46Z</time>
</trkpt>
<trkpt lat="39.7370596" lon="3.1218772">
<ele>60.20</ele>
<time>2016-10-18T08:26:49Z</time>
</trkpt>
<trkpt lat="39.7368927" lon="3.1217840">
<ele>61.83</ele>
<time>2016-10-18T08:26:52Z</time>
</trkpt>
<trkpt lat="39.7367257" lon="3.1216871">
<ele>62.49</ele>
<time>2016-10-18T08:26:55Z</time>
</trkpt>
<trkpt lat="39.7365582" lon="3.1215855">
<ele>61.90</ele>
<time>2016-10-18T08:26:58Z</time>
</trkpt>
<trkpt lat="39.7363456" lon="3.1214529">
<ele>63.63</ele>
<time>2016-10-18T08:27:02Z</time>
</trkpt>
<trkpt lat="39.7361778" lon="3.1213565">
<ele>65.17</ele>
<time>2016-10-18T08:27:05Z</time>
</trkpt>
<trkpt lat="39.7360099" lon="3.1212606">
<ele>65.47</ele>
<time>2016-10-18T08:27:08Z</time>
</trkpt>
<trkpt lat="39.7358014" lon="3.1211376">
<ele>64.20</ele>
<time>2016-10-18T08:27:12Z</time>
</trkpt>
<trkpt lat="39.7356093" lon="3.1210137">
<ele>64.74</ele>
<time>2016-10-18T08:27:16Z</time>
</trkpt>
<trkpt lat="39.7354147" lon="3.1208947">
<ele>66.83</ele>
<time>2016-10-18T08:27:20Z</time>
</trkpt>
<trkpt lat="39.7352124" lon="3.1207727">
<ele>67.02</ele>
<time>2016-10-18T08:27:24Z</time>
</trkpt>
<trkpt lat="39.7350143" lon="3.1206497">
<ele>66.39</ele>
<time>2016-10-18T08:27:28Z</time>
</trkpt>
<trkpt lat="39.7348187" lon="3.1205306">
<ele>67.42</ele>
<time>2016-10-18T08:27:32Z</time>
</trkpt>
<trkpt lat="39.7346181" lon="3.1204049">
<ele>67.57</ele>
<time>2016-10-18T08:27:36Z</time>
</trkpt>
<trkpt lat="39.7344156" lon="3.1202864">
<ele>68.69</ele>
<time>2016-10-18T08:27:40Z</time>
</trkpt>
<trkpt lat="39.7342151" lon="3.1201666">
<ele>70.18</ele>
<time>2016-10-18T08:27:44Z</time>
</trkpt>
<trkpt lat="39.7340070" lon="3.1200422">
<ele>69.60</ele>
<time>2016-10-18T08:27:48Z</time>
</trkpt>
<trkpt lat="39.7337936" lon="3.1199158">
<ele>69.68</ele>
<time>2016-10-18T08:27:52Z</time>
</trkpt>
<trkpt lat="39.7336293" lon="3.1198169">
<ele>69.69</ele>
<time>2016-10-18T08:27:55Z</time>
</trkpt>
<trkpt lat="39.7334641" lon="3.1197180">
<ele>69.69</ele>
<time>2016-10-18T08:27:58Z</time>
</trkpt>
<trkpt lat="39.7332474" lon="3.1195903">
<ele>70.00</ele>
<time>2016-10-18T08:28:02Z</time>
</trkpt>
<trkpt lat="39.7330343" lon="3.1194619">
<ele>70.09</ele>
<time>2016-10-18T08:28:06Z</time>
</trkpt>
<trkpt lat="39.7328193" lon="3.1193308">
<ele>71.37</ele>
<time>2016-10-18T08:28:10Z</time>
</trkpt>
<trkpt lat="39.7326050" lon="3.1192075">
<ele>72.39</ele>
<time>2016-10-18T08:28:14Z</time>
</trkpt>
<trkpt lat="39.7323895" lon="3.1190803">
<ele>72.92</ele>
<time>2016-10-18T08:28:18Z</time>
</trkpt>
<trkpt lat="39.7321725" lon="3.1189633">
<ele>74.17</ele>
<time>2016-10-18T08:28:22Z</time>
</trkpt>
<trkpt lat="39.7319539" lon="3.1188647">
<ele>75.22</ele>
<time>2016-10-18T08:28:26Z</time>
</trkpt>
<trkpt lat="39.7317414" lon="3.1187710">
<ele>76.62</ele>
<time>2016-10-18T08:28:30Z</time>
</trkpt>
<trkpt lat="39.7315384" lon="3.1186763">
<ele>77.46</ele>
<time>2016-10-18T08:28:34Z</time>
</trkpt>
<trkpt lat="39.7313223" lon="3.1185723">
<ele>79.04</ele>
<time>2016-10-18T08:28:38Z</time>
</trkpt>
<trkpt lat="39.7311035" lon="3.1184564">
<ele>79.23</ele>
<time>2016-10-18T08:28:42Z</time>
</trkpt>
<trkpt lat="39.7308876" lon="3.1183375">
<ele>77.16</ele>
<time>2016-10-18T08:28:46Z</time>
</trkpt>
<trkpt lat="39.7306728" lon="3.1182096">
<ele>75.60</ele>
<time>2016-10-18T08:28:50Z</time>
</trkpt>
<trkpt lat="39.7304554" lon="3.1180778">
<ele>75.34</ele>
<time>2016-10-18T08:28:54Z</time>
</trkpt>
<trkpt lat="39.7302857" lon="3.1179752">
<ele>75.45</ele>
<time>2016-10-18T08:28:57Z</time>
</trkpt>
<trkpt lat="39.7301112" lon="3.1178649">
<ele>75.75</ele>
<time>2016-10-18T08:29:00Z</time>
</trkpt>
<trkpt lat="39.7299448" lon="3.1177584">
<ele>76.38</ele>
<time>2016-10-18T08:29:03Z</time>
</trkpt>
<trkpt lat="39.7297736" lon="3.1176580">
<ele>77.56</ele>
<time>2016-10-18T08:29:06Z</time>
</trkpt>
<trkpt lat="39.7296013" lon="3.1175523">
<ele>77.66</ele>
<time>2016-10-18T08:29:09Z</time>
</trkpt>
<trkpt lat="39.7293866" lon="3.1174147">
<ele>78.19</ele>
<time>2016-10-18T08:29:13Z</time>
</trkpt>
<trkpt lat="39.7292191" lon="3.1173144">
<ele>78.64</ele>
<time>2016-10-18T08:29:16Z</time>
</trkpt>
<trkpt lat="39.7290448" lon="3.1172115">
<ele>79.47</ele>
<time>2016-10-18T08:29:19Z</time>
</trkpt>
<trkpt lat="39.7288642" lon="3.1171020">
<ele>80.17</ele>
<time>2016-10-18T08:29:22Z</time>
</trkpt>
<trkpt lat="39.7286767" lon="3.1169917">
<ele>80.54</ele>
<time>2016-10-18T08:29:25Z</time>
</trkpt>
<trkpt lat="39.7284909" lon="3.1168792">
<ele>80.60</ele>
<time>2016-10-18T08:29:28Z</time>
</trkpt>
<trkpt lat="39.7283132" lon="3.1167661">
<ele>80.25</ele>
<time>2016-10-18T08:29:31Z</time>
</trkpt>
<trkpt lat="39.7281401" lon="3.1166587">
<ele>80.07</ele>
<time>2016-10-18T08:29:34Z</time>
</trkpt>
<trkpt lat="39.7279564" lon="3.1165497">
<ele>79.95</ele>
<time>2016-10-18T08:29:37Z</time>
</trkpt>
<trkpt lat="39.7277464" lon="3.1164194">
<ele>80.42</ele>
<time>2016-10-18T08:29:40Z</time>
</trkpt>
<trkpt lat="39.7275352" lon="3.1162966">
<ele>80.53</ele>
<time>2016-10-18T08:29:43Z</time>
</trkpt>
<trkpt lat="39.7273339" lon="3.1161771">
<ele>80.76</ele>
<time>2016-10-18T08:29:46Z</time>
</trkpt>
<trkpt lat="39.7271348" lon="3.1160554">
<ele>80.84</ele>
<time>2016-10-18T08:29:49Z</time>
</trkpt>
<trkpt lat="39.7269432" lon="3.1159379">
<ele>80.09</ele>
<time>2016-10-18T08:29:52Z</time>
</trkpt>
<trkpt lat="39.7267550" lon="3.1158418">
<ele>80.31</ele>
<time>2016-10-18T08:29:55Z</time>
</trkpt>
<trkpt lat="39.7265650" lon="3.1157681">
<ele>80.39</ele>
<time>2016-10-18T08:29:58Z</time>
</trkpt>
<trkpt lat="39.7263647" lon="3.1157105">
<ele>79.47</ele>
<time>2016-10-18T08:30:01Z</time>
</trkpt>
<trkpt lat="39.7261465" lon="3.1156694">
<ele>78.71</ele>
<time>2016-10-18T08:30:04Z</time>
</trkpt>
<trkpt lat="39.7259128" lon="3.1156234">
<ele>77.46</ele>
<time>2016-10-18T08:30:07Z</time>
</trkpt>
<trkpt lat="39.7256584" lon="3.1155816">
<ele>76.60</ele>
<time>2016-10-18T08:30:10Z</time>
</trkpt>
<trkpt lat="39.7253903" lon="3.1155250">
<ele>76.04</ele>
<time>2016-10-18T08:30:13Z</time>
</trkpt>
<trkpt lat="39.7252051" lon="3.1154670">
<ele>75.95</ele>
<time>2016-10-18T08:30:15Z</time>
</trkpt>
<trkpt lat="39.7250127" lon="3.1153849">
<ele>75.74</ele>
<time>2016-10-18T08:30:17Z</time>
</trkpt>
<trkpt lat="39.7248196" lon="3.1152776">
<ele>75.29</ele>
<time>2016-10-18T08:30:19Z</time>
</trkpt>
<trkpt lat="39.7246242" lon="3.1151358">
<ele>73.46</ele>
<time>2016-10-18T08:30:21Z</time>
</trkpt>
<trkpt lat="39.7244247" lon="3.1149822">
<ele>71.82</ele>
<time>2016-10-18T08:30:23Z</time>
</trkpt>
<trkpt lat="39.7242207" lon="3.1148158">
<ele>70.34</ele>
<time>2016-10-18T08:30:25Z</time>
</trkpt>
<trkpt lat="39.7240098" lon="3.1146418">
<ele>68.89</ele>
<time>2016-10-18T08:30:27Z</time>
</trkpt>
<trkpt lat="39.7237879" lon="3.1144559">
<ele>66.72</ele>
<time>2016-10-18T08:30:29Z</time>
</trkpt>
<trkpt lat="39.7235642" lon="3.1142684">
<ele>64.53</ele>
<time>2016-10-18T08:30:31Z</time>
</trkpt>
<trkpt lat="39.7233332" lon="3.1140766">
<ele>62.17</ele>
<time>2016-10-18T08:30:33Z</time>
</trkpt>
<trkpt lat="39.7231163" lon="3.1139015">
<ele>59.85</ele>
<time>2016-10-18T08:30:35Z</time>
</trkpt>
<trkpt lat="39.7228945" lon="3.1137251">
<ele>57.83</ele>
<time>2016-10-18T08:30:37Z</time>
</trkpt>
<trkpt lat="39.7226760" lon="3.1135501">
<ele>56.12</ele>
<time>2016-10-18T08:30:39Z</time>
</trkpt>
<trkpt lat="39.7224658" lon="3.1133856">
<ele>54.59</ele>
<time>2016-10-18T08:30:41Z</time>
</trkpt>
<trkpt lat="39.7222528" lon="3.1132175">
<ele>52.98</ele>
<time>2016-10-18T08:30:43Z</time>
</trkpt>
<trkpt lat="39.7220475" lon="3.1130572">
<ele>51.72</ele>
<time>2016-10-18T08:30:45Z</time>
</trkpt>
<trkpt lat="39.7218503" lon="3.1129063">
<ele>51.68</ele>
<time>2016-10-18T08:30:47Z</time>
</trkpt>
<trkpt lat="39.7216646" lon="3.1127577">
<ele>51.78</ele>
<time>2016-10-18T08:30:49Z</time>
</trkpt>
<trkpt lat="39.7214855" lon="3.1126123">
<ele>51.65</ele>
<time>2016-10-18T08:30:51Z</time>
</trkpt>
<trkpt lat="39.7213197" lon="3.1124782">
<ele>51.70</ele>
<time>2016-10-18T08:30:53Z</time>
</trkpt>
<trkpt lat="39.7211626" lon="3.1123535">
<ele>51.90</ele>
<time>2016-10-18T08:30:55Z</time>
</trkpt>
<trkpt lat="39.7210083" lon="3.1122297">
<ele>52.04</ele>
<time>2016-10-18T08:30:57Z</time>
</trkpt>
<trkpt lat="39.7207879" lon="3.1120519">
<ele>51.84</ele>
<time>2016-10-18T08:31:00Z</time>
</trkpt>
<trkpt lat="39.7205807" lon="3.1118841">
<ele>51.46</ele>
<time>2016-10-18T08:31:03Z</time>
</trkpt>
<trkpt lat="39.7203739" lon="3.1117254">
<ele>51.75</ele>
<time>2016-10-18T08:31:06Z</time>
</trkpt>
<trkpt lat="39.7201744" lon="3.1115592">
<ele>52.28</ele>
<time>2016-10-18T08:31:09Z</time>
</trkpt>
<trkpt lat="39.7199641" lon="3.1113875">
<ele>52.34</ele>
<time>2016-10-18T08:31:12Z</time>
</trkpt>
<trkpt lat="39.7197574" lon="3.1112236">
<ele>51.64</ele>
<time>2016-10-18T08:31:15Z</time>
</trkpt>
<trkpt lat="39.7195525" lon="3.1110651">
<ele>51.56</ele>
<time>2016-10-18T08:31:18Z</time>
</trkpt>
<trkpt lat="39.7193532" lon="3.1109132">
<ele>52.00</ele>
<time>2016-10-18T08:31:21Z</time>
</trkpt>
<trkpt lat="39.7191662" lon="3.1107718">
<ele>52.88</ele>
<time>2016-10-18T08:31:24Z</time>
</trkpt>
<trkpt lat="39.7189707" lon="3.1106168">
<ele>52.83</ele>
<time>2016-10-18T08:31:27Z</time>
</trkpt>
<trkpt lat="39.7187824" lon="3.1104748">
<ele>51.77</ele>
<time>2016-10-18T08:31:30Z</time>
</trkpt>
<trkpt lat="39.7185876" lon="3.1103489">
<ele>50.44</ele>
<time>2016-10-18T08:31:33Z</time>
</trkpt>
<trkpt lat="39.7183970" lon="3.1102475">
<ele>50.51</ele>
<time>2016-10-18T08:31:36Z</time>
</trkpt>
<trkpt lat="39.7182149" lon="3.1101589">
<ele>51.54</ele>
<time>2016-10-18T08:31:39Z</time>
</trkpt>
<trkpt lat="39.7180317" lon="3.1100750">
<ele>52.41</ele>
<time>2016-10-18T08:31:42Z</time>
</trkpt>
<trkpt lat="39.7178513" lon="3.1099988">
<ele>53.29</ele>
<time>2016-10-18T08:31:45Z</time>
</trkpt>
<trkpt lat="39.7176650" lon="3.1099202">
<ele>53.93</ele>
<time>2016-10-18T08:31:48Z</time>
</trkpt>
<trkpt lat="39.7174830" lon="3.1098430">
<ele>54.85</ele>
<time>2016-10-18T08:31:51Z</time>
</trkpt>
<trkpt lat="39.7173005" lon="3.1097626">
<ele>55.02</ele>
<time>2016-10-18T08:31:54Z</time>
</trkpt>
<trkpt lat="39.7171149" lon="3.1096821">
<ele>55.32</ele>
<time>2016-10-18T08:31:57Z</time>
</trkpt>
<trkpt lat="39.7169266" lon="3.1096026">
<ele>56.15</ele>
<time>2016-10-18T08:32:00Z</time>
</trkpt>
<trkpt lat="39.7167447" lon="3.1095241">
<ele>56.60</ele>
<time>2016-10-18T08:32:03Z</time>
</trkpt>
<trkpt lat="39.7165648" lon="3.1094522">
<ele>56.36</ele>
<time>2016-10-18T08:32:05Z</time>
</trkpt>
<trkpt lat="39.7163806" lon="3.1094012">
<ele>56.12</ele>
<time>2016-10-18T08:32:08Z</time>
</trkpt>
<trkpt lat="39.7161785" lon="3.1093768">
<ele>56.25</ele>
<time>2016-10-18T08:32:11Z</time>
</trkpt>
<trkpt lat="39.7159880" lon="3.1093621">
<ele>56.43</ele>
<time>2016-10-18T08:32:14Z</time>
</trkpt>
<trkpt lat="39.7158060" lon="3.1093477">
<ele>57.04</ele>
<time>2016-10-18T08:32:17Z</time>
</trkpt>
<trkpt lat="39.7156166" lon="3.1093305">
<ele>58.07</ele>
<time>2016-10-18T08:32:20Z</time>
</trkpt>
<trkpt lat="39.7153854" lon="3.1093099">
<ele>57.47</ele>
<time>2016-10-18T08:32:24Z</time>
</trkpt>
<trkpt lat="39.7151814" lon="3.1092942">
<ele>59.22</ele>
<time>2016-10-18T08:32:28Z</time>
</trkpt>
<trkpt lat="39.7149912" lon="3.1092765">
<ele>59.99</ele>
<time>2016-10-18T08:32:32Z</time>
</trkpt>
<trkpt lat="39.7147970" lon="3.1092653">
<ele>61.92</ele>
<time>2016-10-18T08:32:36Z</time>
</trkpt>
<trkpt lat="39.7145897" lon="3.1092401">
<ele>61.54</ele>
<time>2016-10-18T08:32:40Z</time>
</trkpt>
<trkpt lat="39.7143880" lon="3.1092152">
<ele>61.75</ele>
<time>2016-10-18T08:32:44Z</time>
</trkpt>
<trkpt lat="39.7141656" lon="3.1091885">
<ele>64.20</ele>
<time>2016-10-18T08:32:49Z</time>
</trkpt>
<trkpt lat="39.7139723" lon="3.1091555">
<ele>65.26</ele>
<time>2016-10-18T08:32:53Z</time>
</trkpt>
<trkpt lat="39.7137737" lon="3.1091132">
<ele>66.05</ele>
<time>2016-10-18T08:32:57Z</time>
</trkpt>
<trkpt lat="39.7135717" lon="3.1090517">
<ele>67.92</ele>
<time>2016-10-18T08:33:01Z</time>
</trkpt>
<trkpt lat="39.7133786" lon="3.1089769">
<ele>70.53</ele>
<time>2016-10-18T08:33:05Z</time>
</trkpt>
<trkpt lat="39.7131834" lon="3.1088702">
<ele>72.89</ele>
<time>2016-10-18T08:33:09Z</time>
</trkpt>
<trkpt lat="39.7130231" lon="3.1087641">
<ele>74.17</ele>
<time>2016-10-18T08:33:12Z</time>
</trkpt>
<trkpt lat="39.7128580" lon="3.1086526">
<ele>74.19</ele>
<time>2016-10-18T08:33:15Z</time>
</trkpt>
<trkpt lat="39.7126853" lon="3.1085294">
<ele>73.74</ele>
<time>2016-10-18T08:33:18Z</time>
</trkpt>
<trkpt lat="39.7124749" lon="3.1083720">
<ele>73.32</ele>
<time>2016-10-18T08:33:22Z</time>
</trkpt>
<trkpt lat="39.7123149" lon="3.1082518">
<ele>73.17</ele>
<time>2016-10-18T08:33:25Z</time>
</trkpt>
<trkpt lat="39.7121112" lon="3.1080969">
<ele>72.68</ele>
<time>2016-10-18T08:33:29Z</time>
</trkpt>
<trkpt lat="39.7119210" lon="3.1079479">
<ele>71.95</ele>
<time>2016-10-18T08:33:33Z</time>
</trkpt>
<trkpt lat="39.7117368" lon="3.1078088">
<ele>72.92</ele>
<time>2016-10-18T08:33:37Z</time>
</trkpt>
<trkpt lat="39.7115303" lon="3.1076652">
<ele>72.76</ele>
<time>2016-10-18T08:33:41Z</time>
</trkpt>
<trkpt lat="39.7113477" lon="3.1075421">
<ele>73.32</ele>
<time>2016-10-18T08:33:45Z</time>
</trkpt>
<trkpt lat="39.7111765" lon="3.1074299">
<ele>72.44</ele>
<time>2016-10-18T08:33:49Z</time>
</trkpt>
<trkpt lat="39.7109776" lon="3.1073072">
<ele>72.38</ele>
<time>2016-10-18T08:33:54Z</time>
</trkpt>
<trkpt lat="39.7108135" lon="3.1072068">
<ele>74.38</ele>
<time>2016-10-18T08:33:58Z</time>
</trkpt>
<trkpt lat="39.7105941" lon="3.1070846">
<ele>76.40</ele>
<time>2016-10-18T08:34:02Z</time>
</trkpt>
<trkpt lat="39.7104173" lon="3.1069754">
<ele>76.75</ele>
<time>2016-10-18T08:34:05Z</time>
</trkpt>
<trkpt lat="39.7102235" lon="3.1068528">
<ele>75.90</ele>
<time>2016-10-18T08:34:08Z</time>
</trkpt>
<trkpt lat="39.7100187" lon="3.1067084">
<ele>74.78</ele>
<time>2016-10-18T08:34:11Z</time>
</trkpt>
<trkpt lat="39.7097996" lon="3.1065395">
<ele>73.89</ele>
<time>2016-10-18T08:34:14Z</time>
</trkpt>
<trkpt lat="39.7096410" lon="3.1063998">
<ele>73.58</ele>
<time>2016-10-18T08:34:16Z</time>
</trkpt>
<trkpt lat="39.7094959" lon="3.1062550">
<ele>73.11</ele>
<time>2016-10-18T08:34:18Z</time>
</trkpt>
<trkpt lat="39.7093556" lon="3.1061004">
<ele>71.48</ele>
<time>2016-10-18T08:34:20Z</time>
</trkpt>
<trkpt lat="39.7092025" lon="3.1059222">
<ele>69.47</ele>
<time>2016-10-18T08:34:22Z</time>
</trkpt>
<trkpt lat="39.7090401" lon="3.1057361">
<ele>68.38</ele>
<time>2016-10-18T08:34:24Z</time>
</trkpt>
<trkpt lat="39.7088984" lon="3.1055653">
<ele>67.04</ele>
<time>2016-10-18T08:34:26Z</time>
</trkpt>
<trkpt lat="39.7087535" lon="3.1053845">
<ele>66.11</ele>
<time>2016-10-18T08:34:28Z</time>
</trkpt>
<trkpt lat="39.7086072" lon="3.1052092">
<ele>65.53</ele>
<time>2016-10-18T08:34:30Z</time>
</trkpt>
<trkpt lat="39.7084651" lon="3.1050419">
<ele>65.45</ele>
<time>2016-10-18T08:34:32Z</time>
</trkpt>
<trkpt lat="39.7083253" lon="3.1048775">
<ele>65.19</ele>
<time>2016-10-18T08:34:34Z</time>
</trkpt>
<trkpt lat="39.7081544" lon="3.1046664">
<ele>65.13</ele>
<time>2016-10-18T08:34:37Z</time>
</trkpt>
<trkpt lat="39.7080172" lon="3.1044810">
<ele>64.77</ele>
<time>2016-10-18T08:34:41Z</time>
</trkpt>
<trkpt lat="39.7081153" lon="3.1042729">
<ele>61.80</ele>
<time>2016-10-18T08:34:46Z</time>
</trkpt>
<trkpt lat="39.7082839" lon="3.1041445">
<ele>59.51</ele>
<time>2016-10-18T08:34:49Z</time>
</trkpt>
<trkpt lat="39.7084633" lon="3.1040517">
<ele>58.77</ele>
<time>2016-10-18T08:34:52Z</time>
</trkpt>
<trkpt lat="39.7086846" lon="3.1040245">
<ele>58.76</ele>
<time>2016-10-18T08:34:55Z</time>
</trkpt>
<trkpt lat="39.7088775" lon="3.1038903">
<ele>58.30</ele>
<time>2016-10-18T08:34:58Z</time>
</trkpt>
<trkpt lat="39.7090082" lon="3.1036615">
<ele>58.20</ele>
<time>2016-10-18T08:35:01Z</time>
</trkpt>
<trkpt lat="39.7091374" lon="3.1034301">
<ele>58.38</ele>
<time>2016-10-18T08:35:04Z</time>
</trkpt>
<trkpt lat="39.7093142" lon="3.1033625">
<ele>59.11</ele>
<time>2016-10-18T08:35:07Z</time>
</trkpt>
<trkpt lat="39.7094928" lon="3.1034411">
<ele>59.25</ele>
<time>2016-10-18T08:35:10Z</time>
</trkpt>
<trkpt lat="39.7096603" lon="3.1035388">
<ele>59.63</ele>
<time>2016-10-18T08:35:13Z</time>
</trkpt>
<trkpt lat="39.7098276" lon="3.1036485">
<ele>58.69</ele>
<time>2016-10-18T08:35:16Z</time>
</trkpt>
<trkpt lat="39.7100199" lon="3.1037987">
<ele>57.69</ele>
<time>2016-10-18T08:35:19Z</time>
</trkpt>
<trkpt lat="39.7102148" lon="3.1039581">
<ele>57.38</ele>
<time>2016-10-18T08:35:22Z</time>
</trkpt>
<trkpt lat="39.7103943" lon="3.1039315">
<ele>57.49</ele>
<time>2016-10-18T08:35:25Z</time>
</trkpt>
<trkpt lat="39.7106174" lon="3.1039201">
<ele>57.47</ele>
<time>2016-10-18T08:35:29Z</time>
</trkpt>
<trkpt lat="39.7107578" lon="3.1040877">
<ele>57.70</ele>
<time>2016-10-18T08:35:32Z</time>
</trkpt>
<trkpt lat="39.7109131" lon="3.1042649">
<ele>57.02</ele>
<time>2016-10-18T08:35:35Z</time>
</trkpt>
<trkpt lat="39.7110923" lon="3.1043652">
<ele>56.05</ele>
<time>2016-10-18T08:35:38Z</time>
</trkpt>
<trkpt lat="39.7112852" lon="3.1043176">
<ele>55.10</ele>
<time>2016-10-18T08:35:41Z</time>
</trkpt>
<trkpt lat="39.7115075" lon="3.1042276">
<ele>55.46</ele>
<time>2016-10-18T08:35:44Z</time>
</trkpt>
<trkpt lat="39.7117210" lon="3.1041220">
<ele>56.11</ele>
<time>2016-10-18T08:35:47Z</time>
</trkpt>
<trkpt lat="39.7119220" lon="3.1040271">
<ele>56.34</ele>
<time>2016-10-18T08:35:50Z</time>
</trkpt>
<trkpt lat="39.7121270" lon="3.1039417">
<ele>55.84</ele>
<time>2016-10-18T08:35:53Z</time>
</trkpt>
<trkpt lat="39.7123027" lon="3.1038308">
<ele>54.88</ele>
<time>2016-10-18T08:35:56Z</time>
</trkpt>
<trkpt lat="39.7124574" lon="3.1036450">
<ele>54.93</ele>
<time>2016-10-18T08:35:59Z</time>
</trkpt>
<trkpt lat="39.7125879" lon="3.1034441">
<ele>55.29</ele>
<time>2016-10-18T08:36:02Z</time>
</trkpt>
<trkpt lat="39.7127170" lon="3.1032716">
<ele>55.21</ele>
<time>2016-10-18T08:36:05Z</time>
</trkpt>
<trkpt lat="39.7129444" lon="3.1033304">
<ele>55.22</ele>
<time>2016-10-18T08:36:09Z</time>
</trkpt>
<trkpt lat="39.7131240" lon="3.1034744">
<ele>54.28</ele>
<time>2016-10-18T08:36:12Z</time>
</trkpt>
<trkpt lat="39.7133059" lon="3.1036330">
<ele>53.59</ele>
<time>2016-10-18T08:36:15Z</time>
</trkpt>
<trkpt lat="39.7134895" lon="3.1037962">
<ele>53.58</ele>
<time>2016-10-18T08:36:18Z</time>
</trkpt>
<trkpt lat="39.7136580" lon="3.1039574">
<ele>54.21</ele>
<time>2016-10-18T08:36:21Z</time>
</trkpt>
<trkpt lat="39.7138347" lon="3.1041186">
<ele>54.54</ele>
<time>2016-10-18T08:36:24Z</time>
</trkpt>
<trkpt lat="39.7140142" lon="3.1042617">
<ele>54.72</ele>
<time>2016-10-18T08:36:27Z</time>
</trkpt>
<trkpt lat="39.7141877" lon="3.1043798">
<ele>55.12</ele>
<time>2016-10-18T08:36:30Z</time>
</trkpt>
<trkpt lat="39.7143541" lon="3.1044897">
<ele>55.27</ele>
<time>2016-10-18T08:36:33Z</time>
</trkpt>
<trkpt lat="39.7145744" lon="3.1045934">
<ele>54.81</ele>
<time>2016-10-18T08:36:37Z</time>
</trkpt>
<trkpt lat="39.7147639" lon="3.1044594">
<ele>54.48</ele>
<time>2016-10-18T08:36:41Z</time>
</trkpt>
<trkpt lat="39.7149066" lon="3.1042200">
<ele>54.06</ele>
<time>2016-10-18T08:36:45Z</time>
</trkpt>
<trkpt lat="39.7150125" lon="3.1040154">
<ele>54.84</ele>
<time>2016-10-18T08:36:48Z</time>
</trkpt>
<trkpt lat="39.7151492" lon="3.1037497">
<ele>55.14</ele>
<time>2016-10-18T08:36:52Z</time>
</trkpt>
<trkpt lat="39.7152704" lon="3.1035228">
<ele>54.39</ele>
<time>2016-10-18T08:36:55Z</time>
</trkpt>
<trkpt lat="39.7153945" lon="3.1032983">
<ele>53.15</ele>
<time>2016-10-18T08:36:58Z</time>
</trkpt>
<trkpt lat="39.7155208" lon="3.1030769">
<ele>52.18</ele>
<time>2016-10-18T08:37:01Z</time>
</trkpt>
<trkpt lat="39.7156392" lon="3.1028553">
<ele>51.74</ele>
<time>2016-10-18T08:37:04Z</time>
</trkpt>
<trkpt lat="39.7157563" lon="3.1026327">
<ele>52.21</ele>
<time>2016-10-18T08:37:07Z</time>
</trkpt>
<trkpt lat="39.7158612" lon="3.1024218">
<ele>53.21</ele>
<time>2016-10-18T08:37:10Z</time>
</trkpt>
<trkpt lat="39.7159708" lon="3.1022088">
<ele>53.61</ele>
<time>2016-10-18T08:37:13Z</time>
</trkpt>
<trkpt lat="39.7160908" lon="3.1019748">
<ele>53.41</ele>
<time>2016-10-18T08:37:16Z</time>
</trkpt>
<trkpt lat="39.7162160" lon="3.1017515">
<ele>53.50</ele>
<time>2016-10-18T08:37:19Z</time>
</trkpt>
<trkpt lat="39.7163445" lon="3.1015272">
<ele>53.72</ele>
<time>2016-10-18T08:37:22Z</time>
</trkpt>
<trkpt lat="39.7165145" lon="3.1013073">
<ele>53.04</ele>
<time>2016-10-18T08:37:25Z</time>
</trkpt>
<trkpt lat="39.7167056" lon="3.1011166">
<ele>52.14</ele>
<time>2016-10-18T08:37:28Z</time>
</trkpt>
<trkpt lat="39.7168952" lon="3.1009464">
<ele>52.14</ele>
<time>2016-10-18T08:37:31Z</time>
</trkpt>
<trkpt lat="39.7170851" lon="3.1007693">
<ele>51.70</ele>
<time>2016-10-18T08:37:34Z</time>
</trkpt>
<trkpt lat="39.7172778" lon="3.1005959">
<ele>51.39</ele>
<time>2016-10-18T08:37:37Z</time>
</trkpt>
<trkpt lat="39.7174548" lon="3.1004284">
<ele>51.09</ele>
<time>2016-10-18T08:37:40Z</time>
</trkpt>
<trkpt lat="39.7176265" lon="3.1002642">
<ele>51.06</ele>
<time>2016-10-18T08:37:43Z</time>
</trkpt>
<trkpt lat="39.7177974" lon="3.1001015">
<ele>50.97</ele>
<time>2016-10-18T08:37:46Z</time>
</trkpt>
<trkpt lat="39.7179611" lon="3.0999586">
<ele>50.75</ele>
<time>2016-10-18T08:37:49Z</time>
</trkpt>
<trkpt lat="39.7181285" lon="3.0998222">
<ele>51.00</ele>
<time>2016-10-18T08:37:52Z</time>
</trkpt>
<trkpt lat="39.7182879" lon="3.0997075">
<ele>51.67</ele>
<time>2016-10-18T08:37:55Z</time>
</trkpt>
<trkpt lat="39.7184896" lon="3.0995693">
<ele>52.26</ele>
<time>2016-10-18T08:37:59Z</time>
</trkpt>
<trkpt lat="39.7187050" lon="3.0994675">
<ele>52.30</ele>
<time>2016-10-18T08:38:03Z</time>
</trkpt>
<trkpt lat="39.7189245" lon="3.0995602">
<ele>51.98</ele>
<time>2016-10-18T08:38:07Z</time>
</trkpt>
<trkpt lat="39.7190917" lon="3.0996796">
<ele>51.33</ele>
<time>2016-10-18T08:38:10Z</time>
</trkpt>
<trkpt lat="39.7192706" lon="3.0998037">
<ele>50.85</ele>
<time>2016-10-18T08:38:13Z</time>
</trkpt>
<trkpt lat="39.7194468" lon="3.0999350">
<ele>50.03</ele>
<time>2016-10-18T08:38:16Z</time>
</trkpt>
<trkpt lat="39.7196096" lon="3.1000604">
<ele>49.54</ele>
<time>2016-10-18T08:38:19Z</time>
</trkpt>
<trkpt lat="39.7198007" lon="3.1002082">
<ele>49.72</ele>
<time>2016-10-18T08:38:23Z</time>
</trkpt>
<trkpt lat="39.7200058" lon="3.1002285">
<ele>50.36</ele>
<time>2016-10-18T08:38:27Z</time>
</trkpt>
<trkpt lat="39.7201909" lon="3.1000301">
<ele>51.16</ele>
<time>2016-10-18T08:38:31Z</time>
</trkpt>
<trkpt lat="39.7203344" lon="3.0998660">
<ele>51.13</ele>
<time>2016-10-18T08:38:34Z</time>
</trkpt>
<trkpt lat="39.7204869" lon="3.0997340">
<ele>51.14</ele>
<time>2016-10-18T08:38:37Z</time>
</trkpt>
<trkpt lat="39.7207213" lon="3.0997737">
<ele>51.01</ele>
<time>2016-10-18T08:38:41Z</time>
</trkpt>
<trkpt lat="39.7208969" lon="3.0998258">
<ele>52.01</ele>
<time>2016-10-18T08:38:44Z</time>
</trkpt>
<trkpt lat="39.7210747" lon="3.0998809">
<ele>52.82</ele>
<time>2016-10-18T08:38:47Z</time>
</trkpt>
<trkpt lat="39.7212536" lon="3.0999316">
<ele>52.27</ele>
<time>2016-10-18T08:38:50Z</time>
</trkpt>
<trkpt lat="39.7214527" lon="3.0999958">
<ele>52.89</ele>
<time>2016-10-18T08:38:54Z</time>
</trkpt>
<trkpt lat="39.7216531" lon="3.1000591">
<ele>53.89</ele>
<time>2016-10-18T08:38:58Z</time>
</trkpt>
<trkpt lat="39.7218516" lon="3.1001195">
<ele>54.16</ele>
<time>2016-10-18T08:39:02Z</time>
</trkpt>
<trkpt lat="39.7220331" lon="3.1001678">
<ele>55.74</ele>
<time>2016-10-18T08:39:06Z</time>
</trkpt>
<trkpt lat="39.7222165" lon="3.1002149">
<ele>57.93</ele>
<time>2016-10-18T08:39:10Z</time>
</trkpt>
<trkpt lat="39.7223956" lon="3.1001473">
<ele>59.29</ele>
<time>2016-10-18T08:39:14Z</time>
</trkpt>
<trkpt lat="39.7225527" lon="3.0999464">
<ele>59.68</ele>
<time>2016-10-18T08:39:18Z</time>
</trkpt>
<trkpt lat="39.7227390" lon="3.0998735">
<ele>57.47</ele>
<time>2016-10-18T08:39:21Z</time>
</trkpt>
<trkpt lat="39.7229282" lon="3.0999045">
<ele>55.86</ele>
<time>2016-10-18T08:39:24Z</time>
</trkpt>
<trkpt lat="39.7231293" lon="3.0999667">
<ele>55.17</ele>
<time>2016-10-18T08:39:27Z</time>
</trkpt>
<trkpt lat="39.7233323" lon="3.1000317">
<ele>54.76</ele>
<time>2016-10-18T08:39:30Z</time>
</trkpt>
<trkpt lat="39.7235323" lon="3.1000922">
<ele>53.75</ele>
<time>2016-10-18T08:39:33Z</time>
</trkpt>
<trkpt lat="39.7237315" lon="3.1001514">
<ele>52.75</ele>
<time>2016-10-18T08:39:36Z</time>
</trkpt>
<trkpt lat="39.7239308" lon="3.1002135">
<ele>52.17</ele>
<time>2016-10-18T08:39:39Z</time>
</trkpt>
<trkpt lat="39.7241241" lon="3.1002770">
<ele>52.08</ele>
<time>2016-10-18T08:39:42Z</time>
</trkpt>
<trkpt lat="39.7243270" lon="3.1003427">
<ele>51.90</ele>
<time>2016-10-18T08:39:45Z</time>
</trkpt>
<trkpt lat="39.7245315" lon="3.1004096">
<ele>51.75</ele>
<time>2016-10-18T08:39:48Z</time>
</trkpt>
<trkpt lat="39.7247257" lon="3.1004704">
<ele>51.92</ele>
<time>2016-10-18T08:39:51Z</time>
</trkpt>
<trkpt lat="39.7249138" lon="3.1005323">
<ele>52.41</ele>
<time>2016-10-18T08:39:54Z</time>
</trkpt>
<trkpt lat="39.7250981" lon="3.1005998">
<ele>52.95</ele>
<time>2016-10-18T08:39:57Z</time>
</trkpt>
<trkpt lat="39.7252828" lon="3.1006624">
<ele>53.47</ele>
<time>2016-10-18T08:40:00Z</time>
</trkpt>
<trkpt lat="39.7254576" lon="3.1007192">
<ele>53.89</ele>
<time>2016-10-18T08:40:03Z</time>
</trkpt>
<trkpt lat="39.7256323" lon="3.1007770">
<ele>54.14</ele>
<time>2016-10-18T08:40:06Z</time>
</trkpt>
<trkpt lat="39.7258106" lon="3.1008433">
<ele>54.12</ele>
<time>2016-10-18T08:40:09Z</time>
</trkpt>
<trkpt lat="39.7260329" lon="3.1009215">
<ele>53.38</ele>
<time>2016-10-18T08:40:13Z</time>
</trkpt>
<trkpt lat="39.7262325" lon="3.1009914">
<ele>53.64</ele>
<time>2016-10-18T08:40:17Z</time>
</trkpt>
<trkpt lat="39.7264394" lon="3.1010716">
<ele>55.03</ele>
<time>2016-10-18T08:40:21Z</time>
</trkpt>
<trkpt lat="39.7266489" lon="3.1011505">
<ele>56.24</ele>
<time>2016-10-18T08:40:25Z</time>
</trkpt>
<trkpt lat="39.7268687" lon="3.1012281">
<ele>57.57</ele>
<time>2016-10-18T08:40:29Z</time>
</trkpt>
<trkpt lat="39.7270769" lon="3.1012971">
<ele>57.70</ele>
<time>2016-10-18T08:40:33Z</time>
</trkpt>
<trkpt lat="39.7272536" lon="3.1013609">
<ele>58.82</ele>
<time>2016-10-18T08:40:38Z</time>
</trkpt>
<trkpt lat="39.7274306" lon="3.1014177">
<ele>59.63</ele>
<time>2016-10-18T08:40:42Z</time>
</trkpt>
<trkpt lat="39.7276386" lon="3.1014848">
<ele>60.64</ele>
<time>2016-10-18T08:40:47Z</time>
</trkpt>
<trkpt lat="39.7277919" lon="3.1013190">
<ele>61.20</ele>
<time>2016-10-18T08:40:52Z</time>
</trkpt>
<trkpt lat="39.7278690" lon="3.1010936">
<ele>61.00</ele>
<time>2016-10-18T08:40:56Z</time>
</trkpt>
<trkpt lat="39.7279419" lon="3.1008206">
<ele>61.97</ele>
<time>2016-10-18T08:41:00Z</time>
</trkpt>
<trkpt lat="39.7280158" lon="3.1005307">
<ele>62.07</ele>
<time>2016-10-18T08:41:04Z</time>
</trkpt>
<trkpt lat="39.7280940" lon="3.1002639">
<ele>63.21</ele>
<time>2016-10-18T08:41:08Z</time>
</trkpt>
<trkpt lat="39.7281838" lon="3.0999763">
<ele>64.29</ele>
<time>2016-10-18T08:41:12Z</time>
</trkpt>
<trkpt lat="39.7282491" lon="3.0997403">
<ele>64.89</ele>
<time>2016-10-18T08:41:15Z</time>
</trkpt>
<trkpt lat="39.7283139" lon="3.0995138">
<ele>65.65</ele>
<time>2016-10-18T08:41:18Z</time>
</trkpt>
<trkpt lat="39.7283774" lon="3.0992762">
<ele>66.12</ele>
<time>2016-10-18T08:41:21Z</time>
</trkpt>
<trkpt lat="39.7284431" lon="3.0990397">
<ele>66.34</ele>
<time>2016-10-18T08:41:24Z</time>
</trkpt>
<trkpt lat="39.7285088" lon="3.0988019">
<ele>66.56</ele>
<time>2016-10-18T08:41:27Z</time>
</trkpt>
<trkpt lat="39.7285741" lon="3.0985650">
<ele>66.56</ele>
<time>2016-10-18T08:41:30Z</time>
</trkpt>
<trkpt lat="39.7286340" lon="3.0983363">
<ele>66.71</ele>
<time>2016-10-18T08:41:33Z</time>
</trkpt>
<trkpt lat="39.7287074" lon="3.0980543">
<ele>67.21</ele>
<time>2016-10-18T08:41:37Z</time>
</trkpt>
<trkpt lat="39.7287668" lon="3.0978303">
<ele>67.21</ele>
<time>2016-10-18T08:41:40Z</time>
</trkpt>
<trkpt lat="39.7288223" lon="3.0975948">
<ele>66.61</ele>
<time>2016-10-18T08:41:43Z</time>
</trkpt>
<trkpt lat="39.7288836" lon="3.0973477">
<ele>66.21</ele>
<time>2016-10-18T08:41:46Z</time>
</trkpt>
<trkpt lat="39.7289344" lon="3.0971159">
<ele>66.05</ele>
<time>2016-10-18T08:41:49Z</time>
</trkpt>
<trkpt lat="39.7289683" lon="3.0968705">
<ele>66.20</ele>
<time>2016-10-18T08:41:52Z</time>
</trkpt>
<trkpt lat="39.7289899" lon="3.0966210">
<ele>66.67</ele>
<time>2016-10-18T08:41:55Z</time>
</trkpt>
<trkpt lat="39.7290059" lon="3.0963670">
<ele>66.78</ele>
<time>2016-10-18T08:41:58Z</time>
</trkpt>
<trkpt lat="39.7290262" lon="3.0960980">
<ele>66.39</ele>
<time>2016-10-18T08:42:01Z</time>
</trkpt>
<trkpt lat="39.7290495" lon="3.0958106">
<ele>64.72</ele>
<time>2016-10-18T08:42:04Z</time>
</trkpt>
<trkpt lat="39.7290717" lon="3.0955223">
<ele>62.46</ele>
<time>2016-10-18T08:42:07Z</time>
</trkpt>
<trkpt lat="39.7290922" lon="3.0952685">
<ele>62.60</ele>
<time>2016-10-18T08:42:10Z</time>
</trkpt>
<trkpt lat="39.7291332" lon="3.0950022">
<ele>62.49</ele>
<time>2016-10-18T08:42:13Z</time>
</trkpt>
<trkpt lat="39.7291975" lon="3.0947387">
<ele>61.67</ele>
<time>2016-10-18T08:42:16Z</time>
</trkpt>
<trkpt lat="39.7292749" lon="3.0944462">
<ele>60.05</ele>
<time>2016-10-18T08:42:19Z</time>
</trkpt>
<trkpt lat="39.7293300" lon="3.0941152">
<ele>58.68</ele>
<time>2016-10-18T08:42:22Z</time>
</trkpt>
<trkpt lat="39.7293684" lon="3.0937743">
<ele>57.05</ele>
<time>2016-10-18T08:42:25Z</time>
</trkpt>
<trkpt lat="39.7294116" lon="3.0934410">
<ele>55.72</ele>
<time>2016-10-18T08:42:28Z</time>
</trkpt>
<trkpt lat="39.7294519" lon="3.0931251">
<ele>56.03</ele>
<time>2016-10-18T08:42:31Z</time>
</trkpt>
<trkpt lat="39.7294913" lon="3.0928092">
<ele>56.42</ele>
<time>2016-10-18T08:42:34Z</time>
</trkpt>
<trkpt lat="39.7295451" lon="3.0924958">
<ele>56.10</ele>
<time>2016-10-18T08:42:37Z</time>
</trkpt>
<trkpt lat="39.7296049" lon="3.0921861">
<ele>55.38</ele>
<time>2016-10-18T08:42:40Z</time>
</trkpt>
<trkpt lat="39.7296572" lon="3.0918571">
<ele>55.03</ele>
<time>2016-10-18T08:42:43Z</time>
</trkpt>
<trkpt lat="39.7296924" lon="3.0915358">
<ele>54.39</ele>
<time>2016-10-18T08:42:46Z</time>
</trkpt>
<trkpt lat="39.7297214" lon="3.0912332">
<ele>53.68</ele>
<time>2016-10-18T08:42:49Z</time>
</trkpt>
<trkpt lat="39.7297436" lon="3.0909268">
<ele>53.21</ele>
<time>2016-10-18T08:42:52Z</time>
</trkpt>
<trkpt lat="39.7297620" lon="3.0906154">
<ele>52.62</ele>
<time>2016-10-18T08:42:55Z</time>
</trkpt>
<trkpt lat="39.7297922" lon="3.0903069">
<ele>51.79</ele>
<time>2016-10-18T08:42:58Z</time>
</trkpt>
<trkpt lat="39.7298358" lon="3.0900189">
<ele>51.72</ele>
<time>2016-10-18T08:43:01Z</time>
</trkpt>
<trkpt lat="39.7298902" lon="3.0897309">
<ele>51.62</ele>
<time>2016-10-18T08:43:04Z</time>
</trkpt>
<trkpt lat="39.7299488" lon="3.0894554">
<ele>51.76</ele>
<time>2016-10-18T08:43:07Z</time>
</trkpt>
<trkpt lat="39.7300094" lon="3.0891734">
<ele>52.19</ele>
<time>2016-10-18T08:43:10Z</time>
</trkpt>
<trkpt lat="39.7300721" lon="3.0889062">
<ele>53.57</ele>
<time>2016-10-18T08:43:13Z</time>
</trkpt>
<trkpt lat="39.7301301" lon="3.0886268">
<ele>54.46</ele>
<time>2016-10-18T08:43:16Z</time>
</trkpt>
<trkpt lat="39.7301888" lon="3.0883322">
<ele>54.81</ele>
<time>2016-10-18T08:43:19Z</time>
</trkpt>
<trkpt lat="39.7302488" lon="3.0880535">
<ele>55.75</ele>
<time>2016-10-18T08:43:22Z</time>
</trkpt>
<trkpt lat="39.7303101" lon="3.0877850">
<ele>56.78</ele>
<time>2016-10-18T08:43:25Z</time>
</trkpt>
<trkpt lat="39.7303708" lon="3.0875145">
<ele>57.60</ele>
<time>2016-10-18T08:43:28Z</time>
</trkpt>
<trkpt lat="39.7304223" lon="3.0872497">
<ele>57.58</ele>
<time>2016-10-18T08:43:31Z</time>
</trkpt>
<trkpt lat="39.7304796" lon="3.0870067">
<ele>56.58</ele>
<time>2016-10-18T08:43:34Z</time>
</trkpt>
<trkpt lat="39.7305509" lon="3.0867716">
<ele>56.08</ele>
<time>2016-10-18T08:43:37Z</time>
</trkpt>
<trkpt lat="39.7306328" lon="3.0865142">
<ele>55.68</ele>
<time>2016-10-18T08:43:40Z</time>
</trkpt>
<trkpt lat="39.7306977" lon="3.0862576">
<ele>55.39</ele>
<time>2016-10-18T08:43:43Z</time>
</trkpt>
<trkpt lat="39.7307539" lon="3.0860014">
<ele>55.47</ele>
<time>2016-10-18T08:43:46Z</time>
</trkpt>
<trkpt lat="39.7308123" lon="3.0857255">
<ele>53.69</ele>
<time>2016-10-18T08:43:49Z</time>
</trkpt>
<trkpt lat="39.7308813" lon="3.0854279">
<ele>51.87</ele>
<time>2016-10-18T08:43:52Z</time>
</trkpt>
<trkpt lat="39.7309465" lon="3.0851478">
<ele>50.45</ele>
<time>2016-10-18T08:43:55Z</time>
</trkpt>
<trkpt lat="39.7310377" lon="3.0848740">
<ele>49.21</ele>
<time>2016-10-18T08:43:58Z</time>
</trkpt>
<trkpt lat="39.7311308" lon="3.0846357">
<ele>49.61</ele>
<time>2016-10-18T08:44:01Z</time>
</trkpt>
<trkpt lat="39.7312242" lon="3.0843830">
<ele>49.72</ele>
<time>2016-10-18T08:44:04Z</time>
</trkpt>
<trkpt lat="39.7313248" lon="3.0841092">
<ele>49.74</ele>
<time>2016-10-18T08:44:07Z</time>
</trkpt>
<trkpt lat="39.7314254" lon="3.0838481">
<ele>50.80</ele>
<time>2016-10-18T08:44:10Z</time>
</trkpt>
<trkpt lat="39.7315314" lon="3.0835734">
<ele>53.18</ele>
<time>2016-10-18T08:44:13Z</time>
</trkpt>
<trkpt lat="39.7316352" lon="3.0833211">
<ele>54.47</ele>
<time>2016-10-18T08:44:16Z</time>
</trkpt>
<trkpt lat="39.7317345" lon="3.0830872">
<ele>53.99</ele>
<time>2016-10-18T08:44:19Z</time>
</trkpt>
<trkpt lat="39.7318327" lon="3.0828375">
<ele>54.00</ele>
<time>2016-10-18T08:44:22Z</time>
</trkpt>
<trkpt lat="39.7319420" lon="3.0825659">
<ele>54.03</ele>
<time>2016-10-18T08:44:25Z</time>
</trkpt>
<trkpt lat="39.7320516" lon="3.0822955">
<ele>53.53</ele>
<time>2016-10-18T08:44:28Z</time>
</trkpt>
<trkpt lat="39.7321276" lon="3.0820477">
<ele>53.88</ele>
<time>2016-10-18T08:44:31Z</time>
</trkpt>
<trkpt lat="39.7322075" lon="3.0817933">
<ele>54.30</ele>
<time>2016-10-18T08:44:34Z</time>
</trkpt>
<trkpt lat="39.7322918" lon="3.0815399">
<ele>54.78</ele>
<time>2016-10-18T08:44:37Z</time>
</trkpt>
<trkpt lat="39.7323809" lon="3.0812973">
<ele>55.53</ele>
<time>2016-10-18T08:44:40Z</time>
</trkpt>
<trkpt lat="39.7324757" lon="3.0810501">
<ele>55.20</ele>
<time>2016-10-18T08:44:43Z</time>
</trkpt>
<trkpt lat="39.7325755" lon="3.0808032">
<ele>53.80</ele>
<time>2016-10-18T08:44:46Z</time>
</trkpt>
<trkpt lat="39.7326765" lon="3.0805699">
<ele>52.90</ele>
<time>2016-10-18T08:44:49Z</time>
</trkpt>
<trkpt lat="39.7327865" lon="3.0803369">
<ele>52.16</ele>
<time>2016-10-18T08:44:52Z</time>
</trkpt>
<trkpt lat="39.7328760" lon="3.0800978">
<ele>52.16</ele>
<time>2016-10-18T08:44:55Z</time>
</trkpt>
<trkpt lat="39.7329434" lon="3.0798268">
<ele>51.63</ele>
<time>2016-10-18T08:44:58Z</time>
</trkpt>
<trkpt lat="39.7330013" lon="3.0795977">
<ele>52.08</ele>
<time>2016-10-18T08:45:01Z</time>
</trkpt>
<trkpt lat="39.7330780" lon="3.0793548">
<ele>53.70</ele>
<time>2016-10-18T08:45:04Z</time>
</trkpt>
<trkpt lat="39.7331513" lon="3.0791113">
<ele>53.76</ele>
<time>2016-10-18T08:45:07Z</time>
</trkpt>
<trkpt lat="39.7332232" lon="3.0788746">
<ele>52.12</ele>
<time>2016-10-18T08:45:10Z</time>
</trkpt>
<trkpt lat="39.7333036" lon="3.0786222">
<ele>50.55</ele>
<time>2016-10-18T08:45:13Z</time>
</trkpt>
<trkpt lat="39.7333834" lon="3.0783829">
<ele>50.20</ele>
<time>2016-10-18T08:45:16Z</time>
</trkpt>
<trkpt lat="39.7334673" lon="3.0781505">
<ele>50.50</ele>
<time>2016-10-18T08:45:19Z</time>
</trkpt>
<trkpt lat="39.7335626" lon="3.0779239">
<ele>51.16</ele>
<time>2016-10-18T08:45:22Z</time>
</trkpt>
<trkpt lat="39.7336373" lon="3.0776869">
<ele>52.00</ele>
<time>2016-10-18T08:45:25Z</time>
</trkpt>
<trkpt lat="39.7336877" lon="3.0774343">
<ele>52.60</ele>
<time>2016-10-18T08:45:28Z</time>
</trkpt>
<trkpt lat="39.7337320" lon="3.0771825">
<ele>52.99</ele>
<time>2016-10-18T08:45:31Z</time>
</trkpt>
<trkpt lat="39.7337654" lon="3.0769261">
<ele>53.41</ele>
<time>2016-10-18T08:45:34Z</time>
</trkpt>
<trkpt lat="39.7337990" lon="3.0766757">
<ele>52.92</ele>
<time>2016-10-18T08:45:37Z</time>
</trkpt>
<trkpt lat="39.7338323" lon="3.0764300">
<ele>52.44</ele>
<time>2016-10-18T08:45:40Z</time>
</trkpt>
<trkpt lat="39.7338656" lon="3.0761886">
<ele>52.49</ele>
<time>2016-10-18T08:45:43Z</time>
</trkpt>
<trkpt lat="39.7339145" lon="3.0758864">
<ele>53.68</ele>
<time>2016-10-18T08:45:47Z</time>
</trkpt>
<trkpt lat="39.7339550" lon="3.0756582">
<ele>54.03</ele>
<time>2016-10-18T08:45:50Z</time>
</trkpt>
<trkpt lat="39.7340015" lon="3.0753788">
<ele>54.94</ele>
<time>2016-10-18T08:45:54Z</time>
</trkpt>
<trkpt lat="39.7340473" lon="3.0751050">
<ele>55.85</ele>
<time>2016-10-18T08:45:58Z</time>
</trkpt>
<trkpt lat="39.7340917" lon="3.0748376">
<ele>56.61</ele>
<time>2016-10-18T08:46:02Z</time>
</trkpt>
<trkpt lat="39.7341410" lon="3.0745854">
<ele>56.31</ele>
<time>2016-10-18T08:46:06Z</time>
</trkpt>
<trkpt lat="39.7341812" lon="3.0743421">
<ele>55.46</ele>
<time>2016-10-18T08:46:10Z</time>
</trkpt>
<trkpt lat="39.7342243" lon="3.0740909">
<ele>57.42</ele>
<time>2016-10-18T08:46:15Z</time>
</trkpt>
<trkpt lat="39.7342719" lon="3.0738514">
<ele>58.06</ele>
<time>2016-10-18T08:46:20Z</time>
</trkpt>
<trkpt lat="39.7342920" lon="3.0736073">
<ele>58.71</ele>
<time>2016-10-18T08:46:27Z</time>
</trkpt>
<trkpt lat="39.7342048" lon="3.0733760">
<ele>59.86</ele>
<time>2016-10-18T08:46:34Z</time>
</trkpt>
<trkpt lat="39.7340869" lon="3.0731850">
<ele>62.19</ele>
<time>2016-10-18T08:46:40Z</time>
</trkpt>
<trkpt lat="39.7339436" lon="3.0730153">
<ele>65.70</ele>
<time>2016-10-18T08:46:45Z</time>
</trkpt>
<trkpt lat="39.7337900" lon="3.0728341">
<ele>70.96</ele>
<time>2016-10-18T08:46:51Z</time>
</trkpt>
<trkpt lat="39.7336476" lon="3.0726747">
<ele>71.67</ele>
<time>2016-10-18T08:46:56Z</time>
</trkpt>
<trkpt lat="39.7334607" lon="3.0725085">
<ele>70.47</ele>
<time>2016-10-18T08:47:01Z</time>
</trkpt>
<trkpt lat="39.7333543" lon="3.0723134">
<ele>71.30</ele>
<time>2016-10-18T08:47:05Z</time>
</trkpt>
<trkpt lat="39.7332819" lon="3.0720857">
<ele>73.42</ele>
<time>2016-10-18T08:47:09Z</time>
</trkpt>
<trkpt lat="39.7332075" lon="3.0718537">
<ele>73.93</ele>
<time>2016-10-18T08:47:13Z</time>
</trkpt>
<trkpt lat="39.7331224" lon="3.0715869">
<ele>73.52</ele>
<time>2016-10-18T08:47:18Z</time>
</trkpt>
<trkpt lat="39.7330472" lon="3.0713140">
<ele>76.29</ele>
<time>2016-10-18T08:47:23Z</time>
</trkpt>
<trkpt lat="39.7329313" lon="3.0711025">
<ele>78.16</ele>
<time>2016-10-18T08:47:28Z</time>
</trkpt>
<trkpt lat="39.7328347" lon="3.0708801">
<ele>78.16</ele>
<time>2016-10-18T08:47:33Z</time>
</trkpt>
<trkpt lat="39.7328881" lon="3.0706198">
<ele>76.92</ele>
<time>2016-10-18T08:47:38Z</time>
</trkpt>
<trkpt lat="39.7330099" lon="3.0704218">
<ele>76.52</ele>
<time>2016-10-18T08:47:43Z</time>
</trkpt>
<trkpt lat="39.7331323" lon="3.0702402">
<ele>75.24</ele>
<time>2016-10-18T08:47:47Z</time>
</trkpt>
<trkpt lat="39.7332846" lon="3.0700145">
<ele>75.22</ele>
<time>2016-10-18T08:47:51Z</time>
</trkpt>
<trkpt lat="39.7334014" lon="3.0698116">
<ele>75.09</ele>
<time>2016-10-18T08:47:54Z</time>
</trkpt>
<trkpt lat="39.7335201" lon="3.0695898">
<ele>74.78</ele>
<time>2016-10-18T08:47:57Z</time>
</trkpt>
<trkpt lat="39.7336429" lon="3.0693938">
<ele>73.41</ele>
<time>2016-10-18T08:48:00Z</time>
</trkpt>
<trkpt lat="39.7337626" lon="3.0691893">
<ele>72.31</ele>
<time>2016-10-18T08:48:03Z</time>
</trkpt>
<trkpt lat="39.7338769" lon="3.0689322">
<ele>71.96</ele>
<time>2016-10-18T08:48:06Z</time>
</trkpt>
<trkpt lat="39.7339820" lon="3.0686377">
<ele>70.95</ele>
<time>2016-10-18T08:48:09Z</time>
</trkpt>
<trkpt lat="39.7340536" lon="3.0683069">
<ele>69.32</ele>
<time>2016-10-18T08:48:12Z</time>
</trkpt>
<trkpt lat="39.7340953" lon="3.0680762">
<ele>68.03</ele>
<time>2016-10-18T08:48:14Z</time>
</trkpt>
<trkpt lat="39.7341393" lon="3.0678280">
<ele>66.73</ele>
<time>2016-10-18T08:48:16Z</time>
</trkpt>
<trkpt lat="39.7341976" lon="3.0675750">
<ele>65.58</ele>
<time>2016-10-18T08:48:18Z</time>
</trkpt>
<trkpt lat="39.7342821" lon="3.0673333">
<ele>64.11</ele>
<time>2016-10-18T08:48:20Z</time>
</trkpt>
<trkpt lat="39.7343953" lon="3.0671157">
<ele>62.43</ele>
<time>2016-10-18T08:48:22Z</time>
</trkpt>
<trkpt lat="39.7345372" lon="3.0668991">
<ele>61.28</ele>
<time>2016-10-18T08:48:24Z</time>
</trkpt>
<trkpt lat="39.7346775" lon="3.0666649">
<ele>60.68</ele>
<time>2016-10-18T08:48:26Z</time>
</trkpt>
<trkpt lat="39.7348026" lon="3.0664380">
<ele>59.85</ele>
<time>2016-10-18T08:48:28Z</time>
</trkpt>
<trkpt lat="39.7349232" lon="3.0662123">
<ele>58.29</ele>
<time>2016-10-18T08:48:30Z</time>
</trkpt>
<trkpt lat="39.7350446" lon="3.0659820">
<ele>56.65</ele>
<time>2016-10-18T08:48:32Z</time>
</trkpt>
<trkpt lat="39.7351533" lon="3.0657734">
<ele>55.88</ele>
<time>2016-10-18T08:48:34Z</time>
</trkpt>
<trkpt lat="39.7352921" lon="3.0654739">
<ele>55.64</ele>
<time>2016-10-18T08:48:37Z</time>
</trkpt>
<trkpt lat="39.7354111" lon="3.0651770">
<ele>55.60</ele>
<time>2016-10-18T08:48:40Z</time>
</trkpt>
<trkpt lat="39.7355264" lon="3.0648800">
<ele>56.16</ele>
<time>2016-10-18T08:48:43Z</time>
</trkpt>
<trkpt lat="39.7356196" lon="3.0646294">
<ele>56.74</ele>
<time>2016-10-18T08:48:46Z</time>
</trkpt>
<trkpt lat="39.7357146" lon="3.0643476">
<ele>58.73</ele>
<time>2016-10-18T08:48:50Z</time>
</trkpt>
<trkpt lat="39.7357945" lon="3.0641131">
<ele>59.93</ele>
<time>2016-10-18T08:48:53Z</time>
</trkpt>
<trkpt lat="39.7358569" lon="3.0638281">
<ele>59.64</ele>
<time>2016-10-18T08:48:56Z</time>
</trkpt>
<trkpt lat="39.7358738" lon="3.0635092">
<ele>57.45</ele>
<time>2016-10-18T08:48:59Z</time>
</trkpt>
<trkpt lat="39.7358594" lon="3.0631915">
<ele>56.14</ele>
<time>2016-10-18T08:49:01Z</time>
</trkpt>
<trkpt lat="39.7358262" lon="3.0629009">
<ele>55.77</ele>
<time>2016-10-18T08:49:04Z</time>
</trkpt>
<trkpt lat="39.7357679" lon="3.0626474">
<ele>56.59</ele>
<time>2016-10-18T08:49:07Z</time>
</trkpt>
<trkpt lat="39.7356933" lon="3.0623564">
<ele>57.07</ele>
<time>2016-10-18T08:49:11Z</time>
</trkpt>
<trkpt lat="39.7356606" lon="3.0621201">
<ele>57.50</ele>
<time>2016-10-18T08:49:15Z</time>
</trkpt>
<trkpt lat="39.7356420" lon="3.0618433">
<ele>58.25</ele>
<time>2016-10-18T08:49:20Z</time>
</trkpt>
<trkpt lat="39.7356206" lon="3.0615833">
<ele>58.32</ele>
<time>2016-10-18T08:49:26Z</time>
</trkpt>
<trkpt lat="39.7355986" lon="3.0613156">
<ele>58.43</ele>
<time>2016-10-18T08:49:33Z</time>
</trkpt>
<trkpt lat="39.7355869" lon="3.0610780">
<ele>58.71</ele>
<time>2016-10-18T08:49:39Z</time>
</trkpt>
<trkpt lat="39.7355712" lon="3.0608303">
<ele>59.01</ele>
<time>2016-10-18T08:49:46Z</time>
</trkpt>
<trkpt lat="39.7355476" lon="3.0605823">
<ele>59.56</ele>
<time>2016-10-18T08:49:53Z</time>
</trkpt>
<trkpt lat="39.7355181" lon="3.0603134">
<ele>60.69</ele>
<time>2016-10-18T08:50:00Z</time>
</trkpt>
<trkpt lat="39.7354948" lon="3.0600731">
<ele>61.65</ele>
<time>2016-10-18T08:50:07Z</time>
</trkpt>
<trkpt lat="39.7354964" lon="3.0597849">
<ele>62.36</ele>
<time>2016-10-18T08:50:17Z</time>
</trkpt>
<trkpt lat="39.7354499" lon="3.0595400">
<ele>62.53</ele>
<time>2016-10-18T08:50:27Z</time>
</trkpt>
<trkpt lat="39.7354886" lon="3.0592796">
<ele>64.38</ele>
<time>2016-10-18T08:50:35Z</time>
</trkpt>
<trkpt lat="39.7355707" lon="3.0590686">
<ele>69.06</ele>
<time>2016-10-18T08:50:46Z</time>
</trkpt>
<trkpt lat="39.7353762" lon="3.0589976">
<ele>70.87</ele>
<time>2016-10-18T08:50:53Z</time>
</trkpt>
<trkpt lat="39.7352046" lon="3.0591279">
<ele>74.53</ele>
<time>2016-10-18T08:50:58Z</time>
</trkpt>
<trkpt lat="39.7350110" lon="3.0591953">
<ele>81.44</ele>
<time>2016-10-18T08:51:03Z</time>
</trkpt>
<trkpt lat="39.7348133" lon="3.0592697">
<ele>84.12</ele>
<time>2016-10-18T08:51:08Z</time>
</trkpt>
<trkpt lat="39.7346054" lon="3.0593410">
<ele>83.77</ele>
<time>2016-10-18T08:51:13Z</time>
</trkpt>
<trkpt lat="39.7343901" lon="3.0593994">
<ele>82.15</ele>
<time>2016-10-18T08:51:17Z</time>
</trkpt>
<trkpt lat="39.7341778" lon="3.0594800">
<ele>78.61</ele>
<time>2016-10-18T08:51:22Z</time>
</trkpt>
<trkpt lat="39.7339778" lon="3.0595567">
<ele>76.88</ele>
<time>2016-10-18T08:51:27Z</time>
</trkpt>
<trkpt lat="39.7337810" lon="3.0595990">
<ele>76.62</ele>
<time>2016-10-18T08:51:31Z</time>
</trkpt>
<trkpt lat="39.7336015" lon="3.0597099">
<ele>77.39</ele>
<time>2016-10-18T08:51:35Z</time>
</trkpt>
<trkpt lat="39.7334033" lon="3.0597743">
<ele>79.34</ele>
<time>2016-10-18T08:51:39Z</time>
</trkpt>
<trkpt lat="39.7331932" lon="3.0597964">
<ele>83.68</ele>
<time>2016-10-18T08:51:43Z</time>
</trkpt>
<trkpt lat="39.7329951" lon="3.0598081">
<ele>87.39</ele>
<time>2016-10-18T08:51:47Z</time>
</trkpt>
<trkpt lat="39.7328053" lon="3.0597117">
<ele>90.60</ele>
<time>2016-10-18T08:51:52Z</time>
</trkpt>
<trkpt lat="39.7326992" lon="3.0594950">
<ele>89.95</ele>
<time>2016-10-18T08:51:58Z</time>
</trkpt>
<trkpt lat="39.7327828" lon="3.0592710">
<ele>87.93</ele>
<time>2016-10-18T08:52:03Z</time>
</trkpt>
<trkpt lat="39.7328900" lon="3.0590415">
<ele>85.02</ele>
<time>2016-10-18T08:52:08Z</time>
</trkpt>
<trkpt lat="39.7330053" lon="3.0588517">
<ele>84.60</ele>
<time>2016-10-18T08:52:16Z</time>
</trkpt>
<trkpt lat="39.7328008" lon="3.0588008">
<ele>84.04</ele>
<time>2016-10-18T08:52:34Z</time>
</trkpt>
<trkpt lat="39.7325988" lon="3.0588110">
<ele>83.68</ele>
<time>2016-10-18T08:52:40Z</time>
</trkpt>
<trkpt lat="39.7324015" lon="3.0588123">
<ele>82.10</ele>
<time>2016-10-18T08:52:45Z</time>
</trkpt>
<trkpt lat="39.7321923" lon="3.0588224">
<ele>79.42</ele>
<time>2016-10-18T08:52:49Z</time>
</trkpt>
<trkpt lat="39.7319901" lon="3.0588373">
<ele>79.09</ele>
<time>2016-10-18T08:52:54Z</time>
</trkpt>
<trkpt lat="39.7318030" lon="3.0588341">
<ele>79.13</ele>
<time>2016-10-18T08:52:59Z</time>
</trkpt>
<trkpt lat="39.7316035" lon="3.0588429">
<ele>83.44</ele>
<time>2016-10-18T08:53:05Z</time>
</trkpt>
<trkpt lat="39.7314147" lon="3.0588251">
<ele>85.12</ele>
<time>2016-10-18T08:53:46Z</time>
</trkpt>
<trkpt lat="39.7312369" lon="3.0588780">
<ele>89.09</ele>
<time>2016-10-18T08:53:52Z</time>
</trkpt>
<trkpt lat="39.7310178" lon="3.0589227">
<ele>89.65</ele>
<time>2016-10-18T08:53:57Z</time>
</trkpt>
<trkpt lat="39.7307878" lon="3.0589539">
<ele>88.14</ele>
<time>2016-10-18T08:54:01Z</time>
</trkpt>
<trkpt lat="39.7305542" lon="3.0589827">
<ele>88.29</ele>
<time>2016-10-18T08:54:05Z</time>
</trkpt>
<trkpt lat="39.7303351" lon="3.0590415">
<ele>87.70</ele>
<time>2016-10-18T08:54:09Z</time>
</trkpt>
<trkpt lat="39.7301433" lon="3.0590728">
<ele>87.01</ele>
<time>2016-10-18T08:54:12Z</time>
</trkpt>
<trkpt lat="39.7299338" lon="3.0591290">
<ele>87.30</ele>
<time>2016-10-18T08:54:16Z</time>
</trkpt>
<trkpt lat="39.7297413" lon="3.0591844">
<ele>86.47</ele>
<time>2016-10-18T08:54:20Z</time>
</trkpt>
<trkpt lat="39.7295241" lon="3.0591793">
<ele>84.44</ele>
<time>2016-10-18T08:54:25Z</time>
</trkpt>
<trkpt lat="39.7293188" lon="3.0590905">
<ele>82.54</ele>
<time>2016-10-18T08:54:30Z</time>
</trkpt>
<trkpt lat="39.7291376" lon="3.0590137">
<ele>81.58</ele>
<time>2016-10-18T08:54:34Z</time>
</trkpt>
<trkpt lat="39.7289591" lon="3.0589348">
<ele>81.04</ele>
<time>2016-10-18T08:54:38Z</time>
</trkpt>
<trkpt lat="39.7287445" lon="3.0588479">
<ele>79.57</ele>
<time>2016-10-18T08:54:42Z</time>
</trkpt>
<trkpt lat="39.7285308" lon="3.0587503">
<ele>77.30</ele>
<time>2016-10-18T08:54:46Z</time>
</trkpt>
<trkpt lat="39.7283468" lon="3.0586789">
<ele>76.77</ele>
<time>2016-10-18T08:54:49Z</time>
</trkpt>
<trkpt lat="39.7281223" lon="3.0585951">
<ele>77.04</ele>
<time>2016-10-18T08:54:53Z</time>
</trkpt>
<trkpt lat="39.7279367" lon="3.0585233">
<ele>76.67</ele>
<time>2016-10-18T08:54:56Z</time>
</trkpt>
<trkpt lat="39.7277569" lon="3.0584461">
<ele>76.39</ele>
<time>2016-10-18T08:54:59Z</time>
</trkpt>
<trkpt lat="39.7275749" lon="3.0583709">
<ele>75.91</ele>
<time>2016-10-18T08:55:02Z</time>
</trkpt>
<trkpt lat="39.7273908" lon="3.0582908">
<ele>75.01</ele>
<time>2016-10-18T08:55:05Z</time>
</trkpt>
<trkpt lat="39.7272056" lon="3.0582146">
<ele>74.49</ele>
<time>2016-10-18T08:55:08Z</time>
</trkpt>
<trkpt lat="39.7270335" lon="3.0581372">
<ele>73.74</ele>
<time>2016-10-18T08:55:11Z</time>
</trkpt>
<trkpt lat="39.7268481" lon="3.0580621">
<ele>73.32</ele>
<time>2016-10-18T08:55:14Z</time>
</trkpt>
<trkpt lat="39.7266552" lon="3.0579891">
<ele>73.95</ele>
<time>2016-10-18T08:55:17Z</time>
</trkpt>
<trkpt lat="39.7264625" lon="3.0579206">
<ele>75.15</ele>
<time>2016-10-18T08:55:20Z</time>
</trkpt>
<trkpt lat="39.7262355" lon="3.0578375">
<ele>75.20</ele>
<time>2016-10-18T08:55:24Z</time>
</trkpt>
<trkpt lat="39.7260289" lon="3.0577435">
<ele>74.44</ele>
<time>2016-10-18T08:55:28Z</time>
</trkpt>
<trkpt lat="39.7258292" lon="3.0576605">
<ele>73.99</ele>
<time>2016-10-18T08:55:32Z</time>
</trkpt>
<trkpt lat="39.7256124" lon="3.0575859">
<ele>73.09</ele>
<time>2016-10-18T08:55:37Z</time>
</trkpt>
<trkpt lat="39.7254333" lon="3.0575142">
<ele>72.73</ele>
<time>2016-10-18T08:55:41Z</time>
</trkpt>
<trkpt lat="39.7252458" lon="3.0574374">
<ele>72.44</ele>
<time>2016-10-18T08:55:45Z</time>
</trkpt>
<trkpt lat="39.7250409" lon="3.0573558">
<ele>73.08</ele>
<time>2016-10-18T08:55:49Z</time>
</trkpt>
<trkpt lat="39.7248456" lon="3.0572789">
<ele>75.28</ele>
<time>2016-10-18T08:55:53Z</time>
</trkpt>
<trkpt lat="39.7246451" lon="3.0571987">
<ele>74.09</ele>
<time>2016-10-18T08:55:57Z</time>
</trkpt>
<trkpt lat="39.7244304" lon="3.0571170">
<ele>73.99</ele>
<time>2016-10-18T08:56:01Z</time>
</trkpt>
<trkpt lat="39.7242530" lon="3.0570533">
<ele>73.40</ele>
<time>2016-10-18T08:56:04Z</time>
</trkpt>
<trkpt lat="39.7240563" lon="3.0569809">
<ele>72.56</ele>
<time>2016-10-18T08:56:07Z</time>
</trkpt>
<trkpt lat="39.7238537" lon="3.0569045">
<ele>72.91</ele>
<time>2016-10-18T08:56:10Z</time>
</trkpt>
<trkpt lat="39.7236684" lon="3.0568378">
<ele>74.64</ele>
<time>2016-10-18T08:56:13Z</time>
</trkpt>
<trkpt lat="39.7234920" lon="3.0567657">
<ele>74.43</ele>
<time>2016-10-18T08:56:17Z</time>
</trkpt>
<trkpt lat="39.7233106" lon="3.0567082">
<ele>72.76</ele>
<time>2016-10-18T08:57:50Z</time>
</trkpt>
<trkpt lat="39.7231289" lon="3.0566322">
<ele>72.86</ele>
<time>2016-10-18T08:57:57Z</time>
</trkpt>
<trkpt lat="39.7229351" lon="3.0565691">
<ele>73.02</ele>
<time>2016-10-18T08:58:03Z</time>
</trkpt>
<trkpt lat="39.7227640" lon="3.0564917">
<ele>73.47</ele>
<time>2016-10-18T08:58:08Z</time>
</trkpt>
<trkpt lat="39.7225558" lon="3.0564039">
<ele>72.18</ele>
<time>2016-10-18T08:58:13Z</time>
</trkpt>
<trkpt lat="39.7223745" lon="3.0563296">
<ele>71.70</ele>
<time>2016-10-18T08:58:17Z</time>
</trkpt>
<trkpt lat="39.7221589" lon="3.0562382">
<ele>70.28</ele>
<time>2016-10-18T08:58:22Z</time>
</trkpt>
<trkpt lat="39.7219625" lon="3.0561596">
<ele>69.92</ele>
<time>2016-10-18T08:58:26Z</time>
</trkpt>
<trkpt lat="39.7217719" lon="3.0560800">
<ele>70.45</ele>
<time>2016-10-18T08:58:30Z</time>
</trkpt>
<trkpt lat="39.7215587" lon="3.0559974">
<ele>71.35</ele>
<time>2016-10-18T08:58:34Z</time>
</trkpt>
<trkpt lat="39.7213504" lon="3.0559276">
<ele>73.22</ele>
<time>2016-10-18T08:58:38Z</time>
</trkpt>
<trkpt lat="39.7211271" lon="3.0558401">
<ele>74.42</ele>
<time>2016-10-18T08:58:42Z</time>
</trkpt>
<trkpt lat="39.7209454" lon="3.0557659">
<ele>74.77</ele>
<time>2016-10-18T08:58:45Z</time>
</trkpt>
<trkpt lat="39.7207600" lon="3.0556921">
<ele>76.11</ele>
<time>2016-10-18T08:58:48Z</time>
</trkpt>
<trkpt lat="39.7205738" lon="3.0556204">
<ele>76.95</ele>
<time>2016-10-18T08:58:51Z</time>
</trkpt>
<trkpt lat="39.7203828" lon="3.0555405">
<ele>76.99</ele>
<time>2016-10-18T08:58:54Z</time>
</trkpt>
<trkpt lat="39.7201999" lon="3.0554636">
<ele>77.10</ele>
<time>2016-10-18T08:58:57Z</time>
</trkpt>
<trkpt lat="39.7200074" lon="3.0553835">
<ele>77.61</ele>
<time>2016-10-18T08:59:00Z</time>
</trkpt>
<trkpt lat="39.7198286" lon="3.0553081">
<ele>77.78</ele>
<time>2016-10-18T08:59:03Z</time>
</trkpt>
<trkpt lat="39.7196442" lon="3.0552354">
<ele>78.33</ele>
<time>2016-10-18T08:59:06Z</time>
</trkpt>
<trkpt lat="39.7194535" lon="3.0551560">
<ele>77.79</ele>
<time>2016-10-18T08:59:09Z</time>
</trkpt>
<trkpt lat="39.7192797" lon="3.0550888">
<ele>77.39</ele>
<time>2016-10-18T08:59:12Z</time>
</trkpt>
<trkpt lat="39.7190600" lon="3.0550159">
<ele>75.30</ele>
<time>2016-10-18T08:59:16Z</time>
</trkpt>
<trkpt lat="39.7188730" lon="3.0549593">
<ele>73.79</ele>
<time>2016-10-18T08:59:19Z</time>
</trkpt>
<trkpt lat="39.7186874" lon="3.0549074">
<ele>73.30</ele>
<time>2016-10-18T08:59:22Z</time>
</trkpt>
<trkpt lat="39.7184829" lon="3.0548470">
<ele>72.73</ele>
<time>2016-10-18T08:59:25Z</time>
</trkpt>
<trkpt lat="39.7182455" lon="3.0547731">
<ele>70.92</ele>
<time>2016-10-18T08:59:28Z</time>
</trkpt>
<trkpt lat="39.7179861" lon="3.0547014">
<ele>69.78</ele>
<time>2016-10-18T08:59:31Z</time>
</trkpt>
<trkpt lat="39.7178083" lon="3.0546559">
<ele>68.68</ele>
<time>2016-10-18T08:59:33Z</time>
</trkpt>
<trkpt lat="39.7176286" lon="3.0546112">
<ele>68.47</ele>
<time>2016-10-18T08:59:35Z</time>
</trkpt>
<trkpt lat="39.7174416" lon="3.0545641">
<ele>67.98</ele>
<time>2016-10-18T08:59:37Z</time>
</trkpt>
<trkpt lat="39.7172611" lon="3.0545267">
<ele>68.44</ele>
<time>2016-10-18T08:59:39Z</time>
</trkpt>
<trkpt lat="39.7170406" lon="3.0544751">
<ele>69.60</ele>
<time>2016-10-18T08:59:42Z</time>
</trkpt>
<trkpt lat="39.7168220" lon="3.0544031">
<ele>69.89</ele>
<time>2016-10-18T08:59:46Z</time>
</trkpt>
<trkpt lat="39.7166169" lon="3.0543968">
<ele>70.40</ele>
<time>2016-10-18T08:59:50Z</time>
</trkpt>
<trkpt lat="39.7163963" lon="3.0544550">
<ele>71.90</ele>
<time>2016-10-18T08:59:54Z</time>
</trkpt>
<trkpt lat="39.7161947" lon="3.0545198">
<ele>73.63</ele>
<time>2016-10-18T08:59:58Z</time>
</trkpt>
<trkpt lat="39.7159869" lon="3.0545917">
<ele>74.99</ele>
<time>2016-10-18T09:00:02Z</time>
</trkpt>
<trkpt lat="39.7158116" lon="3.0546494">
<ele>75.72</ele>
<time>2016-10-18T09:00:05Z</time>
</trkpt>
<trkpt lat="39.7156340" lon="3.0547106">
<ele>76.91</ele>
<time>2016-10-18T09:00:08Z</time>
</trkpt>
<trkpt lat="39.7154446" lon="3.0547693">
<ele>78.21</ele>
<time>2016-10-18T09:00:11Z</time>
</trkpt>
<trkpt lat="39.7152678" lon="3.0548273">
<ele>78.87</ele>
<time>2016-10-18T09:00:14Z</time>
</trkpt>
<trkpt lat="39.7150872" lon="3.0548867">
<ele>79.54</ele>
<time>2016-10-18T09:00:17Z</time>
</trkpt>
<trkpt lat="39.7149052" lon="3.0549457">
<ele>79.59</ele>
<time>2016-10-18T09:00:20Z</time>
</trkpt>
<trkpt lat="39.7146930" lon="3.0550196">
<ele>78.88</ele>
<time>2016-10-18T09:00:24Z</time>
</trkpt>
<trkpt lat="39.7144795" lon="3.0550913">
<ele>79.27</ele>
<time>2016-10-18T09:00:28Z</time>
</trkpt>
<trkpt lat="39.7142631" lon="3.0551687">
<ele>80.12</ele>
<time>2016-10-18T09:00:32Z</time>
</trkpt>
<trkpt lat="39.7140417" lon="3.0552450">
<ele>81.76</ele>
<time>2016-10-18T09:00:36Z</time>
</trkpt>
<trkpt lat="39.7138352" lon="3.0553030">
<ele>84.02</ele>
<time>2016-10-18T09:00:40Z</time>
</trkpt>
<trkpt lat="39.7136321" lon="3.0553705">
<ele>84.48</ele>
<time>2016-10-18T09:00:44Z</time>
</trkpt>
<trkpt lat="39.7134547" lon="3.0554305">
<ele>84.43</ele>
<time>2016-10-18T09:00:48Z</time>
</trkpt>
<trkpt lat="39.7132496" lon="3.0555045">
<ele>85.93</ele>
<time>2016-10-18T09:00:52Z</time>
</trkpt>
<trkpt lat="39.7130711" lon="3.0555460">
<ele>85.69</ele>
<time>2016-10-18T09:00:55Z</time>
</trkpt>
<trkpt lat="39.7129140" lon="3.0556952">
<ele>84.32</ele>
<time>2016-10-18T09:00:58Z</time>
</trkpt>
<trkpt lat="39.7127941" lon="3.0559864">
<ele>83.43</ele>
<time>2016-10-18T09:01:01Z</time>
</trkpt>
<trkpt lat="39.7127102" lon="3.0562910">
<ele>80.47</ele>
<time>2016-10-18T09:01:04Z</time>
</trkpt>
<trkpt lat="39.7126339" lon="3.0566145">
<ele>78.83</ele>
<time>2016-10-18T09:01:07Z</time>
</trkpt>
<trkpt lat="39.7125601" lon="3.0569127">
<ele>78.47</ele>
<time>2016-10-18T09:01:10Z</time>
</trkpt>
<trkpt lat="39.7124953" lon="3.0571729">
<ele>78.31</ele>
<time>2016-10-18T09:01:13Z</time>
</trkpt>
<trkpt lat="39.7124406" lon="3.0574276">
<ele>78.30</ele>
<time>2016-10-18T09:01:16Z</time>
</trkpt>
<trkpt lat="39.7123797" lon="3.0576753">
<ele>79.78</ele>
<time>2016-10-18T09:01:19Z</time>
</trkpt>
<trkpt lat="39.7123274" lon="3.0579147">
<ele>80.39</ele>
<time>2016-10-18T09:01:22Z</time>
</trkpt>
<trkpt lat="39.7122767" lon="3.0581945">
<ele>81.07</ele>
<time>2016-10-18T09:01:26Z</time>
</trkpt>
<trkpt lat="39.7122008" lon="3.0584453">
<ele>81.62</ele>
<time>2016-10-18T09:01:30Z</time>
</trkpt>
<trkpt lat="39.7120190" lon="3.0585078">
<ele>83.40</ele>
<time>2016-10-18T09:01:34Z</time>
</trkpt>
<trkpt lat="39.7118383" lon="3.0584687">
<ele>85.15</ele>
<time>2016-10-18T09:01:38Z</time>
</trkpt>
<trkpt lat="39.7116624" lon="3.0584154">
<ele>85.19</ele>
<time>2016-10-18T09:01:42Z</time>
</trkpt>
<trkpt lat="39.7114379" lon="3.0583510">
<ele>85.90</ele>
<time>2016-10-18T09:01:46Z</time>
</trkpt>
<trkpt lat="39.7112209" lon="3.0582828">
<ele>85.54</ele>
<time>2016-10-18T09:01:50Z</time>
</trkpt>
<trkpt lat="39.7109961" lon="3.0582256">
<ele>85.57</ele>
<time>2016-10-18T09:01:54Z</time>
</trkpt>
<trkpt lat="39.7107858" lon="3.0581627">
<ele>85.54</ele>
<time>2016-10-18T09:01:58Z</time>
</trkpt>
<trkpt lat="39.7105968" lon="3.0581112">
<ele>87.02</ele>
<time>2016-10-18T09:02:01Z</time>
</trkpt>
<trkpt lat="39.7103682" lon="3.0580583">
<ele>87.88</ele>
<time>2016-10-18T09:02:05Z</time>
</trkpt>
<trkpt lat="39.7101922" lon="3.0579991">
<ele>87.71</ele>
<time>2016-10-18T09:02:08Z</time>
</trkpt>
<trkpt lat="39.7100132" lon="3.0579428">
<ele>87.88</ele>
<time>2016-10-18T09:02:11Z</time>
</trkpt>
<trkpt lat="39.7098363" lon="3.0578850">
<ele>88.67</ele>
<time>2016-10-18T09:02:14Z</time>
</trkpt>
<trkpt lat="39.7096260" lon="3.0578128">
<ele>88.82</ele>
<time>2016-10-18T09:02:18Z</time>
</trkpt>
<trkpt lat="39.7094225" lon="3.0577393">
<ele>89.03</ele>
<time>2016-10-18T09:02:22Z</time>
</trkpt>
<trkpt lat="39.7092458" lon="3.0576818">
<ele>89.41</ele>
<time>2016-10-18T09:02:25Z</time>
</trkpt>
<trkpt lat="39.7090231" lon="3.0576219">
<ele>89.70</ele>
<time>2016-10-18T09:02:29Z</time>
</trkpt>
<trkpt lat="39.7088433" lon="3.0575795">
<ele>90.17</ele>
<time>2016-10-18T09:02:32Z</time>
</trkpt>
<trkpt lat="39.7086318" lon="3.0575182">
<ele>91.09</ele>
<time>2016-10-18T09:02:35Z</time>
</trkpt>
<trkpt lat="39.7084012" lon="3.0574059">
<ele>91.49</ele>
<time>2016-10-18T09:02:38Z</time>
</trkpt>
<trkpt lat="39.7082090" lon="3.0572639">
<ele>90.51</ele>
<time>2016-10-18T09:02:41Z</time>
</trkpt>
<trkpt lat="39.7080146" lon="3.0570899">
<ele>89.36</ele>
<time>2016-10-18T09:02:44Z</time>
</trkpt>
<trkpt lat="39.7078130" lon="3.0569695">
<ele>87.70</ele>
<time>2016-10-18T09:02:47Z</time>
</trkpt>
<trkpt lat="39.7075958" lon="3.0568867">
<ele>86.49</ele>
<time>2016-10-18T09:02:50Z</time>
</trkpt>
<trkpt lat="39.7073877" lon="3.0568099">
<ele>85.92</ele>
<time>2016-10-18T09:02:53Z</time>
</trkpt>
<trkpt lat="39.7071848" lon="3.0567532">
<ele>86.31</ele>
<time>2016-10-18T09:02:56Z</time>
</trkpt>
<trkpt lat="39.7069889" lon="3.0566977">
<ele>87.97</ele>
<time>2016-10-18T09:02:59Z</time>
</trkpt>
<trkpt lat="39.7067600" lon="3.0566269">
<ele>88.67</ele>
<time>2016-10-18T09:03:03Z</time>
</trkpt>
<trkpt lat="39.7065604" lon="3.0565555">
<ele>89.66</ele>
<time>2016-10-18T09:03:07Z</time>
</trkpt>
<trkpt lat="39.7063540" lon="3.0565060">
<ele>92.97</ele>
<time>2016-10-18T09:03:12Z</time>
</trkpt>
<trkpt lat="39.7061768" lon="3.0564558">
<ele>94.04</ele>
<time>2016-10-18T09:03:17Z</time>
</trkpt>
<trkpt lat="39.7059678" lon="3.0563846">
<ele>94.23</ele>
<time>2016-10-18T09:03:23Z</time>
</trkpt>
<trkpt lat="39.7057907" lon="3.0563203">
<ele>94.54</ele>
<time>2016-10-18T09:03:28Z</time>
</trkpt>
<trkpt lat="39.7055975" lon="3.0562512">
<ele>94.78</ele>
<time>2016-10-18T09:03:34Z</time>
</trkpt>
<trkpt lat="39.7053992" lon="3.0561744">
<ele>95.30</ele>
<time>2016-10-18T09:03:40Z</time>
</trkpt>
<trkpt lat="39.7052172" lon="3.0561300">
<ele>96.06</ele>
<time>2016-10-18T09:03:46Z</time>
</trkpt>
<trkpt lat="39.7050124" lon="3.0560711">
<ele>97.71</ele>
<time>2016-10-18T09:03:52Z</time>
</trkpt>
<trkpt lat="39.7048368" lon="3.0560128">
<ele>100.41</ele>
<time>2016-10-18T09:03:57Z</time>
</trkpt>
<trkpt lat="39.7046477" lon="3.0559531">
<ele>104.10</ele>
<time>2016-10-18T09:04:02Z</time>
</trkpt>
<trkpt lat="39.7044606" lon="3.0558857">
<ele>105.54</ele>
<time>2016-10-18T09:04:06Z</time>
</trkpt>
<trkpt lat="39.7042334" lon="3.0557418">
<ele>106.09</ele>
<time>2016-10-18T09:04:10Z</time>
</trkpt>
<trkpt lat="39.7040108" lon="3.0556006">
<ele>104.71</ele>
<time>2016-10-18T09:04:13Z</time>
</trkpt>
<trkpt lat="39.7037553" lon="3.0554952">
<ele>102.86</ele>
<time>2016-10-18T09:04:16Z</time>
</trkpt>
<trkpt lat="39.7035649" lon="3.0554367">
<ele>101.85</ele>
<time>2016-10-18T09:04:18Z</time>
</trkpt>
<trkpt lat="39.7033609" lon="3.0553913">
<ele>100.51</ele>
<time>2016-10-18T09:04:20Z</time>
</trkpt>
<trkpt lat="39.7031581" lon="3.0553530">
<ele>99.21</ele>
<time>2016-10-18T09:04:22Z</time>
</trkpt>
<trkpt lat="39.7029661" lon="3.0553275">
<ele>98.70</ele>
<time>2016-10-18T09:04:24Z</time>
</trkpt>
<trkpt lat="39.7027769" lon="3.0553025">
<ele>98.32</ele>
<time>2016-10-18T09:04:26Z</time>
</trkpt>
<trkpt lat="39.7025905" lon="3.0552747">
<ele>97.80</ele>
<time>2016-10-18T09:04:28Z</time>
</trkpt>
<trkpt lat="39.7024080" lon="3.0552491">
<ele>97.57</ele>
<time>2016-10-18T09:04:30Z</time>
</trkpt>
<trkpt lat="39.7022285" lon="3.0552236">
<ele>97.63</ele>
<time>2016-10-18T09:04:32Z</time>
</trkpt>
<trkpt lat="39.7019664" lon="3.0551806">
<ele>97.18</ele>
<time>2016-10-18T09:04:35Z</time>
</trkpt>
<trkpt lat="39.7017045" lon="3.0551145">
<ele>96.86</ele>
<time>2016-10-18T09:04:38Z</time>
</trkpt>
<trkpt lat="39.7014476" lon="3.0550296">
<ele>97.63</ele>
<time>2016-10-18T09:04:41Z</time>
</trkpt>
<trkpt lat="39.7012065" lon="3.0549184">
<ele>98.13</ele>
<time>2016-10-18T09:04:44Z</time>
</trkpt>
<trkpt lat="39.7009769" lon="3.0547986">
<ele>98.95</ele>
<time>2016-10-18T09:04:47Z</time>
</trkpt>
<trkpt lat="39.7007519" lon="3.0546752">
<ele>100.27</ele>
<time>2016-10-18T09:04:50Z</time>
</trkpt>
<trkpt lat="39.7005392" lon="3.0545545">
<ele>101.28</ele>
<time>2016-10-18T09:04:53Z</time>
</trkpt>
<trkpt lat="39.7003572" lon="3.0544478">
<ele>101.52</ele>
<time>2016-10-18T09:04:56Z</time>
</trkpt>
<trkpt lat="39.7001661" lon="3.0543363">
<ele>101.71</ele>
<time>2016-10-18T09:04:59Z</time>
</trkpt>
<trkpt lat="39.6999982" lon="3.0542426">
<ele>101.55</ele>
<time>2016-10-18T09:05:02Z</time>
</trkpt>
<trkpt lat="39.6997906" lon="3.0541253">
<ele>103.30</ele>
<time>2016-10-18T09:05:06Z</time>
</trkpt>
<trkpt lat="39.6996116" lon="3.0540024">
<ele>104.97</ele>
<time>2016-10-18T09:05:10Z</time>
</trkpt>
<trkpt lat="39.6994501" lon="3.0538582">
<ele>105.79</ele>
<time>2016-10-18T09:05:14Z</time>
</trkpt>
<trkpt lat="39.6993042" lon="3.0537161">
<ele>107.20</ele>
<time>2016-10-18T09:05:18Z</time>
</trkpt>
<trkpt lat="39.6991215" lon="3.0535897">
<ele>108.47</ele>
<time>2016-10-18T09:05:23Z</time>
</trkpt>
<trkpt lat="39.6989291" lon="3.0535040">
<ele>108.80</ele>
<time>2016-10-18T09:05:28Z</time>
</trkpt>
<trkpt lat="39.6987481" lon="3.0534412">
<ele>110.41</ele>
<time>2016-10-18T09:05:33Z</time>
</trkpt>
<trkpt lat="39.6985618" lon="3.0533832">
<ele>110.80</ele>
<time>2016-10-18T09:05:38Z</time>
</trkpt>
<trkpt lat="39.6983530" lon="3.0533548">
<ele>111.09</ele>
<time>2016-10-18T09:05:44Z</time>
</trkpt>
<trkpt lat="39.6981703" lon="3.0533460">
<ele>111.77</ele>
<time>2016-10-18T09:05:52Z</time>
</trkpt>
<trkpt lat="39.6979825" lon="3.0533156">
<ele>114.42</ele>
<time>2016-10-18T09:06:06Z</time>
</trkpt>
<trkpt lat="39.6977713" lon="3.0532262">
<ele>116.08</ele>
<time>2016-10-18T09:06:10Z</time>
</trkpt>
<trkpt lat="39.6975888" lon="3.0531439">
<ele>115.82</ele>
<time>2016-10-18T09:06:13Z</time>
</trkpt>
<trkpt lat="39.6973670" lon="3.0530416">
<ele>114.62</ele>
<time>2016-10-18T09:06:16Z</time>
</trkpt>
<trkpt lat="39.6971111" lon="3.0529154">
<ele>113.61</ele>
<time>2016-10-18T09:06:19Z</time>
</trkpt>
<trkpt lat="39.6969182" lon="3.0528257">
<ele>112.98</ele>
<time>2016-10-18T09:06:21Z</time>
</trkpt>
<trkpt lat="39.6967183" lon="3.0527462">
<ele>112.89</ele>
<time>2016-10-18T09:06:23Z</time>
</trkpt>
<trkpt lat="39.6965035" lon="3.0526639">
<ele>112.45</ele>
<time>2016-10-18T09:06:25Z</time>
</trkpt>
<trkpt lat="39.6962975" lon="3.0525851">
<ele>111.66</ele>
<time>2016-10-18T09:06:27Z</time>
</trkpt>
<trkpt lat="39.6960897" lon="3.0525151">
<ele>110.91</ele>
<time>2016-10-18T09:06:29Z</time>
</trkpt>
<trkpt lat="39.6958747" lon="3.0524663">
<ele>110.03</ele>
<time>2016-10-18T09:06:31Z</time>
</trkpt>
<trkpt lat="39.6956608" lon="3.0524476">
<ele>109.39</ele>
<time>2016-10-18T09:06:33Z</time>
</trkpt>
<trkpt lat="39.6954436" lon="3.0524315">
<ele>108.10</ele>
<time>2016-10-18T09:06:35Z</time>
</trkpt>
<trkpt lat="39.6952254" lon="3.0524034">
<ele>107.12</ele>
<time>2016-10-18T09:06:37Z</time>
</trkpt>
<trkpt lat="39.6950129" lon="3.0523616">
<ele>106.82</ele>
<time>2016-10-18T09:06:39Z</time>
</trkpt>
<trkpt lat="39.6948165" lon="3.0523126">
<ele>106.72</ele>
<time>2016-10-18T09:06:41Z</time>
</trkpt>
<trkpt lat="39.6946227" lon="3.0522603">
<ele>107.03</ele>
<time>2016-10-18T09:06:43Z</time>
</trkpt>
<trkpt lat="39.6944398" lon="3.0522148">
<ele>107.60</ele>
<time>2016-10-18T09:06:45Z</time>
</trkpt>
<trkpt lat="39.6942584" lon="3.0521695">
<ele>107.95</ele>
<time>2016-10-18T09:06:47Z</time>
</trkpt>
<trkpt lat="39.6940249" lon="3.0521167">
<ele>108.94</ele>
<time>2016-10-18T09:06:50Z</time>
</trkpt>
<trkpt lat="39.6938324" lon="3.0520448">
<ele>110.53</ele>
<time>2016-10-18T09:06:53Z</time>
</trkpt>
<trkpt lat="39.6936979" lon="3.0518190">
<ele>112.61</ele>
<time>2016-10-18T09:06:57Z</time>
</trkpt>
<trkpt lat="39.6935951" lon="3.0515514">
<ele>111.82</ele>
<time>2016-10-18T09:07:01Z</time>
</trkpt>
<trkpt lat="39.6935103" lon="3.0512723">
<ele>110.45</ele>
<time>2016-10-18T09:07:05Z</time>
</trkpt>
<trkpt lat="39.6934552" lon="3.0510455">
<ele>109.56</ele>
<time>2016-10-18T09:07:08Z</time>
</trkpt>
<trkpt lat="39.6933938" lon="3.0507920">
<ele>108.74</ele>
<time>2016-10-18T09:07:11Z</time>
</trkpt>
<trkpt lat="39.6933060" lon="3.0505330">
<ele>108.34</ele>
<time>2016-10-18T09:07:14Z</time>
</trkpt>
<trkpt lat="39.6931441" lon="3.0503233">
<ele>107.59</ele>
<time>2016-10-18T09:07:17Z</time>
</trkpt>
<trkpt lat="39.6929712" lon="3.0501148">
<ele>106.77</ele>
<time>2016-10-18T09:07:20Z</time>
</trkpt>
<trkpt lat="39.6928082" lon="3.0498926">
<ele>106.35</ele>
<time>2016-10-18T09:07:23Z</time>
</trkpt>
<trkpt lat="39.6926977" lon="3.0495917">
<ele>105.93</ele>
<time>2016-10-18T09:07:26Z</time>
</trkpt>
<trkpt lat="39.6925943" lon="3.0492720">
<ele>105.05</ele>
<time>2016-10-18T09:07:29Z</time>
</trkpt>
<trkpt lat="39.6925027" lon="3.0490572">
<ele>104.50</ele>
<time>2016-10-18T09:07:31Z</time>
</trkpt>
<trkpt lat="39.6923438" lon="3.0489136">
<ele>103.56</ele>
<time>2016-10-18T09:07:33Z</time>
</trkpt>
<trkpt lat="39.6921675" lon="3.0488027">
<ele>102.77</ele>
<time>2016-10-18T09:07:35Z</time>
</trkpt>
<trkpt lat="39.6919826" lon="3.0486898">
<ele>102.39</ele>
<time>2016-10-18T09:07:37Z</time>
</trkpt>
<trkpt lat="39.6917921" lon="3.0485684">
<ele>102.17</ele>
<time>2016-10-18T09:07:39Z</time>
</trkpt>
<trkpt lat="39.6915943" lon="3.0484394">
<ele>101.50</ele>
<time>2016-10-18T09:07:41Z</time>
</trkpt>
<trkpt lat="39.6913927" lon="3.0483228">
<ele>101.11</ele>
<time>2016-10-18T09:07:43Z</time>
</trkpt>
<trkpt lat="39.6911748" lon="3.0482171">
<ele>101.45</ele>
<time>2016-10-18T09:07:45Z</time>
</trkpt>
<trkpt lat="39.6909744" lon="3.0481547">
<ele>101.03</ele>
<time>2016-10-18T09:07:47Z</time>
</trkpt>
<trkpt lat="39.6907739" lon="3.0480972">
<ele>99.14</ele>
<time>2016-10-18T09:07:49Z</time>
</trkpt>
<trkpt lat="39.6905892" lon="3.0479749">
<ele>97.39</ele>
<time>2016-10-18T09:07:51Z</time>
</trkpt>
<trkpt lat="39.6904231" lon="3.0478159">
<ele>96.58</ele>
<time>2016-10-18T09:07:53Z</time>
</trkpt>
<trkpt lat="39.6902735" lon="3.0476334">
<ele>96.23</ele>
<time>2016-10-18T09:07:55Z</time>
</trkpt>
<trkpt lat="39.6901378" lon="3.0474385">
<ele>96.02</ele>
<time>2016-10-18T09:07:57Z</time>
</trkpt>
<trkpt lat="39.6899841" lon="3.0472533">
<ele>95.91</ele>
<time>2016-10-18T09:07:59Z</time>
</trkpt>
<trkpt lat="39.6898151" lon="3.0470885">
<ele>95.44</ele>
<time>2016-10-18T09:08:01Z</time>
</trkpt>
<trkpt lat="39.6896318" lon="3.0469424">
<ele>94.64</ele>
<time>2016-10-18T09:08:03Z</time>
</trkpt>
<trkpt lat="39.6894424" lon="3.0468249">
<ele>94.00</ele>
<time>2016-10-18T09:08:05Z</time>
</trkpt>
<trkpt lat="39.6892454" lon="3.0467172">
<ele>93.93</ele>
<time>2016-10-18T09:08:07Z</time>
</trkpt>
<trkpt lat="39.6890599" lon="3.0466174">
<ele>93.95</ele>
<time>2016-10-18T09:08:09Z</time>
</trkpt>
<trkpt lat="39.6888659" lon="3.0464944">
<ele>93.78</ele>
<time>2016-10-18T09:08:11Z</time>
</trkpt>
<trkpt lat="39.6886747" lon="3.0463421">
<ele>93.14</ele>
<time>2016-10-18T09:08:13Z</time>
</trkpt>
<trkpt lat="39.6885056" lon="3.0461915">
<ele>93.29</ele>
<time>2016-10-18T09:08:15Z</time>
</trkpt>
<trkpt lat="39.6883360" lon="3.0460341">
<ele>93.60</ele>
<time>2016-10-18T09:08:17Z</time>
</trkpt>
<trkpt lat="39.6881444" lon="3.0458537">
<ele>93.93</ele>
<time>2016-10-18T09:08:20Z</time>
</trkpt>
<trkpt lat="39.6879773" lon="3.0456898">
<ele>94.84</ele>
<time>2016-10-18T09:08:23Z</time>
</trkpt>
<trkpt lat="39.6878252" lon="3.0455197">
<ele>97.00</ele>
<time>2016-10-18T09:08:26Z</time>
</trkpt>
<trkpt lat="39.6876675" lon="3.0453362">
<ele>98.88</ele>
<time>2016-10-18T09:08:30Z</time>
</trkpt>
<trkpt lat="39.6875280" lon="3.0451373">
<ele>100.46</ele>
<time>2016-10-18T09:08:34Z</time>
</trkpt>
<trkpt lat="39.6873929" lon="3.0449322">
<ele>100.72</ele>
<time>2016-10-18T09:08:38Z</time>
</trkpt>
<trkpt lat="39.6872385" lon="3.0447534">
<ele>103.22</ele>
<time>2016-10-18T09:08:43Z</time>
</trkpt>
<trkpt lat="39.6870548" lon="3.0446728">
<ele>105.73</ele>
<time>2016-10-18T09:08:48Z</time>
</trkpt>
<trkpt lat="39.6868720" lon="3.0445960">
<ele>108.40</ele>
<time>2016-10-18T09:08:53Z</time>
</trkpt>
<trkpt lat="39.6866993" lon="3.0445051">
<ele>108.92</ele>
<time>2016-10-18T09:08:58Z</time>
</trkpt>
<trkpt lat="39.6864979" lon="3.0443938">
<ele>109.34</ele>
<time>2016-10-18T09:09:04Z</time>
</trkpt>
<trkpt lat="39.6863235" lon="3.0443066">
<ele>111.97</ele>
<time>2016-10-18T09:09:09Z</time>
</trkpt>
<trkpt lat="39.6861291" lon="3.0442069">
<ele>112.46</ele>
<time>2016-10-18T09:09:15Z</time>
</trkpt>
<trkpt lat="39.6859256" lon="3.0441040">
<ele>114.66</ele>
<time>2016-10-18T09:09:21Z</time>
</trkpt>
<trkpt lat="39.6857466" lon="3.0440033">
<ele>113.98</ele>
<time>2016-10-18T09:09:26Z</time>
</trkpt>
<trkpt lat="39.6855815" lon="3.0439085">
<ele>114.07</ele>
<time>2016-10-18T09:09:31Z</time>
</trkpt>
<trkpt lat="39.6853819" lon="3.0438083">
<ele>114.55</ele>
<time>2016-10-18T09:09:37Z</time>
</trkpt>
<trkpt lat="39.6851946" lon="3.0437050">
<ele>115.08</ele>
<time>2016-10-18T09:09:43Z</time>
</trkpt>
<trkpt lat="39.6850116" lon="3.0436034">
<ele>115.74</ele>
<time>2016-10-18T09:09:49Z</time>
</trkpt>
<trkpt lat="39.6848230" lon="3.0435044">
<ele>116.45</ele>
<time>2016-10-18T09:09:55Z</time>
</trkpt>
<trkpt lat="39.6846370" lon="3.0434052">
<ele>117.11</ele>
<time>2016-10-18T09:10:01Z</time>
</trkpt>
<trkpt lat="39.6844330" lon="3.0433796">
<ele>118.14</ele>
<time>2016-10-18T09:10:08Z</time>
</trkpt>
<trkpt lat="39.6842325" lon="3.0433858">
<ele>119.24</ele>
<time>2016-10-18T09:10:15Z</time>
</trkpt>
<trkpt lat="39.6840441" lon="3.0433910">
<ele>120.02</ele>
<time>2016-10-18T09:10:21Z</time>
</trkpt>
<trkpt lat="39.6838312" lon="3.0434224">
<ele>121.25</ele>
<time>2016-10-18T09:10:29Z</time>
</trkpt>
<trkpt lat="39.6836391" lon="3.0434205">
<ele>122.33</ele>
<time>2016-10-18T09:10:35Z</time>
</trkpt>
<trkpt lat="39.6834374" lon="3.0434022">
<ele>123.58</ele>
<time>2016-10-18T09:10:41Z</time>
</trkpt>
<trkpt lat="39.6832490" lon="3.0433364">
<ele>124.80</ele>
<time>2016-10-18T09:10:47Z</time>
</trkpt>
<trkpt lat="39.6830450" lon="3.0432683">
<ele>125.91</ele>
<time>2016-10-18T09:10:53Z</time>
</trkpt>
<trkpt lat="39.6828374" lon="3.0432126">
<ele>127.02</ele>
<time>2016-10-18T09:10:59Z</time>
</trkpt>
<trkpt lat="39.6826482" lon="3.0431782">
<ele>127.77</ele>
<time>2016-10-18T09:13:38Z</time>
</trkpt>
<trkpt lat="39.6824512" lon="3.0431504">
<ele>127.80</ele>
<time>2016-10-18T09:13:42Z</time>
</trkpt>
<trkpt lat="39.6822172" lon="3.0430903">
<ele>127.96</ele>
<time>2016-10-18T09:13:45Z</time>
</trkpt>
<trkpt lat="39.6820400" lon="3.0430195">
<ele>127.16</ele>
<time>2016-10-18T09:13:47Z</time>
</trkpt>
<trkpt lat="39.6818529" lon="3.0429308">
<ele>126.20</ele>
<time>2016-10-18T09:13:49Z</time>
</trkpt>
<trkpt lat="39.6816632" lon="3.0428326">
<ele>125.21</ele>
<time>2016-10-18T09:13:51Z</time>
</trkpt>
<trkpt lat="39.6814693" lon="3.0427188">
<ele>124.21</ele>
<time>2016-10-18T09:13:53Z</time>
</trkpt>
<trkpt lat="39.6812763" lon="3.0425958">
<ele>122.62</ele>
<time>2016-10-18T09:13:55Z</time>
</trkpt>
<trkpt lat="39.6810976" lon="3.0424854">
<ele>121.36</ele>
<time>2016-10-18T09:13:57Z</time>
</trkpt>
<trkpt lat="39.6809223" lon="3.0423705">
<ele>120.04</ele>
<time>2016-10-18T09:13:59Z</time>
</trkpt>
<trkpt lat="39.6807528" lon="3.0422337">
<ele>118.84</ele>
<time>2016-10-18T09:14:01Z</time>
</trkpt>
<trkpt lat="39.6805834" lon="3.0420706">
<ele>117.57</ele>
<time>2016-10-18T09:14:03Z</time>
</trkpt>
<trkpt lat="39.6804147" lon="3.0419069">
<ele>117.19</ele>
<time>2016-10-18T09:14:05Z</time>
</trkpt>
<trkpt lat="39.6802315" lon="3.0417656">
<ele>117.07</ele>
<time>2016-10-18T09:14:07Z</time>
</trkpt>
<trkpt lat="39.6800383" lon="3.0416596">
<ele>117.12</ele>
<time>2016-10-18T09:14:09Z</time>
</trkpt>
<trkpt lat="39.6798477" lon="3.0415771">
<ele>117.13</ele>
<time>2016-10-18T09:14:11Z</time>
</trkpt>
<trkpt lat="39.6796719" lon="3.0415093">
<ele>117.48</ele>
<time>2016-10-18T09:14:13Z</time>
</trkpt>
<trkpt lat="39.6794770" lon="3.0414449">
<ele>117.90</ele>
<time>2016-10-18T09:14:15Z</time>
</trkpt>
<trkpt lat="39.6792842" lon="3.0413941">
<ele>118.33</ele>
<time>2016-10-18T09:14:17Z</time>
</trkpt>
<trkpt lat="39.6791057" lon="3.0413486">
<ele>117.77</ele>
<time>2016-10-18T09:14:19Z</time>
</trkpt>
<trkpt lat="39.6788508" lon="3.0412927">
<ele>116.48</ele>
<time>2016-10-18T09:14:22Z</time>
</trkpt>
<trkpt lat="39.6786038" lon="3.0412206">
<ele>115.03</ele>
<time>2016-10-18T09:14:25Z</time>
</trkpt>
<trkpt lat="39.6783821" lon="3.0411190">
<ele>114.38</ele>
<time>2016-10-18T09:14:29Z</time>
</trkpt>
<trkpt lat="39.6781653" lon="3.0410108">
<ele>114.72</ele>
<time>2016-10-18T09:14:32Z</time>
</trkpt>
<trkpt lat="39.6779490" lon="3.0409005">
<ele>114.41</ele>
<time>2016-10-18T09:14:35Z</time>
</trkpt>
<trkpt lat="39.6777328" lon="3.0407866">
<ele>114.23</ele>
<time>2016-10-18T09:14:38Z</time>
</trkpt>
<trkpt lat="39.6775300" lon="3.0406773">
<ele>114.06</ele>
<time>2016-10-18T09:14:41Z</time>
</trkpt>
<trkpt lat="39.6773371" lon="3.0405561">
<ele>113.81</ele>
<time>2016-10-18T09:14:44Z</time>
</trkpt>
<trkpt lat="39.6771577" lon="3.0404318">
<ele>114.01</ele>
<time>2016-10-18T09:14:47Z</time>
</trkpt>
<trkpt lat="39.6769992" lon="3.0403076">
<ele>114.94</ele>
<time>2016-10-18T09:14:50Z</time>
</trkpt>
<trkpt lat="39.6768396" lon="3.0401520">
<ele>115.98</ele>
<time>2016-10-18T09:14:54Z</time>
</trkpt>
<trkpt lat="39.6766777" lon="3.0399685">
<ele>116.68</ele>
<time>2016-10-18T09:14:59Z</time>
</trkpt>
<trkpt lat="39.6765326" lon="3.0398067">
<ele>117.85</ele>
<time>2016-10-18T09:15:03Z</time>
</trkpt>
<trkpt lat="39.6763785" lon="3.0396298">
<ele>117.44</ele>
<time>2016-10-18T09:15:07Z</time>
</trkpt>
<trkpt lat="39.6762369" lon="3.0394691">
<ele>117.65</ele>
<time>2016-10-18T09:15:11Z</time>
</trkpt>
<trkpt lat="39.6760550" lon="3.0392939">
<ele>119.00</ele>
<time>2016-10-18T09:15:16Z</time>
</trkpt>
<trkpt lat="39.6758659" lon="3.0391449">
<ele>120.32</ele>
<time>2016-10-18T09:15:21Z</time>
</trkpt>
<trkpt lat="39.6757066" lon="3.0390165">
<ele>121.02</ele>
<time>2016-10-18T09:15:25Z</time>
</trkpt>
<trkpt lat="39.6755436" lon="3.0388830">
<ele>121.04</ele>
<time>2016-10-18T09:15:29Z</time>
</trkpt>
<trkpt lat="39.6753693" lon="3.0387391">
<ele>121.02</ele>
<time>2016-10-18T09:15:33Z</time>
</trkpt>
<trkpt lat="39.6751970" lon="3.0386157">
<ele>121.49</ele>
<time>2016-10-18T09:15:37Z</time>
</trkpt>
<trkpt lat="39.6749605" lon="3.0385633">
<ele>121.06</ele>
<time>2016-10-18T09:15:41Z</time>
</trkpt>
<trkpt lat="39.6747241" lon="3.0385548">
<ele>121.42</ele>
<time>2016-10-18T09:15:45Z</time>
</trkpt>
<trkpt lat="39.6745254" lon="3.0385532">
<ele>121.81</ele>
<time>2016-10-18T09:15:48Z</time>
</trkpt>
<trkpt lat="39.6743089" lon="3.0385457">
<ele>122.93</ele>
<time>2016-10-18T09:15:51Z</time>
</trkpt>
<trkpt lat="39.6741160" lon="3.0385303">
<ele>123.18</ele>
<time>2016-10-18T09:15:54Z</time>
</trkpt>
<trkpt lat="39.6739106" lon="3.0385222">
<ele>123.39</ele>
<time>2016-10-18T09:15:57Z</time>
</trkpt>
<trkpt lat="39.6737008" lon="3.0385147">
<ele>123.71</ele>
<time>2016-10-18T09:16:00Z</time>
</trkpt>
<trkpt lat="39.6734733" lon="3.0384944">
<ele>122.48</ele>
<time>2016-10-18T09:16:03Z</time>
</trkpt>
<trkpt lat="39.6732581" lon="3.0384731">
<ele>121.08</ele>
<time>2016-10-18T09:16:06Z</time>
</trkpt>
<trkpt lat="39.6730676" lon="3.0384635">
<ele>121.76</ele>
<time>2016-10-18T09:16:09Z</time>
</trkpt>
<trkpt lat="39.6728807" lon="3.0384407">
<ele>121.46</ele>
<time>2016-10-18T09:16:12Z</time>
</trkpt>
<trkpt lat="39.6726976" lon="3.0383894">
<ele>119.93</ele>
<time>2016-10-18T09:16:15Z</time>
</trkpt>
<trkpt lat="39.6725183" lon="3.0383010">
<ele>119.39</ele>
<time>2016-10-18T09:16:18Z</time>
</trkpt>
<trkpt lat="39.6723461" lon="3.0382025">
<ele>120.69</ele>
<time>2016-10-18T09:16:21Z</time>
</trkpt>
<trkpt lat="39.6721732" lon="3.0381008">
<ele>121.52</ele>
<time>2016-10-18T09:16:24Z</time>
</trkpt>
<trkpt lat="39.6719800" lon="3.0379957">
<ele>122.09</ele>
<time>2016-10-18T09:16:27Z</time>
</trkpt>
<trkpt lat="39.6717828" lon="3.0379066">
<ele>122.26</ele>
<time>2016-10-18T09:16:30Z</time>
</trkpt>
<trkpt lat="39.6715886" lon="3.0378029">
<ele>121.66</ele>
<time>2016-10-18T09:16:33Z</time>
</trkpt>
<trkpt lat="39.6713996" lon="3.0376593">
<ele>120.51</ele>
<time>2016-10-18T09:16:36Z</time>
</trkpt>
<trkpt lat="39.6712205" lon="3.0375146">
<ele>120.54</ele>
<time>2016-10-18T09:16:39Z</time>
</trkpt>
<trkpt lat="39.6710452" lon="3.0373629">
<ele>121.35</ele>
<time>2016-10-18T09:16:42Z</time>
</trkpt>
<trkpt lat="39.6708872" lon="3.0372285">
<ele>121.54</ele>
<time>2016-10-18T09:16:45Z</time>
</trkpt>
<trkpt lat="39.6707238" lon="3.0371047">
<ele>121.82</ele>
<time>2016-10-18T09:16:48Z</time>
</trkpt>
<trkpt lat="39.6705630" lon="3.0369941">
<ele>121.92</ele>
<time>2016-10-18T09:16:51Z</time>
</trkpt>
<trkpt lat="39.6703612" lon="3.0368700">
<ele>121.82</ele>
<time>2016-10-18T09:16:55Z</time>
</trkpt>
<trkpt lat="39.6702049" lon="3.0366976">
<ele>122.20</ele>
<time>2016-10-18T09:16:59Z</time>
</trkpt>
<trkpt lat="39.6700729" lon="3.0364775">
<ele>122.77</ele>
<time>2016-10-18T09:17:03Z</time>
</trkpt>
<trkpt lat="39.6699694" lon="3.0362774">
<ele>122.75</ele>
<time>2016-10-18T09:17:06Z</time>
</trkpt>
<trkpt lat="39.6698597" lon="3.0360508">
<ele>122.21</ele>
<time>2016-10-18T09:17:09Z</time>
</trkpt>
<trkpt lat="39.6697621" lon="3.0357943">
<ele>121.14</ele>
<time>2016-10-18T09:17:12Z</time>
</trkpt>
<trkpt lat="39.6696721" lon="3.0355320">
<ele>120.16</ele>
<time>2016-10-18T09:17:15Z</time>
</trkpt>
<trkpt lat="39.6695258" lon="3.0353744">
<ele>119.90</ele>
<time>2016-10-18T09:17:18Z</time>
</trkpt>
<trkpt lat="39.6693529" lon="3.0352663">
<ele>120.61</ele>
<time>2016-10-18T09:17:21Z</time>
</trkpt>
<trkpt lat="39.6691561" lon="3.0351593">
<ele>120.82</ele>
<time>2016-10-18T09:17:24Z</time>
</trkpt>
<trkpt lat="39.6689411" lon="3.0350359">
<ele>120.58</ele>
<time>2016-10-18T09:17:27Z</time>
</trkpt>
<trkpt lat="39.6687325" lon="3.0349088">
<ele>120.03</ele>
<time>2016-10-18T09:17:30Z</time>
</trkpt>
<trkpt lat="39.6685503" lon="3.0347877">
<ele>119.82</ele>
<time>2016-10-18T09:17:33Z</time>
</trkpt>
<trkpt lat="39.6683803" lon="3.0346694">
<ele>118.98</ele>
<time>2016-10-18T09:17:36Z</time>
</trkpt>
<trkpt lat="39.6681991" lon="3.0345374">
<ele>118.65</ele>
<time>2016-10-18T09:17:39Z</time>
</trkpt>
<trkpt lat="39.6679966" lon="3.0343953">
<ele>118.48</ele>
<time>2016-10-18T09:17:42Z</time>
</trkpt>
<trkpt lat="39.6677689" lon="3.0342319">
<ele>117.49</ele>
<time>2016-10-18T09:17:45Z</time>
</trkpt>
<trkpt lat="39.6676022" lon="3.0341158">
<ele>117.08</ele>
<time>2016-10-18T09:17:47Z</time>
</trkpt>
<trkpt lat="39.6674456" lon="3.0340006">
<ele>116.15</ele>
<time>2016-10-18T09:17:49Z</time>
</trkpt>
<trkpt lat="39.6672264" lon="3.0338470">
<ele>116.20</ele>
<time>2016-10-18T09:17:52Z</time>
</trkpt>
<trkpt lat="39.6670196" lon="3.0336914">
<ele>116.50</ele>
<time>2016-10-18T09:17:55Z</time>
</trkpt>
<trkpt lat="39.6668143" lon="3.0335448">
<ele>117.11</ele>
<time>2016-10-18T09:17:58Z</time>
</trkpt>
<trkpt lat="39.6666211" lon="3.0334209">
<ele>117.81</ele>
<time>2016-10-18T09:18:01Z</time>
</trkpt>
<trkpt lat="39.6664205" lon="3.0333478">
<ele>118.67</ele>
<time>2016-10-18T09:18:04Z</time>
</trkpt>
<trkpt lat="39.6662181" lon="3.0332993">
<ele>119.41</ele>
<time>2016-10-18T09:18:07Z</time>
</trkpt>
<trkpt lat="39.6660276" lon="3.0332613">
<ele>119.95</ele>
<time>2016-10-18T09:18:10Z</time>
</trkpt>
<trkpt lat="39.6657926" lon="3.0332133">
<ele>120.32</ele>
<time>2016-10-18T09:18:14Z</time>
</trkpt>
<trkpt lat="39.6655593" lon="3.0331654">
<ele>120.20</ele>
<time>2016-10-18T09:18:18Z</time>
</trkpt>
<trkpt lat="39.6653818" lon="3.0331248">
<ele>119.94</ele>
<time>2016-10-18T09:18:21Z</time>
</trkpt>
<trkpt lat="39.6651533" lon="3.0330804">
<ele>119.84</ele>
<time>2016-10-18T09:18:25Z</time>
</trkpt>
<trkpt lat="39.6649293" lon="3.0330368">
<ele>121.80</ele>
<time>2016-10-18T09:18:29Z</time>
</trkpt>
<trkpt lat="39.6647337" lon="3.0329834">
<ele>122.87</ele>
<time>2016-10-18T09:18:33Z</time>
</trkpt>
<trkpt lat="39.6645215" lon="3.0329356">
<ele>123.70</ele>
<time>2016-10-18T09:18:37Z</time>
</trkpt>
<trkpt lat="39.6643193" lon="3.0328838">
<ele>124.09</ele>
<time>2016-10-18T09:18:41Z</time>
</trkpt>
<trkpt lat="39.6641323" lon="3.0328375">
<ele>124.34</ele>
<time>2016-10-18T09:18:45Z</time>
</trkpt>
<trkpt lat="39.6639225" lon="3.0327922">
<ele>124.78</ele>
<time>2016-10-18T09:18:49Z</time>
</trkpt>
<trkpt lat="39.6637372" lon="3.0327475">
<ele>124.46</ele>
<time>2016-10-18T09:18:53Z</time>
</trkpt>
<trkpt lat="39.6635463" lon="3.0327030">
<ele>125.41</ele>
<time>2016-10-18T09:18:57Z</time>
</trkpt>
<trkpt lat="39.6633550" lon="3.0326548">
<ele>125.57</ele>
<time>2016-10-18T09:19:01Z</time>
</trkpt>
<trkpt lat="39.6631460" lon="3.0326135">
<ele>125.46</ele>
<time>2016-10-18T09:19:05Z</time>
</trkpt>
<trkpt lat="39.6629464" lon="3.0325691">
<ele>125.30</ele>
<time>2016-10-18T09:19:09Z</time>
</trkpt>
<trkpt lat="39.6627630" lon="3.0325290">
<ele>125.93</ele>
<time>2016-10-18T09:19:13Z</time>
</trkpt>
<trkpt lat="39.6625723" lon="3.0324942">
<ele>126.50</ele>
<time>2016-10-18T09:19:17Z</time>
</trkpt>
<trkpt lat="39.6623855" lon="3.0324462">
<ele>127.14</ele>
<time>2016-10-18T09:19:21Z</time>
</trkpt>
<trkpt lat="39.6622072" lon="3.0323812">
<ele>127.95</ele>
<time>2016-10-18T09:19:25Z</time>
</trkpt>
<trkpt lat="39.6620182" lon="3.0322580">
<ele>129.33</ele>
<time>2016-10-18T09:19:30Z</time>
</trkpt>
<trkpt lat="39.6618572" lon="3.0321075">
<ele>130.99</ele>
<time>2016-10-18T09:19:35Z</time>
</trkpt>
<trkpt lat="39.6616982" lon="3.0319736">
<ele>132.74</ele>
<time>2016-10-18T09:19:40Z</time>
</trkpt>
<trkpt lat="39.6615189" lon="3.0318461">
<ele>133.30</ele>
<time>2016-10-18T09:19:45Z</time>
</trkpt>
<trkpt lat="39.6613305" lon="3.0317496">
<ele>133.35</ele>
<time>2016-10-18T09:19:50Z</time>
</trkpt>
<trkpt lat="39.6611266" lon="3.0316612">
<ele>133.95</ele>
<time>2016-10-18T09:19:55Z</time>
</trkpt>
<trkpt lat="39.6609297" lon="3.0316057">
<ele>134.15</ele>
<time>2016-10-18T09:19:59Z</time>
</trkpt>
<trkpt lat="39.6606918" lon="3.0316109">
<ele>133.97</ele>
<time>2016-10-18T09:20:03Z</time>
</trkpt>
<trkpt lat="39.6604860" lon="3.0315308">
<ele>133.84</ele>
<time>2016-10-18T09:20:06Z</time>
</trkpt>
<trkpt lat="39.6602560" lon="3.0313729">
<ele>133.36</ele>
<time>2016-10-18T09:20:09Z</time>
</trkpt>
<trkpt lat="39.6601000" lon="3.0312533">
<ele>132.55</ele>
<time>2016-10-18T09:20:11Z</time>
</trkpt>
<trkpt lat="39.6599483" lon="3.0311235">
<ele>131.41</ele>
<time>2016-10-18T09:20:13Z</time>
</trkpt>
<trkpt lat="39.6597317" lon="3.0309604">
<ele>129.89</ele>
<time>2016-10-18T09:20:16Z</time>
</trkpt>
<trkpt lat="39.6595225" lon="3.0307936">
<ele>128.76</ele>
<time>2016-10-18T09:20:19Z</time>
</trkpt>
<trkpt lat="39.6593302" lon="3.0306441">
<ele>128.49</ele>
<time>2016-10-18T09:20:22Z</time>
</trkpt>
<trkpt lat="39.6591432" lon="3.0305012">
<ele>128.97</ele>
<time>2016-10-18T09:20:25Z</time>
</trkpt>
<trkpt lat="39.6589618" lon="3.0303587">
<ele>128.54</ele>
<time>2016-10-18T09:20:28Z</time>
</trkpt>
<trkpt lat="39.6587797" lon="3.0302132">
<ele>127.99</ele>
<time>2016-10-18T09:20:31Z</time>
</trkpt>
<trkpt lat="39.6586026" lon="3.0300743">
<ele>127.09</ele>
<time>2016-10-18T09:20:34Z</time>
</trkpt>
<trkpt lat="39.6584311" lon="3.0299350">
<ele>127.18</ele>
<time>2016-10-18T09:20:37Z</time>
</trkpt>
<trkpt lat="39.6582535" lon="3.0297974">
<ele>128.00</ele>
<time>2016-10-18T09:20:40Z</time>
</trkpt>
<trkpt lat="39.6580644" lon="3.0296409">
<ele>127.86</ele>
<time>2016-10-18T09:20:43Z</time>
</trkpt>
<trkpt lat="39.6578794" lon="3.0294653">
<ele>127.86</ele>
<time>2016-10-18T09:20:46Z</time>
</trkpt>
<trkpt lat="39.6577025" lon="3.0292794">
<ele>127.84</ele>
<time>2016-10-18T09:20:49Z</time>
</trkpt>
<trkpt lat="39.6575490" lon="3.0290958">
<ele>128.96</ele>
<time>2016-10-18T09:20:52Z</time>
</trkpt>
<trkpt lat="39.6574102" lon="3.0289029">
<ele>128.91</ele>
<time>2016-10-18T09:20:55Z</time>
</trkpt>
<trkpt lat="39.6572946" lon="3.0287136">
<ele>128.46</ele>
<time>2016-10-18T09:20:58Z</time>
</trkpt>
<trkpt lat="39.6571882" lon="3.0285192">
<ele>128.46</ele>
<time>2016-10-18T09:21:01Z</time>
</trkpt>
<trkpt lat="39.6570772" lon="3.0283239">
<ele>128.74</ele>
<time>2016-10-18T09:21:04Z</time>
</trkpt>
<trkpt lat="39.6569510" lon="3.0280943">
<ele>128.78</ele>
<time>2016-10-18T09:21:08Z</time>
</trkpt>
<trkpt lat="39.6568322" lon="3.0278843">
<ele>131.82</ele>
<time>2016-10-18T09:21:12Z</time>
</trkpt>
<trkpt lat="39.6567020" lon="3.0276655">
<ele>133.67</ele>
<time>2016-10-18T09:21:16Z</time>
</trkpt>
<trkpt lat="39.6565690" lon="3.0274538">
<ele>134.90</ele>
<time>2016-10-18T09:21:21Z</time>
</trkpt>
<trkpt lat="39.6564410" lon="3.0272270">
<ele>136.02</ele>
<time>2016-10-18T09:21:26Z</time>
</trkpt>
<trkpt lat="39.6563220" lon="3.0270358">
<ele>136.65</ele>
<time>2016-10-18T09:21:31Z</time>
</trkpt>
<trkpt lat="39.6562096" lon="3.0268450">
<ele>137.26</ele>
<time>2016-10-18T09:21:36Z</time>
</trkpt>
<trkpt lat="39.6560926" lon="3.0266669">
<ele>137.54</ele>
<time>2016-10-18T09:21:41Z</time>
</trkpt>
<trkpt lat="39.6559668" lon="3.0264837">
<ele>138.31</ele>
<time>2016-10-18T09:21:46Z</time>
</trkpt>
<trkpt lat="39.6558311" lon="3.0262635">
<ele>139.59</ele>
<time>2016-10-18T09:21:51Z</time>
</trkpt>
<trkpt lat="39.6557179" lon="3.0260350">
<ele>141.18</ele>
<time>2016-10-18T09:21:56Z</time>
</trkpt>
<trkpt lat="39.6556231" lon="3.0258106">
<ele>143.86</ele>
<time>2016-10-18T09:22:01Z</time>
</trkpt>
<trkpt lat="39.6555389" lon="3.0255623">
<ele>143.94</ele>
<time>2016-10-18T09:22:06Z</time>
</trkpt>
<trkpt lat="39.6554696" lon="3.0253406">
<ele>143.77</ele>
<time>2016-10-18T09:22:10Z</time>
</trkpt>
<trkpt lat="39.6553932" lon="3.0251073">
<ele>144.76</ele>
<time>2016-10-18T09:22:14Z</time>
</trkpt>
<trkpt lat="39.6553144" lon="3.0248940">
<ele>146.04</ele>
<time>2016-10-18T09:22:18Z</time>
</trkpt>
<trkpt lat="39.6552132" lon="3.0246715">
<ele>146.48</ele>
<time>2016-10-18T09:22:23Z</time>
</trkpt>
<trkpt lat="39.6550894" lon="3.0244824">
<ele>147.72</ele>
<time>2016-10-18T09:22:28Z</time>
</trkpt>
<trkpt lat="39.6549323" lon="3.0243167">
<ele>148.95</ele>
<time>2016-10-18T09:22:33Z</time>
</trkpt>
<trkpt lat="39.6547648" lon="3.0241495">
<ele>148.36</ele>
<time>2016-10-18T09:22:38Z</time>
</trkpt>
<trkpt lat="39.6546261" lon="3.0239895">
<ele>150.37</ele>
<time>2016-10-18T09:22:42Z</time>
</trkpt>
<trkpt lat="39.6544837" lon="3.0237774">
<ele>150.65</ele>
<time>2016-10-18T09:22:46Z</time>
</trkpt>
<trkpt lat="39.6543612" lon="3.0235815">
<ele>149.81</ele>
<time>2016-10-18T09:22:49Z</time>
</trkpt>
<trkpt lat="39.6542177" lon="3.0234009">
<ele>149.05</ele>
<time>2016-10-18T09:22:52Z</time>
</trkpt>
<trkpt lat="39.6540543" lon="3.0232228">
<ele>148.16</ele>
<time>2016-10-18T09:22:55Z</time>
</trkpt>
<trkpt lat="39.6538884" lon="3.0230454">
<ele>146.48</ele>
<time>2016-10-18T09:22:57Z</time>
</trkpt>
<trkpt lat="39.6537468" lon="3.0228497">
<ele>145.85</ele>
<time>2016-10-18T09:23:00Z</time>
</trkpt>
<trkpt lat="39.6536255" lon="3.0226312">
<ele>145.75</ele>
<time>2016-10-18T09:23:03Z</time>
</trkpt>
<trkpt lat="39.6535143" lon="3.0224055">
<ele>145.58</ele>
<time>2016-10-18T09:23:06Z</time>
</trkpt>
<trkpt lat="39.6534158" lon="3.0221787">
<ele>145.56</ele>
<time>2016-10-18T09:23:09Z</time>
</trkpt>
<trkpt lat="39.6533178" lon="3.0219314">
<ele>145.51</ele>
<time>2016-10-18T09:23:12Z</time>
</trkpt>
<trkpt lat="39.6532140" lon="3.0216784">
<ele>144.63</ele>
<time>2016-10-18T09:23:15Z</time>
</trkpt>
<trkpt lat="39.6531092" lon="3.0214426">
<ele>143.93</ele>
<time>2016-10-18T09:23:18Z</time>
</trkpt>
<trkpt lat="39.6530004" lon="3.0212160">
<ele>144.09</ele>
<time>2016-10-18T09:23:21Z</time>
</trkpt>
<trkpt lat="39.6528822" lon="3.0209898">
<ele>144.15</ele>
<time>2016-10-18T09:23:24Z</time>
</trkpt>
<trkpt lat="39.6527477" lon="3.0207801">
<ele>144.20</ele>
<time>2016-10-18T09:23:27Z</time>
</trkpt>
<trkpt lat="39.6525980" lon="3.0205889">
<ele>144.08</ele>
<time>2016-10-18T09:23:30Z</time>
</trkpt>
<trkpt lat="39.6524434" lon="3.0204021">
<ele>143.77</ele>
<time>2016-10-18T09:23:33Z</time>
</trkpt>
<trkpt lat="39.6522913" lon="3.0202111">
<ele>143.43</ele>
<time>2016-10-18T09:23:36Z</time>
</trkpt>
<trkpt lat="39.6521293" lon="3.0200255">
<ele>143.11</ele>
<time>2016-10-18T09:23:39Z</time>
</trkpt>
<trkpt lat="39.6519427" lon="3.0198508">
<ele>142.49</ele>
<time>2016-10-18T09:23:42Z</time>
</trkpt>
<trkpt lat="39.6517273" lon="3.0196957">
<ele>141.20</ele>
<time>2016-10-18T09:23:45Z</time>
</trkpt>
<trkpt lat="39.6514915" lon="3.0195336">
<ele>139.92</ele>
<time>2016-10-18T09:23:48Z</time>
</trkpt>
<trkpt lat="39.6513253" lon="3.0194289">
<ele>139.68</ele>
<time>2016-10-18T09:23:50Z</time>
</trkpt>
<trkpt lat="39.6511563" lon="3.0193258">
<ele>139.35</ele>
<time>2016-10-18T09:23:52Z</time>
</trkpt>
<trkpt lat="39.6509846" lon="3.0192175">
<ele>139.15</ele>
<time>2016-10-18T09:23:54Z</time>
</trkpt>
<trkpt lat="39.6508224" lon="3.0191114">
<ele>139.22</ele>
<time>2016-10-18T09:23:56Z</time>
</trkpt>
<trkpt lat="39.6505836" lon="3.0189503">
<ele>138.90</ele>
<time>2016-10-18T09:23:59Z</time>
</trkpt>
<trkpt lat="39.6503513" lon="3.0187912">
<ele>137.53</ele>
<time>2016-10-18T09:24:02Z</time>
</trkpt>
<trkpt lat="39.6501365" lon="3.0186498">
<ele>136.96</ele>
<time>2016-10-18T09:24:05Z</time>
</trkpt>
<trkpt lat="39.6499255" lon="3.0185140">
<ele>136.98</ele>
<time>2016-10-18T09:24:08Z</time>
</trkpt>
<trkpt lat="39.6497169" lon="3.0183899">
<ele>137.82</ele>
<time>2016-10-18T09:24:11Z</time>
</trkpt>
<trkpt lat="39.6495330" lon="3.0182800">
<ele>138.63</ele>
<time>2016-10-18T09:24:14Z</time>
</trkpt>
<trkpt lat="39.6493448" lon="3.0181797">
<ele>138.99</ele>
<time>2016-10-18T09:24:17Z</time>
</trkpt>
<trkpt lat="39.6491593" lon="3.0180915">
<ele>140.16</ele>
<time>2016-10-18T09:24:20Z</time>
</trkpt>
<trkpt lat="39.6489858" lon="3.0180042">
<ele>140.34</ele>
<time>2016-10-18T09:24:23Z</time>
</trkpt>
<trkpt lat="39.6488033" lon="3.0179271">
<ele>140.37</ele>
<time>2016-10-18T09:24:26Z</time>
</trkpt>
<trkpt lat="39.6486191" lon="3.0178488">
<ele>141.13</ele>
<time>2016-10-18T09:24:29Z</time>
</trkpt>
<trkpt lat="39.6484283" lon="3.0177626">
<ele>141.34</ele>
<time>2016-10-18T09:24:32Z</time>
</trkpt>
<trkpt lat="39.6482540" lon="3.0176754">
<ele>140.67</ele>
<time>2016-10-18T09:24:35Z</time>
</trkpt>
<trkpt lat="39.6480464" lon="3.0175754">
<ele>140.72</ele>
<time>2016-10-18T09:24:39Z</time>
</trkpt>
<trkpt lat="39.6478639" lon="3.0175346">
<ele>141.48</ele>
<time>2016-10-18T09:24:43Z</time>
</trkpt>
<trkpt lat="39.6476571" lon="3.0174813">
<ele>142.92</ele>
<time>2016-10-18T09:24:48Z</time>
</trkpt>
<trkpt lat="39.6475211" lon="3.0173049">
<ele>142.68</ele>
<time>2016-10-18T09:24:52Z</time>
</trkpt>
<trkpt lat="39.6474074" lon="3.0170880">
<ele>141.59</ele>
<time>2016-10-18T09:24:56Z</time>
</trkpt>
<trkpt lat="39.6473309" lon="3.0168695">
<ele>141.35</ele>
<time>2016-10-18T09:25:00Z</time>
</trkpt>
<trkpt lat="39.6473277" lon="3.0166088">
<ele>141.45</ele>
<time>2016-10-18T09:25:04Z</time>
</trkpt>
<trkpt lat="39.6472178" lon="3.0163971">
<ele>141.25</ele>
<time>2016-10-18T09:25:08Z</time>
</trkpt>
<trkpt lat="39.6470375" lon="3.0162639">
<ele>140.08</ele>
<time>2016-10-18T09:25:12Z</time>
</trkpt>
<trkpt lat="39.6469099" lon="3.0160789">
<ele>139.62</ele>
<time>2016-10-18T09:25:16Z</time>
</trkpt>
<trkpt lat="39.6467961" lon="3.0158358">
<ele>139.31</ele>
<time>2016-10-18T09:25:20Z</time>
</trkpt>
<trkpt lat="39.6466887" lon="3.0156323">
<ele>138.79</ele>
<time>2016-10-18T09:25:23Z</time>
</trkpt>
<trkpt lat="39.6465578" lon="3.0153931">
<ele>137.61</ele>
<time>2016-10-18T09:25:26Z</time>
</trkpt>
<trkpt lat="39.6464463" lon="3.0151919">
<ele>136.33</ele>
<time>2016-10-18T09:25:29Z</time>
</trkpt>
<trkpt lat="39.6463327" lon="3.0150020">
<ele>135.22</ele>
<time>2016-10-18T09:25:32Z</time>
</trkpt>
<trkpt lat="39.6462028" lon="3.0148056">
<ele>134.97</ele>
<time>2016-10-18T09:25:35Z</time>
</trkpt>
<trkpt lat="39.6460531" lon="3.0145684">
<ele>133.42</ele>
<time>2016-10-18T09:25:38Z</time>
</trkpt>
<trkpt lat="39.6459246" lon="3.0143262">
<ele>131.48</ele>
<time>2016-10-18T09:25:41Z</time>
</trkpt>
<trkpt lat="39.6458208" lon="3.0141130">
<ele>129.55</ele>
<time>2016-10-18T09:25:44Z</time>
</trkpt>
<trkpt lat="39.6457317" lon="3.0139076">
<ele>127.67</ele>
<time>2016-10-18T09:25:48Z</time>
</trkpt>
<trkpt lat="39.6456390" lon="3.0136797">
<ele>126.38</ele>
<time>2016-10-18T09:25:54Z</time>
</trkpt>
<trkpt lat="39.6455462" lon="3.0134792">
<ele>126.43</ele>
<time>2016-10-18T09:26:00Z</time>
</trkpt>
<trkpt lat="39.6457434" lon="3.0133751">
<ele>129.34</ele>
<time>2016-10-18T09:26:28Z</time>
</trkpt>
<trkpt lat="39.6459119" lon="3.0132113">
<ele>129.33</ele>
<time>2016-10-18T09:26:32Z</time>
</trkpt>
<trkpt lat="39.6460948" lon="3.0130159">
<ele>128.44</ele>
<time>2016-10-18T09:26:36Z</time>
</trkpt>
<trkpt lat="39.6462209" lon="3.0128276">
<ele>131.69</ele>
<time>2016-10-18T09:26:39Z</time>
</trkpt>
<trkpt lat="39.6463531" lon="3.0126375">
<ele>132.90</ele>
<time>2016-10-18T09:26:42Z</time>
</trkpt>
<trkpt lat="39.6464707" lon="3.0124392">
<ele>132.15</ele>
<time>2016-10-18T09:26:45Z</time>
</trkpt>
<trkpt lat="39.6465880" lon="3.0122373">
<ele>130.59</ele>
<time>2016-10-18T09:26:48Z</time>
</trkpt>
<trkpt lat="39.6466975" lon="3.0120313">
<ele>129.10</ele>
<time>2016-10-18T09:26:51Z</time>
</trkpt>
<trkpt lat="39.6468037" lon="3.0117951">
<ele>128.72</ele>
<time>2016-10-18T09:26:56Z</time>
</trkpt>
<trkpt lat="39.6468906" lon="3.0115662">
<ele>128.34</ele>
<time>2016-10-18T09:27:03Z</time>
</trkpt>
<trkpt lat="39.6469765" lon="3.0112928">
<ele>126.51</ele>
<time>2016-10-18T09:27:08Z</time>
</trkpt>
<trkpt lat="39.6469724" lon="3.0110419">
<ele>124.39</ele>
<time>2016-10-18T09:27:12Z</time>
</trkpt>
<trkpt lat="39.6468646" lon="3.0108172">
<ele>122.63</ele>
<time>2016-10-18T09:27:16Z</time>
</trkpt>
<trkpt lat="39.6467468" lon="3.0106406">
<ele>121.81</ele>
<time>2016-10-18T09:27:19Z</time>
</trkpt>
<trkpt lat="39.6465969" lon="3.0104223">
<ele>121.43</ele>
<time>2016-10-18T09:27:23Z</time>
</trkpt>
<trkpt lat="39.6464358" lon="3.0102103">
<ele>121.56</ele>
<time>2016-10-18T09:27:27Z</time>
</trkpt>
<trkpt lat="39.6463079" lon="3.0100367">
<ele>122.03</ele>
<time>2016-10-18T09:27:30Z</time>
</trkpt>
<trkpt lat="39.6461618" lon="3.0098496">
<ele>121.90</ele>
<time>2016-10-18T09:27:33Z</time>
</trkpt>
<trkpt lat="39.6460151" lon="3.0096554">
<ele>121.21</ele>
<time>2016-10-18T09:27:36Z</time>
</trkpt>
<trkpt lat="39.6458784" lon="3.0094676">
<ele>120.74</ele>
<time>2016-10-18T09:27:39Z</time>
</trkpt>
<trkpt lat="39.6457347" lon="3.0092756">
<ele>120.34</ele>
<time>2016-10-18T09:27:42Z</time>
</trkpt>
<trkpt lat="39.6456035" lon="3.0090906">
<ele>120.06</ele>
<time>2016-10-18T09:27:45Z</time>
</trkpt>
<trkpt lat="39.6454653" lon="3.0089042">
<ele>120.04</ele>
<time>2016-10-18T09:27:48Z</time>
</trkpt>
<trkpt lat="39.6453299" lon="3.0087275">
<ele>120.27</ele>
<time>2016-10-18T09:27:51Z</time>
</trkpt>
<trkpt lat="39.6452042" lon="3.0085400">
<ele>120.31</ele>
<time>2016-10-18T09:27:54Z</time>
</trkpt>
<trkpt lat="39.6450540" lon="3.0083470">
<ele>121.26</ele>
<time>2016-10-18T09:27:58Z</time>
</trkpt>
<trkpt lat="39.6449046" lon="3.0081640">
<ele>122.26</ele>
<time>2016-10-18T09:28:04Z</time>
</trkpt>
<trkpt lat="39.6447480" lon="3.0079819">
<ele>122.29</ele>
<time>2016-10-18T09:28:10Z</time>
</trkpt>
<trkpt lat="39.6446137" lon="3.0077926">
<ele>122.09</ele>
<time>2016-10-18T09:28:14Z</time>
</trkpt>
<trkpt lat="39.6444710" lon="3.0075993">
<ele>121.98</ele>
<time>2016-10-18T09:28:18Z</time>
</trkpt>
<trkpt lat="39.6443268" lon="3.0074157">
<ele>120.41</ele>
<time>2016-10-18T09:28:22Z</time>
</trkpt>
<trkpt lat="39.6441709" lon="3.0072205">
<ele>120.66</ele>
<time>2016-10-18T09:28:26Z</time>
</trkpt>
<trkpt lat="39.6440065" lon="3.0070079">
<ele>121.49</ele>
<time>2016-10-18T09:28:30Z</time>
</trkpt>
<trkpt lat="39.6438391" lon="3.0067985">
<ele>123.51</ele>
<time>2016-10-18T09:28:34Z</time>
</trkpt>
<trkpt lat="39.6436773" lon="3.0065998">
<ele>124.17</ele>
<time>2016-10-18T09:28:38Z</time>
</trkpt>
<trkpt lat="39.6435424" lon="3.0064408">
<ele>124.20</ele>
<time>2016-10-18T09:28:41Z</time>
</trkpt>
<trkpt lat="39.6433682" lon="3.0062535">
<ele>123.80</ele>
<time>2016-10-18T09:28:45Z</time>
</trkpt>
<trkpt lat="39.6432177" lon="3.0060981">
<ele>123.69</ele>
<time>2016-10-18T09:28:49Z</time>
</trkpt>
<trkpt lat="39.6430298" lon="3.0060358">
<ele>124.66</ele>
<time>2016-10-18T09:28:53Z</time>
</trkpt>
<trkpt lat="39.6428807" lon="3.0058626">
<ele>124.50</ele>
<time>2016-10-18T09:28:57Z</time>
</trkpt>
<trkpt lat="39.6427577" lon="3.0056047">
<ele>124.46</ele>
<time>2016-10-18T09:29:01Z</time>
</trkpt>
<trkpt lat="39.6426669" lon="3.0053958">
<ele>124.28</ele>
<time>2016-10-18T09:29:04Z</time>
</trkpt>
<trkpt lat="39.6425694" lon="3.0051139">
<ele>124.22</ele>
<time>2016-10-18T09:29:08Z</time>
</trkpt>
<trkpt lat="39.6425031" lon="3.0048150">
<ele>123.72</ele>
<time>2016-10-18T09:29:12Z</time>
</trkpt>
<trkpt lat="39.6424201" lon="3.0045324">
<ele>123.16</ele>
<time>2016-10-18T09:29:16Z</time>
</trkpt>
<trkpt lat="39.6422143" lon="3.0043723">
<ele>123.76</ele>
<time>2016-10-18T09:29:20Z</time>
</trkpt>
<trkpt lat="39.6420053" lon="3.0042613">
<ele>124.65</ele>
<time>2016-10-18T09:29:24Z</time>
</trkpt>
<trkpt lat="39.6418088" lon="3.0042049">
<ele>125.57</ele>
<time>2016-10-18T09:29:28Z</time>
</trkpt>
<trkpt lat="39.6416162" lon="3.0042005">
<ele>125.64</ele>
<time>2016-10-18T09:29:32Z</time>
</trkpt>
<trkpt lat="39.6414048" lon="3.0042907">
<ele>127.16</ele>
<time>2016-10-18T09:29:37Z</time>
</trkpt>
<trkpt lat="39.6412004" lon="3.0044122">
<ele>129.81</ele>
<time>2016-10-18T09:29:42Z</time>
</trkpt>
<trkpt lat="39.6410341" lon="3.0045427">
<ele>134.85</ele>
<time>2016-10-18T09:29:47Z</time>
</trkpt>
<trkpt lat="39.6408848" lon="3.0046770">
<ele>140.48</ele>
<time>2016-10-18T09:29:52Z</time>
</trkpt>
<trkpt lat="39.6407046" lon="3.0048277">
<ele>141.06</ele>
<time>2016-10-18T09:29:58Z</time>
</trkpt>
<trkpt lat="39.6405139" lon="3.0049488">
<ele>141.21</ele>
<time>2016-10-18T09:30:04Z</time>
</trkpt>
<trkpt lat="39.6403397" lon="3.0048799">
<ele>141.39</ele>
<time>2016-10-18T09:30:10Z</time>
</trkpt>
<trkpt lat="39.6402741" lon="3.0046487">
<ele>141.15</ele>
<time>2016-10-18T09:30:15Z</time>
</trkpt>
<trkpt lat="39.6401275" lon="3.0045003">
<ele>140.62</ele>
<time>2016-10-18T09:30:26Z</time>
</trkpt>
<trkpt lat="39.6399692" lon="3.0046314">
<ele>140.25</ele>
<time>2016-10-18T09:30:32Z</time>
</trkpt>
<trkpt lat="39.6397932" lon="3.0047845">
<ele>140.12</ele>
<time>2016-10-18T09:30:38Z</time>
</trkpt>
<trkpt lat="39.6396267" lon="3.0049350">
<ele>140.82</ele>
<time>2016-10-18T09:30:45Z</time>
</trkpt>
<trkpt lat="39.6394714" lon="3.0050866">
<ele>142.25</ele>
<time>2016-10-18T09:30:51Z</time>
</trkpt>
<trkpt lat="39.6392502" lon="3.0050403">
<ele>145.33</ele>
<time>2016-10-18T09:30:59Z</time>
</trkpt>
<trkpt lat="39.6391028" lon="3.0048281">
<ele>145.96</ele>
<time>2016-10-18T09:31:03Z</time>
</trkpt>
<trkpt lat="39.6389677" lon="3.0046021">
<ele>145.12</ele>
<time>2016-10-18T09:31:08Z</time>
</trkpt>
<trkpt lat="39.6388409" lon="3.0044047">
<ele>145.39</ele>
<time>2016-10-18T09:31:12Z</time>
</trkpt>
<trkpt lat="39.6387147" lon="3.0042154">
<ele>145.53</ele>
<time>2016-10-18T09:31:16Z</time>
</trkpt>
<trkpt lat="39.6385990" lon="3.0040138">
<ele>145.85</ele>
<time>2016-10-18T09:31:20Z</time>
</trkpt>
<trkpt lat="39.6384738" lon="3.0037794">
<ele>145.99</ele>
<time>2016-10-18T09:31:24Z</time>
</trkpt>
<trkpt lat="39.6383582" lon="3.0035174">
<ele>145.94</ele>
<time>2016-10-18T09:31:29Z</time>
</trkpt>
<trkpt lat="39.6382653" lon="3.0033155">
<ele>144.76</ele>
<time>2016-10-18T09:31:32Z</time>
</trkpt>
<trkpt lat="39.6380676" lon="3.0031545">
<ele>143.55</ele>
<time>2016-10-18T09:31:35Z</time>
</trkpt>
<trkpt lat="39.6378978" lon="3.0030587">
<ele>142.67</ele>
<time>2016-10-18T09:31:37Z</time>
</trkpt>
<trkpt lat="39.6377496" lon="3.0029094">
<ele>140.90</ele>
<time>2016-10-18T09:31:39Z</time>
</trkpt>
<trkpt lat="39.6376046" lon="3.0027228">
<ele>139.03</ele>
<time>2016-10-18T09:31:41Z</time>
</trkpt>
<trkpt lat="39.6374551" lon="3.0025141">
<ele>137.21</ele>
<time>2016-10-18T09:31:43Z</time>
</trkpt>
<trkpt lat="39.6372989" lon="3.0023029">
<ele>136.08</ele>
<time>2016-10-18T09:31:45Z</time>
</trkpt>
<trkpt lat="39.6371405" lon="3.0021150">
<ele>135.02</ele>
<time>2016-10-18T09:31:47Z</time>
</trkpt>
<trkpt lat="39.6369704" lon="3.0019314">
<ele>133.91</ele>
<time>2016-10-18T09:31:49Z</time>
</trkpt>
<trkpt lat="39.6367688" lon="3.0017992">
<ele>132.84</ele>
<time>2016-10-18T09:31:51Z</time>
</trkpt>
<trkpt lat="39.6365500" lon="3.0017450">
<ele>131.94</ele>
<time>2016-10-18T09:31:53Z</time>
</trkpt>
<trkpt lat="39.6363419" lon="3.0017491">
<ele>131.40</ele>
<time>2016-10-18T09:31:55Z</time>
</trkpt>
<trkpt lat="39.6361439" lon="3.0017757">
<ele>131.47</ele>
<time>2016-10-18T09:31:57Z</time>
</trkpt>
<trkpt lat="39.6359536" lon="3.0018116">
<ele>131.92</ele>
<time>2016-10-18T09:31:59Z</time>
</trkpt>
<trkpt lat="39.6356913" lon="3.0017721">
<ele>132.18</ele>
<time>2016-10-18T09:32:02Z</time>
</trkpt>
<trkpt lat="39.6354885" lon="3.0015955">
<ele>132.27</ele>
<time>2016-10-18T09:32:05Z</time>
</trkpt>
<trkpt lat="39.6353049" lon="3.0014115">
<ele>132.74</ele>
<time>2016-10-18T09:32:08Z</time>
</trkpt>
<trkpt lat="39.6351350" lon="3.0012333">
<ele>132.19</ele>
<time>2016-10-18T09:32:11Z</time>
</trkpt>
<trkpt lat="39.6349744" lon="3.0010650">
<ele>131.78</ele>
<time>2016-10-18T09:32:14Z</time>
</trkpt>
<trkpt lat="39.6348160" lon="3.0009015">
<ele>131.96</ele>
<time>2016-10-18T09:32:17Z</time>
</trkpt>
<trkpt lat="39.6346543" lon="3.0007448">
<ele>132.19</ele>
<time>2016-10-18T09:32:20Z</time>
</trkpt>
<trkpt lat="39.6344902" lon="3.0005923">
<ele>132.55</ele>
<time>2016-10-18T09:32:23Z</time>
</trkpt>
<trkpt lat="39.6343344" lon="3.0004450">
<ele>132.91</ele>
<time>2016-10-18T09:32:26Z</time>
</trkpt>
<trkpt lat="39.6341663" lon="3.0002852">
<ele>133.36</ele>
<time>2016-10-18T09:32:29Z</time>
</trkpt>
<trkpt lat="39.6339911" lon="3.0001298">
<ele>133.60</ele>
<time>2016-10-18T09:32:32Z</time>
</trkpt>
<trkpt lat="39.6338089" lon="2.9999635">
<ele>133.44</ele>
<time>2016-10-18T09:32:35Z</time>
</trkpt>
<trkpt lat="39.6336534" lon="2.9998102">
<ele>133.57</ele>
<time>2016-10-18T09:32:38Z</time>
</trkpt>
<trkpt lat="39.6334941" lon="2.9996471">
<ele>133.82</ele>
<time>2016-10-18T09:32:41Z</time>
</trkpt>
<trkpt lat="39.6333344" lon="2.9994709">
<ele>134.80</ele>
<time>2016-10-18T09:32:44Z</time>
</trkpt>
<trkpt lat="39.6331725" lon="2.9992834">
<ele>135.96</ele>
<time>2016-10-18T09:32:47Z</time>
</trkpt>
<trkpt lat="39.6330235" lon="2.9991085">
<ele>135.82</ele>
<time>2016-10-18T09:32:50Z</time>
</trkpt>
<trkpt lat="39.6328765" lon="2.9989303">
<ele>135.24</ele>
<time>2016-10-18T09:32:53Z</time>
</trkpt>
<trkpt lat="39.6327347" lon="2.9987545">
<ele>135.01</ele>
<time>2016-10-18T09:32:56Z</time>
</trkpt>
<trkpt lat="39.6325853" lon="2.9985687">
<ele>134.56</ele>
<time>2016-10-18T09:32:59Z</time>
</trkpt>
<trkpt lat="39.6324376" lon="2.9983909">
<ele>134.36</ele>
<time>2016-10-18T09:33:02Z</time>
</trkpt>
<trkpt lat="39.6322943" lon="2.9982078">
<ele>133.57</ele>
<time>2016-10-18T09:33:05Z</time>
</trkpt>
<trkpt lat="39.6321483" lon="2.9980184">
<ele>134.34</ele>
<time>2016-10-18T09:33:08Z</time>
</trkpt>
<trkpt lat="39.6319834" lon="2.9978343">
<ele>135.29</ele>
<time>2016-10-18T09:33:11Z</time>
</trkpt>
<trkpt lat="39.6318205" lon="2.9976701">
<ele>135.68</ele>
<time>2016-10-18T09:33:14Z</time>
</trkpt>
<trkpt lat="39.6316492" lon="2.9975041">
<ele>135.68</ele>
<time>2016-10-18T09:33:17Z</time>
</trkpt>
<trkpt lat="39.6314854" lon="2.9973425">
<ele>136.01</ele>
<time>2016-10-18T09:33:20Z</time>
</trkpt>
<trkpt lat="39.6313224" lon="2.9971822">
<ele>136.36</ele>
<time>2016-10-18T09:33:23Z</time>
</trkpt>
<trkpt lat="39.6311642" lon="2.9970343">
<ele>136.68</ele>
<time>2016-10-18T09:33:26Z</time>
</trkpt>
<trkpt lat="39.6310071" lon="2.9969140">
<ele>137.27</ele>
<time>2016-10-18T09:33:29Z</time>
</trkpt>
<trkpt lat="39.6308292" lon="2.9968079">
<ele>138.36</ele>
<time>2016-10-18T09:33:32Z</time>
</trkpt>
<trkpt lat="39.6306362" lon="2.9967068">
<ele>138.76</ele>
<time>2016-10-18T09:33:35Z</time>
</trkpt>
<trkpt lat="39.6304302" lon="2.9965899">
<ele>138.30</ele>
<time>2016-10-18T09:33:38Z</time>
</trkpt>
<trkpt lat="39.6302313" lon="2.9964550">
<ele>137.86</ele>
<time>2016-10-18T09:33:41Z</time>
</trkpt>
<trkpt lat="39.6300190" lon="2.9962818">
<ele>137.54</ele>
<time>2016-10-18T09:33:44Z</time>
</trkpt>
<trkpt lat="39.6298339" lon="2.9960875">
<ele>136.98</ele>
<time>2016-10-18T09:33:47Z</time>
</trkpt>
<trkpt lat="39.6296349" lon="2.9958626">
<ele>136.13</ele>
<time>2016-10-18T09:33:50Z</time>
</trkpt>
<trkpt lat="39.6294362" lon="2.9956366">
<ele>135.31</ele>
<time>2016-10-18T09:33:53Z</time>
</trkpt>
<trkpt lat="39.6292345" lon="2.9954118">
<ele>134.64</ele>
<time>2016-10-18T09:33:56Z</time>
</trkpt>
<trkpt lat="39.6290902" lon="2.9952536">
<ele>134.13</ele>
<time>2016-10-18T09:33:58Z</time>
</trkpt>
<trkpt lat="39.6288882" lon="2.9950370">
<ele>133.21</ele>
<time>2016-10-18T09:34:01Z</time>
</trkpt>
<trkpt lat="39.6287476" lon="2.9948771">
<ele>132.99</ele>
<time>2016-10-18T09:34:03Z</time>
</trkpt>
<trkpt lat="39.6286078" lon="2.9947120">
<ele>132.83</ele>
<time>2016-10-18T09:34:05Z</time>
</trkpt>
<trkpt lat="39.6284550" lon="2.9945253">
<ele>132.43</ele>
<time>2016-10-18T09:34:07Z</time>
</trkpt>
<trkpt lat="39.6283107" lon="2.9943396">
<ele>131.56</ele>
<time>2016-10-18T09:34:09Z</time>
</trkpt>
<trkpt lat="39.6281824" lon="2.9941559">
<ele>130.61</ele>
<time>2016-10-18T09:34:11Z</time>
</trkpt>
<trkpt lat="39.6280558" lon="2.9939715">
<ele>129.78</ele>
<time>2016-10-18T09:34:13Z</time>
</trkpt>
<trkpt lat="39.6279276" lon="2.9937828">
<ele>129.31</ele>
<time>2016-10-18T09:34:15Z</time>
</trkpt>
<trkpt lat="39.6277954" lon="2.9935938">
<ele>129.27</ele>
<time>2016-10-18T09:34:17Z</time>
</trkpt>
<trkpt lat="39.6276687" lon="2.9934136">
<ele>129.24</ele>
<time>2016-10-18T09:34:19Z</time>
</trkpt>
<trkpt lat="39.6275409" lon="2.9932357">
<ele>129.12</ele>
<time>2016-10-18T09:34:21Z</time>
</trkpt>
<trkpt lat="39.6274069" lon="2.9930499">
<ele>129.23</ele>
<time>2016-10-18T09:34:23Z</time>
</trkpt>
<trkpt lat="39.6272812" lon="2.9928822">
<ele>129.58</ele>
<time>2016-10-18T09:34:25Z</time>
</trkpt>
<trkpt lat="39.6271555" lon="2.9927130">
<ele>129.77</ele>
<time>2016-10-18T09:34:27Z</time>
</trkpt>
<trkpt lat="39.6270297" lon="2.9925443">
<ele>129.82</ele>
<time>2016-10-18T09:34:29Z</time>
</trkpt>
<trkpt lat="39.6268940" lon="2.9923672">
<ele>130.08</ele>
<time>2016-10-18T09:34:31Z</time>
</trkpt>
<trkpt lat="39.6267544" lon="2.9921940">
<ele>130.15</ele>
<time>2016-10-18T09:34:33Z</time>
</trkpt>
<trkpt lat="39.6266165" lon="2.9920306">
<ele>130.13</ele>
<time>2016-10-18T09:34:35Z</time>
</trkpt>
<trkpt lat="39.6264706" lon="2.9918680">
<ele>130.24</ele>
<time>2016-10-18T09:34:37Z</time>
</trkpt>
<trkpt lat="39.6262577" lon="2.9916449">
<ele>130.40</ele>
<time>2016-10-18T09:34:40Z</time>
</trkpt>
<trkpt lat="39.6261091" lon="2.9915028">
<ele>130.45</ele>
<time>2016-10-18T09:34:42Z</time>
</trkpt>
<trkpt lat="39.6258898" lon="2.9913118">
<ele>130.30</ele>
<time>2016-10-18T09:34:45Z</time>
</trkpt>
<trkpt lat="39.6256773" lon="2.9911413">
<ele>130.15</ele>
<time>2016-10-18T09:34:48Z</time>
</trkpt>
<trkpt lat="39.6254696" lon="2.9910077">
<ele>129.81</ele>
<time>2016-10-18T09:34:51Z</time>
</trkpt>
<trkpt lat="39.6252377" lon="2.9909499">
<ele>130.00</ele>
<time>2016-10-18T09:34:54Z</time>
</trkpt>
<trkpt lat="39.6250199" lon="2.9909042">
<ele>130.68</ele>
<time>2016-10-18T09:34:57Z</time>
</trkpt>
<trkpt lat="39.6247846" lon="2.9908613">
<ele>131.42</ele>
<time>2016-10-18T09:35:00Z</time>
</trkpt>
<trkpt lat="39.6245456" lon="2.9908201">
<ele>132.43</ele>
<time>2016-10-18T09:35:03Z</time>
</trkpt>
<trkpt lat="39.6243173" lon="2.9907652">
<ele>133.41</ele>
<time>2016-10-18T09:35:06Z</time>
</trkpt>
<trkpt lat="39.6240871" lon="2.9906799">
<ele>133.28</ele>
<time>2016-10-18T09:35:09Z</time>
</trkpt>
<trkpt lat="39.6238761" lon="2.9905595">
<ele>132.94</ele>
<time>2016-10-18T09:35:12Z</time>
</trkpt>
<trkpt lat="39.6236794" lon="2.9904308">
<ele>133.03</ele>
<time>2016-10-18T09:35:15Z</time>
</trkpt>
<trkpt lat="39.6234932" lon="2.9903106">
<ele>133.38</ele>
<time>2016-10-18T09:35:18Z</time>
</trkpt>
<trkpt lat="39.6233130" lon="2.9902041">
<ele>133.53</ele>
<time>2016-10-18T09:35:21Z</time>
</trkpt>
<trkpt lat="39.6230962" lon="2.9900935">
<ele>134.46</ele>
<time>2016-10-18T09:35:25Z</time>
</trkpt>
<trkpt lat="39.6229173" lon="2.9900268">
<ele>135.77</ele>
<time>2016-10-18T09:35:28Z</time>
</trkpt>
<trkpt lat="39.6227240" lon="2.9899479">
<ele>136.32</ele>
<time>2016-10-18T09:35:31Z</time>
</trkpt>
<trkpt lat="39.6225538" lon="2.9898455">
<ele>136.47</ele>
<time>2016-10-18T09:35:34Z</time>
</trkpt>
<trkpt lat="39.6223908" lon="2.9897044">
<ele>136.26</ele>
<time>2016-10-18T09:35:37Z</time>
</trkpt>
<trkpt lat="39.6222423" lon="2.9895475">
<ele>135.74</ele>
<time>2016-10-18T09:35:40Z</time>
</trkpt>
<trkpt lat="39.6220534" lon="2.9893407">
<ele>136.47</ele>
<time>2016-10-18T09:35:44Z</time>
</trkpt>
<trkpt lat="39.6218968" lon="2.9891849">
<ele>137.60</ele>
<time>2016-10-18T09:35:47Z</time>
</trkpt>
<trkpt lat="39.6217298" lon="2.9890151">
<ele>137.49</ele>
<time>2016-10-18T09:35:50Z</time>
</trkpt>
<trkpt lat="39.6215428" lon="2.9888402">
<ele>136.96</ele>
<time>2016-10-18T09:35:53Z</time>
</trkpt>
<trkpt lat="39.6213356" lon="2.9886575">
<ele>136.90</ele>
<time>2016-10-18T09:35:56Z</time>
</trkpt>
<trkpt lat="39.6211354" lon="2.9884855">
<ele>135.92</ele>
<time>2016-10-18T09:35:59Z</time>
</trkpt>
<trkpt lat="39.6209027" lon="2.9882949">
<ele>134.63</ele>
<time>2016-10-18T09:36:02Z</time>
</trkpt>
<trkpt lat="39.6207470" lon="2.9881639">
<ele>133.71</ele>
<time>2016-10-18T09:36:04Z</time>
</trkpt>
<trkpt lat="39.6205940" lon="2.9880367">
<ele>133.06</ele>
<time>2016-10-18T09:36:06Z</time>
</trkpt>
<trkpt lat="39.6203602" lon="2.9878582">
<ele>133.50</ele>
<time>2016-10-18T09:36:09Z</time>
</trkpt>
<trkpt lat="39.6201964" lon="2.9877486">
<ele>134.03</ele>
<time>2016-10-18T09:36:11Z</time>
</trkpt>
<trkpt lat="39.6200227" lon="2.9876420">
<ele>133.99</ele>
<time>2016-10-18T09:36:13Z</time>
</trkpt>
<trkpt lat="39.6198377" lon="2.9875502">
<ele>133.83</ele>
<time>2016-10-18T09:36:15Z</time>
</trkpt>
<trkpt lat="39.6196598" lon="2.9874708">
<ele>133.56</ele>
<time>2016-10-18T09:36:17Z</time>
</trkpt>
<trkpt lat="39.6194857" lon="2.9873792">
<ele>132.81</ele>
<time>2016-10-18T09:36:19Z</time>
</trkpt>
<trkpt lat="39.6193203" lon="2.9872593">
<ele>132.74</ele>
<time>2016-10-18T09:36:21Z</time>
</trkpt>
<trkpt lat="39.6191820" lon="2.9871004">
<ele>133.35</ele>
<time>2016-10-18T09:36:23Z</time>
</trkpt>
<trkpt lat="39.6190298" lon="2.9868300">
<ele>134.50</ele>
<time>2016-10-18T09:36:26Z</time>
</trkpt>
<trkpt lat="39.6189014" lon="2.9865311">
<ele>135.00</ele>
<time>2016-10-18T09:36:29Z</time>
</trkpt>
<trkpt lat="39.6188187" lon="2.9862372">
<ele>135.48</ele>
<time>2016-10-18T09:36:32Z</time>
</trkpt>
<trkpt lat="39.6187602" lon="2.9859457">
<ele>135.49</ele>
<time>2016-10-18T09:36:35Z</time>
</trkpt>
<trkpt lat="39.6187089" lon="2.9856644">
<ele>135.17</ele>
<time>2016-10-18T09:36:38Z</time>
</trkpt>
<trkpt lat="39.6186604" lon="2.9854136">
<ele>135.21</ele>
<time>2016-10-18T09:36:41Z</time>
</trkpt>
<trkpt lat="39.6186125" lon="2.9851677">
<ele>135.35</ele>
<time>2016-10-18T09:36:44Z</time>
</trkpt>
<trkpt lat="39.6185658" lon="2.9849338">
<ele>135.50</ele>
<time>2016-10-18T09:36:47Z</time>
</trkpt>
<trkpt lat="39.6185107" lon="2.9846486">
<ele>136.21</ele>
<time>2016-10-18T09:36:51Z</time>
</trkpt>
<trkpt lat="39.6184548" lon="2.9843842">
<ele>137.60</ele>
<time>2016-10-18T09:36:55Z</time>
</trkpt>
<trkpt lat="39.6183883" lon="2.9841071">
<ele>138.75</ele>
<time>2016-10-18T09:37:00Z</time>
</trkpt>
<trkpt lat="39.6182973" lon="2.9838651">
<ele>138.67</ele>
<time>2016-10-18T09:37:05Z</time>
</trkpt>
<trkpt lat="39.6182111" lon="2.9836319">
<ele>141.41</ele>
<time>2016-10-18T09:37:10Z</time>
</trkpt>
<trkpt lat="39.6181244" lon="2.9833972">
<ele>143.27</ele>
<time>2016-10-18T09:37:15Z</time>
</trkpt>
<trkpt lat="39.6180415" lon="2.9831490">
<ele>143.34</ele>
<time>2016-10-18T09:37:22Z</time>
</trkpt>
<trkpt lat="39.6179803" lon="2.9829143">
<ele>143.73</ele>
<time>2016-10-18T09:37:28Z</time>
</trkpt>
<trkpt lat="39.6179272" lon="2.9826727">
<ele>144.06</ele>
<time>2016-10-18T09:37:34Z</time>
</trkpt>
<trkpt lat="39.6179019" lon="2.9824249">
<ele>144.50</ele>
<time>2016-10-18T09:37:40Z</time>
</trkpt>
<trkpt lat="39.6178972" lon="2.9821743">
<ele>145.65</ele>
<time>2016-10-18T09:37:47Z</time>
</trkpt>
<trkpt lat="39.6178941" lon="2.9819285">
<ele>146.55</ele>
<time>2016-10-18T09:37:52Z</time>
</trkpt>
<trkpt lat="39.6178927" lon="2.9816512">
<ele>149.30</ele>
<time>2016-10-18T09:37:58Z</time>
</trkpt>
<trkpt lat="39.6178959" lon="2.9813830">
<ele>151.42</ele>
<time>2016-10-18T09:38:03Z</time>
</trkpt>
<trkpt lat="39.6179133" lon="2.9811190">
<ele>156.11</ele>
<time>2016-10-18T09:38:08Z</time>
</trkpt>
<trkpt lat="39.6179274" lon="2.9808679">
<ele>157.09</ele>
<time>2016-10-18T09:38:13Z</time>
</trkpt>
<trkpt lat="39.6179394" lon="2.9806100">
<ele>157.46</ele>
<time>2016-10-18T09:38:19Z</time>
</trkpt>
<trkpt lat="39.6179217" lon="2.9803744">
<ele>159.87</ele>
<time>2016-10-18T09:38:24Z</time>
</trkpt>
<trkpt lat="39.6179035" lon="2.9801384">
<ele>160.26</ele>
<time>2016-10-18T09:38:28Z</time>
</trkpt>
<trkpt lat="39.6178771" lon="2.9799044">
<ele>159.64</ele>
<time>2016-10-18T09:38:32Z</time>
</trkpt>
<trkpt lat="39.6178263" lon="2.9796671">
<ele>159.00</ele>
<time>2016-10-18T09:38:36Z</time>
</trkpt>
<trkpt lat="39.6177639" lon="2.9794422">
<ele>157.52</ele>
<time>2016-10-18T09:38:40Z</time>
</trkpt>
<trkpt lat="39.6176942" lon="2.9792002">
<ele>156.48</ele>
<time>2016-10-18T09:38:44Z</time>
</trkpt>
<trkpt lat="39.6176279" lon="2.9789770">
<ele>156.69</ele>
<time>2016-10-18T09:38:50Z</time>
</trkpt>
<trkpt lat="39.6175661" lon="2.9787360">
<ele>156.45</ele>
<time>2016-10-18T09:39:12Z</time>
</trkpt>
<trkpt lat="39.6175625" lon="2.9784997">
<ele>157.15</ele>
<time>2016-10-18T09:39:16Z</time>
</trkpt>
<trkpt lat="39.6175622" lon="2.9782555">
<ele>159.05</ele>
<time>2016-10-18T09:39:20Z</time>
</trkpt>
<trkpt lat="39.6175809" lon="2.9779517">
<ele>158.49</ele>
<time>2016-10-18T09:39:24Z</time>
</trkpt>
<trkpt lat="39.6175904" lon="2.9776845">
<ele>158.03</ele>
<time>2016-10-18T09:39:27Z</time>
</trkpt>
<trkpt lat="39.6175961" lon="2.9774379">
<ele>158.67</ele>
<time>2016-10-18T09:39:30Z</time>
</trkpt>
<trkpt lat="39.6176102" lon="2.9771224">
<ele>159.43</ele>
<time>2016-10-18T09:39:34Z</time>
</trkpt>
<trkpt lat="39.6176319" lon="2.9768264">
<ele>159.77</ele>
<time>2016-10-18T09:39:38Z</time>
</trkpt>
<trkpt lat="39.6176397" lon="2.9765878">
<ele>161.26</ele>
<time>2016-10-18T09:39:42Z</time>
</trkpt>
<trkpt lat="39.6176358" lon="2.9763529">
<ele>163.56</ele>
<time>2016-10-18T09:39:46Z</time>
</trkpt>
<trkpt lat="39.6176405" lon="2.9760721">
<ele>164.59</ele>
<time>2016-10-18T09:39:51Z</time>
</trkpt>
<trkpt lat="39.6176044" lon="2.9758034">
<ele>165.32</ele>
<time>2016-10-18T09:39:55Z</time>
</trkpt>
<trkpt lat="39.6175236" lon="2.9755938">
<ele>165.39</ele>
<time>2016-10-18T09:40:00Z</time>
</trkpt>
<trkpt lat="39.6174024" lon="2.9753724">
<ele>164.70</ele>
<time>2016-10-18T09:40:06Z</time>
</trkpt>
<trkpt lat="39.6172839" lon="2.9751877">
<ele>162.78</ele>
<time>2016-10-18T09:40:10Z</time>
</trkpt>
<trkpt lat="39.6171561" lon="2.9750231">
<ele>161.27</ele>
<time>2016-10-18T09:40:13Z</time>
</trkpt>
<trkpt lat="39.6169808" lon="2.9748338">
<ele>159.45</ele>
<time>2016-10-18T09:40:16Z</time>
</trkpt>
<trkpt lat="39.6168020" lon="2.9746145">
<ele>157.97</ele>
<time>2016-10-18T09:40:19Z</time>
</trkpt>
<trkpt lat="39.6166627" lon="2.9743517">
<ele>156.43</ele>
<time>2016-10-18T09:40:22Z</time>
</trkpt>
<trkpt lat="39.6165377" lon="2.9740474">
<ele>155.65</ele>
<time>2016-10-18T09:40:25Z</time>
</trkpt>
<trkpt lat="39.6164530" lon="2.9738267">
<ele>155.45</ele>
<time>2016-10-18T09:40:27Z</time>
</trkpt>
<trkpt lat="39.6163658" lon="2.9736119">
<ele>155.20</ele>
<time>2016-10-18T09:40:29Z</time>
</trkpt>
<trkpt lat="39.6162633" lon="2.9733902">
<ele>155.06</ele>
<time>2016-10-18T09:40:31Z</time>
</trkpt>
<trkpt lat="39.6161517" lon="2.9731810">
<ele>154.80</ele>
<time>2016-10-18T09:40:33Z</time>
</trkpt>
<trkpt lat="39.6160323" lon="2.9730006">
<ele>154.12</ele>
<time>2016-10-18T09:40:35Z</time>
</trkpt>
<trkpt lat="39.6159108" lon="2.9728278">
<ele>154.13</ele>
<time>2016-10-18T09:40:37Z</time>
</trkpt>
<trkpt lat="39.6157464" lon="2.9725889">
<ele>155.22</ele>
<time>2016-10-18T09:40:40Z</time>
</trkpt>
<trkpt lat="39.6156098" lon="2.9724159">
<ele>154.79</ele>
<time>2016-10-18T09:40:43Z</time>
</trkpt>
<trkpt lat="39.6154822" lon="2.9722378">
<ele>154.12</ele>
<time>2016-10-18T09:40:46Z</time>
</trkpt>
<trkpt lat="39.6153379" lon="2.9720197">
<ele>154.47</ele>
<time>2016-10-18T09:40:50Z</time>
</trkpt>
<trkpt lat="39.6152029" lon="2.9718126">
<ele>156.88</ele>
<time>2016-10-18T09:40:54Z</time>
</trkpt>
<trkpt lat="39.6150430" lon="2.9716170">
<ele>156.67</ele>
<time>2016-10-18T09:40:58Z</time>
</trkpt>
<trkpt lat="39.6148719" lon="2.9714214">
<ele>156.07</ele>
<time>2016-10-18T09:41:02Z</time>
</trkpt>
<trkpt lat="39.6147001" lon="2.9712135">
<ele>155.47</ele>
<time>2016-10-18T09:41:06Z</time>
</trkpt>
<trkpt lat="39.6145593" lon="2.9710450">
<ele>155.86</ele>
<time>2016-10-18T09:41:09Z</time>
</trkpt>
<trkpt lat="39.6143868" lon="2.9708360">
<ele>157.60</ele>
<time>2016-10-18T09:41:13Z</time>
</trkpt>
<trkpt lat="39.6142264" lon="2.9706373">
<ele>160.42</ele>
<time>2016-10-18T09:41:17Z</time>
</trkpt>
<trkpt lat="39.6140771" lon="2.9704663">
<ele>161.75</ele>
<time>2016-10-18T09:41:21Z</time>
</trkpt>
<trkpt lat="39.6139102" lon="2.9703198">
<ele>162.45</ele>
<time>2016-10-18T09:41:25Z</time>
</trkpt>
<trkpt lat="39.6137180" lon="2.9701880">
<ele>162.69</ele>
<time>2016-10-18T09:41:29Z</time>
</trkpt>
<trkpt lat="39.6134968" lon="2.9700632">
<ele>161.75</ele>
<time>2016-10-18T09:41:33Z</time>
</trkpt>
<trkpt lat="39.6133329" lon="2.9699646">
<ele>161.36</ele>
<time>2016-10-18T09:41:36Z</time>
</trkpt>
<trkpt lat="39.6131314" lon="2.9698292">
<ele>161.66</ele>
<time>2016-10-18T09:41:40Z</time>
</trkpt>
<trkpt lat="39.6129263" lon="2.9696870">
<ele>162.80</ele>
<time>2016-10-18T09:41:44Z</time>
</trkpt>
<trkpt lat="39.6127313" lon="2.9695046">
<ele>163.80</ele>
<time>2016-10-18T09:41:48Z</time>
</trkpt>
<trkpt lat="39.6125761" lon="2.9693159">
<ele>161.46</ele>
<time>2016-10-18T09:41:52Z</time>
</trkpt>
<trkpt lat="39.6124384" lon="2.9691230">
<ele>160.27</ele>
<time>2016-10-18T09:41:56Z</time>
</trkpt>
<trkpt lat="39.6122683" lon="2.9689006">
<ele>160.19</ele>
<time>2016-10-18T09:42:00Z</time>
</trkpt>
<trkpt lat="39.6121463" lon="2.9687092">
<ele>160.62</ele>
<time>2016-10-18T09:42:03Z</time>
</trkpt>
<trkpt lat="39.6120526" lon="2.9684938">
<ele>159.76</ele>
<time>2016-10-18T09:42:06Z</time>
</trkpt>
<trkpt lat="39.6120006" lon="2.9682377">
<ele>159.02</ele>
<time>2016-10-18T09:42:09Z</time>
</trkpt>
<trkpt lat="39.6119708" lon="2.9679760">
<ele>158.07</ele>
<time>2016-10-18T09:42:12Z</time>
</trkpt>
<trkpt lat="39.6119579" lon="2.9676971">
<ele>159.55</ele>
<time>2016-10-18T09:42:15Z</time>
</trkpt>
<trkpt lat="39.6119683" lon="2.9674120">
<ele>162.08</ele>
<time>2016-10-18T09:42:18Z</time>
</trkpt>
<trkpt lat="39.6119860" lon="2.9671579">
<ele>164.28</ele>
<time>2016-10-18T09:42:21Z</time>
</trkpt>
<trkpt lat="39.6120132" lon="2.9669033">
<ele>165.19</ele>
<time>2016-10-18T09:42:24Z</time>
</trkpt>
<trkpt lat="39.6120506" lon="2.9666088">
<ele>165.57</ele>
<time>2016-10-18T09:42:27Z</time>
</trkpt>
<trkpt lat="39.6120889" lon="2.9663236">
<ele>164.54</ele>
<time>2016-10-18T09:42:30Z</time>
</trkpt>
<trkpt lat="39.6121227" lon="2.9660102">
<ele>164.56</ele>
<time>2016-10-18T09:42:33Z</time>
</trkpt>
<trkpt lat="39.6121658" lon="2.9657190">
<ele>164.75</ele>
<time>2016-10-18T09:42:36Z</time>
</trkpt>
<trkpt lat="39.6122104" lon="2.9653878">
<ele>164.75</ele>
<time>2016-10-18T09:42:39Z</time>
</trkpt>
<trkpt lat="39.6122619" lon="2.9650458">
<ele>164.82</ele>
<time>2016-10-18T09:42:42Z</time>
</trkpt>
<trkpt lat="39.6123158" lon="2.9646919">
<ele>163.93</ele>
<time>2016-10-18T09:42:45Z</time>
</trkpt>
<trkpt lat="39.6123527" lon="2.9644459">
<ele>163.61</ele>
<time>2016-10-18T09:42:47Z</time>
</trkpt>
<trkpt lat="39.6123915" lon="2.9641917">
<ele>162.48</ele>
<time>2016-10-18T09:42:49Z</time>
</trkpt>
<trkpt lat="39.6124268" lon="2.9639404">
<ele>161.55</ele>
<time>2016-10-18T09:42:51Z</time>
</trkpt>
<trkpt lat="39.6124606" lon="2.9637059">
<ele>160.77</ele>
<time>2016-10-18T09:42:53Z</time>
</trkpt>
<trkpt lat="39.6124971" lon="2.9634772">
<ele>160.01</ele>
<time>2016-10-18T09:42:55Z</time>
</trkpt>
<trkpt lat="39.6125314" lon="2.9632265">
<ele>159.05</ele>
<time>2016-10-18T09:42:57Z</time>
</trkpt>
<trkpt lat="39.6125941" lon="2.9628829">
<ele>159.02</ele>
<time>2016-10-18T09:43:00Z</time>
</trkpt>
<trkpt lat="39.6126337" lon="2.9626423">
<ele>158.45</ele>
<time>2016-10-18T09:43:02Z</time>
</trkpt>
<trkpt lat="39.6126697" lon="2.9624131">
<ele>157.83</ele>
<time>2016-10-18T09:43:04Z</time>
</trkpt>
<trkpt lat="39.6127153" lon="2.9620902">
<ele>156.27</ele>
<time>2016-10-18T09:43:07Z</time>
</trkpt>
<trkpt lat="39.6127488" lon="2.9618534">
<ele>154.83</ele>
<time>2016-10-18T09:43:09Z</time>
</trkpt>
<trkpt lat="39.6127885" lon="2.9616094">
<ele>153.54</ele>
<time>2016-10-18T09:43:11Z</time>
</trkpt>
<trkpt lat="39.6128237" lon="2.9613588">
<ele>153.40</ele>
<time>2016-10-18T09:43:13Z</time>
</trkpt>
<trkpt lat="39.6128619" lon="2.9610135">
<ele>152.74</ele>
<time>2016-10-18T09:43:16Z</time>
</trkpt>
<trkpt lat="39.6127893" lon="2.9607094">
<ele>151.09</ele>
<time>2016-10-18T09:43:19Z</time>
</trkpt>
<trkpt lat="39.6126479" lon="2.9604531">
<ele>147.91</ele>
<time>2016-10-18T09:43:22Z</time>
</trkpt>
<trkpt lat="39.6124945" lon="2.9602478">
<ele>145.84</ele>
<time>2016-10-18T09:43:25Z</time>
</trkpt>
<trkpt lat="39.6123317" lon="2.9600626">
<ele>145.35</ele>
<time>2016-10-18T09:43:28Z</time>
</trkpt>
<trkpt lat="39.6121627" lon="2.9598715">
<ele>146.75</ele>
<time>2016-10-18T09:43:31Z</time>
</trkpt>
<trkpt lat="39.6119936" lon="2.9596784">
<ele>148.09</ele>
<time>2016-10-18T09:43:34Z</time>
</trkpt>
<trkpt lat="39.6118412" lon="2.9595039">
<ele>148.80</ele>
<time>2016-10-18T09:43:37Z</time>
</trkpt>
<trkpt lat="39.6116917" lon="2.9593359">
<ele>148.12</ele>
<time>2016-10-18T09:43:40Z</time>
</trkpt>
<trkpt lat="39.6115578" lon="2.9591728">
<ele>147.71</ele>
<time>2016-10-18T09:43:43Z</time>
</trkpt>
<trkpt lat="39.6113824" lon="2.9589628">
<ele>147.14</ele>
<time>2016-10-18T09:43:47Z</time>
</trkpt>
<trkpt lat="39.6111980" lon="2.9587607">
<ele>146.63</ele>
<time>2016-10-18T09:43:51Z</time>
</trkpt>
<trkpt lat="39.6110422" lon="2.9585988">
<ele>147.58</ele>
<time>2016-10-18T09:43:54Z</time>
</trkpt>
<trkpt lat="39.6108841" lon="2.9584317">
<ele>148.02</ele>
<time>2016-10-18T09:43:57Z</time>
</trkpt>
<trkpt lat="39.6107163" lon="2.9582462">
<ele>147.92</ele>
<time>2016-10-18T09:44:00Z</time>
</trkpt>
<trkpt lat="39.6105481" lon="2.9580416">
<ele>147.29</ele>
<time>2016-10-18T09:44:03Z</time>
</trkpt>
<trkpt lat="39.6103674" lon="2.9578319">
<ele>145.92</ele>
<time>2016-10-18T09:44:06Z</time>
</trkpt>
<trkpt lat="39.6101736" lon="2.9576137">
<ele>144.23</ele>
<time>2016-10-18T09:44:09Z</time>
</trkpt>
<trkpt lat="39.6099926" lon="2.9573543">
<ele>142.76</ele>
<time>2016-10-18T09:44:12Z</time>
</trkpt>
<trkpt lat="39.6098759" lon="2.9571691">
<ele>142.22</ele>
<time>2016-10-18T09:44:14Z</time>
</trkpt>
<trkpt lat="39.6097576" lon="2.9569467">
<ele>141.62</ele>
<time>2016-10-18T09:44:16Z</time>
</trkpt>
<trkpt lat="39.6096348" lon="2.9567146">
<ele>140.67</ele>
<time>2016-10-18T09:44:18Z</time>
</trkpt>
<trkpt lat="39.6095311" lon="2.9565115">
<ele>140.40</ele>
<time>2016-10-18T09:44:20Z</time>
</trkpt>
<trkpt lat="39.6093794" lon="2.9562331">
<ele>140.26</ele>
<time>2016-10-18T09:44:23Z</time>
</trkpt>
<trkpt lat="39.6092655" lon="2.9560370">
<ele>139.58</ele>
<time>2016-10-18T09:44:25Z</time>
</trkpt>
<trkpt lat="39.6091572" lon="2.9558491">
<ele>138.73</ele>
<time>2016-10-18T09:44:27Z</time>
</trkpt>
<trkpt lat="39.6090151" lon="2.9556082">
<ele>138.13</ele>
<time>2016-10-18T09:44:30Z</time>
</trkpt>
<trkpt lat="39.6088629" lon="2.9553309">
<ele>138.28</ele>
<time>2016-10-18T09:44:33Z</time>
</trkpt>
<trkpt lat="39.6087133" lon="2.9550615">
<ele>138.41</ele>
<time>2016-10-18T09:44:36Z</time>
</trkpt>
<trkpt lat="39.6085488" lon="2.9547755">
<ele>137.53</ele>
<time>2016-10-18T09:44:39Z</time>
</trkpt>
<trkpt lat="39.6084342" lon="2.9545806">
<ele>136.22</ele>
<time>2016-10-18T09:44:41Z</time>
</trkpt>
<trkpt lat="39.6082731" lon="2.9543058">
<ele>134.48</ele>
<time>2016-10-18T09:44:44Z</time>
</trkpt>
<trkpt lat="39.6081656" lon="2.9541177">
<ele>134.60</ele>
<time>2016-10-18T09:44:46Z</time>
</trkpt>
<trkpt lat="39.6080140" lon="2.9538472">
<ele>135.33</ele>
<time>2016-10-18T09:44:49Z</time>
</trkpt>
<trkpt lat="39.6078594" lon="2.9535830">
<ele>135.07</ele>
<time>2016-10-18T09:44:52Z</time>
</trkpt>
<trkpt lat="39.6077423" lon="2.9533876">
<ele>134.41</ele>
<time>2016-10-18T09:44:54Z</time>
</trkpt>
<trkpt lat="39.6076309" lon="2.9531934">
<ele>133.81</ele>
<time>2016-10-18T09:44:56Z</time>
</trkpt>
<trkpt lat="39.6075114" lon="2.9529876">
<ele>133.02</ele>
<time>2016-10-18T09:44:58Z</time>
</trkpt>
<trkpt lat="39.6073909" lon="2.9527771">
<ele>132.13</ele>
<time>2016-10-18T09:45:00Z</time>
</trkpt>
<trkpt lat="39.6072705" lon="2.9525662">
<ele>131.55</ele>
<time>2016-10-18T09:45:02Z</time>
</trkpt>
<trkpt lat="39.6071541" lon="2.9523581">
<ele>131.44</ele>
<time>2016-10-18T09:45:04Z</time>
</trkpt>
<trkpt lat="39.6070372" lon="2.9521532">
<ele>131.73</ele>
<time>2016-10-18T09:45:06Z</time>
</trkpt>
<trkpt lat="39.6069193" lon="2.9519600">
<ele>131.77</ele>
<time>2016-10-18T09:45:08Z</time>
</trkpt>
<trkpt lat="39.6068065" lon="2.9517578">
<ele>131.89</ele>
<time>2016-10-18T09:45:10Z</time>
</trkpt>
<trkpt lat="39.6066932" lon="2.9515439">
<ele>132.25</ele>
<time>2016-10-18T09:45:12Z</time>
</trkpt>
<trkpt lat="39.6065927" lon="2.9513491">
<ele>132.10</ele>
<time>2016-10-18T09:45:14Z</time>
</trkpt>
<trkpt lat="39.6064332" lon="2.9510692">
<ele>131.36</ele>
<time>2016-10-18T09:45:17Z</time>
</trkpt>
<trkpt lat="39.6062733" lon="2.9508083">
<ele>131.20</ele>
<time>2016-10-18T09:45:20Z</time>
</trkpt>
<trkpt lat="39.6061218" lon="2.9505503">
<ele>131.45</ele>
<time>2016-10-18T09:45:23Z</time>
</trkpt>
<trkpt lat="39.6059744" lon="2.9503435">
<ele>131.18</ele>
<time>2016-10-18T09:45:26Z</time>
</trkpt>
<trkpt lat="39.6058244" lon="2.9501596">
<ele>131.20</ele>
<time>2016-10-18T09:45:29Z</time>
</trkpt>
<trkpt lat="39.6056855" lon="2.9499693">
<ele>132.34</ele>
<time>2016-10-18T09:45:32Z</time>
</trkpt>
<trkpt lat="39.6055472" lon="2.9497977">
<ele>133.75</ele>
<time>2016-10-18T09:45:35Z</time>
</trkpt>
<trkpt lat="39.6054062" lon="2.9496289">
<ele>135.66</ele>
<time>2016-10-18T09:45:38Z</time>
</trkpt>
<trkpt lat="39.6052374" lon="2.9494315">
<ele>135.04</ele>
<time>2016-10-18T09:45:42Z</time>
</trkpt>
<trkpt lat="39.6050713" lon="2.9492503">
<ele>133.91</ele>
<time>2016-10-18T09:45:46Z</time>
</trkpt>
<trkpt lat="39.6048985" lon="2.9490747">
<ele>133.83</ele>
<time>2016-10-18T09:45:50Z</time>
</trkpt>
<trkpt lat="39.6047452" lon="2.9488939">
<ele>134.17</ele>
<time>2016-10-18T09:45:54Z</time>
</trkpt>
<trkpt lat="39.6045906" lon="2.9487001">
<ele>134.87</ele>
<time>2016-10-18T09:45:58Z</time>
</trkpt>
<trkpt lat="39.6044462" lon="2.9485275">
<ele>135.81</ele>
<time>2016-10-18T09:46:02Z</time>
</trkpt>
<trkpt lat="39.6043139" lon="2.9483630">
<ele>137.11</ele>
<time>2016-10-18T09:46:06Z</time>
</trkpt>
<trkpt lat="39.6041721" lon="2.9481590">
<ele>139.19</ele>
<time>2016-10-18T09:46:11Z</time>
</trkpt>
<trkpt lat="39.6040427" lon="2.9479815">
<ele>139.78</ele>
<time>2016-10-18T09:46:15Z</time>
</trkpt>
<trkpt lat="39.6039002" lon="2.9478008">
<ele>142.81</ele>
<time>2016-10-18T09:46:20Z</time>
</trkpt>
<trkpt lat="39.6037659" lon="2.9476090">
<ele>147.30</ele>
<time>2016-10-18T09:46:25Z</time>
</trkpt>
<trkpt lat="39.6036365" lon="2.9474404">
<ele>148.46</ele>
<time>2016-10-18T09:46:30Z</time>
</trkpt>
<trkpt lat="39.6034938" lon="2.9472361">
<ele>147.90</ele>
<time>2016-10-18T09:46:35Z</time>
</trkpt>
<trkpt lat="39.6034245" lon="2.9470081">
<ele>147.16</ele>
<time>2016-10-18T09:46:39Z</time>
</trkpt>
<trkpt lat="39.6033777" lon="2.9467452">
<ele>148.49</ele>
<time>2016-10-18T09:46:43Z</time>
</trkpt>
<trkpt lat="39.6033446" lon="2.9465049">
<ele>149.98</ele>
<time>2016-10-18T09:46:47Z</time>
</trkpt>
<trkpt lat="39.6033139" lon="2.9462509">
<ele>151.54</ele>
<time>2016-10-18T09:46:51Z</time>
</trkpt>
<trkpt lat="39.6031970" lon="2.9460353">
<ele>150.30</ele>
<time>2016-10-18T09:46:55Z</time>
</trkpt>
<trkpt lat="39.6029920" lon="2.9460161">
<ele>149.62</ele>
<time>2016-10-18T09:46:59Z</time>
</trkpt>
<trkpt lat="39.6028030" lon="2.9461333">
<ele>149.13</ele>
<time>2016-10-18T09:47:04Z</time>
</trkpt>
<trkpt lat="39.6027169" lon="2.9463890">
<ele>148.28</ele>
<time>2016-10-18T09:47:08Z</time>
</trkpt>
<trkpt lat="39.6026772" lon="2.9466793">
<ele>146.26</ele>
<time>2016-10-18T09:47:11Z</time>
</trkpt>
<trkpt lat="39.6025933" lon="2.9469788">
<ele>145.79</ele>
<time>2016-10-18T09:47:14Z</time>
</trkpt>
<trkpt lat="39.6025048" lon="2.9472127">
<ele>145.15</ele>
<time>2016-10-18T09:47:16Z</time>
</trkpt>
<trkpt lat="39.6024013" lon="2.9474499">
<ele>144.06</ele>
<time>2016-10-18T09:47:18Z</time>
</trkpt>
<trkpt lat="39.6022653" lon="2.9476456">
<ele>142.56</ele>
<time>2016-10-18T09:47:20Z</time>
</trkpt>
<trkpt lat="39.6020978" lon="2.9478133">
<ele>141.36</ele>
<time>2016-10-18T09:47:22Z</time>
</trkpt>
<trkpt lat="39.6019104" lon="2.9479659">
<ele>140.25</ele>
<time>2016-10-18T09:47:24Z</time>
</trkpt>
<trkpt lat="39.6017086" lon="2.9481077">
<ele>138.94</ele>
<time>2016-10-18T09:47:26Z</time>
</trkpt>
<trkpt lat="39.6015104" lon="2.9482406">
<ele>138.10</ele>
<time>2016-10-18T09:47:28Z</time>
</trkpt>
<trkpt lat="39.6013187" lon="2.9483726">
<ele>137.52</ele>
<time>2016-10-18T09:47:30Z</time>
</trkpt>
<trkpt lat="39.6011454" lon="2.9484909">
<ele>136.94</ele>
<time>2016-10-18T09:47:32Z</time>
</trkpt>
<trkpt lat="39.6008894" lon="2.9485987">
<ele>135.16</ele>
<time>2016-10-18T09:47:35Z</time>
</trkpt>
<trkpt lat="39.6007066" lon="2.9485707">
<ele>133.77</ele>
<time>2016-10-18T09:47:37Z</time>
</trkpt>
<trkpt lat="39.6005718" lon="2.9484077">
<ele>133.18</ele>
<time>2016-10-18T09:47:39Z</time>
</trkpt>
<trkpt lat="39.6004626" lon="2.9480797">
<ele>133.27</ele>
<time>2016-10-18T09:47:42Z</time>
</trkpt>
<trkpt lat="39.6004093" lon="2.9478554">
<ele>133.08</ele>
<time>2016-10-18T09:47:44Z</time>
</trkpt>
<trkpt lat="39.6003557" lon="2.9476252">
<ele>132.47</ele>
<time>2016-10-18T09:47:46Z</time>
</trkpt>
<trkpt lat="39.6002994" lon="2.9473883">
<ele>131.60</ele>
<time>2016-10-18T09:47:48Z</time>
</trkpt>
<trkpt lat="39.6002341" lon="2.9471528">
<ele>131.16</ele>
<time>2016-10-18T09:47:50Z</time>
</trkpt>
<trkpt lat="39.6001762" lon="2.9469292">
<ele>130.28</ele>
<time>2016-10-18T09:47:52Z</time>
</trkpt>
<trkpt lat="39.6001164" lon="2.9466864">
<ele>128.76</ele>
<time>2016-10-18T09:47:54Z</time>
</trkpt>
<trkpt lat="39.6000615" lon="2.9464466">
<ele>127.19</ele>
<time>2016-10-18T09:47:56Z</time>
</trkpt>
<trkpt lat="39.6000032" lon="2.9461990">
<ele>125.70</ele>
<time>2016-10-18T09:47:58Z</time>
</trkpt>
<trkpt lat="39.5999425" lon="2.9459527">
<ele>124.56</ele>
<time>2016-10-18T09:48:00Z</time>
</trkpt>
<trkpt lat="39.5998805" lon="2.9457129">
<ele>123.81</ele>
<time>2016-10-18T09:48:02Z</time>
</trkpt>
<trkpt lat="39.5998175" lon="2.9454813">
<ele>123.50</ele>
<time>2016-10-18T09:48:04Z</time>
</trkpt>
<trkpt lat="39.5997554" lon="2.9452551">
<ele>123.40</ele>
<time>2016-10-18T09:48:06Z</time>
</trkpt>
<trkpt lat="39.5996914" lon="2.9450218">
<ele>123.23</ele>
<time>2016-10-18T09:48:08Z</time>
</trkpt>
<trkpt lat="39.5996287" lon="2.9447906">
<ele>122.89</ele>
<time>2016-10-18T09:48:10Z</time>
</trkpt>
<trkpt lat="39.5995677" lon="2.9445702">
<ele>122.48</ele>
<time>2016-10-18T09:48:12Z</time>
</trkpt>
<trkpt lat="39.5995053" lon="2.9443501">
<ele>121.83</ele>
<time>2016-10-18T09:48:14Z</time>
</trkpt>
<trkpt lat="39.5994438" lon="2.9441267">
<ele>121.48</ele>
<time>2016-10-18T09:48:16Z</time>
</trkpt>
<trkpt lat="39.5993830" lon="2.9439021">
<ele>121.36</ele>
<time>2016-10-18T09:48:18Z</time>
</trkpt>
<trkpt lat="39.5993220" lon="2.9436669">
<ele>121.10</ele>
<time>2016-10-18T09:48:20Z</time>
</trkpt>
<trkpt lat="39.5992643" lon="2.9434249">
<ele>120.27</ele>
<time>2016-10-18T09:48:22Z</time>
</trkpt>
<trkpt lat="39.5992092" lon="2.9431943">
<ele>119.31</ele>
<time>2016-10-18T09:48:24Z</time>
</trkpt>
<trkpt lat="39.5991272" lon="2.9428680">
<ele>118.32</ele>
<time>2016-10-18T09:48:27Z</time>
</trkpt>
<trkpt lat="39.5990475" lon="2.9425635">
<ele>118.02</ele>
<time>2016-10-18T09:48:31Z</time>
</trkpt>
<trkpt lat="39.5989785" lon="2.9422641">
<ele>118.15</ele>
<time>2016-10-18T09:48:34Z</time>
</trkpt>
<trkpt lat="39.5989406" lon="2.9419459">
<ele>117.82</ele>
<time>2016-10-18T09:48:37Z</time>
</trkpt>
<trkpt lat="39.5989215" lon="2.9416148">
<ele>116.78</ele>
<time>2016-10-18T09:48:40Z</time>
</trkpt>
<trkpt lat="39.5989143" lon="2.9413785">
<ele>115.66</ele>
<time>2016-10-18T09:48:42Z</time>
</trkpt>
<trkpt lat="39.5989094" lon="2.9411386">
<ele>114.62</ele>
<time>2016-10-18T09:48:44Z</time>
</trkpt>
<trkpt lat="39.5989036" lon="2.9409051">
<ele>113.80</ele>
<time>2016-10-18T09:48:46Z</time>
</trkpt>
<trkpt lat="39.5988933" lon="2.9405594">
<ele>112.72</ele>
<time>2016-10-18T09:48:49Z</time>
</trkpt>
<trkpt lat="39.5988736" lon="2.9402259">
<ele>111.91</ele>
<time>2016-10-18T09:48:52Z</time>
</trkpt>
<trkpt lat="39.5988492" lon="2.9398946">
<ele>111.59</ele>
<time>2016-10-18T09:48:55Z</time>
</trkpt>
<trkpt lat="39.5988210" lon="2.9395793">
<ele>111.78</ele>
<time>2016-10-18T09:48:58Z</time>
</trkpt>
<trkpt lat="39.5987860" lon="2.9392544">
<ele>111.91</ele>
<time>2016-10-18T09:49:01Z</time>
</trkpt>
<trkpt lat="39.5987450" lon="2.9389624">
<ele>111.96</ele>
<time>2016-10-18T09:49:04Z</time>
</trkpt>
<trkpt lat="39.5987112" lon="2.9386596">
<ele>112.49</ele>
<time>2016-10-18T09:49:07Z</time>
</trkpt>
<trkpt lat="39.5986723" lon="2.9383495">
<ele>112.90</ele>
<time>2016-10-18T09:49:10Z</time>
</trkpt>
<trkpt lat="39.5986350" lon="2.9380555">
<ele>112.83</ele>
<time>2016-10-18T09:49:13Z</time>
</trkpt>
<trkpt lat="39.5986030" lon="2.9377751">
<ele>112.68</ele>
<time>2016-10-18T09:49:16Z</time>
</trkpt>
<trkpt lat="39.5985736" lon="2.9375124">
<ele>112.25</ele>
<time>2016-10-18T09:49:19Z</time>
</trkpt>
<trkpt lat="39.5985414" lon="2.9372653">
<ele>112.35</ele>
<time>2016-10-18T09:49:22Z</time>
</trkpt>
<trkpt lat="39.5985148" lon="2.9370046">
<ele>112.89</ele>
<time>2016-10-18T09:49:25Z</time>
</trkpt>
<trkpt lat="39.5984901" lon="2.9367716">
<ele>113.90</ele>
<time>2016-10-18T09:49:28Z</time>
</trkpt>
<trkpt lat="39.5984570" lon="2.9365188">
<ele>116.83</ele>
<time>2016-10-18T09:49:32Z</time>
</trkpt>
<trkpt lat="39.5984325" lon="2.9362701">
<ele>117.91</ele>
<time>2016-10-18T09:49:36Z</time>
</trkpt>
<trkpt lat="39.5984085" lon="2.9359949">
<ele>118.88</ele>
<time>2016-10-18T09:49:41Z</time>
</trkpt>
<trkpt lat="39.5983889" lon="2.9357238">
<ele>119.79</ele>
<time>2016-10-18T09:49:46Z</time>
</trkpt>
<trkpt lat="39.5983636" lon="2.9354451">
<ele>120.47</ele>
<time>2016-10-18T09:49:51Z</time>
</trkpt>
<trkpt lat="39.5983496" lon="2.9351999">
<ele>120.78</ele>
<time>2016-10-18T09:49:57Z</time>
</trkpt>
<trkpt lat="39.5983202" lon="2.9349617">
<ele>121.18</ele>
<time>2016-10-18T09:50:03Z</time>
</trkpt>
<trkpt lat="39.5982886" lon="2.9347250">
<ele>121.63</ele>
<time>2016-10-18T09:50:09Z</time>
</trkpt>
<trkpt lat="39.5982383" lon="2.9344725">
<ele>122.04</ele>
<time>2016-10-18T09:50:15Z</time>
</trkpt>
<trkpt lat="39.5981707" lon="2.9342472">
<ele>122.62</ele>
<time>2016-10-18T09:50:21Z</time>
</trkpt>
<trkpt lat="39.5981028" lon="2.9340121">
<ele>123.31</ele>
<time>2016-10-18T09:50:27Z</time>
</trkpt>
<trkpt lat="39.5980315" lon="2.9337860">
<ele>124.27</ele>
<time>2016-10-18T09:50:33Z</time>
</trkpt>
<trkpt lat="39.5979728" lon="2.9335277">
<ele>125.08</ele>
<time>2016-10-18T09:50:39Z</time>
</trkpt>
<trkpt lat="39.5979398" lon="2.9332396">
<ele>126.62</ele>
<time>2016-10-18T09:50:45Z</time>
</trkpt>
<trkpt lat="39.5979916" lon="2.9329957">
<ele>128.15</ele>
<time>2016-10-18T09:50:50Z</time>
</trkpt>
<trkpt lat="39.5980918" lon="2.9327730">
<ele>131.60</ele>
<time>2016-10-18T09:50:55Z</time>
</trkpt>
<trkpt lat="39.5981926" lon="2.9325558">
<ele>133.61</ele>
<time>2016-10-18T09:51:00Z</time>
</trkpt>
<trkpt lat="39.5983041" lon="2.9323155">
<ele>137.95</ele>
<time>2016-10-18T09:51:06Z</time>
</trkpt>
<trkpt lat="39.5983916" lon="2.9321100">
<ele>142.76</ele>
<time>2016-10-18T09:51:11Z</time>
</trkpt>
<trkpt lat="39.5985070" lon="2.9318610">
<ele>144.05</ele>
<time>2016-10-18T09:51:16Z</time>
</trkpt>
<trkpt lat="39.5986226" lon="2.9316172">
<ele>144.31</ele>
<time>2016-10-18T09:51:21Z</time>
</trkpt>
<trkpt lat="39.5987377" lon="2.9313672">
<ele>144.75</ele>
<time>2016-10-18T09:51:26Z</time>
</trkpt>
<trkpt lat="39.5988234" lon="2.9311557">
<ele>146.03</ele>
<time>2016-10-18T09:51:30Z</time>
</trkpt>
<trkpt lat="39.5989211" lon="2.9309502">
<ele>147.05</ele>
<time>2016-10-18T09:51:34Z</time>
</trkpt>
<trkpt lat="39.5990278" lon="2.9307100">
<ele>148.33</ele>
<time>2016-10-18T09:51:39Z</time>
</trkpt>
<trkpt lat="39.5991379" lon="2.9304752">
<ele>149.49</ele>
<time>2016-10-18T09:51:44Z</time>
</trkpt>
<trkpt lat="39.5992581" lon="2.9302476">
<ele>150.26</ele>
<time>2016-10-18T09:51:49Z</time>
</trkpt>
<trkpt lat="39.5993768" lon="2.9300134">
<ele>150.33</ele>
<time>2016-10-18T09:51:54Z</time>
</trkpt>
<trkpt lat="39.5995048" lon="2.9297753">
<ele>150.30</ele>
<time>2016-10-18T09:51:59Z</time>
</trkpt>
<trkpt lat="39.5996344" lon="2.9295485">
<ele>151.28</ele>
<time>2016-10-18T09:52:03Z</time>
</trkpt>
<trkpt lat="39.5997871" lon="2.9293140">
<ele>150.98</ele>
<time>2016-10-18T09:52:07Z</time>
</trkpt>
<trkpt lat="39.5998879" lon="2.9291196">
<ele>150.13</ele>
<time>2016-10-18T09:52:10Z</time>
</trkpt>
<trkpt lat="39.5999207" lon="2.9288195">
<ele>148.06</ele>
<time>2016-10-18T09:52:14Z</time>
</trkpt>
<trkpt lat="39.5999063" lon="2.9285435">
<ele>146.26</ele>
<time>2016-10-18T09:52:18Z</time>
</trkpt>
<trkpt lat="39.5998661" lon="2.9282516">
<ele>145.24</ele>
<time>2016-10-18T09:52:22Z</time>
</trkpt>
<trkpt lat="39.5998123" lon="2.9279427">
<ele>143.63</ele>
<time>2016-10-18T09:52:26Z</time>
</trkpt>
<trkpt lat="39.5997592" lon="2.9276613">
<ele>143.20</ele>
<time>2016-10-18T09:52:30Z</time>
</trkpt>
<trkpt lat="39.5996974" lon="2.9273809">
<ele>144.92</ele>
<time>2016-10-18T09:52:34Z</time>
</trkpt>
<trkpt lat="39.5996518" lon="2.9271410">
<ele>146.46</ele>
<time>2016-10-18T09:52:37Z</time>
</trkpt>
<trkpt lat="39.5996136" lon="2.9268944">
<ele>147.33</ele>
<time>2016-10-18T09:52:40Z</time>
</trkpt>
<trkpt lat="39.5995591" lon="2.9266049">
<ele>147.77</ele>
<time>2016-10-18T09:52:44Z</time>
</trkpt>
<trkpt lat="39.5995102" lon="2.9263734">
<ele>148.02</ele>
<time>2016-10-18T09:52:48Z</time>
</trkpt>
<trkpt lat="39.5993625" lon="2.9261908">
<ele>147.04</ele>
<time>2016-10-18T09:52:55Z</time>
</trkpt>
<trkpt lat="39.5991974" lon="2.9260654">
<ele>149.26</ele>
<time>2016-10-18T09:53:00Z</time>
</trkpt>
<trkpt lat="39.5990624" lon="2.9258848">
<ele>149.66</ele>
<time>2016-10-18T09:53:06Z</time>
</trkpt>
<trkpt lat="39.5988821" lon="2.9257240">
<ele>147.44</ele>
<time>2016-10-18T09:53:11Z</time>
</trkpt>
<trkpt lat="39.5987045" lon="2.9255514">
<ele>147.28</ele>
<time>2016-10-18T09:53:16Z</time>
</trkpt>
<trkpt lat="39.5985999" lon="2.9252919">
<ele>148.35</ele>
<time>2016-10-18T09:53:21Z</time>
</trkpt>
<trkpt lat="39.5985751" lon="2.9250058">
<ele>149.28</ele>
<time>2016-10-18T09:53:25Z</time>
</trkpt>
<trkpt lat="39.5985592" lon="2.9247325">
<ele>145.69</ele>
<time>2016-10-18T09:53:30Z</time>
</trkpt>
<trkpt lat="39.5983780" lon="2.9246004">
<ele>146.49</ele>
<time>2016-10-18T09:53:38Z</time>
</trkpt>
<trkpt lat="39.5981807" lon="2.9246717">
<ele>148.44</ele>
<time>2016-10-18T09:53:42Z</time>
</trkpt>
<trkpt lat="39.5980164" lon="2.9245606">
<ele>148.83</ele>
<time>2016-10-18T09:53:46Z</time>
</trkpt>
<trkpt lat="39.5978923" lon="2.9243265">
<ele>150.38</ele>
<time>2016-10-18T09:53:51Z</time>
</trkpt>
<trkpt lat="39.5977882" lon="2.9241334">
<ele>151.70</ele>
<time>2016-10-18T09:53:55Z</time>
</trkpt>
<trkpt lat="39.5976627" lon="2.9239334">
<ele>151.22</ele>
<time>2016-10-18T09:53:59Z</time>
</trkpt>
<trkpt lat="39.5975137" lon="2.9237212">
<ele>152.80</ele>
<time>2016-10-18T09:54:04Z</time>
</trkpt>
<trkpt lat="39.5973666" lon="2.9235744">
<ele>152.30</ele>
<time>2016-10-18T09:54:08Z</time>
</trkpt>
<trkpt lat="39.5971978" lon="2.9234023">
<ele>151.73</ele>
<time>2016-10-18T09:54:13Z</time>
</trkpt>
<trkpt lat="39.5970474" lon="2.9232106">
<ele>153.51</ele>
<time>2016-10-18T09:54:18Z</time>
</trkpt>
<trkpt lat="39.5969099" lon="2.9230145">
<ele>156.37</ele>
<time>2016-10-18T09:54:23Z</time>
</trkpt>
<trkpt lat="39.5967543" lon="2.9228011">
<ele>158.65</ele>
<time>2016-10-18T09:54:28Z</time>
</trkpt>
<trkpt lat="39.5966228" lon="2.9226315">
<ele>159.69</ele>
<time>2016-10-18T09:54:32Z</time>
</trkpt>
<trkpt lat="39.5964827" lon="2.9224423">
<ele>160.04</ele>
<time>2016-10-18T09:54:36Z</time>
</trkpt>
<trkpt lat="39.5963214" lon="2.9222610">
<ele>159.86</ele>
<time>2016-10-18T09:54:40Z</time>
</trkpt>
<trkpt lat="39.5961289" lon="2.9221061">
<ele>157.99</ele>
<time>2016-10-18T09:54:44Z</time>
</trkpt>
<trkpt lat="39.5959096" lon="2.9220065">
<ele>156.07</ele>
<time>2016-10-18T09:54:48Z</time>
</trkpt>
<trkpt lat="39.5956916" lon="2.9219303">
<ele>155.75</ele>
<time>2016-10-18T09:54:52Z</time>
</trkpt>
<trkpt lat="39.5954645" lon="2.9218577">
<ele>156.33</ele>
<time>2016-10-18T09:54:56Z</time>
</trkpt>
<trkpt lat="39.5952900" lon="2.9217969">
<ele>156.49</ele>
<time>2016-10-18T09:54:59Z</time>
</trkpt>
<trkpt lat="39.5950662" lon="2.9217287">
<ele>157.14</ele>
<time>2016-10-18T09:55:03Z</time>
</trkpt>
<trkpt lat="39.5948683" lon="2.9216570">
<ele>159.00</ele>
<time>2016-10-18T09:55:07Z</time>
</trkpt>
<trkpt lat="39.5946754" lon="2.9215783">
<ele>161.48</ele>
<time>2016-10-18T09:55:11Z</time>
</trkpt>
<trkpt lat="39.5945013" lon="2.9215160">
<ele>163.86</ele>
<time>2016-10-18T09:55:14Z</time>
</trkpt>
<trkpt lat="39.5942799" lon="2.9214194">
<ele>165.13</ele>
<time>2016-10-18T09:55:18Z</time>
</trkpt>
<trkpt lat="39.5940630" lon="2.9213107">
<ele>164.93</ele>
<time>2016-10-18T09:55:22Z</time>
</trkpt>
<trkpt lat="39.5938346" lon="2.9212171">
<ele>165.19</ele>
<time>2016-10-18T09:55:26Z</time>
</trkpt>
<trkpt lat="39.5936058" lon="2.9211239">
<ele>165.69</ele>
<time>2016-10-18T09:55:30Z</time>
</trkpt>
<trkpt lat="39.5934302" lon="2.9210384">
<ele>166.22</ele>
<time>2016-10-18T09:55:33Z</time>
</trkpt>
<trkpt lat="39.5932014" lon="2.9209181">
<ele>166.35</ele>
<time>2016-10-18T09:55:37Z</time>
</trkpt>
<trkpt lat="39.5929799" lon="2.9207936">
<ele>164.70</ele>
<time>2016-10-18T09:55:41Z</time>
</trkpt>
<trkpt lat="39.5927806" lon="2.9206887">
<ele>162.70</ele>
<time>2016-10-18T09:55:45Z</time>
</trkpt>
<trkpt lat="39.5925960" lon="2.9205810">
<ele>164.35</ele>
<time>2016-10-18T09:55:49Z</time>
</trkpt>
<trkpt lat="39.5924263" lon="2.9204924">
<ele>165.26</ele>
<time>2016-10-18T09:55:52Z</time>
</trkpt>
<trkpt lat="39.5922294" lon="2.9203786">
<ele>165.52</ele>
<time>2016-10-18T09:55:56Z</time>
</trkpt>
<trkpt lat="39.5920285" lon="2.9202765">
<ele>165.90</ele>
<time>2016-10-18T09:56:00Z</time>
</trkpt>
<trkpt lat="39.5918344" lon="2.9201674">
<ele>167.66</ele>
<time>2016-10-18T09:56:04Z</time>
</trkpt>
<trkpt lat="39.5916235" lon="2.9200510">
<ele>168.21</ele>
<time>2016-10-18T09:56:08Z</time>
</trkpt>
<trkpt lat="39.5914005" lon="2.9199349">
<ele>168.88</ele>
<time>2016-10-18T09:56:12Z</time>
</trkpt>
<trkpt lat="39.5912312" lon="2.9198466">
<ele>168.60</ele>
<time>2016-10-18T09:56:15Z</time>
</trkpt>
<trkpt lat="39.5910301" lon="2.9197468">
<ele>168.85</ele>
<time>2016-10-18T09:56:19Z</time>
</trkpt>
<trkpt lat="39.5908054" lon="2.9196590">
<ele>169.93</ele>
<time>2016-10-18T09:56:23Z</time>
</trkpt>
<trkpt lat="39.5905868" lon="2.9195529">
<ele>170.21</ele>
<time>2016-10-18T09:56:27Z</time>
</trkpt>
<trkpt lat="39.5903947" lon="2.9194610">
<ele>170.82</ele>
<time>2016-10-18T09:56:31Z</time>
</trkpt>
<trkpt lat="39.5901840" lon="2.9193494">
<ele>172.25</ele>
<time>2016-10-18T09:56:35Z</time>
</trkpt>
<trkpt lat="39.5900048" lon="2.9192618">
<ele>172.18</ele>
<time>2016-10-18T09:56:38Z</time>
</trkpt>
<trkpt lat="39.5898127" lon="2.9191574">
<ele>173.40</ele>
<time>2016-10-18T09:56:42Z</time>
</trkpt>
<trkpt lat="39.5896379" lon="2.9190595">
<ele>175.71</ele>
<time>2016-10-18T09:56:46Z</time>
</trkpt>
<trkpt lat="39.5894611" lon="2.9189705">
<ele>177.61</ele>
<time>2016-10-18T09:56:49Z</time>
</trkpt>
<trkpt lat="39.5892816" lon="2.9188695">
<ele>178.36</ele>
<time>2016-10-18T09:56:52Z</time>
</trkpt>
<trkpt lat="39.5890971" lon="2.9187654">
<ele>177.69</ele>
<time>2016-10-18T09:56:55Z</time>
</trkpt>
<trkpt lat="39.5889131" lon="2.9186599">
<ele>176.75</ele>
<time>2016-10-18T09:56:58Z</time>
</trkpt>
<trkpt lat="39.5887219" lon="2.9185686">
<ele>175.78</ele>
<time>2016-10-18T09:57:01Z</time>
</trkpt>
<trkpt lat="39.5885111" lon="2.9184750">
<ele>174.47</ele>
<time>2016-10-18T09:57:03Z</time>
</trkpt>
<trkpt lat="39.5883049" lon="2.9183862">
<ele>174.75</ele>
<time>2016-10-18T09:57:06Z</time>
</trkpt>
<trkpt lat="39.5880948" lon="2.9182870">
<ele>176.63</ele>
<time>2016-10-18T09:57:09Z</time>
</trkpt>
<trkpt lat="39.5878896" lon="2.9181837">
<ele>179.21</ele>
<time>2016-10-18T09:57:12Z</time>
</trkpt>
<trkpt lat="39.5876909" lon="2.9180827">
<ele>178.62</ele>
<time>2016-10-18T09:57:15Z</time>
</trkpt>
<trkpt lat="39.5875066" lon="2.9179823">
<ele>177.11</ele>
<time>2016-10-18T09:57:18Z</time>
</trkpt>
<trkpt lat="39.5872862" lon="2.9178565">
<ele>176.95</ele>
<time>2016-10-18T09:57:21Z</time>
</trkpt>
<trkpt lat="39.5870703" lon="2.9177336">
<ele>177.35</ele>
<time>2016-10-18T09:57:24Z</time>
</trkpt>
<trkpt lat="39.5868747" lon="2.9176194">
<ele>177.40</ele>
<time>2016-10-18T09:57:27Z</time>
</trkpt>
<trkpt lat="39.5866940" lon="2.9175187">
<ele>176.30</ele>
<time>2016-10-18T09:57:30Z</time>
</trkpt>
<trkpt lat="39.5864849" lon="2.9173993">
<ele>175.51</ele>
<time>2016-10-18T09:57:33Z</time>
</trkpt>
<trkpt lat="39.5862914" lon="2.9172970">
<ele>175.63</ele>
<time>2016-10-18T09:57:36Z</time>
</trkpt>
<trkpt lat="39.5860857" lon="2.9171802">
<ele>176.11</ele>
<time>2016-10-18T09:57:39Z</time>
</trkpt>
<trkpt lat="39.5858928" lon="2.9170750">
<ele>176.44</ele>
<time>2016-10-18T09:57:42Z</time>
</trkpt>
<trkpt lat="39.5856976" lon="2.9169677">
<ele>176.39</ele>
<time>2016-10-18T09:57:45Z</time>
</trkpt>
<trkpt lat="39.5854839" lon="2.9168492">
<ele>175.74</ele>
<time>2016-10-18T09:57:48Z</time>
</trkpt>
<trkpt lat="39.5852666" lon="2.9167265">
<ele>176.65</ele>
<time>2016-10-18T09:57:51Z</time>
</trkpt>
<trkpt lat="39.5850540" lon="2.9166095">
<ele>178.10</ele>
<time>2016-10-18T09:57:54Z</time>
</trkpt>
<trkpt lat="39.5848467" lon="2.9164897">
<ele>179.46</ele>
<time>2016-10-18T09:57:57Z</time>
</trkpt>
<trkpt lat="39.5846271" lon="2.9163636">
<ele>180.49</ele>
<time>2016-10-18T09:58:00Z</time>
</trkpt>
<trkpt lat="39.5844057" lon="2.9162270">
<ele>179.40</ele>
<time>2016-10-18T09:58:03Z</time>
</trkpt>
<trkpt lat="39.5842076" lon="2.9161110">
<ele>177.50</ele>
<time>2016-10-18T09:58:06Z</time>
</trkpt>
<trkpt lat="39.5840073" lon="2.9160032">
<ele>176.83</ele>
<time>2016-10-18T09:58:09Z</time>
</trkpt>
<trkpt lat="39.5838330" lon="2.9159093">
<ele>175.23</ele>
<time>2016-10-18T09:58:12Z</time>
</trkpt>
<trkpt lat="39.5836239" lon="2.9157849">
<ele>174.26</ele>
<time>2016-10-18T09:58:15Z</time>
</trkpt>
<trkpt lat="39.5834124" lon="2.9156534">
<ele>173.90</ele>
<time>2016-10-18T09:58:18Z</time>
</trkpt>
<trkpt lat="39.5832045" lon="2.9155350">
<ele>173.40</ele>
<time>2016-10-18T09:58:21Z</time>
</trkpt>
<trkpt lat="39.5829956" lon="2.9154263">
<ele>172.42</ele>
<time>2016-10-18T09:58:24Z</time>
</trkpt>
<trkpt lat="39.5827730" lon="2.9153102">
<ele>171.73</ele>
<time>2016-10-18T09:58:27Z</time>
</trkpt>
<trkpt lat="39.5825550" lon="2.9151851">
<ele>171.47</ele>
<time>2016-10-18T09:58:30Z</time>
</trkpt>
<trkpt lat="39.5823482" lon="2.9150690">
<ele>171.93</ele>
<time>2016-10-18T09:58:33Z</time>
</trkpt>
<trkpt lat="39.5821194" lon="2.9149361">
<ele>172.76</ele>
<time>2016-10-18T09:58:36Z</time>
</trkpt>
<trkpt lat="39.5819457" lon="2.9148380">
<ele>172.91</ele>
<time>2016-10-18T09:58:39Z</time>
</trkpt>
<trkpt lat="39.5817255" lon="2.9147133">
<ele>173.35</ele>
<time>2016-10-18T09:58:42Z</time>
</trkpt>
<trkpt lat="39.5815170" lon="2.9145815">
<ele>171.93</ele>
<time>2016-10-18T09:58:45Z</time>
</trkpt>
<trkpt lat="39.5813124" lon="2.9144329">
<ele>169.76</ele>
<time>2016-10-18T09:58:48Z</time>
</trkpt>
<trkpt lat="39.5811127" lon="2.9142807">
<ele>168.01</ele>
<time>2016-10-18T09:58:51Z</time>
</trkpt>
<trkpt lat="39.5809129" lon="2.9141302">
<ele>167.06</ele>
<time>2016-10-18T09:58:54Z</time>
</trkpt>
<trkpt lat="39.5807168" lon="2.9139655">
<ele>166.70</ele>
<time>2016-10-18T09:58:57Z</time>
</trkpt>
<trkpt lat="39.5805247" lon="2.9138107">
<ele>166.55</ele>
<time>2016-10-18T09:59:00Z</time>
</trkpt>
<trkpt lat="39.5803314" lon="2.9136607">
<ele>165.72</ele>
<time>2016-10-18T09:59:03Z</time>
</trkpt>
<trkpt lat="39.5801535" lon="2.9134982">
<ele>166.35</ele>
<time>2016-10-18T09:59:06Z</time>
</trkpt>
<trkpt lat="39.5799682" lon="2.9133452">
<ele>166.83</ele>
<time>2016-10-18T09:59:09Z</time>
</trkpt>
<trkpt lat="39.5797709" lon="2.9131943">
<ele>167.08</ele>
<time>2016-10-18T09:59:12Z</time>
</trkpt>
<trkpt lat="39.5795731" lon="2.9130344">
<ele>166.72</ele>
<time>2016-10-18T09:59:15Z</time>
</trkpt>
<trkpt lat="39.5793725" lon="2.9128714">
<ele>166.84</ele>
<time>2016-10-18T09:59:18Z</time>
</trkpt>
<trkpt lat="39.5791653" lon="2.9127022">
<ele>166.69</ele>
<time>2016-10-18T09:59:21Z</time>
</trkpt>
<trkpt lat="39.5789800" lon="2.9125261">
<ele>167.41</ele>
<time>2016-10-18T09:59:24Z</time>
</trkpt>
<trkpt lat="39.5788026" lon="2.9123490">
<ele>168.25</ele>
<time>2016-10-18T09:59:27Z</time>
</trkpt>
<trkpt lat="39.5786194" lon="2.9121804">
<ele>169.23</ele>
<time>2016-10-18T09:59:30Z</time>
</trkpt>
<trkpt lat="39.5784328" lon="2.9120124">
<ele>170.45</ele>
<time>2016-10-18T09:59:33Z</time>
</trkpt>
<trkpt lat="39.5782388" lon="2.9118401">
<ele>172.19</ele>
<time>2016-10-18T09:59:36Z</time>
</trkpt>
<trkpt lat="39.5780427" lon="2.9116642">
<ele>173.20</ele>
<time>2016-10-18T09:59:39Z</time>
</trkpt>
<trkpt lat="39.5778621" lon="2.9115026">
<ele>174.68</ele>
<time>2016-10-18T09:59:42Z</time>
</trkpt>
<trkpt lat="39.5776551" lon="2.9113271">
<ele>177.04</ele>
<time>2016-10-18T09:59:45Z</time>
</trkpt>
<trkpt lat="39.5774592" lon="2.9111778">
<ele>177.98</ele>
<time>2016-10-18T09:59:48Z</time>
</trkpt>
<trkpt lat="39.5772430" lon="2.9110350">
<ele>178.26</ele>
<time>2016-10-18T09:59:51Z</time>
</trkpt>
<trkpt lat="39.5770157" lon="2.9108946">
<ele>179.47</ele>
<time>2016-10-18T09:59:54Z</time>
</trkpt>
<trkpt lat="39.5767854" lon="2.9107530">
<ele>179.69</ele>
<time>2016-10-18T09:59:57Z</time>
</trkpt>
<trkpt lat="39.5765919" lon="2.9106269">
<ele>179.56</ele>
<time>2016-10-18T10:00:00Z</time>
</trkpt>
<trkpt lat="39.5763896" lon="2.9104940">
<ele>179.27</ele>
<time>2016-10-18T10:00:03Z</time>
</trkpt>
<trkpt lat="39.5761875" lon="2.9103541">
<ele>178.67</ele>
<time>2016-10-18T10:00:06Z</time>
</trkpt>
<trkpt lat="39.5759744" lon="2.9102089">
<ele>177.94</ele>
<time>2016-10-18T10:00:09Z</time>
</trkpt>
<trkpt lat="39.5757519" lon="2.9100565">
<ele>177.49</ele>
<time>2016-10-18T10:00:12Z</time>
</trkpt>
<trkpt lat="39.5755547" lon="2.9099282">
<ele>177.20</ele>
<time>2016-10-18T10:00:15Z</time>
</trkpt>
<trkpt lat="39.5753527" lon="2.9097939">
<ele>176.35</ele>
<time>2016-10-18T10:00:18Z</time>
</trkpt>
<trkpt lat="39.5751583" lon="2.9096720">
<ele>175.60</ele>
<time>2016-10-18T10:00:21Z</time>
</trkpt>
<trkpt lat="39.5749441" lon="2.9095348">
<ele>176.28</ele>
<time>2016-10-18T10:00:24Z</time>
</trkpt>
<trkpt lat="39.5747189" lon="2.9093944">
<ele>178.34</ele>
<time>2016-10-18T10:00:27Z</time>
</trkpt>
<trkpt lat="39.5745165" lon="2.9092698">
<ele>180.58</ele>
<time>2016-10-18T10:00:30Z</time>
</trkpt>
<trkpt lat="39.5743079" lon="2.9091457">
<ele>182.75</ele>
<time>2016-10-18T10:00:33Z</time>
</trkpt>
<trkpt lat="39.5741210" lon="2.9090392">
<ele>183.28</ele>
<time>2016-10-18T10:00:36Z</time>
</trkpt>
<trkpt lat="39.5739333" lon="2.9089313">
<ele>183.10</ele>
<time>2016-10-18T10:00:39Z</time>
</trkpt>
<trkpt lat="39.5737173" lon="2.9088197">
<ele>183.97</ele>
<time>2016-10-18T10:00:42Z</time>
</trkpt>
<trkpt lat="39.5735273" lon="2.9087299">
<ele>184.25</ele>
<time>2016-10-18T10:00:45Z</time>
</trkpt>
<trkpt lat="39.5733096" lon="2.9086264">
<ele>184.85</ele>
<time>2016-10-18T10:00:48Z</time>
</trkpt>
<trkpt lat="39.5730905" lon="2.9085251">
<ele>185.52</ele>
<time>2016-10-18T10:00:51Z</time>
</trkpt>
<trkpt lat="39.5728886" lon="2.9084332">
<ele>185.10</ele>
<time>2016-10-18T10:00:54Z</time>
</trkpt>
<trkpt lat="39.5726910" lon="2.9083447">
<ele>184.10</ele>
<time>2016-10-18T10:00:57Z</time>
</trkpt>
<trkpt lat="39.5725082" lon="2.9082575">
<ele>182.10</ele>
<time>2016-10-18T10:01:00Z</time>
</trkpt>
<trkpt lat="39.5723192" lon="2.9081525">
<ele>181.37</ele>
<time>2016-10-18T10:01:03Z</time>
</trkpt>
<trkpt lat="39.5721227" lon="2.9080596">
<ele>182.85</ele>
<time>2016-10-18T10:01:06Z</time>
</trkpt>
<trkpt lat="39.5719339" lon="2.9079938">
<ele>183.97</ele>
<time>2016-10-18T10:01:09Z</time>
</trkpt>
<trkpt lat="39.5717186" lon="2.9079936">
<ele>184.48</ele>
<time>2016-10-18T10:01:12Z</time>
</trkpt>
<trkpt lat="39.5714989" lon="2.9081053">
<ele>181.63</ele>
<time>2016-10-18T10:01:16Z</time>
</trkpt>
<trkpt lat="39.5713259" lon="2.9082277">
<ele>179.58</ele>
<time>2016-10-18T10:01:19Z</time>
</trkpt>
<trkpt lat="39.5711629" lon="2.9083470">
<ele>179.22</ele>
<time>2016-10-18T10:01:22Z</time>
</trkpt>
<trkpt lat="39.5709841" lon="2.9084772">
<ele>179.09</ele>
<time>2016-10-18T10:01:25Z</time>
</trkpt>
<trkpt lat="39.5708118" lon="2.9086001">
<ele>179.41</ele>
<time>2016-10-18T10:01:28Z</time>
</trkpt>
<trkpt lat="39.5706385" lon="2.9087205">
<ele>180.06</ele>
<time>2016-10-18T10:01:31Z</time>
</trkpt>
<trkpt lat="39.5704644" lon="2.9088423">
<ele>180.46</ele>
<time>2016-10-18T10:01:34Z</time>
</trkpt>
<trkpt lat="39.5702959" lon="2.9089692">
<ele>180.36</ele>
<time>2016-10-18T10:01:37Z</time>
</trkpt>
<trkpt lat="39.5701208" lon="2.9090932">
<ele>179.45</ele>
<time>2016-10-18T10:01:40Z</time>
</trkpt>
<trkpt lat="39.5699235" lon="2.9092392">
<ele>180.28</ele>
<time>2016-10-18T10:01:44Z</time>
</trkpt>
<trkpt lat="39.5697604" lon="2.9093619">
<ele>180.83</ele>
<time>2016-10-18T10:01:47Z</time>
</trkpt>
<trkpt lat="39.5695948" lon="2.9094717">
<ele>180.48</ele>
<time>2016-10-18T10:01:50Z</time>
</trkpt>
<trkpt lat="39.5694207" lon="2.9095857">
<ele>179.45</ele>
<time>2016-10-18T10:01:53Z</time>
</trkpt>
<trkpt lat="39.5692164" lon="2.9097315">
<ele>179.72</ele>
<time>2016-10-18T10:01:57Z</time>
</trkpt>
<trkpt lat="39.5690532" lon="2.9098530">
<ele>180.07</ele>
<time>2016-10-18T10:02:00Z</time>
</trkpt>
<trkpt lat="39.5688431" lon="2.9099959">
<ele>180.63</ele>
<time>2016-10-18T10:02:04Z</time>
</trkpt>
<trkpt lat="39.5686402" lon="2.9101230">
<ele>181.07</ele>
<time>2016-10-18T10:02:08Z</time>
</trkpt>
<trkpt lat="39.5684701" lon="2.9102066">
<ele>181.38</ele>
<time>2016-10-18T10:02:14Z</time>
</trkpt>
<trkpt lat="39.5684393" lon="2.9099399">
<ele>182.01</ele>
<time>2016-10-18T10:02:31Z</time>
</trkpt>
<trkpt lat="39.5684001" lon="2.9096999">
<ele>182.50</ele>
<time>2016-10-18T10:02:35Z</time>
</trkpt>
<trkpt lat="39.5683530" lon="2.9094248">
<ele>181.70</ele>
<time>2016-10-18T10:02:39Z</time>
</trkpt>
<trkpt lat="39.5683091" lon="2.9091852">
<ele>180.30</ele>
<time>2016-10-18T10:02:43Z</time>
</trkpt>
<trkpt lat="39.5682581" lon="2.9089487">
<ele>181.37</ele>
<time>2016-10-18T10:02:47Z</time>
</trkpt>
<trkpt lat="39.5682070" lon="2.9087231">
<ele>182.95</ele>
<time>2016-10-18T10:02:50Z</time>
</trkpt>
<trkpt lat="39.5681455" lon="2.9084462">
<ele>183.19</ele>
<time>2016-10-18T10:02:53Z</time>
</trkpt>
<trkpt lat="39.5680902" lon="2.9081707">
<ele>181.81</ele>
<time>2016-10-18T10:02:56Z</time>
</trkpt>
<trkpt lat="39.5680399" lon="2.9079212">
<ele>180.22</ele>
<time>2016-10-18T10:02:59Z</time>
</trkpt>
<trkpt lat="39.5679910" lon="2.9076901">
<ele>179.74</ele>
<time>2016-10-18T10:03:02Z</time>
</trkpt>
<trkpt lat="39.5679307" lon="2.9074115">
<ele>180.09</ele>
<time>2016-10-18T10:03:05Z</time>
</trkpt>
<trkpt lat="39.5678835" lon="2.9071779">
<ele>179.20</ele>
<time>2016-10-18T10:03:07Z</time>
</trkpt>
<trkpt lat="39.5678304" lon="2.9069176">
<ele>178.41</ele>
<time>2016-10-18T10:03:09Z</time>
</trkpt>
<trkpt lat="39.5677666" lon="2.9066405">
<ele>178.01</ele>
<time>2016-10-18T10:03:11Z</time>
</trkpt>
<trkpt lat="39.5677086" lon="2.9063791">
<ele>177.41</ele>
<time>2016-10-18T10:03:13Z</time>
</trkpt>
<trkpt lat="39.5676571" lon="2.9061284">
<ele>176.75</ele>
<time>2016-10-18T10:03:15Z</time>
</trkpt>
<trkpt lat="39.5675909" lon="2.9058678">
<ele>176.03</ele>
<time>2016-10-18T10:03:17Z</time>
</trkpt>
<trkpt lat="39.5675441" lon="2.9056279">
<ele>176.04</ele>
<time>2016-10-18T10:03:19Z</time>
</trkpt>
<trkpt lat="39.5674774" lon="2.9053042">
<ele>176.48</ele>
<time>2016-10-18T10:03:22Z</time>
</trkpt>
<trkpt lat="39.5674039" lon="2.9050020">
<ele>176.61</ele>
<time>2016-10-18T10:03:25Z</time>
</trkpt>
<trkpt lat="39.5673376" lon="2.9047239">
<ele>177.11</ele>
<time>2016-10-18T10:03:28Z</time>
</trkpt>
<trkpt lat="39.5672463" lon="2.9044513">
<ele>178.42</ele>
<time>2016-10-18T10:03:32Z</time>
</trkpt>
<trkpt lat="39.5671803" lon="2.9042218">
<ele>181.60</ele>
<time>2016-10-18T10:03:35Z</time>
</trkpt>
<trkpt lat="39.5671269" lon="2.9039652">
<ele>181.86</ele>
<time>2016-10-18T10:03:38Z</time>
</trkpt>
<trkpt lat="39.5670626" lon="2.9037154">
<ele>181.51</ele>
<time>2016-10-18T10:03:41Z</time>
</trkpt>
<trkpt lat="39.5669883" lon="2.9034256">
<ele>182.02</ele>
<time>2016-10-18T10:03:45Z</time>
</trkpt>
<trkpt lat="39.5669431" lon="2.9031290">
<ele>182.04</ele>
<time>2016-10-18T10:03:49Z</time>
</trkpt>
<trkpt lat="39.5669408" lon="2.9028904">
<ele>183.47</ele>
<time>2016-10-18T10:03:52Z</time>
</trkpt>
<trkpt lat="39.5669434" lon="2.9026522">
<ele>185.60</ele>
<time>2016-10-18T10:03:55Z</time>
</trkpt>
<trkpt lat="39.5669473" lon="2.9024177">
<ele>187.40</ele>
<time>2016-10-18T10:03:58Z</time>
</trkpt>
<trkpt lat="39.5669500" lon="2.9021659">
<ele>189.53</ele>
<time>2016-10-18T10:04:01Z</time>
</trkpt>
<trkpt lat="39.5669474" lon="2.9019194">
<ele>190.71</ele>
<time>2016-10-18T10:04:04Z</time>
</trkpt>
<trkpt lat="39.5669557" lon="2.9016799">
<ele>191.46</ele>
<time>2016-10-18T10:04:07Z</time>
</trkpt>
<trkpt lat="39.5669710" lon="2.9014347">
<ele>191.54</ele>
<time>2016-10-18T10:04:10Z</time>
</trkpt>
<trkpt lat="39.5669853" lon="2.9011996">
<ele>190.98</ele>
<time>2016-10-18T10:04:13Z</time>
</trkpt>
<trkpt lat="39.5670055" lon="2.9008832">
<ele>191.76</ele>
<time>2016-10-18T10:04:17Z</time>
</trkpt>
<trkpt lat="39.5670225" lon="2.9005697">
<ele>192.20</ele>
<time>2016-10-18T10:04:21Z</time>
</trkpt>
<trkpt lat="39.5670375" lon="2.9003324">
<ele>192.15</ele>
<time>2016-10-18T10:04:24Z</time>
</trkpt>
<trkpt lat="39.5670440" lon="2.9000904">
<ele>192.30</ele>
<time>2016-10-18T10:04:27Z</time>
</trkpt>
<trkpt lat="39.5670478" lon="2.8998492">
<ele>192.44</ele>
<time>2016-10-18T10:04:30Z</time>
</trkpt>
<trkpt lat="39.5670611" lon="2.8996144">
<ele>192.26</ele>
<time>2016-10-18T10:04:33Z</time>
</trkpt>
<trkpt lat="39.5670782" lon="2.8993194">
<ele>192.26</ele>
<time>2016-10-18T10:04:37Z</time>
</trkpt>
<trkpt lat="39.5670925" lon="2.8990115">
<ele>192.57</ele>
<time>2016-10-18T10:04:41Z</time>
</trkpt>
<trkpt lat="39.5671073" lon="2.8987724">
<ele>192.43</ele>
<time>2016-10-18T10:04:44Z</time>
</trkpt>
<trkpt lat="39.5671288" lon="2.8985054">
<ele>191.10</ele>
<time>2016-10-18T10:04:47Z</time>
</trkpt>
<trkpt lat="39.5671403" lon="2.8982188">
<ele>189.66</ele>
<time>2016-10-18T10:04:51Z</time>
</trkpt>
<trkpt lat="39.5671530" lon="2.8979528">
<ele>190.27</ele>
<time>2016-10-18T10:04:55Z</time>
</trkpt>
<trkpt lat="39.5671698" lon="2.8976992">
<ele>188.59</ele>
<time>2016-10-18T10:04:59Z</time>
</trkpt>
<trkpt lat="39.5672085" lon="2.8974108">
<ele>188.03</ele>
<time>2016-10-18T10:05:03Z</time>
</trkpt>
<trkpt lat="39.5671077" lon="2.8972129">
<ele>187.62</ele>
<time>2016-10-18T10:05:07Z</time>
</trkpt>
<trkpt lat="39.5669145" lon="2.8973062">
<ele>185.96</ele>
<time>2016-10-18T10:05:12Z</time>
</trkpt>
<trkpt lat="39.5666955" lon="2.8973660">
<ele>187.76</ele>
<time>2016-10-18T10:05:16Z</time>
</trkpt>
<trkpt lat="39.5665059" lon="2.8973501">
<ele>189.08</ele>
<time>2016-10-18T10:05:19Z</time>
</trkpt>
<trkpt lat="39.5663117" lon="2.8973247">
<ele>189.50</ele>
<time>2016-10-18T10:05:22Z</time>
</trkpt>
<trkpt lat="39.5661230" lon="2.8973016">
<ele>188.50</ele>
<time>2016-10-18T10:05:25Z</time>
</trkpt>
<trkpt lat="39.5659176" lon="2.8972752">
<ele>188.26</ele>
<time>2016-10-18T10:05:28Z</time>
</trkpt>
<trkpt lat="39.5657007" lon="2.8972587">
<ele>186.65</ele>
<time>2016-10-18T10:05:32Z</time>
</trkpt>
<trkpt lat="39.5655168" lon="2.8971631">
<ele>187.11</ele>
<time>2016-10-18T10:05:37Z</time>
</trkpt>
<trkpt lat="39.5654427" lon="2.8968824">
<ele>188.09</ele>
<time>2016-10-18T10:05:41Z</time>
</trkpt>
<trkpt lat="39.5654256" lon="2.8966208">
<ele>188.05</ele>
<time>2016-10-18T10:05:45Z</time>
</trkpt>
<trkpt lat="39.5654083" lon="2.8963510">
<ele>188.86</ele>
<time>2016-10-18T10:05:49Z</time>
</trkpt>
<trkpt lat="39.5653971" lon="2.8961018">
<ele>189.62</ele>
<time>2016-10-18T10:05:55Z</time>
</trkpt>
<trkpt lat="39.5651761" lon="2.8960527">
<ele>189.62</ele>
<time>2016-10-18T10:06:01Z</time>
</trkpt>
<trkpt lat="39.5649800" lon="2.8960482">
<ele>188.51</ele>
<time>2016-10-18T10:06:05Z</time>
</trkpt>
<trkpt lat="39.5647704" lon="2.8960072">
<ele>186.45</ele>
<time>2016-10-18T10:06:10Z</time>
</trkpt>
<trkpt lat="39.5645829" lon="2.8959550">
<ele>188.29</ele>
<time>2016-10-18T10:06:14Z</time>
</trkpt>
<trkpt lat="39.5643615" lon="2.8959023">
<ele>187.76</ele>
<time>2016-10-18T10:06:18Z</time>
</trkpt>
<trkpt lat="39.5641469" lon="2.8958574">
<ele>186.62</ele>
<time>2016-10-18T10:06:21Z</time>
</trkpt>
<trkpt lat="39.5639645" lon="2.8958158">
<ele>185.51</ele>
<time>2016-10-18T10:06:24Z</time>
</trkpt>
<trkpt lat="39.5637768" lon="2.8957781">
<ele>184.16</ele>
<time>2016-10-18T10:06:27Z</time>
</trkpt>
<trkpt lat="39.5635525" lon="2.8957295">
<ele>184.14</ele>
<time>2016-10-18T10:06:31Z</time>
</trkpt>
<trkpt lat="39.5633739" lon="2.8956856">
<ele>184.31</ele>
<time>2016-10-18T10:06:34Z</time>
</trkpt>
<trkpt lat="39.5631775" lon="2.8956398">
<ele>185.04</ele>
<time>2016-10-18T10:06:37Z</time>
</trkpt>
<trkpt lat="39.5629914" lon="2.8955909">
<ele>186.08</ele>
<time>2016-10-18T10:06:40Z</time>
</trkpt>
<trkpt lat="39.5627662" lon="2.8955310">
<ele>186.54</ele>
<time>2016-10-18T10:06:44Z</time>
</trkpt>
<trkpt lat="39.5625745" lon="2.8954824">
<ele>185.97</ele>
<time>2016-10-18T10:06:47Z</time>
</trkpt>
<trkpt lat="39.5623707" lon="2.8954285">
<ele>185.78</ele>
<time>2016-10-18T10:06:50Z</time>
</trkpt>
<trkpt lat="39.5621750" lon="2.8953857">
<ele>185.39</ele>
<time>2016-10-18T10:06:53Z</time>
</trkpt>
<trkpt lat="39.5619403" lon="2.8953281">
<ele>186.24</ele>
<time>2016-10-18T10:06:57Z</time>
</trkpt>
<trkpt lat="39.5617563" lon="2.8952759">
<ele>187.15</ele>
<time>2016-10-18T10:07:00Z</time>
</trkpt>
<trkpt lat="39.5615375" lon="2.8952108">
<ele>188.30</ele>
<time>2016-10-18T10:07:04Z</time>
</trkpt>
<trkpt lat="39.5613123" lon="2.8951760">
<ele>189.54</ele>
<time>2016-10-18T10:07:08Z</time>
</trkpt>
<trkpt lat="39.5611309" lon="2.8951930">
<ele>190.01</ele>
<time>2016-10-18T10:07:11Z</time>
</trkpt>
<trkpt lat="39.5609488" lon="2.8952390">
<ele>189.22</ele>
<time>2016-10-18T10:07:14Z</time>
</trkpt>
<trkpt lat="39.5607423" lon="2.8953096">
<ele>189.07</ele>
<time>2016-10-18T10:07:19Z</time>
</trkpt>
<trkpt lat="39.5605492" lon="2.8953703">
<ele>188.94</ele>
<time>2016-10-18T10:07:24Z</time>
</trkpt>
<trkpt lat="39.5603497" lon="2.8953924">
<ele>188.45</ele>
<time>2016-10-18T10:07:28Z</time>
</trkpt>
<trkpt lat="39.5601646" lon="2.8954060">
<ele>188.77</ele>
<time>2016-10-18T10:07:32Z</time>
</trkpt>
<trkpt lat="39.5599829" lon="2.8954025">
<ele>186.43</ele>
<time>2016-10-18T10:07:36Z</time>
</trkpt>
<trkpt lat="39.5597740" lon="2.8953302">
<ele>186.56</ele>
<time>2016-10-18T10:07:41Z</time>
</trkpt>
<trkpt lat="39.5595709" lon="2.8952980">
<ele>188.25</ele>
<time>2016-10-18T10:07:46Z</time>
</trkpt>
<trkpt lat="39.5593905" lon="2.8952782">
<ele>190.38</ele>
<time>2016-10-18T10:07:50Z</time>
</trkpt>
<trkpt lat="39.5591967" lon="2.8952798">
<ele>193.57</ele>
<time>2016-10-18T10:07:55Z</time>
</trkpt>
<trkpt lat="39.5589974" lon="2.8952575">
<ele>195.49</ele>
<time>2016-10-18T10:08:00Z</time>
</trkpt>
<trkpt lat="39.5588104" lon="2.8951062">
<ele>195.62</ele>
<time>2016-10-18T10:08:05Z</time>
</trkpt>
<trkpt lat="39.5586832" lon="2.8949325">
<ele>196.66</ele>
<time>2016-10-18T10:08:09Z</time>
</trkpt>
<trkpt lat="39.5585527" lon="2.8947680">
<ele>196.37</ele>
<time>2016-10-18T10:08:13Z</time>
</trkpt>
<trkpt lat="39.5584220" lon="2.8946022">
<ele>195.27</ele>
<time>2016-10-18T10:08:17Z</time>
</trkpt>
<trkpt lat="39.5582946" lon="2.8944319">
<ele>194.21</ele>
<time>2016-10-18T10:08:21Z</time>
</trkpt>
<trkpt lat="39.5581389" lon="2.8942543">
<ele>193.45</ele>
<time>2016-10-18T10:08:26Z</time>
</trkpt>
<trkpt lat="39.5579568" lon="2.8942609">
<ele>196.70</ele>
<time>2016-10-18T10:08:31Z</time>
</trkpt>
<trkpt lat="39.5577749" lon="2.8942207">
<ele>197.47</ele>
<time>2016-10-18T10:08:35Z</time>
</trkpt>
<trkpt lat="39.5575686" lon="2.8941241">
<ele>196.59</ele>
<time>2016-10-18T10:08:40Z</time>
</trkpt>
<trkpt lat="39.5573626" lon="2.8940090">
<ele>198.20</ele>
<time>2016-10-18T10:08:45Z</time>
</trkpt>
<trkpt lat="39.5571563" lon="2.8939542">
<ele>202.47</ele>
<time>2016-10-18T10:08:50Z</time>
</trkpt>
<trkpt lat="39.5569731" lon="2.8939645">
<ele>205.86</ele>
<time>2016-10-18T10:08:54Z</time>
</trkpt>
<trkpt lat="39.5567656" lon="2.8939899">
<ele>208.52</ele>
<time>2016-10-18T10:08:58Z</time>
</trkpt>
<trkpt lat="39.5565858" lon="2.8940356">
<ele>208.57</ele>
<time>2016-10-18T10:09:01Z</time>
</trkpt>
<trkpt lat="39.5563793" lon="2.8940891">
<ele>208.52</ele>
<time>2016-10-18T10:09:05Z</time>
</trkpt>
<trkpt lat="39.5561709" lon="2.8941591">
<ele>206.25</ele>
<time>2016-10-18T10:09:09Z</time>
</trkpt>
<trkpt lat="39.5559950" lon="2.8942321">
<ele>204.50</ele>
<time>2016-10-18T10:09:13Z</time>
</trkpt>
<trkpt lat="39.5558071" lon="2.8942943">
<ele>203.11</ele>
<time>2016-10-18T10:09:17Z</time>
</trkpt>
<trkpt lat="39.5556217" lon="2.8943527">
<ele>203.04</ele>
<time>2016-10-18T10:09:21Z</time>
</trkpt>
<trkpt lat="39.5554296" lon="2.8944030">
<ele>204.50</ele>
<time>2016-10-18T10:09:25Z</time>
</trkpt>
<trkpt lat="39.5552400" lon="2.8944502">
<ele>205.60</ele>
<time>2016-10-18T10:09:29Z</time>
</trkpt>
<trkpt lat="39.5550453" lon="2.8945129">
<ele>207.94</ele>
<time>2016-10-18T10:09:33Z</time>
</trkpt>
<trkpt lat="39.5548707" lon="2.8946016">
<ele>208.64</ele>
<time>2016-10-18T10:09:37Z</time>
</trkpt>
<trkpt lat="39.5546926" lon="2.8946949">
<ele>210.18</ele>
<time>2016-10-18T10:09:41Z</time>
</trkpt>
<trkpt lat="39.5545078" lon="2.8948172">
<ele>213.78</ele>
<time>2016-10-18T10:09:45Z</time>
</trkpt>
<trkpt lat="39.5543428" lon="2.8949362">
<ele>214.59</ele>
<time>2016-10-18T10:09:50Z</time>
</trkpt>
<trkpt lat="39.5541711" lon="2.8950227">
<ele>214.45</ele>
<time>2016-10-18T10:09:54Z</time>
</trkpt>
<trkpt lat="39.5539810" lon="2.8951138">
<ele>214.60</ele>
<time>2016-10-18T10:09:59Z</time>
</trkpt>
<trkpt lat="39.5537894" lon="2.8952226">
<ele>214.40</ele>
<time>2016-10-18T10:10:04Z</time>
</trkpt>
<trkpt lat="39.5536035" lon="2.8953125">
<ele>214.96</ele>
<time>2016-10-18T10:10:08Z</time>
</trkpt>
<trkpt lat="39.5534215" lon="2.8954100">
<ele>215.51</ele>
<time>2016-10-18T10:10:12Z</time>
</trkpt>
<trkpt lat="39.5532430" lon="2.8955081">
<ele>216.28</ele>
<time>2016-10-18T10:10:16Z</time>
</trkpt>
<trkpt lat="39.5530404" lon="2.8956121">
<ele>216.09</ele>
<time>2016-10-18T10:10:21Z</time>
</trkpt>
<trkpt lat="39.5528605" lon="2.8956988">
<ele>216.93</ele>
<time>2016-10-18T10:10:25Z</time>
</trkpt>
<trkpt lat="39.5526714" lon="2.8957728">
<ele>218.13</ele>
<time>2016-10-18T10:10:29Z</time>
</trkpt>
<trkpt lat="39.5524733" lon="2.8958501">
<ele>219.95</ele>
<time>2016-10-18T10:10:33Z</time>
</trkpt>
<trkpt lat="39.5522600" lon="2.8959331">
<ele>220.28</ele>
<time>2016-10-18T10:10:38Z</time>
</trkpt>
<trkpt lat="39.5520653" lon="2.8960141">
<ele>219.13</ele>
<time>2016-10-18T10:10:42Z</time>
</trkpt>
<trkpt lat="39.5518782" lon="2.8960911">
<ele>221.11</ele>
<time>2016-10-18T10:10:46Z</time>
</trkpt>
<trkpt lat="39.5516942" lon="2.8961636">
<ele>222.05</ele>
<time>2016-10-18T10:10:50Z</time>
</trkpt>
<trkpt lat="39.5515142" lon="2.8962532">
<ele>222.75</ele>
<time>2016-10-18T10:10:54Z</time>
</trkpt>
<trkpt lat="39.5513016" lon="2.8963463">
<ele>224.12</ele>
<time>2016-10-18T10:10:58Z</time>
</trkpt>
<trkpt lat="39.5510984" lon="2.8964384">
<ele>225.77</ele>
<time>2016-10-18T10:11:03Z</time>
</trkpt>
<trkpt lat="39.5508980" lon="2.8965400">
<ele>226.92</ele>
<time>2016-10-18T10:11:08Z</time>
</trkpt>
<trkpt lat="39.5507164" lon="2.8966076">
<ele>227.28</ele>
<time>2016-10-18T10:11:12Z</time>
</trkpt>
<trkpt lat="39.5505336" lon="2.8966885">
<ele>227.56</ele>
<time>2016-10-18T10:11:16Z</time>
</trkpt>
<trkpt lat="39.5503611" lon="2.8967595">
<ele>226.88</ele>
<time>2016-10-18T10:11:20Z</time>
</trkpt>
<trkpt lat="39.5501874" lon="2.8968304">
<ele>225.68</ele>
<time>2016-10-18T10:11:24Z</time>
</trkpt>
<trkpt lat="39.5500124" lon="2.8969087">
<ele>224.75</ele>
<time>2016-10-18T10:11:28Z</time>
</trkpt>
<trkpt lat="39.5498282" lon="2.8969890">
<ele>225.08</ele>
<time>2016-10-18T10:11:32Z</time>
</trkpt>
<trkpt lat="39.5496306" lon="2.8970726">
<ele>226.80</ele>
<time>2016-10-18T10:11:37Z</time>
</trkpt>
<trkpt lat="39.5494262" lon="2.8971530">
<ele>226.61</ele>
<time>2016-10-18T10:11:42Z</time>
</trkpt>
<trkpt lat="39.5492259" lon="2.8972310">
<ele>226.74</ele>
<time>2016-10-18T10:11:46Z</time>
</trkpt>
<trkpt lat="39.5490197" lon="2.8973281">
<ele>226.94</ele>
<time>2016-10-18T10:11:51Z</time>
</trkpt>
<trkpt lat="39.5488147" lon="2.8974165">
<ele>227.38</ele>
<time>2016-10-18T10:11:56Z</time>
</trkpt>
<trkpt lat="39.5486319" lon="2.8974937">
<ele>228.15</ele>
<time>2016-10-18T10:12:01Z</time>
</trkpt>
<trkpt lat="39.5484230" lon="2.8975730">
<ele>228.59</ele>
<time>2016-10-18T10:12:06Z</time>
</trkpt>
<trkpt lat="39.5482508" lon="2.8976436">
<ele>228.73</ele>
<time>2016-10-18T10:12:10Z</time>
</trkpt>
<trkpt lat="39.5480833" lon="2.8977406">
<ele>230.02</ele>
<time>2016-10-18T10:12:14Z</time>
</trkpt>
<trkpt lat="39.5479164" lon="2.8978698">
<ele>231.30</ele>
<time>2016-10-18T10:12:18Z</time>
</trkpt>
<trkpt lat="39.5477226" lon="2.8980420">
<ele>230.58</ele>
<time>2016-10-18T10:12:22Z</time>
</trkpt>
<trkpt lat="39.5475492" lon="2.8982236">
<ele>230.66</ele>
<time>2016-10-18T10:12:26Z</time>
</trkpt>
<trkpt lat="39.5474048" lon="2.8983724">
<ele>230.11</ele>
<time>2016-10-18T10:12:29Z</time>
</trkpt>
<trkpt lat="39.5472635" lon="2.8985271">
<ele>230.22</ele>
<time>2016-10-18T10:12:32Z</time>
</trkpt>
<trkpt lat="39.5471121" lon="2.8986763">
<ele>230.73</ele>
<time>2016-10-18T10:12:35Z</time>
</trkpt>
<trkpt lat="39.5469653" lon="2.8988206">
<ele>231.81</ele>
<time>2016-10-18T10:12:38Z</time>
</trkpt>
<trkpt lat="39.5468183" lon="2.8989679">
<ele>230.61</ele>
<time>2016-10-18T10:12:41Z</time>
</trkpt>
<trkpt lat="39.5466652" lon="2.8991232">
<ele>230.06</ele>
<time>2016-10-18T10:12:44Z</time>
</trkpt>
<trkpt lat="39.5465089" lon="2.8992863">
<ele>231.69</ele>
<time>2016-10-18T10:12:47Z</time>
</trkpt>
<trkpt lat="39.5463367" lon="2.8994616">
<ele>233.34</ele>
<time>2016-10-18T10:12:50Z</time>
</trkpt>
<trkpt lat="39.5461529" lon="2.8996417">
<ele>233.18</ele>
<time>2016-10-18T10:12:53Z</time>
</trkpt>
<trkpt lat="39.5459509" lon="2.8998378">
<ele>232.44</ele>
<time>2016-10-18T10:12:56Z</time>
</trkpt>
<trkpt lat="39.5457511" lon="2.9000253">
<ele>232.17</ele>
<time>2016-10-18T10:12:59Z</time>
</trkpt>
<trkpt lat="39.5455444" lon="2.9002373">
<ele>231.07</ele>
<time>2016-10-18T10:13:02Z</time>
</trkpt>
<trkpt lat="39.5453499" lon="2.9004255">
<ele>230.17</ele>
<time>2016-10-18T10:13:05Z</time>
</trkpt>
<trkpt lat="39.5451680" lon="2.9005910">
<ele>230.09</ele>
<time>2016-10-18T10:13:08Z</time>
</trkpt>
<trkpt lat="39.5449911" lon="2.9007493">
<ele>229.46</ele>
<time>2016-10-18T10:13:11Z</time>
</trkpt>
<trkpt lat="39.5448269" lon="2.9008950">
<ele>230.23</ele>
<time>2016-10-18T10:13:14Z</time>
</trkpt>
<trkpt lat="39.5446794" lon="2.9010303">
<ele>230.52</ele>
<time>2016-10-18T10:13:17Z</time>
</trkpt>
<trkpt lat="39.5445161" lon="2.9012001">
<ele>230.79</ele>
<time>2016-10-18T10:13:20Z</time>
</trkpt>
<trkpt lat="39.5443604" lon="2.9013801">
<ele>230.15</ele>
<time>2016-10-18T10:13:23Z</time>
</trkpt>
<trkpt lat="39.5442100" lon="2.9015949">
<ele>231.13</ele>
<time>2016-10-18T10:13:26Z</time>
</trkpt>
<trkpt lat="39.5440496" lon="2.9018480">
<ele>231.18</ele>
<time>2016-10-18T10:13:29Z</time>
</trkpt>
<trkpt lat="39.5439017" lon="2.9020765">
<ele>230.37</ele>
<time>2016-10-18T10:13:32Z</time>
</trkpt>
<trkpt lat="39.5437421" lon="2.9023274">
<ele>227.59</ele>
<time>2016-10-18T10:13:35Z</time>
</trkpt>
<trkpt lat="39.5435888" lon="2.9025514">
<ele>226.16</ele>
<time>2016-10-18T10:13:38Z</time>
</trkpt>
<trkpt lat="39.5434509" lon="2.9027394">
<ele>226.34</ele>
<time>2016-10-18T10:13:41Z</time>
</trkpt>
<trkpt lat="39.5433084" lon="2.9029224">
<ele>226.24</ele>
<time>2016-10-18T10:13:44Z</time>
</trkpt>
<trkpt lat="39.5431641" lon="2.9030731">
<ele>226.06</ele>
<time>2016-10-18T10:13:47Z</time>
</trkpt>
<trkpt lat="39.5430050" lon="2.9032265">
<ele>226.78</ele>
<time>2016-10-18T10:13:50Z</time>
</trkpt>
<trkpt lat="39.5428449" lon="2.9033783">
<ele>227.47</ele>
<time>2016-10-18T10:13:53Z</time>
</trkpt>
<trkpt lat="39.5426564" lon="2.9035688">
<ele>228.52</ele>
<time>2016-10-18T10:13:57Z</time>
</trkpt>
<trkpt lat="39.5425025" lon="2.9037156">
<ele>228.95</ele>
<time>2016-10-18T10:14:00Z</time>
</trkpt>
<trkpt lat="39.5423547" lon="2.9038538">
<ele>228.72</ele>
<time>2016-10-18T10:14:03Z</time>
</trkpt>
<trkpt lat="39.5421657" lon="2.9040333">
<ele>228.21</ele>
<time>2016-10-18T10:14:07Z</time>
</trkpt>
<trkpt lat="39.5419846" lon="2.9042203">
<ele>227.67</ele>
<time>2016-10-18T10:14:10Z</time>
</trkpt>
<trkpt lat="39.5418049" lon="2.9043968">
<ele>229.17</ele>
<time>2016-10-18T10:14:14Z</time>
</trkpt>
<trkpt lat="39.5416447" lon="2.9045495">
<ele>231.50</ele>
<time>2016-10-18T10:14:18Z</time>
</trkpt>
<trkpt lat="39.5414790" lon="2.9047236">
<ele>235.06</ele>
<time>2016-10-18T10:14:22Z</time>
</trkpt>
<trkpt lat="39.5413188" lon="2.9049032">
<ele>237.24</ele>
<time>2016-10-18T10:14:26Z</time>
</trkpt>
<trkpt lat="39.5411683" lon="2.9050666">
<ele>237.44</ele>
<time>2016-10-18T10:14:30Z</time>
</trkpt>
<trkpt lat="39.5410141" lon="2.9052149">
<ele>234.23</ele>
<time>2016-10-18T10:14:34Z</time>
</trkpt>
<trkpt lat="39.5408500" lon="2.9053819">
<ele>233.83</ele>
<time>2016-10-18T10:14:38Z</time>
</trkpt>
<trkpt lat="39.5406912" lon="2.9055540">
<ele>234.69</ele>
<time>2016-10-18T10:14:42Z</time>
</trkpt>
<trkpt lat="39.5405326" lon="2.9057231">
<ele>233.85</ele>
<time>2016-10-18T10:14:46Z</time>
</trkpt>
<trkpt lat="39.5403606" lon="2.9058899">
<ele>235.35</ele>
<time>2016-10-18T10:14:50Z</time>
</trkpt>
<trkpt lat="39.5401827" lon="2.9060268">
<ele>236.63</ele>
<time>2016-10-18T10:14:54Z</time>
</trkpt>
<trkpt lat="39.5400108" lon="2.9062148">
<ele>240.15</ele>
<time>2016-10-18T10:14:59Z</time>
</trkpt>
<trkpt lat="39.5398432" lon="2.9064056">
<ele>241.79</ele>
<time>2016-10-18T10:15:04Z</time>
</trkpt>
<trkpt lat="39.5396921" lon="2.9065718">
<ele>242.26</ele>
<time>2016-10-18T10:15:08Z</time>
</trkpt>
<trkpt lat="39.5395679" lon="2.9067412">
<ele>242.69</ele>
<time>2016-10-18T10:15:12Z</time>
</trkpt>
<trkpt lat="39.5394500" lon="2.9069215">
<ele>242.59</ele>
<time>2016-10-18T10:15:16Z</time>
</trkpt>
<trkpt lat="39.5393049" lon="2.9071235">
<ele>241.10</ele>
<time>2016-10-18T10:15:20Z</time>
</trkpt>
<trkpt lat="39.5391806" lon="2.9073015">
<ele>240.15</ele>
<time>2016-10-18T10:15:24Z</time>
</trkpt>
<trkpt lat="39.5390509" lon="2.9074969">
<ele>239.83</ele>
<time>2016-10-18T10:15:29Z</time>
</trkpt>
<trkpt lat="39.5389243" lon="2.9076660">
<ele>239.41</ele>
<time>2016-10-18T10:15:33Z</time>
</trkpt>
<trkpt lat="39.5387865" lon="2.9078718">
<ele>238.38</ele>
<time>2016-10-18T10:15:38Z</time>
</trkpt>
<trkpt lat="39.5386471" lon="2.9080669">
<ele>238.67</ele>
<time>2016-10-18T10:15:43Z</time>
</trkpt>
<trkpt lat="39.5385064" lon="2.9082646">
<ele>239.48</ele>
<time>2016-10-18T10:15:48Z</time>
</trkpt>
<trkpt lat="39.5383715" lon="2.9084669">
<ele>243.02</ele>
<time>2016-10-18T10:15:53Z</time>
</trkpt>
<trkpt lat="39.5382531" lon="2.9086479">
<ele>247.62</ele>
<time>2016-10-18T10:15:58Z</time>
</trkpt>
<trkpt lat="39.5381275" lon="2.9088405">
<ele>250.70</ele>
<time>2016-10-18T10:16:03Z</time>
</trkpt>
<trkpt lat="39.5379957" lon="2.9090296">
<ele>249.75</ele>
<time>2016-10-18T10:16:08Z</time>
</trkpt>
<trkpt lat="39.5378773" lon="2.9092133">
<ele>249.51</ele>
<time>2016-10-18T10:16:13Z</time>
</trkpt>
<trkpt lat="39.5377127" lon="2.9093904">
<ele>248.53</ele>
<time>2016-10-18T10:16:19Z</time>
</trkpt>
<trkpt lat="39.5375591" lon="2.9095318">
<ele>248.09</ele>
<time>2016-10-18T10:16:24Z</time>
</trkpt>
<trkpt lat="39.5373996" lon="2.9096520">
<ele>247.85</ele>
<time>2016-10-18T10:16:29Z</time>
</trkpt>
<trkpt lat="39.5372162" lon="2.9097750">
<ele>247.82</ele>
<time>2016-10-18T10:16:35Z</time>
</trkpt>
<trkpt lat="39.5370178" lon="2.9099028">
<ele>248.42</ele>
<time>2016-10-18T10:16:41Z</time>
</trkpt>
<trkpt lat="39.5368534" lon="2.9100104">
<ele>249.59</ele>
<time>2016-10-18T10:16:46Z</time>
</trkpt>
<trkpt lat="39.5366739" lon="2.9101133">
<ele>251.20</ele>
<time>2016-10-18T10:16:51Z</time>
</trkpt>
<trkpt lat="39.5364786" lon="2.9102187">
<ele>253.56</ele>
<time>2016-10-18T10:16:56Z</time>
</trkpt>
<trkpt lat="39.5363081" lon="2.9103098">
<ele>256.69</ele>
<time>2016-10-18T10:17:00Z</time>
</trkpt>
<trkpt lat="39.5361299" lon="2.9103959">
<ele>257.10</ele>
<time>2016-10-18T10:17:03Z</time>
</trkpt>
<trkpt lat="39.5359115" lon="2.9104648">
<ele>255.94</ele>
<time>2016-10-18T10:17:06Z</time>
</trkpt>
<trkpt lat="39.5356419" lon="2.9104763">
<ele>253.27</ele>
<time>2016-10-18T10:17:09Z</time>
</trkpt>
<trkpt lat="39.5354537" lon="2.9104593">
<ele>251.27</ele>
<time>2016-10-18T10:17:11Z</time>
</trkpt>
<trkpt lat="39.5352669" lon="2.9104257">
<ele>249.79</ele>
<time>2016-10-18T10:17:13Z</time>
</trkpt>
<trkpt lat="39.5350748" lon="2.9103919">
<ele>249.31</ele>
<time>2016-10-18T10:17:15Z</time>
</trkpt>
<trkpt lat="39.5348114" lon="2.9103483">
<ele>248.11</ele>
<time>2016-10-18T10:17:18Z</time>
</trkpt>
<trkpt lat="39.5346203" lon="2.9103112">
<ele>248.12</ele>
<time>2016-10-18T10:17:20Z</time>
</trkpt>
<trkpt lat="39.5344340" lon="2.9102770">
<ele>247.85</ele>
<time>2016-10-18T10:17:22Z</time>
</trkpt>
<trkpt lat="39.5342461" lon="2.9102350">
<ele>248.23</ele>
<time>2016-10-18T10:17:24Z</time>
</trkpt>
<trkpt lat="39.5340486" lon="2.9102036">
<ele>248.61</ele>
<time>2016-10-18T10:17:26Z</time>
</trkpt>
<trkpt lat="39.5338187" lon="2.9101663">
<ele>247.77</ele>
<time>2016-10-18T10:17:28Z</time>
</trkpt>
<trkpt lat="39.5335802" lon="2.9101124">
<ele>246.67</ele>
<time>2016-10-18T10:17:30Z</time>
</trkpt>
<trkpt lat="39.5333194" lon="2.9100580">
<ele>246.60</ele>
<time>2016-10-18T10:17:32Z</time>
</trkpt>
<trkpt lat="39.5330631" lon="2.9100088">
<ele>246.89</ele>
<time>2016-10-18T10:17:34Z</time>
</trkpt>
<trkpt lat="39.5328121" lon="2.9099552">
<ele>247.33</ele>
<time>2016-10-18T10:17:36Z</time>
</trkpt>
<trkpt lat="39.5325854" lon="2.9099215">
<ele>247.08</ele>
<time>2016-10-18T10:17:38Z</time>
</trkpt>
<trkpt lat="39.5323734" lon="2.9098940">
<ele>248.35</ele>
<time>2016-10-18T10:17:40Z</time>
</trkpt>
<trkpt lat="39.5321790" lon="2.9098647">
<ele>248.73</ele>
<time>2016-10-18T10:17:42Z</time>
</trkpt>
<trkpt lat="39.5319922" lon="2.9098374">
<ele>249.05</ele>
<time>2016-10-18T10:17:44Z</time>
</trkpt>
<trkpt lat="39.5318107" lon="2.9098056">
<ele>248.84</ele>
<time>2016-10-18T10:17:46Z</time>
</trkpt>
<trkpt lat="39.5316162" lon="2.9097752">
<ele>249.29</ele>
<time>2016-10-18T10:17:48Z</time>
</trkpt>
<trkpt lat="39.5314342" lon="2.9097473">
<ele>249.55</ele>
<time>2016-10-18T10:17:50Z</time>
</trkpt>
<trkpt lat="39.5311673" lon="2.9097164">
<ele>249.11</ele>
<time>2016-10-18T10:17:53Z</time>
</trkpt>
<trkpt lat="39.5309288" lon="2.9096816">
<ele>248.67</ele>
<time>2016-10-18T10:17:56Z</time>
</trkpt>
<trkpt lat="39.5306815" lon="2.9096334">
<ele>249.36</ele>
<time>2016-10-18T10:17:59Z</time>
</trkpt>
<trkpt lat="39.5304519" lon="2.9095963">
<ele>248.96</ele>
<time>2016-10-18T10:18:02Z</time>
</trkpt>
<trkpt lat="39.5301983" lon="2.9095538">
<ele>246.58</ele>
<time>2016-10-18T10:18:05Z</time>
</trkpt>
<trkpt lat="39.5299667" lon="2.9095154">
<ele>243.50</ele>
<time>2016-10-18T10:18:08Z</time>
</trkpt>
<trkpt lat="39.5297600" lon="2.9094912">
<ele>242.40</ele>
<time>2016-10-18T10:18:11Z</time>
</trkpt>
<trkpt lat="39.5295804" lon="2.9094611">
<ele>243.46</ele>
<time>2016-10-18T10:18:14Z</time>
</trkpt>
<trkpt lat="39.5293323" lon="2.9094272">
<ele>247.44</ele>
<time>2016-10-18T10:18:18Z</time>
</trkpt>
<trkpt lat="39.5291351" lon="2.9094032">
<ele>245.28</ele>
<time>2016-10-18T10:18:21Z</time>
</trkpt>
<trkpt lat="39.5289313" lon="2.9093564">
<ele>244.62</ele>
<time>2016-10-18T10:18:25Z</time>
</trkpt>
<trkpt lat="39.5287261" lon="2.9092956">
<ele>243.83</ele>
<time>2016-10-18T10:18:30Z</time>
</trkpt>
<trkpt lat="39.5285342" lon="2.9092095">
<ele>244.29</ele>
<time>2016-10-18T10:18:36Z</time>
</trkpt>
<trkpt lat="39.5284233" lon="2.9094163">
<ele>244.72</ele>
<time>2016-10-18T10:18:43Z</time>
</trkpt>
<trkpt lat="39.5283386" lon="2.9096426">
<ele>244.97</ele>
<time>2016-10-18T10:18:51Z</time>
</trkpt>
<trkpt lat="39.5282378" lon="2.9098646">
<ele>245.91</ele>
<time>2016-10-18T10:18:59Z</time>
</trkpt>
<trkpt lat="39.5281437" lon="2.9100992">
<ele>246.64</ele>
<time>2016-10-18T10:19:07Z</time>
</trkpt>
<trkpt lat="39.5280566" lon="2.9103163">
<ele>247.66</ele>
<time>2016-10-18T10:19:16Z</time>
</trkpt>
<trkpt lat="39.5279850" lon="2.9105317">
<ele>249.26</ele>
<time>2016-10-18T10:19:26Z</time>
</trkpt>
<trkpt lat="39.5278824" lon="2.9107405">
<ele>250.63</ele>
<time>2016-10-18T10:19:35Z</time>
</trkpt>
<trkpt lat="39.5277858" lon="2.9109570">
<ele>252.33</ele>
<time>2016-10-18T10:19:45Z</time>
</trkpt>
<trkpt lat="39.5276686" lon="2.9111538">
<ele>253.96</ele>
<time>2016-10-18T10:19:55Z</time>
</trkpt>
<trkpt lat="39.5275607" lon="2.9113631">
<ele>256.49</ele>
<time>2016-10-18T10:20:06Z</time>
</trkpt>
<trkpt lat="39.5274585" lon="2.9115763">
<ele>258.35</ele>
<time>2016-10-18T10:20:16Z</time>
</trkpt>
<trkpt lat="39.5273756" lon="2.9118049">
<ele>260.36</ele>
<time>2016-10-18T10:20:29Z</time>
</trkpt>
<trkpt lat="39.5272740" lon="2.9120211">
<ele>262.27</ele>
<time>2016-10-18T10:20:40Z</time>
</trkpt>
<trkpt lat="39.5271984" lon="2.9122352">
<ele>264.35</ele>
<time>2016-10-18T10:20:51Z</time>
</trkpt>
<trkpt lat="39.5272029" lon="2.9124916">
<ele>267.03</ele>
<time>2016-10-18T10:21:01Z</time>
</trkpt>
<trkpt lat="39.5272105" lon="2.9127584">
<ele>268.96</ele>
<time>2016-10-18T10:21:09Z</time>
</trkpt>
<trkpt lat="39.5271963" lon="2.9130086">
<ele>270.00</ele>
<time>2016-10-18T10:21:16Z</time>
</trkpt>
<trkpt lat="39.5270814" lon="2.9132337">
<ele>271.05</ele>
<time>2016-10-18T10:21:23Z</time>
</trkpt>
<trkpt lat="39.5269553" lon="2.9134426">
<ele>271.80</ele>
<time>2016-10-18T10:21:30Z</time>
</trkpt>
<trkpt lat="39.5268403" lon="2.9136685">
<ele>272.44</ele>
<time>2016-10-18T10:21:37Z</time>
</trkpt>
<trkpt lat="39.5267331" lon="2.9138900">
<ele>273.01</ele>
<time>2016-10-18T10:21:44Z</time>
</trkpt>
<trkpt lat="39.5266371" lon="2.9140983">
<ele>273.69</ele>
<time>2016-10-18T10:21:51Z</time>
</trkpt>
<trkpt lat="39.5265300" lon="2.9143222">
<ele>274.92</ele>
<time>2016-10-18T10:21:59Z</time>
</trkpt>
<trkpt lat="39.5265150" lon="2.9145814">
<ele>276.33</ele>
<time>2016-10-18T10:22:07Z</time>
</trkpt>
<trkpt lat="39.5265187" lon="2.9148185">
<ele>277.51</ele>
<time>2016-10-18T10:22:14Z</time>
</trkpt>
<trkpt lat="39.5264604" lon="2.9150649">
<ele>278.41</ele>
<time>2016-10-18T10:22:21Z</time>
</trkpt>
<trkpt lat="39.5263659" lon="2.9152958">
<ele>279.78</ele>
<time>2016-10-18T10:22:28Z</time>
</trkpt>
<trkpt lat="39.5262981" lon="2.9155227">
<ele>281.50</ele>
<time>2016-10-18T10:22:35Z</time>
</trkpt>
<trkpt lat="39.5263751" lon="2.9157615">
<ele>285.67</ele>
<time>2016-10-18T10:22:50Z</time>
</trkpt>
<trkpt lat="39.5263282" lon="2.9160027">
<ele>288.85</ele>
<time>2016-10-18T10:22:59Z</time>
</trkpt>
<trkpt lat="39.5262612" lon="2.9162444">
<ele>291.56</ele>
<time>2016-10-18T10:23:09Z</time>
</trkpt>
<trkpt lat="39.5261374" lon="2.9164200">
<ele>294.11</ele>
<time>2016-10-18T10:23:18Z</time>
</trkpt>
<trkpt lat="39.5259821" lon="2.9165447">
<ele>296.70</ele>
<time>2016-10-18T10:23:27Z</time>
</trkpt>
<trkpt lat="39.5258157" lon="2.9166473">
<ele>297.87</ele>
<time>2016-10-18T10:23:35Z</time>
</trkpt>
<trkpt lat="39.5256570" lon="2.9167737">
<ele>299.04</ele>
<time>2016-10-18T10:23:42Z</time>
</trkpt>
<trkpt lat="39.5255794" lon="2.9169900">
<ele>300.40</ele>
<time>2016-10-18T10:23:50Z</time>
</trkpt>
<trkpt lat="39.5255002" lon="2.9172141">
<ele>301.56</ele>
<time>2016-10-18T10:23:58Z</time>
</trkpt>
<trkpt lat="39.5253842" lon="2.9174157">
<ele>302.80</ele>
<time>2016-10-18T10:24:06Z</time>
</trkpt>
<trkpt lat="39.5252803" lon="2.9176158">
<ele>303.67</ele>
<time>2016-10-18T10:24:14Z</time>
</trkpt>
<trkpt lat="39.5251287" lon="2.9177741">
<ele>304.36</ele>
<time>2016-10-18T10:24:24Z</time>
</trkpt>
<trkpt lat="39.5249637" lon="2.9178812">
<ele>305.49</ele>
<time>2016-10-18T10:24:32Z</time>
</trkpt>
<trkpt lat="39.5247936" lon="2.9179952">
<ele>307.15</ele>
<time>2016-10-18T10:24:40Z</time>
</trkpt>
<trkpt lat="39.5246387" lon="2.9181270">
<ele>309.09</ele>
<time>2016-10-18T10:24:49Z</time>
</trkpt>
<trkpt lat="39.5246010" lon="2.9183689">
<ele>311.41</ele>
<time>2016-10-18T10:24:58Z</time>
</trkpt>
<trkpt lat="39.5245261" lon="2.9186089">
<ele>313.40</ele>
<time>2016-10-18T10:25:09Z</time>
</trkpt>
<trkpt lat="39.5244663" lon="2.9188408">
<ele>315.07</ele>
<time>2016-10-18T10:25:17Z</time>
</trkpt>
<trkpt lat="39.5243958" lon="2.9190846">
<ele>316.39</ele>
<time>2016-10-18T10:25:25Z</time>
</trkpt>
<trkpt lat="39.5243080" lon="2.9193113">
<ele>317.15</ele>
<time>2016-10-18T10:25:33Z</time>
</trkpt>
<trkpt lat="39.5241771" lon="2.9195021">
<ele>318.50</ele>
<time>2016-10-18T10:25:42Z</time>
</trkpt>
<trkpt lat="39.5240328" lon="2.9196624">
<ele>319.84</ele>
<time>2016-10-18T10:25:50Z</time>
</trkpt>
<trkpt lat="39.5238964" lon="2.9198157">
<ele>321.41</ele>
<time>2016-10-18T10:25:59Z</time>
</trkpt>
<trkpt lat="39.5237386" lon="2.9199330">
<ele>323.37</ele>
<time>2016-10-18T10:26:07Z</time>
</trkpt>
<trkpt lat="39.5235607" lon="2.9200292">
<ele>324.62</ele>
<time>2016-10-18T10:26:15Z</time>
</trkpt>
<trkpt lat="39.5233851" lon="2.9201444">
<ele>326.18</ele>
<time>2016-10-18T10:26:24Z</time>
</trkpt>
<trkpt lat="39.5231993" lon="2.9202459">
<ele>327.62</ele>
<time>2016-10-18T10:26:34Z</time>
</trkpt>
<trkpt lat="39.5230240" lon="2.9203415">
<ele>328.92</ele>
<time>2016-10-18T10:26:43Z</time>
</trkpt>
<trkpt lat="39.5228589" lon="2.9204495">
<ele>330.61</ele>
<time>2016-10-18T10:26:53Z</time>
</trkpt>
<trkpt lat="39.5226951" lon="2.9205519">
<ele>332.15</ele>
<time>2016-10-18T10:27:02Z</time>
</trkpt>
<trkpt lat="39.5228826" lon="2.9205666">
<ele>334.65</ele>
<time>2016-10-18T10:27:23Z</time>
</trkpt>
<trkpt lat="39.5230316" lon="2.9204294">
<ele>335.69</ele>
<time>2016-10-18T10:27:30Z</time>
</trkpt>
<trkpt lat="39.5230862" lon="2.9206581">
<ele>336.87</ele>
<time>2016-10-18T10:27:40Z</time>
</trkpt>
<trkpt lat="39.5229335" lon="2.9208015">
<ele>338.00</ele>
<time>2016-10-18T10:27:49Z</time>
</trkpt>
<trkpt lat="39.5228374" lon="2.9210022">
<ele>338.95</ele>
<time>2016-10-18T10:27:57Z</time>
</trkpt>
<trkpt lat="39.5228275" lon="2.9212532">
<ele>339.78</ele>
<time>2016-10-18T10:28:06Z</time>
</trkpt>
<trkpt lat="39.5227512" lon="2.9214738">
<ele>340.99</ele>
<time>2016-10-18T10:28:17Z</time>
</trkpt>
<trkpt lat="39.5225968" lon="2.9216355">
<ele>342.40</ele>
<time>2016-10-18T10:28:27Z</time>
</trkpt>
<trkpt lat="39.5224361" lon="2.9217489">
<ele>343.42</ele>
<time>2016-10-18T10:28:36Z</time>
</trkpt>
<trkpt lat="39.5222685" lon="2.9218551">
<ele>344.45</ele>
<time>2016-10-18T10:28:45Z</time>
</trkpt>
<trkpt lat="39.5220950" lon="2.9219599">
<ele>345.89</ele>
<time>2016-10-18T10:28:55Z</time>
</trkpt>
<trkpt lat="39.5219223" lon="2.9220689">
<ele>347.08</ele>
<time>2016-10-18T10:29:05Z</time>
</trkpt>
<trkpt lat="39.5217341" lon="2.9221679">
<ele>348.90</ele>
<time>2016-10-18T10:29:17Z</time>
</trkpt>
<trkpt lat="39.5215727" lon="2.9222840">
<ele>351.57</ele>
<time>2016-10-18T10:29:26Z</time>
</trkpt>
<trkpt lat="39.5214215" lon="2.9224541">
<ele>354.00</ele>
<time>2016-10-18T10:29:35Z</time>
</trkpt>
<trkpt lat="39.5212991" lon="2.9226359">
<ele>355.31</ele>
<time>2016-10-18T10:29:44Z</time>
</trkpt>
<trkpt lat="39.5211852" lon="2.9228410">
<ele>356.76</ele>
<time>2016-10-18T10:29:53Z</time>
</trkpt>
<trkpt lat="39.5210793" lon="2.9230314">
<ele>357.86</ele>
<time>2016-10-18T10:30:02Z</time>
</trkpt>
<trkpt lat="39.5209653" lon="2.9232225">
<ele>359.77</ele>
<time>2016-10-18T10:30:12Z</time>
</trkpt>
<trkpt lat="39.5208624" lon="2.9234267">
<ele>361.29</ele>
<time>2016-10-18T10:30:20Z</time>
</trkpt>
<trkpt lat="39.5207040" lon="2.9235619">
<ele>363.17</ele>
<time>2016-10-18T10:30:30Z</time>
</trkpt>
<trkpt lat="39.5205600" lon="2.9237079">
<ele>365.04</ele>
<time>2016-10-18T10:30:39Z</time>
</trkpt>
<trkpt lat="39.5204566" lon="2.9239089">
<ele>366.36</ele>
<time>2016-10-18T10:30:48Z</time>
</trkpt>
<trkpt lat="39.5203924" lon="2.9241344">
<ele>367.84</ele>
<time>2016-10-18T10:30:57Z</time>
</trkpt>
<trkpt lat="39.5203509" lon="2.9243629">
<ele>369.11</ele>
<time>2016-10-18T10:31:07Z</time>
</trkpt>
<trkpt lat="39.5201851" lon="2.9244559">
<ele>371.24</ele>
<time>2016-10-18T10:31:19Z</time>
</trkpt>
<trkpt lat="39.5199840" lon="2.9244156">
<ele>374.14</ele>
<time>2016-10-18T10:31:28Z</time>
</trkpt>
<trkpt lat="39.5197990" lon="2.9243482">
<ele>376.26</ele>
<time>2016-10-18T10:31:39Z</time>
</trkpt>
<trkpt lat="39.5196166" lon="2.9242854">
<ele>378.71</ele>
<time>2016-10-18T10:31:49Z</time>
</trkpt>
<trkpt lat="39.5194466" lon="2.9241612">
<ele>381.84</ele>
<time>2016-10-18T10:31:59Z</time>
</trkpt>
<trkpt lat="39.5192808" lon="2.9240493">
<ele>384.05</ele>
<time>2016-10-18T10:32:08Z</time>
</trkpt>
<trkpt lat="39.5190972" lon="2.9241216">
<ele>385.50</ele>
<time>2016-10-18T10:32:16Z</time>
</trkpt>
<trkpt lat="39.5189403" lon="2.9242722">
<ele>385.57</ele>
<time>2016-10-18T10:32:25Z</time>
</trkpt>
<trkpt lat="39.5188328" lon="2.9244745">
<ele>385.51</ele>
<time>2016-10-18T10:32:34Z</time>
</trkpt>
<trkpt lat="39.5188754" lon="2.9247155">
<ele>387.20</ele>
<time>2016-10-18T10:32:47Z</time>
</trkpt>
<trkpt lat="39.5190612" lon="2.9248186">
<ele>387.86</ele>
<time>2016-10-18T10:32:55Z</time>
</trkpt>
<trkpt lat="39.5192481" lon="2.9249077">
<ele>386.73</ele>
<time>2016-10-18T10:33:02Z</time>
</trkpt>
<trkpt lat="39.5194224" lon="2.9250492">
<ele>386.08</ele>
<time>2016-10-18T10:33:11Z</time>
</trkpt>
<trkpt lat="39.5195838" lon="2.9251642">
<ele>385.61</ele>
<time>2016-10-18T10:33:18Z</time>
</trkpt>
<trkpt lat="39.5197459" lon="2.9252966">
<ele>384.80</ele>
<time>2016-10-18T10:33:27Z</time>
</trkpt>
<trkpt lat="39.5198977" lon="2.9254673">
<ele>384.53</ele>
<time>2016-10-18T10:33:36Z</time>
</trkpt>
<trkpt lat="39.5200436" lon="2.9256132">
<ele>385.06</ele>
<time>2016-10-18T10:33:47Z</time>
</trkpt>
<trkpt lat="39.5201952" lon="2.9257702">
<ele>388.67</ele>
<time>2016-10-18T10:34:00Z</time>
</trkpt>
<trkpt lat="39.5203494" lon="2.9259052">
<ele>392.24</ele>
<time>2016-10-18T10:34:11Z</time>
</trkpt>
<trkpt lat="39.5205056" lon="2.9260501">
<ele>396.09</ele>
<time>2016-10-18T10:34:21Z</time>
</trkpt>
<trkpt lat="39.5206374" lon="2.9262111">
<ele>399.18</ele>
<time>2016-10-18T10:34:30Z</time>
</trkpt>
<trkpt lat="39.5207658" lon="2.9263778">
<ele>401.55</ele>
<time>2016-10-18T10:34:38Z</time>
</trkpt>
<trkpt lat="39.5208974" lon="2.9265540">
<ele>404.06</ele>
<time>2016-10-18T10:34:48Z</time>
</trkpt>
<trkpt lat="39.5210147" lon="2.9267325">
<ele>406.69</ele>
<time>2016-10-18T10:34:58Z</time>
</trkpt>
<trkpt lat="39.5211485" lon="2.9269150">
<ele>410.19</ele>
<time>2016-10-18T10:35:10Z</time>
</trkpt>
<trkpt lat="39.5213163" lon="2.9270218">
<ele>412.87</ele>
<time>2016-10-18T10:35:19Z</time>
</trkpt>
<trkpt lat="39.5214730" lon="2.9271404">
<ele>414.84</ele>
<time>2016-10-18T10:35:27Z</time>
</trkpt>
<trkpt lat="39.5216094" lon="2.9273116">
<ele>416.37</ele>
<time>2016-10-18T10:35:36Z</time>
</trkpt>
<trkpt lat="39.5214253" lon="2.9273988">
<ele>417.26</ele>
<time>2016-10-18T10:35:49Z</time>
</trkpt>
<trkpt lat="39.5212514" lon="2.9272837">
<ele>417.72</ele>
<time>2016-10-18T10:35:58Z</time>
</trkpt>
<trkpt lat="39.5210805" lon="2.9271658">
<ele>418.43</ele>
<time>2016-10-18T10:36:05Z</time>
</trkpt>
<trkpt lat="39.5209090" lon="2.9270295">
<ele>419.11</ele>
<time>2016-10-18T10:36:13Z</time>
</trkpt>
<trkpt lat="39.5207331" lon="2.9269380">
<ele>419.91</ele>
<time>2016-10-18T10:36:21Z</time>
</trkpt>
<trkpt lat="39.5205566" lon="2.9268266">
<ele>420.80</ele>
<time>2016-10-18T10:36:29Z</time>
</trkpt>
<trkpt lat="39.5204025" lon="2.9267049">
<ele>421.48</ele>
<time>2016-10-18T10:36:37Z</time>
</trkpt>
<trkpt lat="39.5202211" lon="2.9266133">
<ele>422.53</ele>
<time>2016-10-18T10:36:45Z</time>
</trkpt>
<trkpt lat="39.5200599" lon="2.9264989">
<ele>423.49</ele>
<time>2016-10-18T10:36:52Z</time>
</trkpt>
<trkpt lat="39.5198922" lon="2.9263932">
<ele>424.44</ele>
<time>2016-10-18T10:36:58Z</time>
</trkpt>
<trkpt lat="39.5196956" lon="2.9262941">
<ele>425.42</ele>
<time>2016-10-18T10:37:05Z</time>
</trkpt>
<trkpt lat="39.5195343" lon="2.9261850">
<ele>426.42</ele>
<time>2016-10-18T10:37:10Z</time>
</trkpt>
<trkpt lat="39.5193582" lon="2.9261111">
<ele>426.92</ele>
<time>2016-10-18T10:37:15Z</time>
</trkpt>
<trkpt lat="39.5193873" lon="2.9263519">
<ele>427.41</ele>
<time>2016-10-18T10:37:26Z</time>
</trkpt>
<trkpt lat="39.5195656" lon="2.9263961">
<ele>427.19</ele>
<time>2016-10-18T10:37:33Z</time>
</trkpt>
<trkpt lat="39.5197514" lon="2.9265086">
<ele>426.82</ele>
<time>2016-10-18T10:37:41Z</time>
</trkpt>
<trkpt lat="39.5199168" lon="2.9266179">
<ele>427.07</ele>
<time>2016-10-18T10:37:50Z</time>
</trkpt>
<trkpt lat="39.5200748" lon="2.9267523">
<ele>428.61</ele>
<time>2016-10-18T10:37:59Z</time>
</trkpt>
<trkpt lat="39.5202460" lon="2.9268617">
<ele>430.74</ele>
<time>2016-10-18T10:38:08Z</time>
</trkpt>
<trkpt lat="39.5203939" lon="2.9269956">
<ele>433.31</ele>
<time>2016-10-18T10:38:17Z</time>
</trkpt>
<trkpt lat="39.5205667" lon="2.9271232">
<ele>435.98</ele>
<time>2016-10-18T10:38:26Z</time>
</trkpt>
<trkpt lat="39.5207216" lon="2.9272784">
<ele>439.37</ele>
<time>2016-10-18T10:38:35Z</time>
</trkpt>
<trkpt lat="39.5208814" lon="2.9274395">
<ele>443.09</ele>
<time>2016-10-18T10:38:45Z</time>
</trkpt>
<trkpt lat="39.5210506" lon="2.9275772">
<ele>445.76</ele>
<time>2016-10-18T10:38:53Z</time>
</trkpt>
<trkpt lat="39.5212243" lon="2.9276676">
<ele>448.48</ele>
<time>2016-10-18T10:39:02Z</time>
</trkpt>
<trkpt lat="39.5213873" lon="2.9277961">
<ele>451.08</ele>
<time>2016-10-18T10:39:10Z</time>
</trkpt>
<trkpt lat="39.5215402" lon="2.9279364">
<ele>452.57</ele>
<time>2016-10-18T10:39:18Z</time>
</trkpt>
<trkpt lat="39.5216961" lon="2.9280790">
<ele>452.95</ele>
<time>2016-10-18T10:39:28Z</time>
</trkpt>
<trkpt lat="39.5218417" lon="2.9282191">
<ele>454.69</ele>
<time>2016-10-18T10:39:38Z</time>
</trkpt>
<trkpt lat="39.5219794" lon="2.9283718">
<ele>456.74</ele>
<time>2016-10-18T10:39:47Z</time>
</trkpt>
<trkpt lat="39.5221137" lon="2.9285335">
<ele>458.19</ele>
<time>2016-10-18T10:39:57Z</time>
</trkpt>
<trkpt lat="39.5222746" lon="2.9286867">
<ele>459.78</ele>
<time>2016-10-18T10:40:07Z</time>
</trkpt>
<trkpt lat="39.5223913" lon="2.9288656">
<ele>460.18</ele>
<time>2016-10-18T10:40:13Z</time>
</trkpt>
<trkpt lat="39.5224936" lon="2.9290887">
<ele>459.94</ele>
<time>2016-10-18T10:40:20Z</time>
</trkpt>
<trkpt lat="39.5226065" lon="2.9292824">
<ele>459.72</ele>
<time>2016-10-18T10:40:29Z</time>
</trkpt>
<trkpt lat="39.5227253" lon="2.9294619">
<ele>460.36</ele>
<time>2016-10-18T10:40:39Z</time>
</trkpt>
<trkpt lat="39.5228218" lon="2.9296620">
<ele>461.08</ele>
<time>2016-10-18T10:40:48Z</time>
</trkpt>
<trkpt lat="39.5229489" lon="2.9298590">
<ele>461.65</ele>
<time>2016-10-18T10:40:58Z</time>
</trkpt>
<trkpt lat="39.5230826" lon="2.9300214">
<ele>461.82</ele>
<time>2016-10-18T10:41:06Z</time>
</trkpt>
<trkpt lat="39.5232266" lon="2.9301966">
<ele>463.27</ele>
<time>2016-10-18T10:41:16Z</time>
</trkpt>
<trkpt lat="39.5232158" lon="2.9304363">
<ele>463.23</ele>
<time>2016-10-18T10:41:23Z</time>
</trkpt>
<trkpt lat="39.5230440" lon="2.9303498">
<ele>463.07</ele>
<time>2016-10-18T10:41:34Z</time>
</trkpt>
<trkpt lat="39.5229134" lon="2.9301865">
<ele>464.77</ele>
<time>2016-10-18T10:41:45Z</time>
</trkpt>
<trkpt lat="39.5227767" lon="2.9300122">
<ele>468.28</ele>
<time>2016-10-18T10:41:55Z</time>
</trkpt>
<trkpt lat="39.5226319" lon="2.9298566">
<ele>470.48</ele>
<time>2016-10-18T10:42:03Z</time>
</trkpt>
<trkpt lat="39.5225077" lon="2.9296737">
<ele>473.73</ele>
<time>2016-10-18T10:42:11Z</time>
</trkpt>
<trkpt lat="39.5223625" lon="2.9294924">
<ele>475.83</ele>
<time>2016-10-18T10:42:19Z</time>
</trkpt>
<trkpt lat="39.5222015" lon="2.9293785">
<ele>477.42</ele>
<time>2016-10-18T10:42:26Z</time>
</trkpt>
<trkpt lat="39.5220290" lon="2.9292391">
<ele>479.46</ele>
<time>2016-10-18T10:42:35Z</time>
</trkpt>
<trkpt lat="39.5218751" lon="2.9291031">
<ele>480.71</ele>
<time>2016-10-18T10:42:43Z</time>
</trkpt>
<trkpt lat="39.5216937" lon="2.9289813">
<ele>481.48</ele>
<time>2016-10-18T10:42:51Z</time>
</trkpt>
<trkpt lat="39.5214996" lon="2.9289341">
<ele>482.95</ele>
<time>2016-10-18T10:43:00Z</time>
</trkpt>
<trkpt lat="39.5213167" lon="2.9289048">
<ele>484.13</ele>
<time>2016-10-18T10:43:09Z</time>
</trkpt>
<trkpt lat="39.5211146" lon="2.9289475">
<ele>484.17</ele>
<time>2016-10-18T10:43:17Z</time>
</trkpt>
<trkpt lat="39.5209514" lon="2.9290606">
<ele>483.94</ele>
<time>2016-10-18T10:43:27Z</time>
</trkpt>
<trkpt lat="39.5209239" lon="2.9293039">
<ele>484.23</ele>
<time>2016-10-18T10:43:35Z</time>
</trkpt>
<trkpt lat="39.5209778" lon="2.9295374">
<ele>484.19</ele>
<time>2016-10-18T10:43:43Z</time>
</trkpt>
<trkpt lat="39.5211048" lon="2.9297306">
<ele>484.14</ele>
<time>2016-10-18T10:43:53Z</time>
</trkpt>
<trkpt lat="39.5212756" lon="2.9298421">
<ele>484.79</ele>
<time>2016-10-18T10:44:01Z</time>
</trkpt>
<trkpt lat="39.5214314" lon="2.9299739">
<ele>485.35</ele>
<time>2016-10-18T10:44:08Z</time>
</trkpt>
<trkpt lat="39.5215724" lon="2.9301310">
<ele>486.09</ele>
<time>2016-10-18T10:44:15Z</time>
</trkpt>
<trkpt lat="39.5217265" lon="2.9302868">
<ele>486.89</ele>
<time>2016-10-18T10:44:21Z</time>
</trkpt>
<trkpt lat="39.5218706" lon="2.9304431">
<ele>487.97</ele>
<time>2016-10-18T10:44:26Z</time>
</trkpt>
<trkpt lat="39.5220216" lon="2.9305887">
<ele>492.26</ele>
<time>2016-10-18T10:44:31Z</time>
</trkpt>
<trkpt lat="39.5222134" lon="2.9307137">
<ele>495.53</ele>
<time>2016-10-18T10:44:36Z</time>
</trkpt>
<trkpt lat="39.5223990" lon="2.9307869">
<ele>497.15</ele>
<time>2016-10-18T10:44:40Z</time>
</trkpt>
<trkpt lat="39.5225990" lon="2.9308657">
<ele>494.92</ele>
<time>2016-10-18T10:44:44Z</time>
</trkpt>
<trkpt lat="39.5227722" lon="2.9309572">
<ele>492.65</ele>
<time>2016-10-18T10:44:48Z</time>
</trkpt>
<trkpt lat="39.5229325" lon="2.9310653">
<ele>491.62</ele>
<time>2016-10-18T10:44:52Z</time>
</trkpt>
<trkpt lat="39.5230895" lon="2.9312003">
<ele>491.41</ele>
<time>2016-10-18T10:44:58Z</time>
</trkpt>
<trkpt lat="39.5232767" lon="2.9313019">
<ele>491.89</ele>
<time>2016-10-18T10:45:07Z</time>
</trkpt>
<trkpt lat="39.5234593" lon="2.9313583">
<ele>492.76</ele>
<time>2016-10-18T10:45:14Z</time>
</trkpt>
<trkpt lat="39.5236482" lon="2.9313946">
<ele>493.73</ele>
<time>2016-10-18T10:45:22Z</time>
</trkpt>
<trkpt lat="39.5238348" lon="2.9314167">
<ele>494.93</ele>
<time>2016-10-18T10:45:31Z</time>
</trkpt>
<trkpt lat="39.5240278" lon="2.9314087">
<ele>496.45</ele>
<time>2016-10-18T10:45:39Z</time>
</trkpt>
<trkpt lat="39.5242281" lon="2.9313968">
<ele>497.51</ele>
<time>2016-10-18T10:45:47Z</time>
</trkpt>
<trkpt lat="39.5244278" lon="2.9313773">
<ele>498.44</ele>
<time>2016-10-18T10:45:56Z</time>
</trkpt>
<trkpt lat="39.5246108" lon="2.9313403">
<ele>499.75</ele>
<time>2016-10-18T10:46:05Z</time>
</trkpt>
<trkpt lat="39.5247965" lon="2.9313221">
<ele>500.79</ele>
<time>2016-10-18T10:46:13Z</time>
</trkpt>
<trkpt lat="39.5249821" lon="2.9313283">
<ele>501.12</ele>
<time>2016-10-18T10:46:20Z</time>
</trkpt>
<trkpt lat="39.5251742" lon="2.9313249">
<ele>501.31</ele>
<time>2016-10-18T10:46:29Z</time>
</trkpt>
<trkpt lat="39.5253394" lon="2.9311832">
<ele>502.37</ele>
<time>2016-10-18T10:46:37Z</time>
</trkpt>
<trkpt lat="39.5254135" lon="2.9309583">
<ele>504.27</ele>
<time>2016-10-18T10:46:47Z</time>
</trkpt>
<trkpt lat="39.5253805" lon="2.9307129">
<ele>505.78</ele>
<time>2016-10-18T10:46:56Z</time>
</trkpt>
<trkpt lat="39.5252751" lon="2.9305135">
<ele>507.64</ele>
<time>2016-10-18T10:47:05Z</time>
</trkpt>
<trkpt lat="39.5251364" lon="2.9303302">
<ele>509.73</ele>
<time>2016-10-18T10:47:13Z</time>
</trkpt>
<trkpt lat="39.5249894" lon="2.9301535">
<ele>511.54</ele>
<time>2016-10-18T10:47:21Z</time>
</trkpt>
<trkpt lat="39.5248509" lon="2.9299829">
<ele>513.58</ele>
<time>2016-10-18T10:47:28Z</time>
</trkpt>
<trkpt lat="39.5247272" lon="2.9298050">
<ele>515.38</ele>
<time>2016-10-18T10:47:35Z</time>
</trkpt>
<trkpt lat="39.5245823" lon="2.9296290">
<ele>516.64</ele>
<time>2016-10-18T10:47:42Z</time>
</trkpt>
<trkpt lat="39.5247648" lon="2.9296438">
<ele>516.47</ele>
<time>2016-10-18T10:48:01Z</time>
</trkpt>
<trkpt lat="39.5249146" lon="2.9298032">
<ele>517.00</ele>
<time>2016-10-18T10:48:10Z</time>
</trkpt>
<trkpt lat="39.5250749" lon="2.9299445">
<ele>517.95</ele>
<time>2016-10-18T10:48:18Z</time>
</trkpt>
<trkpt lat="39.5252362" lon="2.9300725">
<ele>519.05</ele>
<time>2016-10-18T10:48:25Z</time>
</trkpt>
<trkpt lat="39.5253953" lon="2.9302134">
<ele>520.10</ele>
<time>2016-10-18T10:48:33Z</time>
</trkpt>
<trkpt lat="39.5255539" lon="2.9303646">
<ele>521.25</ele>
<time>2016-10-18T10:48:42Z</time>
</trkpt>
<trkpt lat="39.5256702" lon="2.9305736">
<ele>521.68</ele>
<time>2016-10-18T10:48:50Z</time>
</trkpt>
<trkpt lat="39.5257812" lon="2.9307599">
<ele>522.15</ele>
<time>2016-10-18T10:48:58Z</time>
</trkpt>
<trkpt lat="39.5258819" lon="2.9309595">
<ele>522.93</ele>
<time>2016-10-18T10:49:06Z</time>
</trkpt>
<trkpt lat="39.5259730" lon="2.9311738">
<ele>523.68</ele>
<time>2016-10-18T10:49:14Z</time>
</trkpt>
<trkpt lat="39.5260385" lon="2.9314032">
<ele>524.39</ele>
<time>2016-10-18T10:49:22Z</time>
</trkpt>
<trkpt lat="39.5260814" lon="2.9316505">
<ele>524.85</ele>
<time>2016-10-18T10:49:30Z</time>
</trkpt>
<trkpt lat="39.5261297" lon="2.9318835">
<ele>525.71</ele>
<time>2016-10-18T10:49:38Z</time>
</trkpt>
<trkpt lat="39.5261673" lon="2.9321384">
<ele>526.52</ele>
<time>2016-10-18T10:49:46Z</time>
</trkpt>
<trkpt lat="39.5262315" lon="2.9323641">
<ele>527.19</ele>
<time>2016-10-18T10:49:55Z</time>
</trkpt>
<trkpt lat="39.5263507" lon="2.9325562">
<ele>527.93</ele>
<time>2016-10-18T10:50:04Z</time>
</trkpt>
<trkpt lat="39.5265464" lon="2.9326223">
<ele>529.54</ele>
<time>2016-10-18T10:50:13Z</time>
</trkpt>
<trkpt lat="39.5267386" lon="2.9326273">
<ele>531.57</ele>
<time>2016-10-18T10:50:20Z</time>
</trkpt>
<trkpt lat="39.5269404" lon="2.9326119">
<ele>532.97</ele>
<time>2016-10-18T10:50:26Z</time>
</trkpt>
<trkpt lat="39.5270943" lon="2.9324175">
<ele>539.01</ele>
<time>2016-10-18T10:50:32Z</time>
</trkpt>
<trkpt lat="39.5270723" lon="2.9321543">
<ele>541.04</ele>
<time>2016-10-18T10:50:36Z</time>
</trkpt>
<trkpt lat="39.5270003" lon="2.9318560">
<ele>544.75</ele>
<time>2016-10-18T10:50:40Z</time>
</trkpt>
<trkpt lat="39.5269329" lon="2.9316382">
<ele>546.74</ele>
<time>2016-10-18T10:50:43Z</time>
</trkpt>
<trkpt lat="39.5268519" lon="2.9313812">
<ele>547.25</ele>
<time>2016-10-18T10:50:47Z</time>
</trkpt>
<trkpt lat="39.5267715" lon="2.9311369">
<ele>547.18</ele>
<time>2016-10-18T10:50:51Z</time>
</trkpt>
<trkpt lat="39.5266915" lon="2.9308776">
<ele>548.15</ele>
<time>2016-10-18T10:50:56Z</time>
</trkpt>
<trkpt lat="39.5266102" lon="2.9306185">
<ele>549.34</ele>
<time>2016-10-18T10:51:01Z</time>
</trkpt>
<trkpt lat="39.5265384" lon="2.9303923">
<ele>551.07</ele>
<time>2016-10-18T10:51:06Z</time>
</trkpt>
<trkpt lat="39.5264699" lon="2.9301711">
<ele>552.05</ele>
<time>2016-10-18T10:51:11Z</time>
</trkpt>
<trkpt lat="39.5264067" lon="2.9298915">
<ele>552.36</ele>
<time>2016-10-18T10:51:17Z</time>
</trkpt>
<trkpt lat="39.5263993" lon="2.9296557">
<ele>552.31</ele>
<time>2016-10-18T10:51:22Z</time>
</trkpt>
<trkpt lat="39.5265048" lon="2.9294434">
<ele>552.44</ele>
<time>2016-10-18T10:51:29Z</time>
</trkpt>
<trkpt lat="39.5266759" lon="2.9292894">
<ele>552.89</ele>
<time>2016-10-18T10:51:37Z</time>
</trkpt>
<trkpt lat="39.5268374" lon="2.9291692">
<ele>552.93</ele>
<time>2016-10-18T10:51:43Z</time>
</trkpt>
<trkpt lat="39.5269948" lon="2.9290166">
<ele>553.44</ele>
<time>2016-10-18T10:51:51Z</time>
</trkpt>
<trkpt lat="39.5270796" lon="2.9287844">
<ele>554.25</ele>
<time>2016-10-18T10:51:58Z</time>
</trkpt>
<trkpt lat="39.5271192" lon="2.9285450">
<ele>557.38</ele>
<time>2016-10-18T10:52:03Z</time>
</trkpt>
<trkpt lat="39.5271626" lon="2.9282672">
<ele>558.37</ele>
<time>2016-10-18T10:52:08Z</time>
</trkpt>
<trkpt lat="39.5271871" lon="2.9280159">
<ele>558.80</ele>
<time>2016-10-18T10:52:12Z</time>
</trkpt>
<trkpt lat="39.5272095" lon="2.9277275">
<ele>558.37</ele>
<time>2016-10-18T10:52:16Z</time>
</trkpt>
<trkpt lat="39.5272318" lon="2.9274937">
<ele>558.37</ele>
<time>2016-10-18T10:52:19Z</time>
</trkpt>
<trkpt lat="39.5272667" lon="2.9272359">
<ele>558.69</ele>
<time>2016-10-18T10:52:22Z</time>
</trkpt>
<trkpt lat="39.5272856" lon="2.9269334">
<ele>556.01</ele>
<time>2016-10-18T10:52:26Z</time>
</trkpt>
<trkpt lat="39.5273951" lon="2.9267223">
<ele>553.10</ele>
<time>2016-10-18T10:53:26Z</time>
</trkpt>
<trkpt lat="39.5277250" lon="2.9267441">
<ele>542.90</ele>
<time>2016-10-18T10:54:33Z</time>
</trkpt>
</trkseg>
<trkseg>
<trkpt lat="39.5277311" lon="2.9268416">
<ele>557.49</ele>
<time>2016-10-18T10:55:07Z</time>
</trkpt>
<trkpt lat="39.5275347" lon="2.9267700">
<ele>545.42</ele>
<time>2016-10-18T10:56:53Z</time>
</trkpt>
<trkpt lat="39.5273608" lon="2.9267061">
<ele>546.15</ele>
<time>2016-10-18T10:57:01Z</time>
</trkpt>
<trkpt lat="39.5273355" lon="2.9264728">
<ele>549.08</ele>
<time>2016-10-18T10:58:13Z</time>
</trkpt>
<trkpt lat="39.5273475" lon="2.9262288">
<ele>547.96</ele>
<time>2016-10-18T11:00:26Z</time>
</trkpt>
<trkpt lat="39.5273772" lon="2.9259718">
<ele>548.69</ele>
<time>2016-10-18T11:00:33Z</time>
</trkpt>
<trkpt lat="39.5273754" lon="2.9257348">
<ele>549.24</ele>
<time>2016-10-18T11:00:39Z</time>
</trkpt>
<trkpt lat="39.5273921" lon="2.9254912">
<ele>550.41</ele>
<time>2016-10-18T11:00:50Z</time>
</trkpt>
<trkpt lat="39.5273775" lon="2.9257282">
<ele>545.49</ele>
<time>2016-10-18T11:02:04Z</time>
</trkpt>
<trkpt lat="39.5273707" lon="2.9259848">
<ele>546.25</ele>
<time>2016-10-18T11:02:21Z</time>
</trkpt>
<trkpt lat="39.5273620" lon="2.9262379">
<ele>546.81</ele>
<time>2016-10-18T11:02:29Z</time>
</trkpt>
<trkpt lat="39.5273605" lon="2.9264753">
<ele>546.77</ele>
<time>2016-10-18T11:03:02Z</time>
</trkpt>
<trkpt lat="39.5272206" lon="2.9263194">
<ele>544.80</ele>
<time>2016-10-18T11:03:24Z</time>
</trkpt>
<trkpt lat="39.5270636" lon="2.9261700">
<ele>546.17</ele>
<time>2016-10-18T11:03:44Z</time>
</trkpt>
<trkpt lat="39.5268746" lon="2.9262983">
<ele>549.25</ele>
<time>2016-10-18T11:04:11Z</time>
</trkpt>
<trkpt lat="39.5270742" lon="2.9263620">
<ele>549.99</ele>
<time>2016-10-18T11:04:17Z</time>
</trkpt>
<trkpt lat="39.5272580" lon="2.9263736">
<ele>549.89</ele>
<time>2016-10-18T11:04:28Z</time>
</trkpt>
<trkpt lat="39.5273314" lon="2.9266006">
<ele>548.56</ele>
<time>2016-10-18T11:04:56Z</time>
</trkpt>
<trkpt lat="39.5272723" lon="2.9268537">
<ele>548.52</ele>
<time>2016-10-18T11:05:04Z</time>
</trkpt>
<trkpt lat="39.5272386" lon="2.9271132">
<ele>548.03</ele>
<time>2016-10-18T11:05:09Z</time>
</trkpt>
<trkpt lat="39.5272126" lon="2.9273582">
<ele>545.94</ele>
<time>2016-10-18T11:05:14Z</time>
</trkpt>
<trkpt lat="39.5271966" lon="2.9276112">
<ele>546.07</ele>
<time>2016-10-18T11:05:19Z</time>
</trkpt>
<trkpt lat="39.5271611" lon="2.9278617">
<ele>547.12</ele>
<time>2016-10-18T11:05:24Z</time>
</trkpt>
<trkpt lat="39.5271312" lon="2.9280960">
<ele>546.78</ele>
<time>2016-10-18T11:05:28Z</time>
</trkpt>
<trkpt lat="39.5270895" lon="2.9283887">
<ele>546.48</ele>
<time>2016-10-18T11:05:33Z</time>
</trkpt>
<trkpt lat="39.5270501" lon="2.9286698">
<ele>547.39</ele>
<time>2016-10-18T11:05:38Z</time>
</trkpt>
<trkpt lat="39.5269678" lon="2.9289423">
<ele>547.86</ele>
<time>2016-10-18T11:05:43Z</time>
</trkpt>
<trkpt lat="39.5268232" lon="2.9291123">
<ele>548.51</ele>
<time>2016-10-18T11:05:47Z</time>
</trkpt>
<trkpt lat="39.5266698" lon="2.9292379">
<ele>547.70</ele>
<time>2016-10-18T11:05:50Z</time>
</trkpt>
<trkpt lat="39.5265068" lon="2.9293697">
<ele>546.74</ele>
<time>2016-10-18T11:05:53Z</time>
</trkpt>
<trkpt lat="39.5263701" lon="2.9296071">
<ele>545.80</ele>
<time>2016-10-18T11:05:57Z</time>
</trkpt>
<trkpt lat="39.5263672" lon="2.9298816">
<ele>544.71</ele>
<time>2016-10-18T11:06:00Z</time>
</trkpt>
<trkpt lat="39.5264478" lon="2.9301981">
<ele>544.42</ele>
<time>2016-10-18T11:06:03Z</time>
</trkpt>
<trkpt lat="39.5265441" lon="2.9305177">
<ele>543.05</ele>
<time>2016-10-18T11:06:06Z</time>
</trkpt>
<trkpt lat="39.5266432" lon="2.9308451">
<ele>541.34</ele>
<time>2016-10-18T11:06:09Z</time>
</trkpt>
<trkpt lat="39.5267372" lon="2.9311673">
<ele>539.17</ele>
<time>2016-10-18T11:06:12Z</time>
</trkpt>
<trkpt lat="39.5268307" lon="2.9314431">
<ele>537.17</ele>
<time>2016-10-18T11:06:15Z</time>
</trkpt>
<trkpt lat="39.5269173" lon="2.9317098">
<ele>536.37</ele>
<time>2016-10-18T11:06:18Z</time>
</trkpt>
<trkpt lat="39.5269973" lon="2.9319631">
<ele>535.85</ele>
<time>2016-10-18T11:06:21Z</time>
</trkpt>
<trkpt lat="39.5270700" lon="2.9322056">
<ele>536.00</ele>
<time>2016-10-18T11:06:24Z</time>
</trkpt>
<trkpt lat="39.5270307" lon="2.9324951">
<ele>537.00</ele>
<time>2016-10-18T11:06:28Z</time>
</trkpt>
<trkpt lat="39.5268642" lon="2.9325843">
<ele>537.64</ele>
<time>2016-10-18T11:06:32Z</time>
</trkpt>
<trkpt lat="39.5266559" lon="2.9325995">
<ele>539.93</ele>
<time>2016-10-18T11:06:37Z</time>
</trkpt>
<trkpt lat="39.5264715" lon="2.9325812">
<ele>538.91</ele>
<time>2016-10-18T11:06:41Z</time>
</trkpt>
<trkpt lat="39.5263020" lon="2.9324279">
<ele>538.60</ele>
<time>2016-10-18T11:06:45Z</time>
</trkpt>
<trkpt lat="39.5262048" lon="2.9322010">
<ele>539.03</ele>
<time>2016-10-18T11:06:48Z</time>
</trkpt>
<trkpt lat="39.5261407" lon="2.9319007">
<ele>538.51</ele>
<time>2016-10-18T11:06:51Z</time>
</trkpt>
<trkpt lat="39.5260919" lon="2.9315758">
<ele>537.06</ele>
<time>2016-10-18T11:06:54Z</time>
</trkpt>
<trkpt lat="39.5260297" lon="2.9312524">
<ele>535.40</ele>
<time>2016-10-18T11:06:57Z</time>
</trkpt>
<trkpt lat="39.5259271" lon="2.9309540">
<ele>533.36</ele>
<time>2016-10-18T11:07:00Z</time>
</trkpt>
<trkpt lat="39.5257780" lon="2.9306673">
<ele>531.65</ele>
<time>2016-10-18T11:07:03Z</time>
</trkpt>
<trkpt lat="39.5256207" lon="2.9304094">
<ele>530.43</ele>
<time>2016-10-18T11:07:06Z</time>
</trkpt>
<trkpt lat="39.5254951" lon="2.9302406">
<ele>529.38</ele>
<time>2016-10-18T11:07:08Z</time>
</trkpt>
<trkpt lat="39.5253461" lon="2.9300977">
<ele>529.07</ele>
<time>2016-10-18T11:07:10Z</time>
</trkpt>
<trkpt lat="39.5251856" lon="2.9299698">
<ele>529.21</ele>
<time>2016-10-18T11:07:12Z</time>
</trkpt>
<trkpt lat="39.5249654" lon="2.9298132">
<ele>528.63</ele>
<time>2016-10-18T11:07:15Z</time>
</trkpt>
<trkpt lat="39.5247546" lon="2.9296307">
<ele>527.13</ele>
<time>2016-10-18T11:07:18Z</time>
</trkpt>
<trkpt lat="39.5246252" lon="2.9294650">
<ele>525.22</ele>
<time>2016-10-18T11:07:21Z</time>
</trkpt>
<trkpt lat="39.5246807" lon="2.9297184">
<ele>518.52</ele>
<time>2016-10-18T11:07:34Z</time>
</trkpt>
<trkpt lat="39.5248561" lon="2.9299389">
<ele>518.66</ele>
<time>2016-10-18T11:07:38Z</time>
</trkpt>
<trkpt lat="39.5249908" lon="2.9301208">
<ele>518.00</ele>
<time>2016-10-18T11:07:41Z</time>
</trkpt>
<trkpt lat="39.5251439" lon="2.9303062">
<ele>516.93</ele>
<time>2016-10-18T11:07:44Z</time>
</trkpt>
<trkpt lat="39.5252850" lon="2.9305098">
<ele>515.50</ele>
<time>2016-10-18T11:07:47Z</time>
</trkpt>
<trkpt lat="39.5253665" lon="2.9307501">
<ele>513.91</ele>
<time>2016-10-18T11:07:50Z</time>
</trkpt>
<trkpt lat="39.5253557" lon="2.9310637">
<ele>511.53</ele>
<time>2016-10-18T11:07:54Z</time>
</trkpt>
<trkpt lat="39.5251755" lon="2.9312208">
<ele>509.46</ele>
<time>2016-10-18T11:07:57Z</time>
</trkpt>
<trkpt lat="39.5249312" lon="2.9312865">
<ele>507.07</ele>
<time>2016-10-18T11:08:00Z</time>
</trkpt>
<trkpt lat="39.5246649" lon="2.9313093">
<ele>504.47</ele>
<time>2016-10-18T11:08:03Z</time>
</trkpt>
<trkpt lat="39.5244727" lon="2.9313185">
<ele>503.42</ele>
<time>2016-10-18T11:08:05Z</time>
</trkpt>
<trkpt lat="39.5242638" lon="2.9313415">
<ele>501.97</ele>
<time>2016-10-18T11:08:07Z</time>
</trkpt>
<trkpt lat="39.5240709" lon="2.9313661">
<ele>500.01</ele>
<time>2016-10-18T11:08:09Z</time>
</trkpt>
<trkpt lat="39.5238039" lon="2.9313923">
<ele>497.82</ele>
<time>2016-10-18T11:08:12Z</time>
</trkpt>
<trkpt lat="39.5236208" lon="2.9313834">
<ele>496.50</ele>
<time>2016-10-18T11:08:14Z</time>
</trkpt>
<trkpt lat="39.5234350" lon="2.9313511">
<ele>495.28</ele>
<time>2016-10-18T11:08:16Z</time>
</trkpt>
<trkpt lat="39.5232482" lon="2.9312860">
<ele>494.39</ele>
<time>2016-10-18T11:08:18Z</time>
</trkpt>
<trkpt lat="39.5230649" lon="2.9311819">
<ele>493.73</ele>
<time>2016-10-18T11:08:20Z</time>
</trkpt>
<trkpt lat="39.5228634" lon="2.9310466">
<ele>493.11</ele>
<time>2016-10-18T11:08:22Z</time>
</trkpt>
<trkpt lat="39.5226520" lon="2.9309084">
<ele>492.04</ele>
<time>2016-10-18T11:08:24Z</time>
</trkpt>
<trkpt lat="39.5224350" lon="2.9307970">
<ele>490.88</ele>
<time>2016-10-18T11:08:26Z</time>
</trkpt>
<trkpt lat="39.5222527" lon="2.9307153">
<ele>489.88</ele>
<time>2016-10-18T11:08:28Z</time>
</trkpt>
<trkpt lat="39.5220314" lon="2.9305798">
<ele>489.45</ele>
<time>2016-10-18T11:08:31Z</time>
</trkpt>
<trkpt lat="39.5218301" lon="2.9303972">
<ele>489.84</ele>
<time>2016-10-18T11:08:34Z</time>
</trkpt>
<trkpt lat="39.5216514" lon="2.9302198">
<ele>490.17</ele>
<time>2016-10-18T11:08:37Z</time>
</trkpt>
<trkpt lat="39.5214946" lon="2.9300605">
<ele>490.30</ele>
<time>2016-10-18T11:08:40Z</time>
</trkpt>
<trkpt lat="39.5213555" lon="2.9298907">
<ele>490.79</ele>
<time>2016-10-18T11:08:43Z</time>
</trkpt>
<trkpt lat="39.5211759" lon="2.9297705">
<ele>490.36</ele>
<time>2016-10-18T11:08:46Z</time>
</trkpt>
<trkpt lat="39.5209860" lon="2.9295485">
<ele>489.44</ele>
<time>2016-10-18T11:08:49Z</time>
</trkpt>
<trkpt lat="39.5209022" lon="2.9293074">
<ele>488.22</ele>
<time>2016-10-18T11:08:52Z</time>
</trkpt>
<trkpt lat="39.5209440" lon="2.9290302">
<ele>486.76</ele>
<time>2016-10-18T11:08:56Z</time>
</trkpt>
<trkpt lat="39.5210953" lon="2.9288988">
<ele>485.96</ele>
<time>2016-10-18T11:08:59Z</time>
</trkpt>
<trkpt lat="39.5213181" lon="2.9288364">
<ele>486.77</ele>
<time>2016-10-18T11:09:02Z</time>
</trkpt>
<trkpt lat="39.5215351" lon="2.9288482">
<ele>485.91</ele>
<time>2016-10-18T11:09:05Z</time>
</trkpt>
<trkpt lat="39.5217641" lon="2.9289300">
<ele>485.69</ele>
<time>2016-10-18T11:09:08Z</time>
</trkpt>
<trkpt lat="39.5219812" lon="2.9290635">
<ele>485.00</ele>
<time>2016-10-18T11:09:11Z</time>
</trkpt>
<trkpt lat="39.5222007" lon="2.9292261">
<ele>483.62</ele>
<time>2016-10-18T11:09:14Z</time>
</trkpt>
<trkpt lat="39.5224120" lon="2.9294306">
<ele>480.50</ele>
<time>2016-10-18T11:09:17Z</time>
</trkpt>
<trkpt lat="39.5225959" lon="2.9296605">
<ele>478.52</ele>
<time>2016-10-18T11:09:20Z</time>
</trkpt>
<trkpt lat="39.5227822" lon="2.9299086">
<ele>476.71</ele>
<time>2016-10-18T11:09:23Z</time>
</trkpt>
<trkpt lat="39.5229120" lon="2.9300884">
<ele>473.81</ele>
<time>2016-10-18T11:09:25Z</time>
</trkpt>
<trkpt lat="39.5230804" lon="2.9303205">
<ele>468.64</ele>
<time>2016-10-18T11:09:28Z</time>
</trkpt>
<trkpt lat="39.5232448" lon="2.9304345">
<ele>465.14</ele>
<time>2016-10-18T11:09:32Z</time>
</trkpt>
<trkpt lat="39.5231662" lon="2.9302024">
<ele>462.83</ele>
<time>2016-10-18T11:09:38Z</time>
</trkpt>
<trkpt lat="39.5229917" lon="2.9300071">
<ele>463.35</ele>
<time>2016-10-18T11:09:41Z</time>
</trkpt>
<trkpt lat="39.5228382" lon="2.9297765">
<ele>463.15</ele>
<time>2016-10-18T11:09:44Z</time>
</trkpt>
<trkpt lat="39.5226993" lon="2.9295308">
<ele>462.35</ele>
<time>2016-10-18T11:09:47Z</time>
</trkpt>
<trkpt lat="39.5225369" lon="2.9292469">
<ele>461.21</ele>
<time>2016-10-18T11:09:50Z</time>
</trkpt>
<trkpt lat="39.5224296" lon="2.9290550">
<ele>459.99</ele>
<time>2016-10-18T11:09:52Z</time>
</trkpt>
<trkpt lat="39.5223168" lon="2.9288659">
<ele>458.55</ele>
<time>2016-10-18T11:09:54Z</time>
</trkpt>
<trkpt lat="39.5221376" lon="2.9286103">
<ele>456.41</ele>
<time>2016-10-18T11:09:57Z</time>
</trkpt>
<trkpt lat="39.5219286" lon="2.9283735">
<ele>454.64</ele>
<time>2016-10-18T11:10:00Z</time>
</trkpt>
<trkpt lat="39.5217769" lon="2.9282281">
<ele>453.76</ele>
<time>2016-10-18T11:10:02Z</time>
</trkpt>
<trkpt lat="39.5216171" lon="2.9280753">
<ele>453.03</ele>
<time>2016-10-18T11:10:04Z</time>
</trkpt>
<trkpt lat="39.5214652" lon="2.9279343">
<ele>452.90</ele>
<time>2016-10-18T11:10:06Z</time>
</trkpt>
<trkpt lat="39.5212477" lon="2.9277585">
<ele>451.20</ele>
<time>2016-10-18T11:10:09Z</time>
</trkpt>
<trkpt lat="39.5210084" lon="2.9276051">
<ele>449.49</ele>
<time>2016-10-18T11:10:12Z</time>
</trkpt>
<trkpt lat="39.5208462" lon="2.9274737">
<ele>448.42</ele>
<time>2016-10-18T11:10:14Z</time>
</trkpt>
<trkpt lat="39.5206889" lon="2.9273324">
<ele>447.14</ele>
<time>2016-10-18T11:10:16Z</time>
</trkpt>
<trkpt lat="39.5205305" lon="2.9271870">
<ele>445.90</ele>
<time>2016-10-18T11:10:18Z</time>
</trkpt>
<trkpt lat="39.5203692" lon="2.9270420">
<ele>445.49</ele>
<time>2016-10-18T11:10:20Z</time>
</trkpt>
<trkpt lat="39.5202122" lon="2.9269017">
<ele>444.66</ele>
<time>2016-10-18T11:10:22Z</time>
</trkpt>
<trkpt lat="39.5200687" lon="2.9267609">
<ele>442.98</ele>
<time>2016-10-18T11:10:24Z</time>
</trkpt>
<trkpt lat="39.5198809" lon="2.9266008">
<ele>440.56</ele>
<time>2016-10-18T11:10:27Z</time>
</trkpt>
<trkpt lat="39.5197151" lon="2.9264596">
<ele>438.36</ele>
<time>2016-10-18T11:10:30Z</time>
</trkpt>
<trkpt lat="39.5195462" lon="2.9263662">
<ele>437.29</ele>
<time>2016-10-18T11:10:33Z</time>
</trkpt>
<trkpt lat="39.5193642" lon="2.9263240">
<ele>435.76</ele>
<time>2016-10-18T11:10:37Z</time>
</trkpt>
<trkpt lat="39.5194032" lon="2.9260801">
<ele>433.46</ele>
<time>2016-10-18T11:10:43Z</time>
</trkpt>
<trkpt lat="39.5195949" lon="2.9261607">
<ele>430.49</ele>
<time>2016-10-18T11:10:47Z</time>
</trkpt>
<trkpt lat="39.5198143" lon="2.9262826">
<ele>430.49</ele>
<time>2016-10-18T11:10:51Z</time>
</trkpt>
<trkpt lat="39.5199990" lon="2.9263872">
<ele>431.11</ele>
<time>2016-10-18T11:10:54Z</time>
</trkpt>
<trkpt lat="39.5201742" lon="2.9264758">
<ele>431.22</ele>
<time>2016-10-18T11:10:57Z</time>
</trkpt>
<trkpt lat="39.5203516" lon="2.9265902">
<ele>430.93</ele>
<time>2016-10-18T11:11:00Z</time>
</trkpt>
<trkpt lat="39.5205619" lon="2.9267174">
<ele>430.48</ele>
<time>2016-10-18T11:11:03Z</time>
</trkpt>
<trkpt lat="39.5207776" lon="2.9268538">
<ele>429.07</ele>
<time>2016-10-18T11:11:06Z</time>
</trkpt>
<trkpt lat="39.5209801" lon="2.9269940">
<ele>428.14</ele>
<time>2016-10-18T11:11:09Z</time>
</trkpt>
<trkpt lat="39.5211844" lon="2.9271326">
<ele>427.38</ele>
<time>2016-10-18T11:11:12Z</time>
</trkpt>
<trkpt lat="39.5213575" lon="2.9272703">
<ele>427.61</ele>
<time>2016-10-18T11:11:15Z</time>
</trkpt>
<trkpt lat="39.5215554" lon="2.9273459">
<ele>428.34</ele>
<time>2016-10-18T11:11:19Z</time>
</trkpt>
<trkpt lat="39.5214072" lon="2.9271352">
<ele>422.01</ele>
<time>2016-10-18T11:11:27Z</time>
</trkpt>
<trkpt lat="39.5211947" lon="2.9270053">
<ele>419.91</ele>
<time>2016-10-18T11:11:30Z</time>
</trkpt>
<trkpt lat="39.5210577" lon="2.9268338">
<ele>417.69</ele>
<time>2016-10-18T11:11:32Z</time>
</trkpt>
<trkpt lat="39.5209238" lon="2.9266379">
<ele>415.08</ele>
<time>2016-10-18T11:11:34Z</time>
</trkpt>
<trkpt lat="39.5207962" lon="2.9264507">
<ele>413.26</ele>
<time>2016-10-18T11:11:36Z</time>
</trkpt>
<trkpt lat="39.5206563" lon="2.9262600">
<ele>412.12</ele>
<time>2016-10-18T11:11:38Z</time>
</trkpt>
<trkpt lat="39.5205054" lon="2.9260758">
<ele>411.03</ele>
<time>2016-10-18T11:11:40Z</time>
</trkpt>
<trkpt lat="39.5203594" lon="2.9259089">
<ele>410.24</ele>
<time>2016-10-18T11:11:42Z</time>
</trkpt>
<trkpt lat="39.5202095" lon="2.9257490">
<ele>409.19</ele>
<time>2016-10-18T11:11:44Z</time>
</trkpt>
<trkpt lat="39.5200601" lon="2.9255980">
<ele>407.92</ele>
<time>2016-10-18T11:11:46Z</time>
</trkpt>
<trkpt lat="39.5199056" lon="2.9254394">
<ele>407.13</ele>
<time>2016-10-18T11:11:48Z</time>
</trkpt>
<trkpt lat="39.5197057" lon="2.9252214">
<ele>404.67</ele>
<time>2016-10-18T11:11:51Z</time>
</trkpt>
<trkpt lat="39.5195582" lon="2.9250628">
<ele>403.43</ele>
<time>2016-10-18T11:11:53Z</time>
</trkpt>
<trkpt lat="39.5193530" lon="2.9248754">
<ele>401.85</ele>
<time>2016-10-18T11:11:56Z</time>
</trkpt>
<trkpt lat="39.5191526" lon="2.9247356">
<ele>399.91</ele>
<time>2016-10-18T11:11:59Z</time>
</trkpt>
<trkpt lat="39.5189722" lon="2.9247008">
<ele>398.09</ele>
<time>2016-10-18T11:12:02Z</time>
</trkpt>
<trkpt lat="39.5188596" lon="2.9244753">
<ele>397.13</ele>
<time>2016-10-18T11:12:08Z</time>
</trkpt>
<trkpt lat="39.5189355" lon="2.9242486">
<ele>396.81</ele>
<time>2016-10-18T11:12:11Z</time>
</trkpt>
<trkpt lat="39.5190853" lon="2.9240600">
<ele>396.45</ele>
<time>2016-10-18T11:12:14Z</time>
</trkpt>
<trkpt lat="39.5193058" lon="2.9240212">
<ele>395.80</ele>
<time>2016-10-18T11:12:18Z</time>
</trkpt>
<trkpt lat="39.5194674" lon="2.9241962">
<ele>393.79</ele>
<time>2016-10-18T11:12:21Z</time>
</trkpt>
<trkpt lat="39.5196832" lon="2.9243014">
<ele>392.08</ele>
<time>2016-10-18T11:12:24Z</time>
</trkpt>
<trkpt lat="39.5199315" lon="2.9244004">
<ele>388.73</ele>
<time>2016-10-18T11:12:27Z</time>
</trkpt>
<trkpt lat="39.5201402" lon="2.9244515">
<ele>385.63</ele>
<time>2016-10-18T11:12:30Z</time>
</trkpt>
<trkpt lat="39.5203225" lon="2.9243732">
<ele>383.74</ele>
<time>2016-10-18T11:12:34Z</time>
</trkpt>
<trkpt lat="39.5204034" lon="2.9240568">
<ele>383.21</ele>
<time>2016-10-18T11:12:38Z</time>
</trkpt>
<trkpt lat="39.5205237" lon="2.9237592">
<ele>381.21</ele>
<time>2016-10-18T11:12:41Z</time>
</trkpt>
<trkpt lat="39.5206697" lon="2.9235962">
<ele>379.26</ele>
<time>2016-10-18T11:12:43Z</time>
</trkpt>
<trkpt lat="39.5208276" lon="2.9234539">
<ele>377.29</ele>
<time>2016-10-18T11:12:45Z</time>
</trkpt>
<trkpt lat="39.5209613" lon="2.9232762">
<ele>375.51</ele>
<time>2016-10-18T11:12:47Z</time>
</trkpt>
<trkpt lat="39.5210677" lon="2.9230655">
<ele>373.80</ele>
<time>2016-10-18T11:12:49Z</time>
</trkpt>
<trkpt lat="39.5211618" lon="2.9228645">
<ele>372.30</ele>
<time>2016-10-18T11:12:52Z</time>
</trkpt>
<trkpt lat="39.5212704" lon="2.9226493">
<ele>370.85</ele>
<time>2016-10-18T11:12:54Z</time>
</trkpt>
<trkpt lat="39.5213882" lon="2.9224542">
<ele>368.98</ele>
<time>2016-10-18T11:12:56Z</time>
</trkpt>
<trkpt lat="39.5215294" lon="2.9222729">
<ele>366.88</ele>
<time>2016-10-18T11:12:58Z</time>
</trkpt>
<trkpt lat="39.5217097" lon="2.9221455">
<ele>364.98</ele>
<time>2016-10-18T11:13:00Z</time>
</trkpt>
<trkpt lat="39.5218880" lon="2.9220369">
<ele>363.52</ele>
<time>2016-10-18T11:13:02Z</time>
</trkpt>
<trkpt lat="39.5220756" lon="2.9219268">
<ele>362.26</ele>
<time>2016-10-18T11:13:04Z</time>
</trkpt>
<trkpt lat="39.5222571" lon="2.9218234">
<ele>360.35</ele>
<time>2016-10-18T11:13:06Z</time>
</trkpt>
<trkpt lat="39.5224371" lon="2.9217094">
<ele>358.56</ele>
<time>2016-10-18T11:13:08Z</time>
</trkpt>
<trkpt lat="39.5226643" lon="2.9215508">
<ele>355.98</ele>
<time>2016-10-18T11:13:11Z</time>
</trkpt>
<trkpt lat="39.5228380" lon="2.9213436">
<ele>353.87</ele>
<time>2016-10-18T11:13:14Z</time>
</trkpt>
<trkpt lat="39.5228713" lon="2.9210980">
<ele>351.97</ele>
<time>2016-10-18T11:13:17Z</time>
</trkpt>
<trkpt lat="39.5229461" lon="2.9208380">
<ele>349.49</ele>
<time>2016-10-18T11:13:20Z</time>
</trkpt>
<trkpt lat="39.5230948" lon="2.9206819">
<ele>348.02</ele>
<time>2016-10-18T11:13:23Z</time>
</trkpt>
<trkpt lat="39.5232522" lon="2.9205176">
<ele>346.36</ele>
<time>2016-10-18T11:13:27Z</time>
</trkpt>
<trkpt lat="39.5230426" lon="2.9204809">
<ele>343.60</ele>
<time>2016-10-18T11:13:33Z</time>
</trkpt>
<trkpt lat="39.5228527" lon="2.9206328">
<ele>342.39</ele>
<time>2016-10-18T11:13:37Z</time>
</trkpt>
<trkpt lat="39.5226599" lon="2.9206713">
<ele>342.07</ele>
<time>2016-10-18T11:13:42Z</time>
</trkpt>
<trkpt lat="39.5227687" lon="2.9204819">
<ele>341.55</ele>
<time>2016-10-18T11:13:46Z</time>
</trkpt>
<trkpt lat="39.5229611" lon="2.9203514">
<ele>340.85</ele>
<time>2016-10-18T11:13:49Z</time>
</trkpt>
<trkpt lat="39.5231900" lon="2.9202137">
<ele>339.80</ele>
<time>2016-10-18T11:13:52Z</time>
</trkpt>
<trkpt lat="39.5233691" lon="2.9201068">
<ele>338.95</ele>
<time>2016-10-18T11:13:54Z</time>
</trkpt>
<trkpt lat="39.5235516" lon="2.9200017">
<ele>338.03</ele>
<time>2016-10-18T11:13:56Z</time>
</trkpt>
<trkpt lat="39.5237234" lon="2.9198953">
<ele>336.29</ele>
<time>2016-10-18T11:13:58Z</time>
</trkpt>
<trkpt lat="39.5238867" lon="2.9197752">
<ele>334.23</ele>
<time>2016-10-18T11:14:00Z</time>
</trkpt>
<trkpt lat="39.5240418" lon="2.9196373">
<ele>332.25</ele>
<time>2016-10-18T11:14:02Z</time>
</trkpt>
<trkpt lat="39.5242333" lon="2.9194048">
<ele>329.11</ele>
<time>2016-10-18T11:14:05Z</time>
</trkpt>
<trkpt lat="39.5243901" lon="2.9191549">
<ele>327.32</ele>
<time>2016-10-18T11:14:08Z</time>
</trkpt>
<trkpt lat="39.5244928" lon="2.9188434">
<ele>325.38</ele>
<time>2016-10-18T11:14:11Z</time>
</trkpt>
<trkpt lat="39.5245603" lon="2.9185232">
<ele>323.68</ele>
<time>2016-10-18T11:14:14Z</time>
</trkpt>
<trkpt lat="39.5246172" lon="2.9182440">
<ele>322.40</ele>
<time>2016-10-18T11:14:17Z</time>
</trkpt>
<trkpt lat="39.5247366" lon="2.9180552">
<ele>321.70</ele>
<time>2016-10-18T11:14:20Z</time>
</trkpt>
<trkpt lat="39.5248857" lon="2.9179178">
<ele>320.76</ele>
<time>2016-10-18T11:14:22Z</time>
</trkpt>
<trkpt lat="39.5251046" lon="2.9177406">
<ele>318.92</ele>
<time>2016-10-18T11:14:25Z</time>
</trkpt>
<trkpt lat="39.5253161" lon="2.9175594">
<ele>317.14</ele>
<time>2016-10-18T11:14:28Z</time>
</trkpt>
<trkpt lat="39.5254353" lon="2.9173614">
<ele>314.74</ele>
<time>2016-10-18T11:14:31Z</time>
</trkpt>
<trkpt lat="39.5255343" lon="2.9171570">
<ele>313.44</ele>
<time>2016-10-18T11:14:34Z</time>
</trkpt>
<trkpt lat="39.5255830" lon="2.9169279">
<ele>312.13</ele>
<time>2016-10-18T11:14:37Z</time>
</trkpt>
<trkpt lat="39.5256840" lon="2.9166910">
<ele>312.06</ele>
<time>2016-10-18T11:14:41Z</time>
</trkpt>
<trkpt lat="39.5258245" lon="2.9165372">
<ele>312.17</ele>
<time>2016-10-18T11:14:44Z</time>
</trkpt>
<trkpt lat="39.5260168" lon="2.9164151">
<ele>310.15</ele>
<time>2016-10-18T11:14:48Z</time>
</trkpt>
<trkpt lat="39.5262124" lon="2.9162700">
<ele>306.59</ele>
<time>2016-10-18T11:14:52Z</time>
</trkpt>
<trkpt lat="39.5263072" lon="2.9160228">
<ele>304.56</ele>
<time>2016-10-18T11:14:56Z</time>
</trkpt>
<trkpt lat="39.5263718" lon="2.9157863">
<ele>304.34</ele>
<time>2016-10-18T11:15:02Z</time>
</trkpt>
<trkpt lat="39.5265524" lon="2.9157225">
<ele>304.46</ele>
<time>2016-10-18T11:15:12Z</time>
</trkpt>
<trkpt lat="39.5267575" lon="2.9157383">
<ele>304.13</ele>
<time>2016-10-18T11:15:16Z</time>
</trkpt>
<trkpt lat="39.5269812" lon="2.9157993">
<ele>303.58</ele>
<time>2016-10-18T11:15:20Z</time>
</trkpt>
<trkpt lat="39.5271536" lon="2.9158882">
<ele>301.45</ele>
<time>2016-10-18T11:15:23Z</time>
</trkpt>
<trkpt lat="39.5273524" lon="2.9159675">
<ele>300.33</ele>
<time>2016-10-18T11:15:26Z</time>
</trkpt>
<trkpt lat="39.5275460" lon="2.9160381">
<ele>298.81</ele>
<time>2016-10-18T11:15:29Z</time>
</trkpt>
<trkpt lat="39.5277424" lon="2.9160852">
<ele>297.99</ele>
<time>2016-10-18T11:15:32Z</time>
</trkpt>
<trkpt lat="39.5279210" lon="2.9161394">
<ele>296.71</ele>
<time>2016-10-18T11:15:35Z</time>
</trkpt>
<trkpt lat="39.5281026" lon="2.9161925">
<ele>296.52</ele>
<time>2016-10-18T11:15:38Z</time>
</trkpt>
<trkpt lat="39.5282848" lon="2.9162561">
<ele>295.70</ele>
<time>2016-10-18T11:15:41Z</time>
</trkpt>
<trkpt lat="39.5284770" lon="2.9163375">
<ele>295.56</ele>
<time>2016-10-18T11:15:44Z</time>
</trkpt>
<trkpt lat="39.5286935" lon="2.9164692">
<ele>295.63</ele>
<time>2016-10-18T11:15:48Z</time>
</trkpt>
<trkpt lat="39.5288589" lon="2.9166133">
<ele>295.90</ele>
<time>2016-10-18T11:15:51Z</time>
</trkpt>
<trkpt lat="39.5290561" lon="2.9168164">
<ele>293.91</ele>
<time>2016-10-18T11:15:54Z</time>
</trkpt>
<trkpt lat="39.5292473" lon="2.9170332">
<ele>290.83</ele>
<time>2016-10-18T11:15:57Z</time>
</trkpt>
<trkpt lat="39.5294369" lon="2.9172450">
<ele>289.48</ele>
<time>2016-10-18T11:16:00Z</time>
</trkpt>
<trkpt lat="39.5296377" lon="2.9174648">
<ele>288.45</ele>
<time>2016-10-18T11:16:03Z</time>
</trkpt>
<trkpt lat="39.5298335" lon="2.9176830">
<ele>286.74</ele>
<time>2016-10-18T11:16:06Z</time>
</trkpt>
<trkpt lat="39.5300269" lon="2.9179094">
<ele>285.30</ele>
<time>2016-10-18T11:16:09Z</time>
</trkpt>
<trkpt lat="39.5302180" lon="2.9181391">
<ele>284.55</ele>
<time>2016-10-18T11:16:12Z</time>
</trkpt>
<trkpt lat="39.5303862" lon="2.9183387">
<ele>284.64</ele>
<time>2016-10-18T11:16:15Z</time>
</trkpt>
<trkpt lat="39.5305463" lon="2.9185217">
<ele>285.82</ele>
<time>2016-10-18T11:16:18Z</time>
</trkpt>
<trkpt lat="39.5306844" lon="2.9186776">
<ele>286.77</ele>
<time>2016-10-18T11:16:21Z</time>
</trkpt>
<trkpt lat="39.5308394" lon="2.9188707">
<ele>287.44</ele>
<time>2016-10-18T11:16:25Z</time>
</trkpt>
<trkpt lat="39.5309791" lon="2.9190427">
<ele>289.41</ele>
<time>2016-10-18T11:16:29Z</time>
</trkpt>
<trkpt lat="39.5310997" lon="2.9192422">
<ele>289.91</ele>
<time>2016-10-18T11:16:34Z</time>
</trkpt>
<trkpt lat="39.5312165" lon="2.9194656">
<ele>290.85</ele>
<time>2016-10-18T11:16:39Z</time>
</trkpt>
<trkpt lat="39.5313376" lon="2.9196963">
<ele>289.87</ele>
<time>2016-10-18T11:16:44Z</time>
</trkpt>
<trkpt lat="39.5314483" lon="2.9199244">
<ele>291.02</ele>
<time>2016-10-18T11:16:49Z</time>
</trkpt>
<trkpt lat="39.5315216" lon="2.9201404">
<ele>293.01</ele>
<time>2016-10-18T11:16:53Z</time>
</trkpt>
<trkpt lat="39.5315919" lon="2.9204157">
<ele>293.38</ele>
<time>2016-10-18T11:16:57Z</time>
</trkpt>
<trkpt lat="39.5316640" lon="2.9206683">
<ele>293.18</ele>
<time>2016-10-18T11:17:01Z</time>
</trkpt>
<trkpt lat="39.5317450" lon="2.9208822">
<ele>293.81</ele>
<time>2016-10-18T11:17:04Z</time>
</trkpt>
<trkpt lat="39.5318475" lon="2.9211102">
<ele>293.48</ele>
<time>2016-10-18T11:17:07Z</time>
</trkpt>
<trkpt lat="39.5319529" lon="2.9213176">
<ele>293.56</ele>
<time>2016-10-18T11:17:10Z</time>
</trkpt>
<trkpt lat="39.5320905" lon="2.9215732">
<ele>293.82</ele>
<time>2016-10-18T11:17:14Z</time>
</trkpt>
<trkpt lat="39.5321860" lon="2.9217723">
<ele>293.29</ele>
<time>2016-10-18T11:17:17Z</time>
</trkpt>
<trkpt lat="39.5323070" lon="2.9220282">
<ele>293.79</ele>
<time>2016-10-18T11:17:21Z</time>
</trkpt>
<trkpt lat="39.5324060" lon="2.9222303">
<ele>294.30</ele>
<time>2016-10-18T11:17:24Z</time>
</trkpt>
<trkpt lat="39.5325309" lon="2.9224686">
<ele>296.17</ele>
<time>2016-10-18T11:17:28Z</time>
</trkpt>
<trkpt lat="39.5326617" lon="2.9227138">
<ele>296.63</ele>
<time>2016-10-18T11:17:32Z</time>
</trkpt>
<trkpt lat="39.5328008" lon="2.9229040">
<ele>296.95</ele>
<time>2016-10-18T11:17:36Z</time>
</trkpt>
<trkpt lat="39.5329618" lon="2.9231107">
<ele>296.60</ele>
<time>2016-10-18T11:17:40Z</time>
</trkpt>
<trkpt lat="39.5331299" lon="2.9233201">
<ele>295.44</ele>
<time>2016-10-18T11:17:44Z</time>
</trkpt>
<trkpt lat="39.5332602" lon="2.9234897">
<ele>294.76</ele>
<time>2016-10-18T11:17:47Z</time>
</trkpt>
<trkpt lat="39.5334042" lon="2.9236774">
<ele>293.87</ele>
<time>2016-10-18T11:17:50Z</time>
</trkpt>
<trkpt lat="39.5335599" lon="2.9238696">
<ele>291.96</ele>
<time>2016-10-18T11:17:53Z</time>
</trkpt>
<trkpt lat="39.5337033" lon="2.9240590">
<ele>290.63</ele>
<time>2016-10-18T11:17:56Z</time>
</trkpt>
<trkpt lat="39.5338463" lon="2.9242689">
<ele>290.02</ele>
<time>2016-10-18T11:17:59Z</time>
</trkpt>
<trkpt lat="39.5340010" lon="2.9245040">
<ele>289.80</ele>
<time>2016-10-18T11:18:02Z</time>
</trkpt>
<trkpt lat="39.5341787" lon="2.9247753">
<ele>290.06</ele>
<time>2016-10-18T11:18:05Z</time>
</trkpt>
<trkpt lat="39.5343185" lon="2.9249718">
<ele>290.15</ele>
<time>2016-10-18T11:18:07Z</time>
</trkpt>
<trkpt lat="39.5344647" lon="2.9251682">
<ele>288.95</ele>
<time>2016-10-18T11:18:09Z</time>
</trkpt>
<trkpt lat="39.5345969" lon="2.9253486">
<ele>287.02</ele>
<time>2016-10-18T11:18:11Z</time>
</trkpt>
<trkpt lat="39.5346886" lon="2.9255587">
<ele>285.33</ele>
<time>2016-10-18T11:18:13Z</time>
</trkpt>
<trkpt lat="39.5347450" lon="2.9258022">
<ele>283.41</ele>
<time>2016-10-18T11:18:15Z</time>
</trkpt>
<trkpt lat="39.5348077" lon="2.9260468">
<ele>281.27</ele>
<time>2016-10-18T11:18:17Z</time>
</trkpt>
<trkpt lat="39.5349300" lon="2.9262805">
<ele>279.58</ele>
<time>2016-10-18T11:18:19Z</time>
</trkpt>
<trkpt lat="39.5350702" lon="2.9264947">
<ele>278.27</ele>
<time>2016-10-18T11:18:21Z</time>
</trkpt>
<trkpt lat="39.5352260" lon="2.9266968">
<ele>276.19</ele>
<time>2016-10-18T11:18:23Z</time>
</trkpt>
<trkpt lat="39.5353626" lon="2.9268902">
<ele>274.70</ele>
<time>2016-10-18T11:18:25Z</time>
</trkpt>
<trkpt lat="39.5354793" lon="2.9271157">
<ele>272.70</ele>
<time>2016-10-18T11:18:27Z</time>
</trkpt>
<trkpt lat="39.5355726" lon="2.9273624">
<ele>271.58</ele>
<time>2016-10-18T11:18:29Z</time>
</trkpt>
<trkpt lat="39.5356376" lon="2.9276085">
<ele>270.36</ele>
<time>2016-10-18T11:18:31Z</time>
</trkpt>
<trkpt lat="39.5356907" lon="2.9278547">
<ele>269.01</ele>
<time>2016-10-18T11:18:33Z</time>
</trkpt>
<trkpt lat="39.5357502" lon="2.9281017">
<ele>267.40</ele>
<time>2016-10-18T11:18:35Z</time>
</trkpt>
<trkpt lat="39.5358120" lon="2.9283613">
<ele>266.79</ele>
<time>2016-10-18T11:18:37Z</time>
</trkpt>
<trkpt lat="39.5358679" lon="2.9286128">
<ele>265.69</ele>
<time>2016-10-18T11:18:39Z</time>
</trkpt>
<trkpt lat="39.5359256" lon="2.9288570">
<ele>264.28</ele>
<time>2016-10-18T11:18:41Z</time>
</trkpt>
<trkpt lat="39.5359785" lon="2.9290972">
<ele>263.79</ele>
<time>2016-10-18T11:18:43Z</time>
</trkpt>
<trkpt lat="39.5360300" lon="2.9293634">
<ele>263.99</ele>
<time>2016-10-18T11:18:45Z</time>
</trkpt>
<trkpt lat="39.5360878" lon="2.9296987">
<ele>263.71</ele>
<time>2016-10-18T11:18:48Z</time>
</trkpt>
<trkpt lat="39.5361273" lon="2.9299264">
<ele>263.64</ele>
<time>2016-10-18T11:18:50Z</time>
</trkpt>
<trkpt lat="39.5361748" lon="2.9302530">
<ele>263.45</ele>
<time>2016-10-18T11:18:53Z</time>
</trkpt>
<trkpt lat="39.5362212" lon="2.9305637">
<ele>264.38</ele>
<time>2016-10-18T11:18:56Z</time>
</trkpt>
<trkpt lat="39.5362691" lon="2.9308580">
<ele>265.63</ele>
<time>2016-10-18T11:18:59Z</time>
</trkpt>
<trkpt lat="39.5363141" lon="2.9311329">
<ele>266.60</ele>
<time>2016-10-18T11:19:02Z</time>
</trkpt>
<trkpt lat="39.5363725" lon="2.9314051">
<ele>267.45</ele>
<time>2016-10-18T11:19:05Z</time>
</trkpt>
<trkpt lat="39.5364272" lon="2.9316637">
<ele>268.67</ele>
<time>2016-10-18T11:19:08Z</time>
</trkpt>
<trkpt lat="39.5364851" lon="2.9319116">
<ele>269.18</ele>
<time>2016-10-18T11:19:11Z</time>
</trkpt>
<trkpt lat="39.5365487" lon="2.9321465">
<ele>269.16</ele>
<time>2016-10-18T11:19:14Z</time>
</trkpt>
<trkpt lat="39.5366059" lon="2.9323956">
<ele>270.13</ele>
<time>2016-10-18T11:19:17Z</time>
</trkpt>
<trkpt lat="39.5367100" lon="2.9326480">
<ele>270.48</ele>
<time>2016-10-18T11:19:20Z</time>
</trkpt>
<trkpt lat="39.5368679" lon="2.9328900">
<ele>269.33</ele>
<time>2016-10-18T11:19:23Z</time>
</trkpt>
<trkpt lat="39.5369899" lon="2.9330640">
<ele>268.34</ele>
<time>2016-10-18T11:19:25Z</time>
</trkpt>
<trkpt lat="39.5371118" lon="2.9332405">
<ele>267.20</ele>
<time>2016-10-18T11:19:27Z</time>
</trkpt>
<trkpt lat="39.5372330" lon="2.9334392">
<ele>266.74</ele>
<time>2016-10-18T11:19:29Z</time>
</trkpt>
<trkpt lat="39.5373394" lon="2.9336338">
<ele>266.34</ele>
<time>2016-10-18T11:19:31Z</time>
</trkpt>
<trkpt lat="39.5374388" lon="2.9338343">
<ele>265.75</ele>
<time>2016-10-18T11:19:33Z</time>
</trkpt>
<trkpt lat="39.5375382" lon="2.9340413">
<ele>264.84</ele>
<time>2016-10-18T11:19:35Z</time>
</trkpt>
<trkpt lat="39.5376816" lon="2.9343336">
<ele>264.60</ele>
<time>2016-10-18T11:19:38Z</time>
</trkpt>
<trkpt lat="39.5377780" lon="2.9345369">
<ele>264.53</ele>
<time>2016-10-18T11:19:40Z</time>
</trkpt>
<trkpt lat="39.5378748" lon="2.9347418">
<ele>264.28</ele>
<time>2016-10-18T11:19:42Z</time>
</trkpt>
<trkpt lat="39.5379779" lon="2.9349628">
<ele>263.92</ele>
<time>2016-10-18T11:19:44Z</time>
</trkpt>
<trkpt lat="39.5380797" lon="2.9351772">
<ele>263.43</ele>
<time>2016-10-18T11:19:46Z</time>
</trkpt>
<trkpt lat="39.5381756" lon="2.9353930">
<ele>262.77</ele>
<time>2016-10-18T11:19:48Z</time>
</trkpt>
<trkpt lat="39.5382643" lon="2.9356243">
<ele>261.53</ele>
<time>2016-10-18T11:19:50Z</time>
</trkpt>
<trkpt lat="39.5383420" lon="2.9358621">
<ele>260.35</ele>
<time>2016-10-18T11:19:52Z</time>
</trkpt>
<trkpt lat="39.5384214" lon="2.9361202">
<ele>258.71</ele>
<time>2016-10-18T11:19:54Z</time>
</trkpt>
<trkpt lat="39.5384881" lon="2.9363828">
<ele>257.67</ele>
<time>2016-10-18T11:19:56Z</time>
</trkpt>
<trkpt lat="39.5385492" lon="2.9366438">
<ele>256.74</ele>
<time>2016-10-18T11:19:58Z</time>
</trkpt>
<trkpt lat="39.5385926" lon="2.9368883">
<ele>256.25</ele>
<time>2016-10-18T11:20:00Z</time>
</trkpt>
<trkpt lat="39.5386219" lon="2.9371237">
<ele>256.07</ele>
<time>2016-10-18T11:20:02Z</time>
</trkpt>
<trkpt lat="39.5386477" lon="2.9373648">
<ele>255.49</ele>
<time>2016-10-18T11:20:04Z</time>
</trkpt>
<trkpt lat="39.5386741" lon="2.9376107">
<ele>255.32</ele>
<time>2016-10-18T11:20:06Z</time>
</trkpt>
<trkpt lat="39.5387049" lon="2.9378451">
<ele>254.67</ele>
<time>2016-10-18T11:20:08Z</time>
</trkpt>
<trkpt lat="39.5387467" lon="2.9380969">
<ele>253.66</ele>
<time>2016-10-18T11:20:10Z</time>
</trkpt>
<trkpt lat="39.5387903" lon="2.9383661">
<ele>252.89</ele>
<time>2016-10-18T11:20:12Z</time>
</trkpt>
<trkpt lat="39.5388297" lon="2.9386286">
<ele>252.54</ele>
<time>2016-10-18T11:20:14Z</time>
</trkpt>
<trkpt lat="39.5388531" lon="2.9389018">
<ele>251.54</ele>
<time>2016-10-18T11:20:16Z</time>
</trkpt>
<trkpt lat="39.5388693" lon="2.9391740">
<ele>250.92</ele>
<time>2016-10-18T11:20:18Z</time>
</trkpt>
<trkpt lat="39.5388828" lon="2.9394580">
<ele>250.47</ele>
<time>2016-10-18T11:20:20Z</time>
</trkpt>
<trkpt lat="39.5388948" lon="2.9397602">
<ele>248.90</ele>
<time>2016-10-18T11:20:22Z</time>
</trkpt>
<trkpt lat="39.5389132" lon="2.9400523">
<ele>246.85</ele>
<time>2016-10-18T11:20:24Z</time>
</trkpt>
<trkpt lat="39.5389483" lon="2.9403440">
<ele>244.84</ele>
<time>2016-10-18T11:20:26Z</time>
</trkpt>
<trkpt lat="39.5389955" lon="2.9406228">
<ele>243.00</ele>
<time>2016-10-18T11:20:28Z</time>
</trkpt>
<trkpt lat="39.5390612" lon="2.9409037">
<ele>241.53</ele>
<time>2016-10-18T11:20:30Z</time>
</trkpt>
<trkpt lat="39.5391462" lon="2.9411716">
<ele>240.30</ele>
<time>2016-10-18T11:20:32Z</time>
</trkpt>
<trkpt lat="39.5392497" lon="2.9414315">
<ele>238.89</ele>
<time>2016-10-18T11:20:34Z</time>
</trkpt>
<trkpt lat="39.5393598" lon="2.9416738">
<ele>238.70</ele>
<time>2016-10-18T11:20:36Z</time>
</trkpt>
<trkpt lat="39.5394637" lon="2.9418887">
<ele>239.23</ele>
<time>2016-10-18T11:20:38Z</time>
</trkpt>
<trkpt lat="39.5395623" lon="2.9420866">
<ele>239.85</ele>
<time>2016-10-18T11:20:40Z</time>
</trkpt>
<trkpt lat="39.5396577" lon="2.9422844">
<ele>240.58</ele>
<time>2016-10-18T11:20:42Z</time>
</trkpt>
<trkpt lat="39.5397883" lon="2.9425637">
<ele>241.98</ele>
<time>2016-10-18T11:20:45Z</time>
</trkpt>
<trkpt lat="39.5399139" lon="2.9428451">
<ele>241.93</ele>
<time>2016-10-18T11:20:48Z</time>
</trkpt>
<trkpt lat="39.5400417" lon="2.9431310">
<ele>240.92</ele>
<time>2016-10-18T11:20:51Z</time>
</trkpt>
<trkpt lat="39.5401818" lon="2.9433700">
<ele>239.98</ele>
<time>2016-10-18T11:20:54Z</time>
</trkpt>
<trkpt lat="39.5403194" lon="2.9435837">
<ele>239.77</ele>
<time>2016-10-18T11:20:57Z</time>
</trkpt>
<trkpt lat="39.5404580" lon="2.9437743">
<ele>239.71</ele>
<time>2016-10-18T11:21:00Z</time>
</trkpt>
<trkpt lat="39.5406174" lon="2.9439921">
<ele>240.62</ele>
<time>2016-10-18T11:21:03Z</time>
</trkpt>
<trkpt lat="39.5407737" lon="2.9442203">
<ele>241.08</ele>
<time>2016-10-18T11:21:06Z</time>
</trkpt>
<trkpt lat="39.5409502" lon="2.9444650">
<ele>240.97</ele>
<time>2016-10-18T11:21:09Z</time>
</trkpt>
<trkpt lat="39.5411334" lon="2.9447049">
<ele>240.17</ele>
<time>2016-10-18T11:21:12Z</time>
</trkpt>
<trkpt lat="39.5413236" lon="2.9449453">
<ele>238.31</ele>
<time>2016-10-18T11:21:15Z</time>
</trkpt>
<trkpt lat="39.5414534" lon="2.9451118">
<ele>237.24</ele>
<time>2016-10-18T11:21:17Z</time>
</trkpt>
<trkpt lat="39.5416473" lon="2.9453487">
<ele>236.26</ele>
<time>2016-10-18T11:21:20Z</time>
</trkpt>
<trkpt lat="39.5418522" lon="2.9455846">
<ele>235.61</ele>
<time>2016-10-18T11:21:23Z</time>
</trkpt>
<trkpt lat="39.5420029" lon="2.9457448">
<ele>234.85</ele>
<time>2016-10-18T11:21:25Z</time>
</trkpt>
<trkpt lat="39.5421549" lon="2.9459079">
<ele>233.45</ele>
<time>2016-10-18T11:21:27Z</time>
</trkpt>
<trkpt lat="39.5422949" lon="2.9460721">
<ele>232.23</ele>
<time>2016-10-18T11:21:28Z</time>
</trkpt>
<trkpt lat="39.5424169" lon="2.9462444">
<ele>231.19</ele>
<time>2016-10-18T11:21:31Z</time>
</trkpt>
<trkpt lat="39.5424921" lon="2.9464780">
<ele>230.27</ele>
<time>2016-10-18T11:21:32Z</time>
</trkpt>
<trkpt lat="39.5425466" lon="2.9467182">
<ele>229.51</ele>
<time>2016-10-18T11:21:34Z</time>
</trkpt>
<trkpt lat="39.5426070" lon="2.9470453">
<ele>228.80</ele>
<time>2016-10-18T11:21:37Z</time>
</trkpt>
<trkpt lat="39.5426604" lon="2.9473524">
<ele>228.34</ele>
<time>2016-10-18T11:21:40Z</time>
</trkpt>
<trkpt lat="39.5427270" lon="2.9476659">
<ele>228.22</ele>
<time>2016-10-18T11:21:43Z</time>
</trkpt>
<trkpt lat="39.5428036" lon="2.9480031">
<ele>228.51</ele>
<time>2016-10-18T11:21:46Z</time>
</trkpt>
<trkpt lat="39.5428590" lon="2.9482365">
<ele>227.72</ele>
<time>2016-10-18T11:21:48Z</time>
</trkpt>
<trkpt lat="39.5429102" lon="2.9484804">
<ele>226.22</ele>
<time>2016-10-18T11:21:50Z</time>
</trkpt>
<trkpt lat="39.5429763" lon="2.9487246">
<ele>224.55</ele>
<time>2016-10-18T11:21:52Z</time>
</trkpt>
<trkpt lat="39.5430626" lon="2.9489594">
<ele>223.13</ele>
<time>2016-10-18T11:21:54Z</time>
</trkpt>
<trkpt lat="39.5431802" lon="2.9492037">
<ele>221.81</ele>
<time>2016-10-18T11:21:56Z</time>
</trkpt>
<trkpt lat="39.5433221" lon="2.9494280">
<ele>220.53</ele>
<time>2016-10-18T11:21:58Z</time>
</trkpt>
<trkpt lat="39.5434710" lon="2.9496437">
<ele>219.48</ele>
<time>2016-10-18T11:22:00Z</time>
</trkpt>
<trkpt lat="39.5436283" lon="2.9498637">
<ele>218.25</ele>
<time>2016-10-18T11:22:02Z</time>
</trkpt>
<trkpt lat="39.5437869" lon="2.9500835">
<ele>216.84</ele>
<time>2016-10-18T11:22:04Z</time>
</trkpt>
<trkpt lat="39.5439397" lon="2.9503018">
<ele>215.64</ele>
<time>2016-10-18T11:22:06Z</time>
</trkpt>
<trkpt lat="39.5440903" lon="2.9505232">
<ele>214.30</ele>
<time>2016-10-18T11:22:08Z</time>
</trkpt>
<trkpt lat="39.5442338" lon="2.9507499">
<ele>212.93</ele>
<time>2016-10-18T11:22:10Z</time>
</trkpt>
<trkpt lat="39.5443807" lon="2.9509794">
<ele>211.59</ele>
<time>2016-10-18T11:22:12Z</time>
</trkpt>
<trkpt lat="39.5445263" lon="2.9512087">
<ele>210.49</ele>
<time>2016-10-18T11:22:14Z</time>
</trkpt>
<trkpt lat="39.5446721" lon="2.9514325">
<ele>209.34</ele>
<time>2016-10-18T11:22:16Z</time>
</trkpt>
<trkpt lat="39.5448052" lon="2.9516388">
<ele>208.43</ele>
<time>2016-10-18T11:22:18Z</time>
</trkpt>
<trkpt lat="39.5449351" lon="2.9518442">
<ele>207.74</ele>
<time>2016-10-18T11:22:20Z</time>
</trkpt>
<trkpt lat="39.5450555" lon="2.9520333">
<ele>207.25</ele>
<time>2016-10-18T11:22:22Z</time>
</trkpt>
<trkpt lat="39.5451796" lon="2.9522056">
<ele>207.27</ele>
<time>2016-10-18T11:22:24Z</time>
</trkpt>
<trkpt lat="39.5453109" lon="2.9523791">
<ele>207.35</ele>
<time>2016-10-18T11:22:26Z</time>
</trkpt>
<trkpt lat="39.5454565" lon="2.9525583">
<ele>207.18</ele>
<time>2016-10-18T11:22:28Z</time>
</trkpt>
<trkpt lat="39.5456156" lon="2.9527339">
<ele>206.63</ele>
<time>2016-10-18T11:22:30Z</time>
</trkpt>
<trkpt lat="39.5457705" lon="2.9528897">
<ele>205.05</ele>
<time>2016-10-18T11:22:32Z</time>
</trkpt>
<trkpt lat="39.5459321" lon="2.9530467">
<ele>203.02</ele>
<time>2016-10-18T11:22:34Z</time>
</trkpt>
<trkpt lat="39.5460904" lon="2.9532053">
<ele>201.45</ele>
<time>2016-10-18T11:22:36Z</time>
</trkpt>
<trkpt lat="39.5462567" lon="2.9533651">
<ele>200.15</ele>
<time>2016-10-18T11:22:38Z</time>
</trkpt>
<trkpt lat="39.5464382" lon="2.9535143">
<ele>199.01</ele>
<time>2016-10-18T11:22:40Z</time>
</trkpt>
<trkpt lat="39.5466457" lon="2.9536471">
<ele>197.66</ele>
<time>2016-10-18T11:22:42Z</time>
</trkpt>
<trkpt lat="39.5468608" lon="2.9537667">
<ele>196.85</ele>
<time>2016-10-18T11:22:44Z</time>
</trkpt>
<trkpt lat="39.5470639" lon="2.9538708">
<ele>195.91</ele>
<time>2016-10-18T11:22:46Z</time>
</trkpt>
<trkpt lat="39.5472759" lon="2.9539829">
<ele>195.39</ele>
<time>2016-10-18T11:22:48Z</time>
</trkpt>
<trkpt lat="39.5475033" lon="2.9541186">
<ele>194.68</ele>
<time>2016-10-18T11:22:50Z</time>
</trkpt>
<trkpt lat="39.5477243" lon="2.9542657">
<ele>194.01</ele>
<time>2016-10-18T11:22:52Z</time>
</trkpt>
<trkpt lat="39.5479519" lon="2.9544384">
<ele>192.33</ele>
<time>2016-10-18T11:22:54Z</time>
</trkpt>
<trkpt lat="39.5481742" lon="2.9546087">
<ele>190.42</ele>
<time>2016-10-18T11:22:56Z</time>
</trkpt>
<trkpt lat="39.5484109" lon="2.9547933">
<ele>188.32</ele>
<time>2016-10-18T11:22:58Z</time>
</trkpt>
<trkpt lat="39.5486397" lon="2.9549482">
<ele>186.55</ele>
<time>2016-10-18T11:23:00Z</time>
</trkpt>
<trkpt lat="39.5488593" lon="2.9550583">
<ele>185.71</ele>
<time>2016-10-18T11:23:02Z</time>
</trkpt>
<trkpt lat="39.5490796" lon="2.9551374">
<ele>185.32</ele>
<time>2016-10-18T11:23:04Z</time>
</trkpt>
<trkpt lat="39.5492767" lon="2.9552151">
<ele>185.55</ele>
<time>2016-10-18T11:23:06Z</time>
</trkpt>
<trkpt lat="39.5494338" lon="2.9553530">
<ele>186.11</ele>
<time>2016-10-18T11:23:08Z</time>
</trkpt>
<trkpt lat="39.5496346" lon="2.9555803">
<ele>185.94</ele>
<time>2016-10-18T11:23:11Z</time>
</trkpt>
<trkpt lat="39.5498092" lon="2.9558188">
<ele>184.93</ele>
<time>2016-10-18T11:23:14Z</time>
</trkpt>
<trkpt lat="39.5499705" lon="2.9560941">
<ele>183.79</ele>
<time>2016-10-18T11:23:17Z</time>
</trkpt>
<trkpt lat="39.5501019" lon="2.9563300">
<ele>182.48</ele>
<time>2016-10-18T11:23:20Z</time>
</trkpt>
<trkpt lat="39.5502181" lon="2.9565407">
<ele>181.34</ele>
<time>2016-10-18T11:23:23Z</time>
</trkpt>
<trkpt lat="39.5503371" lon="2.9567435">
<ele>180.67</ele>
<time>2016-10-18T11:23:26Z</time>
</trkpt>
<trkpt lat="39.5504711" lon="2.9569703">
<ele>180.91</ele>
<time>2016-10-18T11:23:30Z</time>
</trkpt>
<trkpt lat="39.5505943" lon="2.9572284">
<ele>182.09</ele>
<time>2016-10-18T11:23:34Z</time>
</trkpt>
<trkpt lat="39.5506843" lon="2.9575042">
<ele>182.86</ele>
<time>2016-10-18T11:23:37Z</time>
</trkpt>
<trkpt lat="39.5507484" lon="2.9577614">
<ele>182.29</ele>
<time>2016-10-18T11:23:40Z</time>
</trkpt>
<trkpt lat="39.5508284" lon="2.9580618">
<ele>181.57</ele>
<time>2016-10-18T11:23:43Z</time>
</trkpt>
<trkpt lat="39.5509175" lon="2.9583858">
<ele>179.80</ele>
<time>2016-10-18T11:23:46Z</time>
</trkpt>
<trkpt lat="39.5509790" lon="2.9586073">
<ele>178.39</ele>
<time>2016-10-18T11:23:48Z</time>
</trkpt>
<trkpt lat="39.5510758" lon="2.9589296">
<ele>177.71</ele>
<time>2016-10-18T11:23:51Z</time>
</trkpt>
<trkpt lat="39.5512026" lon="2.9592261">
<ele>177.92</ele>
<time>2016-10-18T11:23:54Z</time>
</trkpt>
<trkpt lat="39.5513077" lon="2.9594213">
<ele>178.02</ele>
<time>2016-10-18T11:23:56Z</time>
</trkpt>
<trkpt lat="39.5514492" lon="2.9596799">
<ele>178.27</ele>
<time>2016-10-18T11:23:59Z</time>
</trkpt>
<trkpt lat="39.5515735" lon="2.9599282">
<ele>178.76</ele>
<time>2016-10-18T11:24:02Z</time>
</trkpt>
<trkpt lat="39.5516723" lon="2.9601727">
<ele>178.55</ele>
<time>2016-10-18T11:24:05Z</time>
</trkpt>
<trkpt lat="39.5517715" lon="2.9604256">
<ele>178.85</ele>
<time>2016-10-18T11:24:08Z</time>
</trkpt>
<trkpt lat="39.5518897" lon="2.9606886">
<ele>178.77</ele>
<time>2016-10-18T11:24:11Z</time>
</trkpt>
<trkpt lat="39.5520414" lon="2.9609537">
<ele>178.50</ele>
<time>2016-10-18T11:24:14Z</time>
</trkpt>
<trkpt lat="39.5522017" lon="2.9612148">
<ele>177.48</ele>
<time>2016-10-18T11:24:17Z</time>
</trkpt>
<trkpt lat="39.5523662" lon="2.9614702">
<ele>176.63</ele>
<time>2016-10-18T11:24:20Z</time>
</trkpt>
<trkpt lat="39.5525389" lon="2.9617290">
<ele>175.16</ele>
<time>2016-10-18T11:24:23Z</time>
</trkpt>
<trkpt lat="39.5527151" lon="2.9619890">
<ele>173.31</ele>
<time>2016-10-18T11:24:26Z</time>
</trkpt>
<trkpt lat="39.5528435" lon="2.9621763">
<ele>171.71</ele>
<time>2016-10-18T11:24:28Z</time>
</trkpt>
<trkpt lat="39.5529687" lon="2.9623643">
<ele>170.30</ele>
<time>2016-10-18T11:24:30Z</time>
</trkpt>
<trkpt lat="39.5530888" lon="2.9625481">
<ele>169.26</ele>
<time>2016-10-18T11:24:32Z</time>
</trkpt>
<trkpt lat="39.5532066" lon="2.9627303">
<ele>168.45</ele>
<time>2016-10-18T11:24:34Z</time>
</trkpt>
<trkpt lat="39.5533253" lon="2.9629097">
<ele>167.85</ele>
<time>2016-10-18T11:24:36Z</time>
</trkpt>
<trkpt lat="39.5534499" lon="2.9630887">
<ele>167.24</ele>
<time>2016-10-18T11:24:38Z</time>
</trkpt>
<trkpt lat="39.5535805" lon="2.9632823">
<ele>166.03</ele>
<time>2016-10-18T11:24:40Z</time>
</trkpt>
<trkpt lat="39.5537048" lon="2.9634634">
<ele>165.16</ele>
<time>2016-10-18T11:24:42Z</time>
</trkpt>
<trkpt lat="39.5538769" lon="2.9637127">
<ele>164.22</ele>
<time>2016-10-18T11:24:45Z</time>
</trkpt>
<trkpt lat="39.5539935" lon="2.9639852">
<ele>163.99</ele>
<time>2016-10-18T11:24:48Z</time>
</trkpt>
<trkpt lat="39.5540770" lon="2.9642943">
<ele>164.29</ele>
<time>2016-10-18T11:24:51Z</time>
</trkpt>
<trkpt lat="39.5541616" lon="2.9646202">
<ele>163.48</ele>
<time>2016-10-18T11:24:54Z</time>
</trkpt>
<trkpt lat="39.5542546" lon="2.9649358">
<ele>162.90</ele>
<time>2016-10-18T11:24:57Z</time>
</trkpt>
<trkpt lat="39.5543901" lon="2.9652406">
<ele>161.94</ele>
<time>2016-10-18T11:25:00Z</time>
</trkpt>
<trkpt lat="39.5545568" lon="2.9655125">
<ele>161.01</ele>
<time>2016-10-18T11:25:03Z</time>
</trkpt>
<trkpt lat="39.5547413" lon="2.9657646">
<ele>159.47</ele>
<time>2016-10-18T11:25:06Z</time>
</trkpt>
<trkpt lat="39.5549391" lon="2.9659963">
<ele>158.02</ele>
<time>2016-10-18T11:25:09Z</time>
</trkpt>
<trkpt lat="39.5551290" lon="2.9662067">
<ele>156.86</ele>
<time>2016-10-18T11:25:12Z</time>
</trkpt>
<trkpt lat="39.5553139" lon="2.9664124">
<ele>156.40</ele>
<time>2016-10-18T11:25:15Z</time>
</trkpt>
<trkpt lat="39.5554906" lon="2.9666106">
<ele>155.99</ele>
<time>2016-10-18T11:25:18Z</time>
</trkpt>
<trkpt lat="39.5556895" lon="2.9668227">
<ele>156.17</ele>
<time>2016-10-18T11:25:21Z</time>
</trkpt>
<trkpt lat="39.5558981" lon="2.9670211">
<ele>156.74</ele>
<time>2016-10-18T11:25:24Z</time>
</trkpt>
<trkpt lat="39.5561146" lon="2.9672029">
<ele>157.43</ele>
<time>2016-10-18T11:25:27Z</time>
</trkpt>
<trkpt lat="39.5563338" lon="2.9673644">
<ele>157.72</ele>
<time>2016-10-18T11:25:30Z</time>
</trkpt>
<trkpt lat="39.5565406" lon="2.9675096">
<ele>158.05</ele>
<time>2016-10-18T11:25:33Z</time>
</trkpt>
<trkpt lat="39.5567473" lon="2.9676751">
<ele>156.65</ele>
<time>2016-10-18T11:25:36Z</time>
</trkpt>
<trkpt lat="39.5569667" lon="2.9678513">
<ele>154.80</ele>
<time>2016-10-18T11:25:39Z</time>
</trkpt>
<trkpt lat="39.5571844" lon="2.9680167">
<ele>153.95</ele>
<time>2016-10-18T11:25:42Z</time>
</trkpt>
<trkpt lat="39.5573946" lon="2.9681736">
<ele>154.49</ele>
<time>2016-10-18T11:25:45Z</time>
</trkpt>
<trkpt lat="39.5575795" lon="2.9683076">
<ele>154.24</ele>
<time>2016-10-18T11:25:48Z</time>
</trkpt>
<trkpt lat="39.5577750" lon="2.9684533">
<ele>153.52</ele>
<time>2016-10-18T11:25:51Z</time>
</trkpt>
<trkpt lat="39.5579720" lon="2.9686154">
<ele>153.35</ele>
<time>2016-10-18T11:25:54Z</time>
</trkpt>
<trkpt lat="39.5581484" lon="2.9688218">
<ele>153.57</ele>
<time>2016-10-18T11:25:57Z</time>
</trkpt>
<trkpt lat="39.5583004" lon="2.9690616">
<ele>153.07</ele>
<time>2016-10-18T11:26:00Z</time>
</trkpt>
<trkpt lat="39.5584195" lon="2.9692849">
<ele>151.47</ele>
<time>2016-10-18T11:26:03Z</time>
</trkpt>
<trkpt lat="39.5585419" lon="2.9695235">
<ele>149.95</ele>
<time>2016-10-18T11:26:06Z</time>
</trkpt>
<trkpt lat="39.5586628" lon="2.9697632">
<ele>149.14</ele>
<time>2016-10-18T11:26:09Z</time>
</trkpt>
<trkpt lat="39.5587818" lon="2.9699916">
<ele>149.19</ele>
<time>2016-10-18T11:26:12Z</time>
</trkpt>
<trkpt lat="39.5588991" lon="2.9702288">
<ele>147.96</ele>
<time>2016-10-18T11:26:15Z</time>
</trkpt>
<trkpt lat="39.5590182" lon="2.9704592">
<ele>147.67</ele>
<time>2016-10-18T11:26:18Z</time>
</trkpt>
<trkpt lat="39.5591445" lon="2.9706828">
<ele>147.85</ele>
<time>2016-10-18T11:26:21Z</time>
</trkpt>
<trkpt lat="39.5592692" lon="2.9708898">
<ele>148.80</ele>
<time>2016-10-18T11:26:24Z</time>
</trkpt>
<trkpt lat="39.5593959" lon="2.9710911">
<ele>149.79</ele>
<time>2016-10-18T11:26:27Z</time>
</trkpt>
<trkpt lat="39.5595148" lon="2.9713088">
<ele>149.82</ele>
<time>2016-10-18T11:26:30Z</time>
</trkpt>
<trkpt lat="39.5595951" lon="2.9715876">
<ele>149.45</ele>
<time>2016-10-18T11:26:33Z</time>
</trkpt>
<trkpt lat="39.5596423" lon="2.9718792">
<ele>149.19</ele>
<time>2016-10-18T11:26:36Z</time>
</trkpt>
<trkpt lat="39.5597003" lon="2.9721487">
<ele>148.58</ele>
<time>2016-10-18T11:26:39Z</time>
</trkpt>
<trkpt lat="39.5597921" lon="2.9724072">
<ele>147.14</ele>
<time>2016-10-18T11:26:42Z</time>
</trkpt>
<trkpt lat="39.5599106" lon="2.9726680">
<ele>145.05</ele>
<time>2016-10-18T11:26:45Z</time>
</trkpt>
<trkpt lat="39.5600232" lon="2.9729130">
<ele>143.87</ele>
<time>2016-10-18T11:26:48Z</time>
</trkpt>
<trkpt lat="39.5601571" lon="2.9731351">
<ele>143.34</ele>
<time>2016-10-18T11:26:51Z</time>
</trkpt>
<trkpt lat="39.5603407" lon="2.9733172">
<ele>143.26</ele>
<time>2016-10-18T11:26:54Z</time>
</trkpt>
<trkpt lat="39.5605418" lon="2.9733983">
<ele>143.78</ele>
<time>2016-10-18T11:26:57Z</time>
</trkpt>
<trkpt lat="39.5607528" lon="2.9734711">
<ele>143.77</ele>
<time>2016-10-18T11:27:00Z</time>
</trkpt>
<trkpt lat="39.5609308" lon="2.9735683">
<ele>144.18</ele>
<time>2016-10-18T11:27:03Z</time>
</trkpt>
<trkpt lat="39.5610853" lon="2.9737025">
<ele>144.41</ele>
<time>2016-10-18T11:27:07Z</time>
</trkpt>
<trkpt lat="39.5612737" lon="2.9737400">
<ele>143.09</ele>
<time>2016-10-18T11:27:14Z</time>
</trkpt>
<trkpt lat="39.5613195" lon="2.9734932">
<ele>141.11</ele>
<time>2016-10-18T11:27:18Z</time>
</trkpt>
<trkpt lat="39.5613873" lon="2.9732064">
<ele>142.71</ele>
<time>2016-10-18T11:27:22Z</time>
</trkpt>
<trkpt lat="39.5614474" lon="2.9729444">
<ele>144.78</ele>
<time>2016-10-18T11:27:26Z</time>
</trkpt>
<trkpt lat="39.5615061" lon="2.9727088">
<ele>147.36</ele>
<time>2016-10-18T11:27:30Z</time>
</trkpt>
<trkpt lat="39.5615701" lon="2.9724483">
<ele>147.80</ele>
<time>2016-10-18T11:27:34Z</time>
</trkpt>
<trkpt lat="39.5615418" lon="2.9721786">
<ele>146.76</ele>
<time>2016-10-18T11:27:38Z</time>
</trkpt>
<trkpt lat="39.5614334" lon="2.9719040">
<ele>146.17</ele>
<time>2016-10-18T11:27:42Z</time>
</trkpt>
<trkpt lat="39.5613430" lon="2.9716690">
<ele>144.22</ele>
<time>2016-10-18T11:27:46Z</time>
</trkpt>
<trkpt lat="39.5614300" lon="2.9714599">
<ele>144.66</ele>
<time>2016-10-18T11:27:50Z</time>
</trkpt>
<trkpt lat="39.5616165" lon="2.9715061">
<ele>145.17</ele>
<time>2016-10-18T11:27:54Z</time>
</trkpt>
<trkpt lat="39.5616921" lon="2.9717180">
<ele>144.25</ele>
<time>2016-10-18T11:27:57Z</time>
</trkpt>
<trkpt lat="39.5618594" lon="2.9718783">
<ele>141.22</ele>
<time>2016-10-18T11:28:01Z</time>
</trkpt>
<trkpt lat="39.5620956" lon="2.9718618">
<ele>139.18</ele>
<time>2016-10-18T11:28:05Z</time>
</trkpt>
<trkpt lat="39.5622860" lon="2.9718259">
<ele>139.34</ele>
<time>2016-10-18T11:28:08Z</time>
</trkpt>
<trkpt lat="39.5624447" lon="2.9719881">
<ele>139.66</ele>
<time>2016-10-18T11:28:11Z</time>
</trkpt>
<trkpt lat="39.5625675" lon="2.9722078">
<ele>138.29</ele>
<time>2016-10-18T11:28:14Z</time>
</trkpt>
<trkpt lat="39.5626842" lon="2.9724491">
<ele>136.98</ele>
<time>2016-10-18T11:28:17Z</time>
</trkpt>
<trkpt lat="39.5627951" lon="2.9726810">
<ele>137.56</ele>
<time>2016-10-18T11:28:20Z</time>
</trkpt>
<trkpt lat="39.5629110" lon="2.9729178">
<ele>138.20</ele>
<time>2016-10-18T11:28:23Z</time>
</trkpt>
<trkpt lat="39.5630143" lon="2.9731329">
<ele>137.67</ele>
<time>2016-10-18T11:28:26Z</time>
</trkpt>
<trkpt lat="39.5631134" lon="2.9733555">
<ele>137.35</ele>
<time>2016-10-18T11:28:29Z</time>
</trkpt>
<trkpt lat="39.5632255" lon="2.9735822">
<ele>138.16</ele>
<time>2016-10-18T11:28:32Z</time>
</trkpt>
<trkpt lat="39.5633339" lon="2.9737925">
<ele>139.00</ele>
<time>2016-10-18T11:28:35Z</time>
</trkpt>
<trkpt lat="39.5634401" lon="2.9740064">
<ele>140.06</ele>
<time>2016-10-18T11:28:38Z</time>
</trkpt>
<trkpt lat="39.5635335" lon="2.9742203">
<ele>139.25</ele>
<time>2016-10-18T11:28:41Z</time>
</trkpt>
<trkpt lat="39.5636321" lon="2.9744270">
<ele>137.87</ele>
<time>2016-10-18T11:28:44Z</time>
</trkpt>
<trkpt lat="39.5637603" lon="2.9746857">
<ele>136.26</ele>
<time>2016-10-18T11:28:48Z</time>
</trkpt>
<trkpt lat="39.5638521" lon="2.9748914">
<ele>136.37</ele>
<time>2016-10-18T11:28:51Z</time>
</trkpt>
<trkpt lat="39.5639485" lon="2.9751122">
<ele>137.12</ele>
<time>2016-10-18T11:28:54Z</time>
</trkpt>
<trkpt lat="39.5640621" lon="2.9753454">
<ele>137.42</ele>
<time>2016-10-18T11:28:58Z</time>
</trkpt>
<trkpt lat="39.5641765" lon="2.9755638">
<ele>138.44</ele>
<time>2016-10-18T11:29:02Z</time>
</trkpt>
<trkpt lat="39.5642721" lon="2.9757783">
<ele>138.40</ele>
<time>2016-10-18T11:29:05Z</time>
</trkpt>
<trkpt lat="39.5643843" lon="2.9760195">
<ele>137.74</ele>
<time>2016-10-18T11:29:09Z</time>
</trkpt>
<trkpt lat="39.5644944" lon="2.9762566">
<ele>138.65</ele>
<time>2016-10-18T11:29:13Z</time>
</trkpt>
<trkpt lat="39.5646077" lon="2.9765100">
<ele>139.54</ele>
<time>2016-10-18T11:29:17Z</time>
</trkpt>
<trkpt lat="39.5647234" lon="2.9767479">
<ele>138.69</ele>
<time>2016-10-18T11:29:21Z</time>
</trkpt>
<trkpt lat="39.5648410" lon="2.9769608">
<ele>137.87</ele>
<time>2016-10-18T11:29:25Z</time>
</trkpt>
<trkpt lat="39.5649512" lon="2.9771924">
<ele>137.27</ele>
<time>2016-10-18T11:29:29Z</time>
</trkpt>
<trkpt lat="39.5650665" lon="2.9774276">
<ele>138.85</ele>
<time>2016-10-18T11:29:33Z</time>
</trkpt>
<trkpt lat="39.5651859" lon="2.9776616">
<ele>140.81</ele>
<time>2016-10-18T11:29:37Z</time>
</trkpt>
<trkpt lat="39.5653011" lon="2.9778791">
<ele>141.74</ele>
<time>2016-10-18T11:29:41Z</time>
</trkpt>
<trkpt lat="39.5654136" lon="2.9781122">
<ele>143.84</ele>
<time>2016-10-18T11:29:46Z</time>
</trkpt>
<trkpt lat="39.5655165" lon="2.9783278">
<ele>144.82</ele>
<time>2016-10-18T11:29:51Z</time>
</trkpt>
<trkpt lat="39.5656096" lon="2.9785295">
<ele>144.55</ele>
<time>2016-10-18T11:29:56Z</time>
</trkpt>
<trkpt lat="39.5657216" lon="2.9787512">
<ele>144.46</ele>
<time>2016-10-18T11:30:02Z</time>
</trkpt>
<trkpt lat="39.5658144" lon="2.9789629">
<ele>144.61</ele>
<time>2016-10-18T11:30:08Z</time>
</trkpt>
<trkpt lat="39.5659622" lon="2.9791295">
<ele>145.03</ele>
<time>2016-10-18T11:30:15Z</time>
</trkpt>
<trkpt lat="39.5661324" lon="2.9792562">
<ele>145.78</ele>
<time>2016-10-18T11:30:21Z</time>
</trkpt>
<trkpt lat="39.5663032" lon="2.9793976">
<ele>147.46</ele>
<time>2016-10-18T11:30:27Z</time>
</trkpt>
<trkpt lat="39.5664858" lon="2.9795456">
<ele>148.71</ele>
<time>2016-10-18T11:30:33Z</time>
</trkpt>
<trkpt lat="39.5666663" lon="2.9797018">
<ele>149.78</ele>
<time>2016-10-18T11:30:39Z</time>
</trkpt>
<trkpt lat="39.5668365" lon="2.9798252">
<ele>150.95</ele>
<time>2016-10-18T11:30:44Z</time>
</trkpt>
<trkpt lat="39.5669969" lon="2.9799563">
<ele>153.70</ele>
<time>2016-10-18T11:30:49Z</time>
</trkpt>
<trkpt lat="39.5671912" lon="2.9801102">
<ele>157.48</ele>
<time>2016-10-18T11:30:54Z</time>
</trkpt>
<trkpt lat="39.5673476" lon="2.9802316">
<ele>158.20</ele>
<time>2016-10-18T11:30:58Z</time>
</trkpt>
<trkpt lat="39.5675038" lon="2.9803669">
<ele>159.06</ele>
<time>2016-10-18T11:31:02Z</time>
</trkpt>
<trkpt lat="39.5676861" lon="2.9805111">
<ele>159.40</ele>
<time>2016-10-18T11:31:07Z</time>
</trkpt>
<trkpt lat="39.5678413" lon="2.9806336">
<ele>158.80</ele>
<time>2016-10-18T11:31:11Z</time>
</trkpt>
<trkpt lat="39.5680031" lon="2.9807693">
<ele>159.65</ele>
<time>2016-10-18T11:31:15Z</time>
</trkpt>
<trkpt lat="39.5681844" lon="2.9809194">
<ele>160.32</ele>
<time>2016-10-18T11:31:19Z</time>
</trkpt>
<trkpt lat="39.5683626" lon="2.9810899">
<ele>161.31</ele>
<time>2016-10-18T11:31:23Z</time>
</trkpt>
<trkpt lat="39.5685083" lon="2.9812301">
<ele>160.27</ele>
<time>2016-10-18T11:31:26Z</time>
</trkpt>
<trkpt lat="39.5686864" lon="2.9814052">
<ele>158.97</ele>
<time>2016-10-18T11:31:30Z</time>
</trkpt>
<trkpt lat="39.5688380" lon="2.9815562">
<ele>160.14</ele>
<time>2016-10-18T11:31:34Z</time>
</trkpt>
<trkpt lat="39.5690193" lon="2.9817092">
<ele>160.30</ele>
<time>2016-10-18T11:31:39Z</time>
</trkpt>
<trkpt lat="39.5691750" lon="2.9818542">
<ele>157.89</ele>
<time>2016-10-18T11:31:44Z</time>
</trkpt>
<trkpt lat="39.5693235" lon="2.9820162">
<ele>157.88</ele>
<time>2016-10-18T11:31:49Z</time>
</trkpt>
<trkpt lat="39.5694737" lon="2.9821631">
<ele>159.83</ele>
<time>2016-10-18T11:31:54Z</time>
</trkpt>
<trkpt lat="39.5696301" lon="2.9823577">
<ele>161.64</ele>
<time>2016-10-18T11:31:59Z</time>
</trkpt>
<trkpt lat="39.5697528" lon="2.9825457">
<ele>161.55</ele>
<time>2016-10-18T11:32:03Z</time>
</trkpt>
<trkpt lat="39.5698325" lon="2.9828163">
<ele>162.30</ele>
<time>2016-10-18T11:32:07Z</time>
</trkpt>
<trkpt lat="39.5699000" lon="2.9830366">
<ele>162.81</ele>
<time>2016-10-18T11:32:10Z</time>
</trkpt>
<trkpt lat="39.5700177" lon="2.9832993">
<ele>161.57</ele>
<time>2016-10-18T11:32:14Z</time>
</trkpt>
<trkpt lat="39.5701456" lon="2.9835420">
<ele>157.78</ele>
<time>2016-10-18T11:32:18Z</time>
</trkpt>
<trkpt lat="39.5702518" lon="2.9837576">
<ele>154.42</ele>
<time>2016-10-18T11:32:21Z</time>
</trkpt>
<trkpt lat="39.5703745" lon="2.9839906">
<ele>153.22</ele>
<time>2016-10-18T11:32:25Z</time>
</trkpt>
<trkpt lat="39.5704830" lon="2.9842020">
<ele>152.06</ele>
<time>2016-10-18T11:32:29Z</time>
</trkpt>
<trkpt lat="39.5705945" lon="2.9844039">
<ele>153.18</ele>
<time>2016-10-18T11:32:33Z</time>
</trkpt>
<trkpt lat="39.5707067" lon="2.9846450">
<ele>153.24</ele>
<time>2016-10-18T11:32:37Z</time>
</trkpt>
<trkpt lat="39.5707997" lon="2.9848785">
<ele>151.05</ele>
<time>2016-10-18T11:32:41Z</time>
</trkpt>
<trkpt lat="39.5709169" lon="2.9851001">
<ele>149.86</ele>
<time>2016-10-18T11:32:46Z</time>
</trkpt>
<trkpt lat="39.5710368" lon="2.9853096">
<ele>150.06</ele>
<time>2016-10-18T11:32:51Z</time>
</trkpt>
<trkpt lat="39.5711454" lon="2.9855156">
<ele>150.33</ele>
<time>2016-10-18T11:32:57Z</time>
</trkpt>
<trkpt lat="39.5712474" lon="2.9857188">
<ele>152.17</ele>
<time>2016-10-18T11:33:02Z</time>
</trkpt>
<trkpt lat="39.5713545" lon="2.9859203">
<ele>153.01</ele>
<time>2016-10-18T11:33:07Z</time>
</trkpt>
<trkpt lat="39.5714650" lon="2.9861464">
<ele>153.70</ele>
<time>2016-10-18T11:33:13Z</time>
</trkpt>
<trkpt lat="39.5715768" lon="2.9863417">
<ele>154.34</ele>
<time>2016-10-18T11:33:19Z</time>
</trkpt>
<trkpt lat="39.5716829" lon="2.9865775">
<ele>155.18</ele>
<time>2016-10-18T11:33:26Z</time>
</trkpt>
<trkpt lat="39.5718016" lon="2.9868027">
<ele>156.01</ele>
<time>2016-10-18T11:33:33Z</time>
</trkpt>
<trkpt lat="39.5719096" lon="2.9870150">
<ele>157.21</ele>
<time>2016-10-18T11:33:40Z</time>
</trkpt>
<trkpt lat="39.5720156" lon="2.9872463">
<ele>158.67</ele>
<time>2016-10-18T11:33:48Z</time>
</trkpt>
<trkpt lat="39.5720458" lon="2.9875046">
<ele>160.01</ele>
<time>2016-10-18T11:33:55Z</time>
</trkpt>
<trkpt lat="39.5720759" lon="2.9877732">
<ele>161.21</ele>
<time>2016-10-18T11:34:02Z</time>
</trkpt>
<trkpt lat="39.5722156" lon="2.9879495">
<ele>163.15</ele>
<time>2016-10-18T11:34:07Z</time>
</trkpt>
<trkpt lat="39.5723465" lon="2.9881099">
<ele>165.50</ele>
<time>2016-10-18T11:34:12Z</time>
</trkpt>
<trkpt lat="39.5724397" lon="2.9883361">
<ele>166.05</ele>
<time>2016-10-18T11:34:18Z</time>
</trkpt>
<trkpt lat="39.5725189" lon="2.9885534">
<ele>166.63</ele>
<time>2016-10-18T11:34:24Z</time>
</trkpt>
<trkpt lat="39.5726103" lon="2.9887724">
<ele>167.17</ele>
<time>2016-10-18T11:34:30Z</time>
</trkpt>
<trkpt lat="39.5727147" lon="2.9890047">
<ele>168.04</ele>
<time>2016-10-18T11:34:37Z</time>
</trkpt>
<trkpt lat="39.5728191" lon="2.9892236">
<ele>169.25</ele>
<time>2016-10-18T11:34:44Z</time>
</trkpt>
<trkpt lat="39.5729280" lon="2.9894341">
<ele>170.65</ele>
<time>2016-10-18T11:34:52Z</time>
</trkpt>
<trkpt lat="39.5730353" lon="2.9896399">
<ele>171.72</ele>
<time>2016-10-18T11:34:59Z</time>
</trkpt>
<trkpt lat="39.5731578" lon="2.9898573">
<ele>172.82</ele>
<time>2016-10-18T11:35:06Z</time>
</trkpt>
<trkpt lat="39.5732642" lon="2.9900567">
<ele>173.87</ele>
<time>2016-10-18T11:35:12Z</time>
</trkpt>
<trkpt lat="39.5733641" lon="2.9902772">
<ele>175.05</ele>
<time>2016-10-18T11:35:18Z</time>
</trkpt>
<trkpt lat="39.5734670" lon="2.9904920">
<ele>176.05</ele>
<time>2016-10-18T11:35:24Z</time>
</trkpt>
<trkpt lat="39.5735830" lon="2.9907259">
<ele>176.87</ele>
<time>2016-10-18T11:35:30Z</time>
</trkpt>
<trkpt lat="39.5736857" lon="2.9909368">
<ele>180.82</ele>
<time>2016-10-18T11:35:35Z</time>
</trkpt>
<trkpt lat="39.5738008" lon="2.9911690">
<ele>182.44</ele>
<time>2016-10-18T11:35:40Z</time>
</trkpt>
<trkpt lat="39.5739112" lon="2.9914079">
<ele>183.33</ele>
<time>2016-10-18T11:35:46Z</time>
</trkpt>
<trkpt lat="39.5740267" lon="2.9916561">
<ele>184.41</ele>
<time>2016-10-18T11:35:51Z</time>
</trkpt>
<trkpt lat="39.5741386" lon="2.9919100">
<ele>183.29</ele>
<time>2016-10-18T11:35:56Z</time>
</trkpt>
<trkpt lat="39.5742457" lon="2.9921514">
<ele>182.99</ele>
<time>2016-10-18T11:36:01Z</time>
</trkpt>
<trkpt lat="39.5743488" lon="2.9923849">
<ele>183.65</ele>
<time>2016-10-18T11:36:06Z</time>
</trkpt>
<trkpt lat="39.5744392" lon="2.9925984">
<ele>183.93</ele>
<time>2016-10-18T11:36:11Z</time>
</trkpt>
<trkpt lat="39.5745321" lon="2.9928269">
<ele>184.18</ele>
<time>2016-10-18T11:36:16Z</time>
</trkpt>
<trkpt lat="39.5746299" lon="2.9930702">
<ele>185.04</ele>
<time>2016-10-18T11:36:21Z</time>
</trkpt>
<trkpt lat="39.5747311" lon="2.9933192">
<ele>185.16</ele>
<time>2016-10-18T11:36:26Z</time>
</trkpt>
<trkpt lat="39.5748183" lon="2.9935319">
<ele>185.86</ele>
<time>2016-10-18T11:36:30Z</time>
</trkpt>
<trkpt lat="39.5749025" lon="2.9937543">
<ele>186.42</ele>
<time>2016-10-18T11:36:34Z</time>
</trkpt>
<trkpt lat="39.5749934" lon="2.9939860">
<ele>186.35</ele>
<time>2016-10-18T11:36:38Z</time>
</trkpt>
<trkpt lat="39.5750837" lon="2.9942459">
<ele>185.83</ele>
<time>2016-10-18T11:36:42Z</time>
</trkpt>
<trkpt lat="39.5751555" lon="2.9944604">
<ele>185.48</ele>
<time>2016-10-18T11:36:45Z</time>
</trkpt>
<trkpt lat="39.5752262" lon="2.9946777">
<ele>185.15</ele>
<time>2016-10-18T11:36:48Z</time>
</trkpt>
<trkpt lat="39.5752964" lon="2.9948962">
<ele>184.91</ele>
<time>2016-10-18T11:36:51Z</time>
</trkpt>
<trkpt lat="39.5753774" lon="2.9951171">
<ele>185.95</ele>
<time>2016-10-18T11:36:54Z</time>
</trkpt>
<trkpt lat="39.5754711" lon="2.9953919">
<ele>186.84</ele>
<time>2016-10-18T11:36:58Z</time>
</trkpt>
<trkpt lat="39.5755496" lon="2.9956535">
<ele>187.01</ele>
<time>2016-10-18T11:37:02Z</time>
</trkpt>
<trkpt lat="39.5756217" lon="2.9958946">
<ele>186.17</ele>
<time>2016-10-18T11:37:06Z</time>
</trkpt>
<trkpt lat="39.5756918" lon="2.9961324">
<ele>186.00</ele>
<time>2016-10-18T11:37:10Z</time>
</trkpt>
<trkpt lat="39.5757605" lon="2.9963510">
<ele>186.64</ele>
<time>2016-10-18T11:37:14Z</time>
</trkpt>
<trkpt lat="39.5758426" lon="2.9966089">
<ele>185.70</ele>
<time>2016-10-18T11:37:19Z</time>
</trkpt>
<trkpt lat="39.5759311" lon="2.9968553">
<ele>186.85</ele>
<time>2016-10-18T11:37:24Z</time>
</trkpt>
<trkpt lat="39.5760159" lon="2.9970820">
<ele>187.46</ele>
<time>2016-10-18T11:37:29Z</time>
</trkpt>
<trkpt lat="39.5760983" lon="2.9973133">
<ele>188.42</ele>
<time>2016-10-18T11:37:34Z</time>
</trkpt>
<trkpt lat="39.5761754" lon="2.9975504">
<ele>188.80</ele>
<time>2016-10-18T11:37:39Z</time>
</trkpt>
<trkpt lat="39.5762692" lon="2.9977954">
<ele>189.04</ele>
<time>2016-10-18T11:37:44Z</time>
</trkpt>
<trkpt lat="39.5763718" lon="2.9980317">
<ele>189.64</ele>
<time>2016-10-18T11:37:49Z</time>
</trkpt>
<trkpt lat="39.5764775" lon="2.9982725">
<ele>189.83</ele>
<time>2016-10-18T11:37:54Z</time>
</trkpt>
<trkpt lat="39.5765824" lon="2.9985065">
<ele>190.55</ele>
<time>2016-10-18T11:37:59Z</time>
</trkpt>
<trkpt lat="39.5766787" lon="2.9987160">
<ele>192.09</ele>
<time>2016-10-18T11:38:04Z</time>
</trkpt>
<trkpt lat="39.5767758" lon="2.9989317">
<ele>192.19</ele>
<time>2016-10-18T11:38:09Z</time>
</trkpt>
<trkpt lat="39.5768815" lon="2.9991501">
<ele>191.45</ele>
<time>2016-10-18T11:38:14Z</time>
</trkpt>
<trkpt lat="39.5769932" lon="2.9993632">
<ele>191.65</ele>
<time>2016-10-18T11:38:19Z</time>
</trkpt>
<trkpt lat="39.5771140" lon="2.9995766">
<ele>193.71</ele>
<time>2016-10-18T11:38:24Z</time>
</trkpt>
<trkpt lat="39.5772389" lon="2.9997996">
<ele>193.93</ele>
<time>2016-10-18T11:38:29Z</time>
</trkpt>
<trkpt lat="39.5773447" lon="2.9999917">
<ele>194.42</ele>
<time>2016-10-18T11:38:33Z</time>
</trkpt>
<trkpt lat="39.5774449" lon="3.0001885">
<ele>194.65</ele>
<time>2016-10-18T11:38:37Z</time>
</trkpt>
<trkpt lat="39.5775484" lon="3.0003906">
<ele>196.33</ele>
<time>2016-10-18T11:38:41Z</time>
</trkpt>
<trkpt lat="39.5776497" lon="3.0006037">
<ele>196.58</ele>
<time>2016-10-18T11:38:45Z</time>
</trkpt>
<trkpt lat="39.5777542" lon="3.0008447">
<ele>196.70</ele>
<time>2016-10-18T11:38:48Z</time>
</trkpt>
<trkpt lat="39.5778529" lon="3.0011068">
<ele>197.46</ele>
<time>2016-10-18T11:38:52Z</time>
</trkpt>
<trkpt lat="39.5779394" lon="3.0013692">
<ele>197.86</ele>
<time>2016-10-18T11:38:56Z</time>
</trkpt>
<trkpt lat="39.5780021" lon="3.0015901">
<ele>197.44</ele>
<time>2016-10-18T11:38:59Z</time>
</trkpt>
<trkpt lat="39.5780616" lon="3.0018134">
<ele>196.98</ele>
<time>2016-10-18T11:39:02Z</time>
</trkpt>
<trkpt lat="39.5781248" lon="3.0020977">
<ele>196.01</ele>
<time>2016-10-18T11:39:06Z</time>
</trkpt>
<trkpt lat="39.5781719" lon="3.0023879">
<ele>195.03</ele>
<time>2016-10-18T11:39:10Z</time>
</trkpt>
<trkpt lat="39.5782108" lon="3.0026959">
<ele>193.47</ele>
<time>2016-10-18T11:39:14Z</time>
</trkpt>
<trkpt lat="39.5782520" lon="3.0029985">
<ele>192.95</ele>
<time>2016-10-18T11:39:18Z</time>
</trkpt>
<trkpt lat="39.5782876" lon="3.0032459">
<ele>193.40</ele>
<time>2016-10-18T11:39:21Z</time>
</trkpt>
<trkpt lat="39.5783169" lon="3.0035503">
<ele>193.19</ele>
<time>2016-10-18T11:39:25Z</time>
</trkpt>
<trkpt lat="39.5783497" lon="3.0038398">
<ele>192.75</ele>
<time>2016-10-18T11:39:29Z</time>
</trkpt>
<trkpt lat="39.5783788" lon="3.0040709">
<ele>192.88</ele>
<time>2016-10-18T11:39:32Z</time>
</trkpt>
<trkpt lat="39.5784136" lon="3.0043143">
<ele>193.22</ele>
<time>2016-10-18T11:39:35Z</time>
</trkpt>
<trkpt lat="39.5784533" lon="3.0045611">
<ele>193.26</ele>
<time>2016-10-18T11:39:38Z</time>
</trkpt>
<trkpt lat="39.5785031" lon="3.0048127">
<ele>193.19</ele>
<time>2016-10-18T11:39:41Z</time>
</trkpt>
<trkpt lat="39.5785633" lon="3.0050612">
<ele>192.31</ele>
<time>2016-10-18T11:39:44Z</time>
</trkpt>
<trkpt lat="39.5786426" lon="3.0053194">
<ele>191.66</ele>
<time>2016-10-18T11:39:47Z</time>
</trkpt>
<trkpt lat="39.5787408" lon="3.0055779">
<ele>191.19</ele>
<time>2016-10-18T11:39:50Z</time>
</trkpt>
<trkpt lat="39.5788644" lon="3.0058367">
<ele>191.08</ele>
<time>2016-10-18T11:39:53Z</time>
</trkpt>
<trkpt lat="39.5789722" lon="3.0060290">
<ele>191.43</ele>
<time>2016-10-18T11:39:55Z</time>
</trkpt>
<trkpt lat="39.5790824" lon="3.0062173">
<ele>191.38</ele>
<time>2016-10-18T11:39:57Z</time>
</trkpt>
<trkpt lat="39.5791950" lon="3.0064069">
<ele>190.43</ele>
<time>2016-10-18T11:39:59Z</time>
</trkpt>
<trkpt lat="39.5793169" lon="3.0066036">
<ele>188.85</ele>
<time>2016-10-18T11:40:01Z</time>
</trkpt>
<trkpt lat="39.5794439" lon="3.0068082">
<ele>187.16</ele>
<time>2016-10-18T11:40:03Z</time>
</trkpt>
<trkpt lat="39.5795658" lon="3.0070178">
<ele>184.95</ele>
<time>2016-10-18T11:40:05Z</time>
</trkpt>
<trkpt lat="39.5796830" lon="3.0072397">
<ele>182.48</ele>
<time>2016-10-18T11:40:07Z</time>
</trkpt>
<trkpt lat="39.5797932" lon="3.0074801">
<ele>180.46</ele>
<time>2016-10-18T11:40:09Z</time>
</trkpt>
<trkpt lat="39.5798944" lon="3.0077385">
<ele>178.84</ele>
<time>2016-10-18T11:40:11Z</time>
</trkpt>
<trkpt lat="39.5799722" lon="3.0079956">
<ele>177.86</ele>
<time>2016-10-18T11:40:13Z</time>
</trkpt>
<trkpt lat="39.5800327" lon="3.0082540">
<ele>176.43</ele>
<time>2016-10-18T11:40:15Z</time>
</trkpt>
<trkpt lat="39.5800887" lon="3.0085166">
<ele>174.85</ele>
<time>2016-10-18T11:40:17Z</time>
</trkpt>
<trkpt lat="39.5801395" lon="3.0087777">
<ele>172.97</ele>
<time>2016-10-18T11:40:19Z</time>
</trkpt>
<trkpt lat="39.5801886" lon="3.0090319">
<ele>171.21</ele>
<time>2016-10-18T11:40:21Z</time>
</trkpt>
<trkpt lat="39.5802359" lon="3.0092781">
<ele>169.76</ele>
<time>2016-10-18T11:40:23Z</time>
</trkpt>
<trkpt lat="39.5802840" lon="3.0095221">
<ele>168.21</ele>
<time>2016-10-18T11:40:25Z</time>
</trkpt>
<trkpt lat="39.5803331" lon="3.0097639">
<ele>167.14</ele>
<time>2016-10-18T11:40:27Z</time>
</trkpt>
<trkpt lat="39.5803809" lon="3.0099927">
<ele>166.10</ele>
<time>2016-10-18T11:40:29Z</time>
</trkpt>
<trkpt lat="39.5804354" lon="3.0102342">
<ele>165.95</ele>
<time>2016-10-18T11:40:31Z</time>
</trkpt>
<trkpt lat="39.5804867" lon="3.0104661">
<ele>165.85</ele>
<time>2016-10-18T11:40:33Z</time>
</trkpt>
<trkpt lat="39.5805345" lon="3.0106987">
<ele>165.52</ele>
<time>2016-10-18T11:40:35Z</time>
</trkpt>
<trkpt lat="39.5805820" lon="3.0109268">
<ele>165.03</ele>
<time>2016-10-18T11:40:37Z</time>
</trkpt>
<trkpt lat="39.5806324" lon="3.0111636">
<ele>164.44</ele>
<time>2016-10-18T11:40:39Z</time>
</trkpt>
<trkpt lat="39.5806807" lon="3.0113963">
<ele>163.01</ele>
<time>2016-10-18T11:40:41Z</time>
</trkpt>
<trkpt lat="39.5807326" lon="3.0116352">
<ele>161.42</ele>
<time>2016-10-18T11:40:43Z</time>
</trkpt>
<trkpt lat="39.5807867" lon="3.0118731">
<ele>159.96</ele>
<time>2016-10-18T11:40:45Z</time>
</trkpt>
<trkpt lat="39.5808411" lon="3.0121074">
<ele>158.64</ele>
<time>2016-10-18T11:40:47Z</time>
</trkpt>
<trkpt lat="39.5808957" lon="3.0123368">
<ele>157.75</ele>
<time>2016-10-18T11:40:49Z</time>
</trkpt>
<trkpt lat="39.5809753" lon="3.0126487">
<ele>158.26</ele>
<time>2016-10-18T11:40:52Z</time>
</trkpt>
<trkpt lat="39.5810646" lon="3.0129824">
<ele>157.90</ele>
<time>2016-10-18T11:40:55Z</time>
</trkpt>
<trkpt lat="39.5811426" lon="3.0132045">
<ele>156.87</ele>
<time>2016-10-18T11:40:57Z</time>
</trkpt>
<trkpt lat="39.5812360" lon="3.0134147">
<ele>155.62</ele>
<time>2016-10-18T11:40:59Z</time>
</trkpt>
<trkpt lat="39.5813499" lon="3.0136342">
<ele>154.83</ele>
<time>2016-10-18T11:41:01Z</time>
</trkpt>
<trkpt lat="39.5814756" lon="3.0138377">
<ele>153.99</ele>
<time>2016-10-18T11:41:03Z</time>
</trkpt>
<trkpt lat="39.5816140" lon="3.0140366">
<ele>153.08</ele>
<time>2016-10-18T11:41:05Z</time>
</trkpt>
<trkpt lat="39.5817663" lon="3.0142354">
<ele>152.34</ele>
<time>2016-10-18T11:41:07Z</time>
</trkpt>
<trkpt lat="39.5819190" lon="3.0144290">
<ele>151.66</ele>
<time>2016-10-18T11:41:09Z</time>
</trkpt>
<trkpt lat="39.5820671" lon="3.0146108">
<ele>151.05</ele>
<time>2016-10-18T11:41:11Z</time>
</trkpt>
<trkpt lat="39.5822096" lon="3.0147792">
<ele>151.36</ele>
<time>2016-10-18T11:41:13Z</time>
</trkpt>
<trkpt lat="39.5823469" lon="3.0149428">
<ele>151.83</ele>
<time>2016-10-18T11:41:15Z</time>
</trkpt>
<trkpt lat="39.5824855" lon="3.0151111">
<ele>152.08</ele>
<time>2016-10-18T11:41:17Z</time>
</trkpt>
<trkpt lat="39.5826271" lon="3.0152871">
<ele>152.42</ele>
<time>2016-10-18T11:41:19Z</time>
</trkpt>
<trkpt lat="39.5827623" lon="3.0154601">
<ele>152.39</ele>
<time>2016-10-18T11:41:21Z</time>
</trkpt>
<trkpt lat="39.5828969" lon="3.0156401">
<ele>151.78</ele>
<time>2016-10-18T11:41:23Z</time>
</trkpt>
<trkpt lat="39.5830837" lon="3.0158857">
<ele>150.35</ele>
<time>2016-10-18T11:41:26Z</time>
</trkpt>
<trkpt lat="39.5832706" lon="3.0161297">
<ele>149.80</ele>
<time>2016-10-18T11:41:29Z</time>
</trkpt>
<trkpt lat="39.5834517" lon="3.0163706">
<ele>149.24</ele>
<time>2016-10-18T11:41:32Z</time>
</trkpt>
<trkpt lat="39.5836234" lon="3.0165866">
<ele>147.65</ele>
<time>2016-10-18T11:41:35Z</time>
</trkpt>
<trkpt lat="39.5837920" lon="3.0167541">
<ele>146.03</ele>
<time>2016-10-18T11:41:38Z</time>
</trkpt>
<trkpt lat="39.5839696" lon="3.0169054">
<ele>146.26</ele>
<time>2016-10-18T11:41:41Z</time>
</trkpt>
<trkpt lat="39.5841409" lon="3.0170351">
<ele>145.64</ele>
<time>2016-10-18T11:41:44Z</time>
</trkpt>
<trkpt lat="39.5843351" lon="3.0171635">
<ele>145.10</ele>
<time>2016-10-18T11:41:47Z</time>
</trkpt>
<trkpt lat="39.5845321" lon="3.0172901">
<ele>145.17</ele>
<time>2016-10-18T11:41:50Z</time>
</trkpt>
<trkpt lat="39.5847170" lon="3.0174095">
<ele>145.94</ele>
<time>2016-10-18T11:41:53Z</time>
</trkpt>
<trkpt lat="39.5848987" lon="3.0175456">
<ele>146.81</ele>
<time>2016-10-18T11:41:56Z</time>
</trkpt>
<trkpt lat="39.5850972" lon="3.0177341">
<ele>147.28</ele>
<time>2016-10-18T11:41:59Z</time>
</trkpt>
<trkpt lat="39.5852746" lon="3.0179376">
<ele>147.14</ele>
<time>2016-10-18T11:42:02Z</time>
</trkpt>
<trkpt lat="39.5854422" lon="3.0181814">
<ele>144.89</ele>
<time>2016-10-18T11:42:05Z</time>
</trkpt>
<trkpt lat="39.5855885" lon="3.0184387">
<ele>142.13</ele>
<time>2016-10-18T11:42:08Z</time>
</trkpt>
<trkpt lat="39.5857311" lon="3.0187043">
<ele>140.07</ele>
<time>2016-10-18T11:42:11Z</time>
</trkpt>
<trkpt lat="39.5858624" lon="3.0189738">
<ele>138.08</ele>
<time>2016-10-18T11:42:14Z</time>
</trkpt>
<trkpt lat="39.5860059" lon="3.0192595">
<ele>136.62</ele>
<time>2016-10-18T11:42:17Z</time>
</trkpt>
<trkpt lat="39.5861079" lon="3.0194531">
<ele>136.36</ele>
<time>2016-10-18T11:42:19Z</time>
</trkpt>
<trkpt lat="39.5862556" lon="3.0197340">
<ele>135.72</ele>
<time>2016-10-18T11:42:22Z</time>
</trkpt>
<trkpt lat="39.5864013" lon="3.0200091">
<ele>135.43</ele>
<time>2016-10-18T11:42:25Z</time>
</trkpt>
<trkpt lat="39.5865467" lon="3.0202842">
<ele>135.49</ele>
<time>2016-10-18T11:42:28Z</time>
</trkpt>
<trkpt lat="39.5866870" lon="3.0205477">
<ele>135.44</ele>
<time>2016-10-18T11:42:31Z</time>
</trkpt>
<trkpt lat="39.5868281" lon="3.0208122">
<ele>135.20</ele>
<time>2016-10-18T11:42:34Z</time>
</trkpt>
<trkpt lat="39.5869649" lon="3.0210597">
<ele>135.52</ele>
<time>2016-10-18T11:42:37Z</time>
</trkpt>
<trkpt lat="39.5871012" lon="3.0213213">
<ele>135.81</ele>
<time>2016-10-18T11:42:40Z</time>
</trkpt>
<trkpt lat="39.5872230" lon="3.0215554">
<ele>135.69</ele>
<time>2016-10-18T11:42:43Z</time>
</trkpt>
<trkpt lat="39.5873522" lon="3.0217950">
<ele>135.58</ele>
<time>2016-10-18T11:42:46Z</time>
</trkpt>
<trkpt lat="39.5874697" lon="3.0220245">
<ele>134.99</ele>
<time>2016-10-18T11:42:49Z</time>
</trkpt>
<trkpt lat="39.5875862" lon="3.0222421">
<ele>134.90</ele>
<time>2016-10-18T11:42:52Z</time>
</trkpt>
<trkpt lat="39.5876969" lon="3.0224476">
<ele>135.14</ele>
<time>2016-10-18T11:42:55Z</time>
</trkpt>
<trkpt lat="39.5878039" lon="3.0226467">
<ele>134.73</ele>
<time>2016-10-18T11:42:58Z</time>
</trkpt>
<trkpt lat="39.5879145" lon="3.0228557">
<ele>134.39</ele>
<time>2016-10-18T11:43:01Z</time>
</trkpt>
<trkpt lat="39.5880163" lon="3.0230526">
<ele>134.41</ele>
<time>2016-10-18T11:43:04Z</time>
</trkpt>
<trkpt lat="39.5881224" lon="3.0232550">
<ele>134.67</ele>
<time>2016-10-18T11:43:07Z</time>
</trkpt>
<trkpt lat="39.5882263" lon="3.0234597">
<ele>133.91</ele>
<time>2016-10-18T11:43:10Z</time>
</trkpt>
<trkpt lat="39.5883560" lon="3.0237082">
<ele>133.67</ele>
<time>2016-10-18T11:43:14Z</time>
</trkpt>
<trkpt lat="39.5884679" lon="3.0239262">
<ele>133.37</ele>
<time>2016-10-18T11:43:17Z</time>
</trkpt>
<trkpt lat="39.5886051" lon="3.0241828">
<ele>132.06</ele>
<time>2016-10-18T11:43:21Z</time>
</trkpt>
<trkpt lat="39.5887169" lon="3.0243791">
<ele>130.96</ele>
<time>2016-10-18T11:43:24Z</time>
</trkpt>
<trkpt lat="39.5888277" lon="3.0245738">
<ele>130.98</ele>
<time>2016-10-18T11:43:27Z</time>
</trkpt>
<trkpt lat="39.5889394" lon="3.0247689">
<ele>131.06</ele>
<time>2016-10-18T11:43:30Z</time>
</trkpt>
<trkpt lat="39.5890512" lon="3.0249542">
<ele>131.58</ele>
<time>2016-10-18T11:43:33Z</time>
</trkpt>
<trkpt lat="39.5891792" lon="3.0251590">
<ele>131.58</ele>
<time>2016-10-18T11:43:36Z</time>
</trkpt>
<trkpt lat="39.5892977" lon="3.0253421">
<ele>131.35</ele>
<time>2016-10-18T11:43:39Z</time>
</trkpt>
<trkpt lat="39.5894268" lon="3.0255255">
<ele>130.67</ele>
<time>2016-10-18T11:43:42Z</time>
</trkpt>
<trkpt lat="39.5895587" lon="3.0257046">
<ele>129.26</ele>
<time>2016-10-18T11:43:45Z</time>
</trkpt>
<trkpt lat="39.5896946" lon="3.0258911">
<ele>128.72</ele>
<time>2016-10-18T11:43:48Z</time>
</trkpt>
<trkpt lat="39.5898340" lon="3.0260646">
<ele>129.53</ele>
<time>2016-10-18T11:43:51Z</time>
</trkpt>
<trkpt lat="39.5899782" lon="3.0262414">
<ele>130.08</ele>
<time>2016-10-18T11:43:54Z</time>
</trkpt>
<trkpt lat="39.5901261" lon="3.0264186">
<ele>129.60</ele>
<time>2016-10-18T11:43:57Z</time>
</trkpt>
<trkpt lat="39.5902721" lon="3.0265923">
<ele>128.73</ele>
<time>2016-10-18T11:44:00Z</time>
</trkpt>
<trkpt lat="39.5904388" lon="3.0267920">
<ele>127.75</ele>
<time>2016-10-18T11:44:03Z</time>
</trkpt>
<trkpt lat="39.5905996" lon="3.0269971">
<ele>127.70</ele>
<time>2016-10-18T11:44:06Z</time>
</trkpt>
<trkpt lat="39.5907544" lon="3.0271938">
<ele>128.28</ele>
<time>2016-10-18T11:44:09Z</time>
</trkpt>
<trkpt lat="39.5909047" lon="3.0273562">
<ele>128.06</ele>
<time>2016-10-18T11:44:12Z</time>
</trkpt>
<trkpt lat="39.5910707" lon="3.0275059">
<ele>127.82</ele>
<time>2016-10-18T11:44:15Z</time>
</trkpt>
<trkpt lat="39.5912416" lon="3.0276190">
<ele>128.67</ele>
<time>2016-10-18T11:44:18Z</time>
</trkpt>
<trkpt lat="39.5914243" lon="3.0277344">
<ele>129.47</ele>
<time>2016-10-18T11:44:21Z</time>
</trkpt>
<trkpt lat="39.5916011" lon="3.0278336">
<ele>129.80</ele>
<time>2016-10-18T11:44:24Z</time>
</trkpt>
<trkpt lat="39.5917789" lon="3.0279103">
<ele>130.40</ele>
<time>2016-10-18T11:44:27Z</time>
</trkpt>
<trkpt lat="39.5919829" lon="3.0279882">
<ele>131.57</ele>
<time>2016-10-18T11:44:31Z</time>
</trkpt>
<trkpt lat="39.5922169" lon="3.0280588">
<ele>129.68</ele>
<time>2016-10-18T11:44:35Z</time>
</trkpt>
<trkpt lat="39.5924231" lon="3.0281001">
<ele>126.80</ele>
<time>2016-10-18T11:44:39Z</time>
</trkpt>
<trkpt lat="39.5926281" lon="3.0281291">
<ele>127.73</ele>
<time>2016-10-18T11:44:44Z</time>
</trkpt>
<trkpt lat="39.5928388" lon="3.0281622">
<ele>129.92</ele>
<time>2016-10-18T11:44:49Z</time>
</trkpt>
<trkpt lat="39.5930528" lon="3.0282077">
<ele>132.19</ele>
<time>2016-10-18T11:44:54Z</time>
</trkpt>
<trkpt lat="39.5932395" lon="3.0282853">
<ele>131.75</ele>
<time>2016-10-18T11:44:58Z</time>
</trkpt>
<trkpt lat="39.5934263" lon="3.0283855">
<ele>131.33</ele>
<time>2016-10-18T11:45:03Z</time>
</trkpt>
<trkpt lat="39.5935891" lon="3.0285133">
<ele>132.33</ele>
<time>2016-10-18T11:45:07Z</time>
</trkpt>
<trkpt lat="39.5937458" lon="3.0286467">
<ele>131.89</ele>
<time>2016-10-18T11:45:11Z</time>
</trkpt>
<trkpt lat="39.5939138" lon="3.0287848">
<ele>132.54</ele>
<time>2016-10-18T11:45:15Z</time>
</trkpt>
<trkpt lat="39.5940780" lon="3.0289424">
<ele>131.85</ele>
<time>2016-10-18T11:45:19Z</time>
</trkpt>
<trkpt lat="39.5942547" lon="3.0291160">
<ele>130.18</ele>
<time>2016-10-18T11:45:23Z</time>
</trkpt>
<trkpt lat="39.5944430" lon="3.0292521">
<ele>129.94</ele>
<time>2016-10-18T11:45:27Z</time>
</trkpt>
<trkpt lat="39.5946455" lon="3.0293494">
<ele>131.53</ele>
<time>2016-10-18T11:45:31Z</time>
</trkpt>
<trkpt lat="39.5948576" lon="3.0294206">
<ele>132.32</ele>
<time>2016-10-18T11:45:35Z</time>
</trkpt>
<trkpt lat="39.5950788" lon="3.0294659">
<ele>132.64</ele>
<time>2016-10-18T11:45:39Z</time>
</trkpt>
<trkpt lat="39.5952887" lon="3.0294974">
<ele>132.57</ele>
<time>2016-10-18T11:45:43Z</time>
</trkpt>
<trkpt lat="39.5954767" lon="3.0295844">
<ele>131.80</ele>
<time>2016-10-18T11:45:47Z</time>
</trkpt>
<trkpt lat="39.5956064" lon="3.0297474">
<ele>129.85</ele>
<time>2016-10-18T11:45:50Z</time>
</trkpt>
<trkpt lat="39.5956980" lon="3.0300252">
<ele>128.59</ele>
<time>2016-10-18T11:45:54Z</time>
</trkpt>
<trkpt lat="39.5957297" lon="3.0302630">
<ele>127.95</ele>
<time>2016-10-18T11:45:58Z</time>
</trkpt>
<trkpt lat="39.5957481" lon="3.0305259">
<ele>127.73</ele>
<time>2016-10-18T11:46:02Z</time>
</trkpt>
<trkpt lat="39.5957514" lon="3.0308099">
<ele>127.78</ele>
<time>2016-10-18T11:46:07Z</time>
</trkpt>
<trkpt lat="39.5957652" lon="3.0310753">
<ele>128.27</ele>
<time>2016-10-18T11:46:12Z</time>
</trkpt>
<trkpt lat="39.5957732" lon="3.0313446">
<ele>125.93</ele>
<time>2016-10-18T11:46:17Z</time>
</trkpt>
<trkpt lat="39.5957767" lon="3.0316295">
<ele>127.72</ele>
<time>2016-10-18T11:46:22Z</time>
</trkpt>
<trkpt lat="39.5957821" lon="3.0319142">
<ele>130.18</ele>
<time>2016-10-18T11:46:27Z</time>
</trkpt>
<trkpt lat="39.5957938" lon="3.0321639">
<ele>132.79</ele>
<time>2016-10-18T11:46:32Z</time>
</trkpt>
<trkpt lat="39.5958173" lon="3.0324374">
<ele>133.32</ele>
<time>2016-10-18T11:46:38Z</time>
</trkpt>
<trkpt lat="39.5958350" lon="3.0326948">
<ele>134.13</ele>
<time>2016-10-18T11:46:43Z</time>
</trkpt>
<trkpt lat="39.5958480" lon="3.0329676">
<ele>133.55</ele>
<time>2016-10-18T11:46:48Z</time>
</trkpt>
<trkpt lat="39.5958477" lon="3.0332286">
<ele>135.21</ele>
<time>2016-10-18T11:46:53Z</time>
</trkpt>
<trkpt lat="39.5958475" lon="3.0334845">
<ele>136.67</ele>
<time>2016-10-18T11:46:59Z</time>
</trkpt>
<trkpt lat="39.5958473" lon="3.0337193">
<ele>139.17</ele>
<time>2016-10-18T11:47:04Z</time>
</trkpt>
<trkpt lat="39.5958561" lon="3.0339752">
<ele>139.62</ele>
<time>2016-10-18T11:47:09Z</time>
</trkpt>
<trkpt lat="39.5958763" lon="3.0342222">
<ele>139.93</ele>
<time>2016-10-18T11:47:14Z</time>
</trkpt>
<trkpt lat="39.5959053" lon="3.0344925">
<ele>140.73</ele>
<time>2016-10-18T11:47:20Z</time>
</trkpt>
<trkpt lat="39.5959572" lon="3.0347249">
<ele>140.38</ele>
<time>2016-10-18T11:47:25Z</time>
</trkpt>
<trkpt lat="39.5960700" lon="3.0349727">
<ele>141.46</ele>
<time>2016-10-18T11:47:31Z</time>
</trkpt>
<trkpt lat="39.5961891" lon="3.0351769">
<ele>141.90</ele>
<time>2016-10-18T11:47:35Z</time>
</trkpt>
<trkpt lat="39.5963069" lon="3.0353830">
<ele>143.03</ele>
<time>2016-10-18T11:47:39Z</time>
</trkpt>
<trkpt lat="39.5964161" lon="3.0355804">
<ele>141.71</ele>
<time>2016-10-18T11:47:43Z</time>
</trkpt>
<trkpt lat="39.5965267" lon="3.0357694">
<ele>142.56</ele>
<time>2016-10-18T11:47:47Z</time>
</trkpt>
<trkpt lat="39.5966358" lon="3.0359748">
<ele>144.37</ele>
<time>2016-10-18T11:47:51Z</time>
</trkpt>
<trkpt lat="39.5967057" lon="3.0362339">
<ele>145.34</ele>
<time>2016-10-18T11:47:55Z</time>
</trkpt>
<trkpt lat="39.5967460" lon="3.0365397">
<ele>145.63</ele>
<time>2016-10-18T11:47:59Z</time>
</trkpt>
<trkpt lat="39.5967848" lon="3.0368345">
<ele>144.87</ele>
<time>2016-10-18T11:48:03Z</time>
</trkpt>
<trkpt lat="39.5968183" lon="3.0371351">
<ele>143.77</ele>
<time>2016-10-18T11:48:07Z</time>
</trkpt>
<trkpt lat="39.5968661" lon="3.0374134">
<ele>141.98</ele>
<time>2016-10-18T11:48:11Z</time>
</trkpt>
<trkpt lat="39.5969049" lon="3.0376860">
<ele>141.68</ele>
<time>2016-10-18T11:48:15Z</time>
</trkpt>
<trkpt lat="39.5969389" lon="3.0379347">
<ele>140.67</ele>
<time>2016-10-18T11:48:19Z</time>
</trkpt>
<trkpt lat="39.5969897" lon="3.0382083">
<ele>141.10</ele>
<time>2016-10-18T11:48:23Z</time>
</trkpt>
<trkpt lat="39.5970221" lon="3.0384952">
<ele>142.88</ele>
<time>2016-10-18T11:48:27Z</time>
</trkpt>
<trkpt lat="39.5970729" lon="3.0387220">
<ele>143.23</ele>
<time>2016-10-18T11:48:33Z</time>
</trkpt>
<trkpt lat="39.5968994" lon="3.0389013">
<ele>142.29</ele>
<time>2016-10-18T11:48:38Z</time>
</trkpt>
<trkpt lat="39.5967237" lon="3.0390116">
<ele>141.59</ele>
<time>2016-10-18T11:48:41Z</time>
</trkpt>
<trkpt lat="39.5965105" lon="3.0391375">
<ele>139.16</ele>
<time>2016-10-18T11:48:45Z</time>
</trkpt>
<trkpt lat="39.5963658" lon="3.0392828">
<ele>136.86</ele>
<time>2016-10-18T11:48:50Z</time>
</trkpt>
<trkpt lat="39.5964033" lon="3.0395562">
<ele>137.37</ele>
<time>2016-10-18T11:48:55Z</time>
</trkpt>
<trkpt lat="39.5964536" lon="3.0397968">
<ele>137.03</ele>
<time>2016-10-18T11:48:59Z</time>
</trkpt>
<trkpt lat="39.5964933" lon="3.0400583">
<ele>138.42</ele>
<time>2016-10-18T11:49:03Z</time>
</trkpt>
<trkpt lat="39.5965345" lon="3.0403497">
<ele>138.68</ele>
<time>2016-10-18T11:49:07Z</time>
</trkpt>
<trkpt lat="39.5965394" lon="3.0406459">
<ele>137.08</ele>
<time>2016-10-18T11:49:11Z</time>
</trkpt>
<trkpt lat="39.5965433" lon="3.0408897">
<ele>137.69</ele>
<time>2016-10-18T11:49:15Z</time>
</trkpt>
<trkpt lat="39.5965356" lon="3.0411296">
<ele>137.25</ele>
<time>2016-10-18T11:49:19Z</time>
</trkpt>
<trkpt lat="39.5965375" lon="3.0413670">
<ele>137.74</ele>
<time>2016-10-18T11:49:23Z</time>
</trkpt>
<trkpt lat="39.5965454" lon="3.0416309">
<ele>138.09</ele>
<time>2016-10-18T11:49:27Z</time>
</trkpt>
<trkpt lat="39.5965664" lon="3.0418798">
<ele>137.83</ele>
<time>2016-10-18T11:49:31Z</time>
</trkpt>
<trkpt lat="39.5966280" lon="3.0421283">
<ele>137.97</ele>
<time>2016-10-18T11:49:36Z</time>
</trkpt>
<trkpt lat="39.5966996" lon="3.0423856">
<ele>138.20</ele>
<time>2016-10-18T11:49:41Z</time>
</trkpt>
<trkpt lat="39.5967788" lon="3.0426449">
<ele>139.90</ele>
<time>2016-10-18T11:49:45Z</time>
</trkpt>
<trkpt lat="39.5968617" lon="3.0428808">
<ele>140.18</ele>
<time>2016-10-18T11:49:49Z</time>
</trkpt>
<trkpt lat="39.5969463" lon="3.0431350">
<ele>139.01</ele>
<time>2016-10-18T11:49:53Z</time>
</trkpt>
<trkpt lat="39.5970122" lon="3.0433771">
<ele>137.16</ele>
<time>2016-10-18T11:49:57Z</time>
</trkpt>
<trkpt lat="39.5970331" lon="3.0436141">
<ele>138.04</ele>
<time>2016-10-18T11:50:00Z</time>
</trkpt>
<trkpt lat="39.5970148" lon="3.0438590">
<ele>138.98</ele>
<time>2016-10-18T11:50:03Z</time>
</trkpt>
<trkpt lat="39.5969913" lon="3.0440928">
<ele>140.09</ele>
<time>2016-10-18T11:50:06Z</time>
</trkpt>
<trkpt lat="39.5969656" lon="3.0443960">
<ele>139.48</ele>
<time>2016-10-18T11:50:10Z</time>
</trkpt>
<trkpt lat="39.5969234" lon="3.0447031">
<ele>138.06</ele>
<time>2016-10-18T11:50:14Z</time>
</trkpt>
<trkpt lat="39.5968550" lon="3.0449410">
<ele>137.81</ele>
<time>2016-10-18T11:50:17Z</time>
</trkpt>
<trkpt lat="39.5967710" lon="3.0452126">
<ele>136.88</ele>
<time>2016-10-18T11:50:20Z</time>
</trkpt>
<trkpt lat="39.5966846" lon="3.0454572">
<ele>135.73</ele>
<time>2016-10-18T11:50:23Z</time>
</trkpt>
<trkpt lat="39.5966102" lon="3.0456949">
<ele>134.76</ele>
<time>2016-10-18T11:50:26Z</time>
</trkpt>
<trkpt lat="39.5965416" lon="3.0459752">
<ele>134.24</ele>
<time>2016-10-18T11:50:29Z</time>
</trkpt>
<trkpt lat="39.5965077" lon="3.0462821">
<ele>134.17</ele>
<time>2016-10-18T11:50:32Z</time>
</trkpt>
<trkpt lat="39.5965002" lon="3.0466170">
<ele>133.46</ele>
<time>2016-10-18T11:50:35Z</time>
</trkpt>
<trkpt lat="39.5964991" lon="3.0469526">
<ele>132.66</ele>
<time>2016-10-18T11:50:38Z</time>
</trkpt>
<trkpt lat="39.5964945" lon="3.0472599">
<ele>132.32</ele>
<time>2016-10-18T11:50:41Z</time>
</trkpt>
<trkpt lat="39.5964974" lon="3.0475464">
<ele>132.49</ele>
<time>2016-10-18T11:50:44Z</time>
</trkpt>
<trkpt lat="39.5964982" lon="3.0478255">
<ele>132.96</ele>
<time>2016-10-18T11:50:47Z</time>
</trkpt>
<trkpt lat="39.5964977" lon="3.0480882">
<ele>133.55</ele>
<time>2016-10-18T11:50:50Z</time>
</trkpt>
<trkpt lat="39.5964946" lon="3.0483395">
<ele>132.45</ele>
<time>2016-10-18T11:50:53Z</time>
</trkpt>
<trkpt lat="39.5964903" lon="3.0486118">
<ele>131.11</ele>
<time>2016-10-18T11:50:56Z</time>
</trkpt>
<trkpt lat="39.5964798" lon="3.0488621">
<ele>130.11</ele>
<time>2016-10-18T11:50:59Z</time>
</trkpt>
<trkpt lat="39.5964696" lon="3.0491052">
<ele>129.89</ele>
<time>2016-10-18T11:51:02Z</time>
</trkpt>
<trkpt lat="39.5964561" lon="3.0493634">
<ele>129.47</ele>
<time>2016-10-18T11:51:05Z</time>
</trkpt>
<trkpt lat="39.5964491" lon="3.0496147">
<ele>129.38</ele>
<time>2016-10-18T11:51:08Z</time>
</trkpt>
<trkpt lat="39.5964459" lon="3.0498690">
<ele>129.87</ele>
<time>2016-10-18T11:51:11Z</time>
</trkpt>
<trkpt lat="39.5964391" lon="3.0501046">
<ele>130.05</ele>
<time>2016-10-18T11:51:14Z</time>
</trkpt>
<trkpt lat="39.5964214" lon="3.0503400">
<ele>129.40</ele>
<time>2016-10-18T11:51:17Z</time>
</trkpt>
<trkpt lat="39.5963977" lon="3.0505996">
<ele>129.03</ele>
<time>2016-10-18T11:51:20Z</time>
</trkpt>
<trkpt lat="39.5963801" lon="3.0508369">
<ele>128.69</ele>
<time>2016-10-18T11:51:23Z</time>
</trkpt>
<trkpt lat="39.5963665" lon="3.0511209">
<ele>130.02</ele>
<time>2016-10-18T11:51:27Z</time>
</trkpt>
<trkpt lat="39.5963450" lon="3.0514289">
<ele>130.92</ele>
<time>2016-10-18T11:51:31Z</time>
</trkpt>
<trkpt lat="39.5963297" lon="3.0517396">
<ele>131.76</ele>
<time>2016-10-18T11:51:35Z</time>
</trkpt>
<trkpt lat="39.5963404" lon="3.0519740">
<ele>131.80</ele>
<time>2016-10-18T11:51:38Z</time>
</trkpt>
<trkpt lat="39.5963727" lon="3.0522895">
<ele>130.94</ele>
<time>2016-10-18T11:51:42Z</time>
</trkpt>
<trkpt lat="39.5963946" lon="3.0525220">
<ele>131.28</ele>
<time>2016-10-18T11:51:45Z</time>
</trkpt>
<trkpt lat="39.5964119" lon="3.0527632">
<ele>132.07</ele>
<time>2016-10-18T11:51:48Z</time>
</trkpt>
<trkpt lat="39.5964329" lon="3.0530178">
<ele>133.09</ele>
<time>2016-10-18T11:51:51Z</time>
</trkpt>
<trkpt lat="39.5964433" lon="3.0532731">
<ele>133.13</ele>
<time>2016-10-18T11:51:54Z</time>
</trkpt>
<trkpt lat="39.5964352" lon="3.0535257">
<ele>132.45</ele>
<time>2016-10-18T11:51:57Z</time>
</trkpt>
<trkpt lat="39.5964134" lon="3.0537823">
<ele>131.25</ele>
<time>2016-10-18T11:52:00Z</time>
</trkpt>
<trkpt lat="39.5963943" lon="3.0540318">
<ele>130.56</ele>
<time>2016-10-18T11:52:03Z</time>
</trkpt>
<trkpt lat="39.5963654" lon="3.0542830">
<ele>130.29</ele>
<time>2016-10-18T11:52:06Z</time>
</trkpt>
<trkpt lat="39.5963111" lon="3.0545283">
<ele>130.08</ele>
<time>2016-10-18T11:52:09Z</time>
</trkpt>
<trkpt lat="39.5962514" lon="3.0547553">
<ele>129.57</ele>
<time>2016-10-18T11:52:12Z</time>
</trkpt>
<trkpt lat="39.5962080" lon="3.0549825">
<ele>129.45</ele>
<time>2016-10-18T11:52:15Z</time>
</trkpt>
<trkpt lat="39.5961893" lon="3.0552445">
<ele>130.56</ele>
<time>2016-10-18T11:52:18Z</time>
</trkpt>
<trkpt lat="39.5961971" lon="3.0554960">
<ele>131.79</ele>
<time>2016-10-18T11:52:21Z</time>
</trkpt>
<trkpt lat="39.5961957" lon="3.0557438">
<ele>131.77</ele>
<time>2016-10-18T11:52:24Z</time>
</trkpt>
<trkpt lat="39.5961820" lon="3.0560587">
<ele>132.20</ele>
<time>2016-10-18T11:52:28Z</time>
</trkpt>
<trkpt lat="39.5961633" lon="3.0562954">
<ele>132.29</ele>
<time>2016-10-18T11:52:31Z</time>
</trkpt>
<trkpt lat="39.5961439" lon="3.0565880">
<ele>131.58</ele>
<time>2016-10-18T11:52:35Z</time>
</trkpt>
<trkpt lat="39.5961172" lon="3.0568680">
<ele>131.37</ele>
<time>2016-10-18T11:52:39Z</time>
</trkpt>
<trkpt lat="39.5960639" lon="3.0571445">
<ele>131.45</ele>
<time>2016-10-18T11:52:43Z</time>
</trkpt>
<trkpt lat="39.5959557" lon="3.0573777">
<ele>132.53</ele>
<time>2016-10-18T11:52:47Z</time>
</trkpt>
<trkpt lat="39.5958213" lon="3.0576023">
<ele>134.75</ele>
<time>2016-10-18T11:52:51Z</time>
</trkpt>
<trkpt lat="39.5956901" lon="3.0577915">
<ele>136.98</ele>
<time>2016-10-18T11:52:55Z</time>
</trkpt>
<trkpt lat="39.5955661" lon="3.0579772">
<ele>138.71</ele>
<time>2016-10-18T11:52:59Z</time>
</trkpt>
<trkpt lat="39.5954695" lon="3.0582215">
<ele>138.95</ele>
<time>2016-10-18T11:53:04Z</time>
</trkpt>
<trkpt lat="39.5954330" lon="3.0584919">
<ele>139.17</ele>
<time>2016-10-18T11:53:08Z</time>
</trkpt>
<trkpt lat="39.5953828" lon="3.0587707">
<ele>139.13</ele>
<time>2016-10-18T11:53:12Z</time>
</trkpt>
<trkpt lat="39.5954031" lon="3.0590500">
<ele>139.78</ele>
<time>2016-10-18T11:53:16Z</time>
</trkpt>
<trkpt lat="39.5954795" lon="3.0593279">
<ele>141.68</ele>
<time>2016-10-18T11:53:21Z</time>
</trkpt>
<trkpt lat="39.5955811" lon="3.0595601">
<ele>142.67</ele>
<time>2016-10-18T11:53:25Z</time>
</trkpt>
<trkpt lat="39.5956586" lon="3.0598315">
<ele>143.73</ele>
<time>2016-10-18T11:53:29Z</time>
</trkpt>
<trkpt lat="39.5956835" lon="3.0601142">
<ele>143.11</ele>
<time>2016-10-18T11:53:33Z</time>
</trkpt>
<trkpt lat="39.5957192" lon="3.0603457">
<ele>143.15</ele>
<time>2016-10-18T11:53:36Z</time>
</trkpt>
<trkpt lat="39.5957695" lon="3.0606568">
<ele>142.52</ele>
<time>2016-10-18T11:53:40Z</time>
</trkpt>
<trkpt lat="39.5957789" lon="3.0609368">
<ele>141.79</ele>
<time>2016-10-18T11:53:44Z</time>
</trkpt>
<trkpt lat="39.5957842" lon="3.0612444">
<ele>141.77</ele>
<time>2016-10-18T11:53:48Z</time>
</trkpt>
<trkpt lat="39.5958280" lon="3.0615305">
<ele>141.76</ele>
<time>2016-10-18T11:53:52Z</time>
</trkpt>
<trkpt lat="39.5958948" lon="3.0617993">
<ele>142.22</ele>
<time>2016-10-18T11:53:56Z</time>
</trkpt>
<trkpt lat="39.5959463" lon="3.0620469">
<ele>142.51</ele>
<time>2016-10-18T11:54:00Z</time>
</trkpt>
<trkpt lat="39.5959947" lon="3.0622744">
<ele>142.49</ele>
<time>2016-10-18T11:54:04Z</time>
</trkpt>
<trkpt lat="39.5960729" lon="3.0625154">
<ele>142.37</ele>
<time>2016-10-18T11:54:08Z</time>
</trkpt>
<trkpt lat="39.5961463" lon="3.0627589">
<ele>142.97</ele>
<time>2016-10-18T11:54:12Z</time>
</trkpt>
<trkpt lat="39.5962101" lon="3.0629951">
<ele>143.61</ele>
<time>2016-10-18T11:54:16Z</time>
</trkpt>
<trkpt lat="39.5962786" lon="3.0632530">
<ele>144.38</ele>
<time>2016-10-18T11:54:20Z</time>
</trkpt>
<trkpt lat="39.5963548" lon="3.0634860">
<ele>145.93</ele>
<time>2016-10-18T11:54:24Z</time>
</trkpt>
<trkpt lat="39.5964404" lon="3.0637439">
<ele>146.77</ele>
<time>2016-10-18T11:54:28Z</time>
</trkpt>
<trkpt lat="39.5965228" lon="3.0640228">
<ele>147.17</ele>
<time>2016-10-18T11:54:32Z</time>
</trkpt>
<trkpt lat="39.5965916" lon="3.0642761">
<ele>146.80</ele>
<time>2016-10-18T11:54:36Z</time>
</trkpt>
<trkpt lat="39.5966624" lon="3.0645294">
<ele>146.80</ele>
<time>2016-10-18T11:54:40Z</time>
</trkpt>
<trkpt lat="39.5967313" lon="3.0648098">
<ele>145.99</ele>
<time>2016-10-18T11:54:45Z</time>
</trkpt>
<trkpt lat="39.5967946" lon="3.0650357">
<ele>146.68</ele>
<time>2016-10-18T11:54:49Z</time>
</trkpt>
<trkpt lat="39.5968635" lon="3.0652837">
<ele>147.24</ele>
<time>2016-10-18T11:54:53Z</time>
</trkpt>
<trkpt lat="39.5968988" lon="3.0655509">
<ele>147.41</ele>
<time>2016-10-18T11:54:57Z</time>
</trkpt>
<trkpt lat="39.5969357" lon="3.0658107">
<ele>147.69</ele>
<time>2016-10-18T11:55:01Z</time>
</trkpt>
<trkpt lat="39.5969968" lon="3.0660416">
<ele>147.98</ele>
<time>2016-10-18T11:55:05Z</time>
</trkpt>
<trkpt lat="39.5970795" lon="3.0662732">
<ele>148.71</ele>
<time>2016-10-18T11:55:09Z</time>
</trkpt>
<trkpt lat="39.5971606" lon="3.0665472">
<ele>150.55</ele>
<time>2016-10-18T11:55:14Z</time>
</trkpt>
<trkpt lat="39.5972453" lon="3.0668090">
<ele>150.87</ele>
<time>2016-10-18T11:55:19Z</time>
</trkpt>
<trkpt lat="39.5973350" lon="3.0670460">
<ele>151.38</ele>
<time>2016-10-18T11:55:23Z</time>
</trkpt>
<trkpt lat="39.5974164" lon="3.0673056">
<ele>153.21</ele>
<time>2016-10-18T11:55:27Z</time>
</trkpt>
<trkpt lat="39.5974374" lon="3.0675743">
<ele>152.77</ele>
<time>2016-10-18T11:55:31Z</time>
</trkpt>
<trkpt lat="39.5974041" lon="3.0678383">
<ele>151.94</ele>
<time>2016-10-18T11:55:35Z</time>
</trkpt>
<trkpt lat="39.5973517" lon="3.0681378">
<ele>152.53</ele>
<time>2016-10-18T11:55:40Z</time>
</trkpt>
<trkpt lat="39.5973389" lon="3.0684347">
<ele>152.35</ele>
<time>2016-10-18T11:55:44Z</time>
</trkpt>
<trkpt lat="39.5973485" lon="3.0687508">
<ele>152.32</ele>
<time>2016-10-18T11:55:48Z</time>
</trkpt>
<trkpt lat="39.5973666" lon="3.0690244">
<ele>151.42</ele>
<time>2016-10-18T11:55:51Z</time>
</trkpt>
<trkpt lat="39.5974096" lon="3.0693201">
<ele>151.03</ele>
<time>2016-10-18T11:55:54Z</time>
</trkpt>
<trkpt lat="39.5974724" lon="3.0695881">
<ele>150.43</ele>
<time>2016-10-18T11:55:57Z</time>
</trkpt>
<trkpt lat="39.5975171" lon="3.0698225">
<ele>150.17</ele>
<time>2016-10-18T11:56:00Z</time>
</trkpt>
<trkpt lat="39.5975732" lon="3.0700755">
<ele>149.61</ele>
<time>2016-10-18T11:56:03Z</time>
</trkpt>
<trkpt lat="39.5976377" lon="3.0703138">
<ele>148.68</ele>
<time>2016-10-18T11:56:05Z</time>
</trkpt>
<trkpt lat="39.5977033" lon="3.0705521">
<ele>147.86</ele>
<time>2016-10-18T11:56:08Z</time>
</trkpt>
<trkpt lat="39.5977687" lon="3.0707824">
<ele>147.78</ele>
<time>2016-10-18T11:56:11Z</time>
</trkpt>
<trkpt lat="39.5978351" lon="3.0710015">
<ele>147.87</ele>
<time>2016-10-18T11:56:14Z</time>
</trkpt>
<trkpt lat="39.5979035" lon="3.0712322">
<ele>147.83</ele>
<time>2016-10-18T11:56:17Z</time>
</trkpt>
<trkpt lat="39.5979707" lon="3.0714688">
<ele>147.28</ele>
<time>2016-10-18T11:56:20Z</time>
</trkpt>
<trkpt lat="39.5980366" lon="3.0716978">
<ele>146.14</ele>
<time>2016-10-18T11:56:23Z</time>
</trkpt>
<trkpt lat="39.5981093" lon="3.0719587">
<ele>145.19</ele>
<time>2016-10-18T11:56:26Z</time>
</trkpt>
<trkpt lat="39.5981856" lon="3.0722293">
<ele>145.25</ele>
<time>2016-10-18T11:56:29Z</time>
</trkpt>
<trkpt lat="39.5982678" lon="3.0725012">
<ele>145.67</ele>
<time>2016-10-18T11:56:32Z</time>
</trkpt>
<trkpt lat="39.5983538" lon="3.0727699">
<ele>145.22</ele>
<time>2016-10-18T11:56:35Z</time>
</trkpt>
<trkpt lat="39.5984705" lon="3.0730426">
<ele>144.83</ele>
<time>2016-10-18T11:56:38Z</time>
</trkpt>
<trkpt lat="39.5986259" lon="3.0733033">
<ele>144.51</ele>
<time>2016-10-18T11:56:41Z</time>
</trkpt>
<trkpt lat="39.5987933" lon="3.0735477">
<ele>144.07</ele>
<time>2016-10-18T11:56:44Z</time>
</trkpt>
<trkpt lat="39.5989640" lon="3.0737834">
<ele>143.34</ele>
<time>2016-10-18T11:56:47Z</time>
</trkpt>
<trkpt lat="39.5991170" lon="3.0739945">
<ele>141.58</ele>
<time>2016-10-18T11:56:50Z</time>
</trkpt>
<trkpt lat="39.5992560" lon="3.0742034">
<ele>140.25</ele>
<time>2016-10-18T11:56:53Z</time>
</trkpt>
<trkpt lat="39.5993878" lon="3.0744018">
<ele>140.12</ele>
<time>2016-10-18T11:56:56Z</time>
</trkpt>
<trkpt lat="39.5995129" lon="3.0745956">
<ele>139.99</ele>
<time>2016-10-18T11:56:59Z</time>
</trkpt>
<trkpt lat="39.5996418" lon="3.0747939">
<ele>140.64</ele>
<time>2016-10-18T11:57:02Z</time>
</trkpt>
<trkpt lat="39.5997706" lon="3.0750109">
<ele>141.04</ele>
<time>2016-10-18T11:57:05Z</time>
</trkpt>
<trkpt lat="39.5998952" lon="3.0752107">
<ele>140.15</ele>
<time>2016-10-18T11:57:08Z</time>
</trkpt>
<trkpt lat="39.6000485" lon="3.0754539">
<ele>138.80</ele>
<time>2016-10-18T11:57:12Z</time>
</trkpt>
<trkpt lat="39.6001693" lon="3.0756557">
<ele>138.76</ele>
<time>2016-10-18T11:57:15Z</time>
</trkpt>
<trkpt lat="39.6002926" lon="3.0758737">
<ele>138.06</ele>
<time>2016-10-18T11:57:18Z</time>
</trkpt>
<trkpt lat="39.6004219" lon="3.0760758">
<ele>136.59</ele>
<time>2016-10-18T11:57:21Z</time>
</trkpt>
<trkpt lat="39.6005378" lon="3.0762830">
<ele>135.39</ele>
<time>2016-10-18T11:57:24Z</time>
</trkpt>
<trkpt lat="39.6006541" lon="3.0764818">
<ele>133.88</ele>
<time>2016-10-18T11:57:27Z</time>
</trkpt>
<trkpt lat="39.6008023" lon="3.0767244">
<ele>133.32</ele>
<time>2016-10-18T11:57:31Z</time>
</trkpt>
<trkpt lat="39.6009508" lon="3.0769577">
<ele>134.94</ele>
<time>2016-10-18T11:57:35Z</time>
</trkpt>
<trkpt lat="39.6010901" lon="3.0771916">
<ele>135.48</ele>
<time>2016-10-18T11:57:39Z</time>
</trkpt>
<trkpt lat="39.6012302" lon="3.0774328">
<ele>136.21</ele>
<time>2016-10-18T11:57:43Z</time>
</trkpt>
<trkpt lat="39.6013532" lon="3.0776252">
<ele>136.54</ele>
<time>2016-10-18T11:57:47Z</time>
</trkpt>
<trkpt lat="39.6014706" lon="3.0778065">
<ele>137.74</ele>
<time>2016-10-18T11:57:51Z</time>
</trkpt>
<trkpt lat="39.6015978" lon="3.0779986">
<ele>138.00</ele>
<time>2016-10-18T11:57:55Z</time>
</trkpt>
<trkpt lat="39.6017431" lon="3.0782004">
<ele>137.06</ele>
<time>2016-10-18T11:57:59Z</time>
</trkpt>
<trkpt lat="39.6018867" lon="3.0783787">
<ele>136.71</ele>
<time>2016-10-18T11:58:03Z</time>
</trkpt>
<trkpt lat="39.6020502" lon="3.0786012">
<ele>136.65</ele>
<time>2016-10-18T11:58:07Z</time>
</trkpt>
<trkpt lat="39.6021719" lon="3.0787858">
<ele>136.77</ele>
<time>2016-10-18T11:58:10Z</time>
</trkpt>
<trkpt lat="39.6023185" lon="3.0789991">
<ele>136.49</ele>
<time>2016-10-18T11:58:13Z</time>
</trkpt>
<trkpt lat="39.6024929" lon="3.0792431">
<ele>135.89</ele>
<time>2016-10-18T11:58:16Z</time>
</trkpt>
<trkpt lat="39.6026156" lon="3.0794228">
<ele>134.83</ele>
<time>2016-10-18T11:58:18Z</time>
</trkpt>
<trkpt lat="39.6027385" lon="3.0796073">
<ele>133.15</ele>
<time>2016-10-18T11:58:20Z</time>
</trkpt>
<trkpt lat="39.6028565" lon="3.0797900">
<ele>131.87</ele>
<time>2016-10-18T11:58:22Z</time>
</trkpt>
<trkpt lat="39.6029750" lon="3.0799733">
<ele>130.91</ele>
<time>2016-10-18T11:58:24Z</time>
</trkpt>
<trkpt lat="39.6031524" lon="3.0801961">
<ele>130.48</ele>
<time>2016-10-18T11:58:27Z</time>
</trkpt>
<trkpt lat="39.6033466" lon="3.0804069">
<ele>130.00</ele>
<time>2016-10-18T11:58:30Z</time>
</trkpt>
<trkpt lat="39.6035293" lon="3.0806030">
<ele>129.12</ele>
<time>2016-10-18T11:58:33Z</time>
</trkpt>
<trkpt lat="39.6037151" lon="3.0807987">
<ele>128.30</ele>
<time>2016-10-18T11:58:36Z</time>
</trkpt>
<trkpt lat="39.6038907" lon="3.0809860">
<ele>127.06</ele>
<time>2016-10-18T11:58:39Z</time>
</trkpt>
<trkpt lat="39.6040629" lon="3.0811591">
<ele>126.46</ele>
<time>2016-10-18T11:58:42Z</time>
</trkpt>
<trkpt lat="39.6042313" lon="3.0813415">
<ele>125.51</ele>
<time>2016-10-18T11:58:45Z</time>
</trkpt>
<trkpt lat="39.6043928" lon="3.0815177">
<ele>124.56</ele>
<time>2016-10-18T11:58:48Z</time>
</trkpt>
<trkpt lat="39.6045549" lon="3.0816853">
<ele>123.77</ele>
<time>2016-10-18T11:58:51Z</time>
</trkpt>
<trkpt lat="39.6047120" lon="3.0818447">
<ele>123.84</ele>
<time>2016-10-18T11:58:54Z</time>
</trkpt>
<trkpt lat="39.6048569" lon="3.0820264">
<ele>123.50</ele>
<time>2016-10-18T11:58:57Z</time>
</trkpt>
<trkpt lat="39.6049885" lon="3.0822189">
<ele>122.93</ele>
<time>2016-10-18T11:59:00Z</time>
</trkpt>
<trkpt lat="39.6051007" lon="3.0824397">
<ele>121.83</ele>
<time>2016-10-18T11:59:03Z</time>
</trkpt>
<trkpt lat="39.6051856" lon="3.0826612">
<ele>121.47</ele>
<time>2016-10-18T11:59:06Z</time>
</trkpt>
<trkpt lat="39.6052641" lon="3.0828872">
<ele>122.56</ele>
<time>2016-10-18T11:59:09Z</time>
</trkpt>
<trkpt lat="39.6053577" lon="3.0831267">
<ele>123.81</ele>
<time>2016-10-18T11:59:12Z</time>
</trkpt>
<trkpt lat="39.6054499" lon="3.0833760">
<ele>123.88</ele>
<time>2016-10-18T11:59:15Z</time>
</trkpt>
<trkpt lat="39.6055430" lon="3.0836316">
<ele>122.94</ele>
<time>2016-10-18T11:59:18Z</time>
</trkpt>
<trkpt lat="39.6056376" lon="3.0838721">
<ele>120.90</ele>
<time>2016-10-18T11:59:21Z</time>
</trkpt>
<trkpt lat="39.6057242" lon="3.0841058">
<ele>119.43</ele>
<time>2016-10-18T11:59:24Z</time>
</trkpt>
<trkpt lat="39.6058124" lon="3.0843600">
<ele>117.74</ele>
<time>2016-10-18T11:59:27Z</time>
</trkpt>
<trkpt lat="39.6058976" lon="3.0846142">
<ele>116.67</ele>
<time>2016-10-18T11:59:30Z</time>
</trkpt>
<trkpt lat="39.6059732" lon="3.0848675">
<ele>116.43</ele>
<time>2016-10-18T11:59:33Z</time>
</trkpt>
<trkpt lat="39.6060390" lon="3.0850891">
<ele>116.42</ele>
<time>2016-10-18T11:59:36Z</time>
</trkpt>
<trkpt lat="39.6061121" lon="3.0853339">
<ele>116.15</ele>
<time>2016-10-18T11:59:40Z</time>
</trkpt>
<trkpt lat="39.6061944" lon="3.0855585">
<ele>116.07</ele>
<time>2016-10-18T11:59:51Z</time>
</trkpt>
<trkpt lat="39.6062553" lon="3.0858166">
<ele>115.92</ele>
<time>2016-10-18T11:59:58Z</time>
</trkpt>
<trkpt lat="39.6063338" lon="3.0861107">
<ele>115.46</ele>
<time>2016-10-18T12:00:02Z</time>
</trkpt>
<trkpt lat="39.6064077" lon="3.0863407">
<ele>114.70</ele>
<time>2016-10-18T12:00:05Z</time>
</trkpt>
<trkpt lat="39.6064724" lon="3.0865782">
<ele>113.20</ele>
<time>2016-10-18T12:00:08Z</time>
</trkpt>
<trkpt lat="39.6065387" lon="3.0868334">
<ele>112.27</ele>
<time>2016-10-18T12:00:11Z</time>
</trkpt>
<trkpt lat="39.6066121" lon="3.0870919">
<ele>111.68</ele>
<time>2016-10-18T12:00:14Z</time>
</trkpt>
<trkpt lat="39.6066882" lon="3.0873524">
<ele>110.88</ele>
<time>2016-10-18T12:00:17Z</time>
</trkpt>
<trkpt lat="39.6067644" lon="3.0876135">
<ele>110.80</ele>
<time>2016-10-18T12:00:20Z</time>
</trkpt>
<trkpt lat="39.6068485" lon="3.0878808">
<ele>111.34</ele>
<time>2016-10-18T12:00:23Z</time>
</trkpt>
<trkpt lat="39.6069312" lon="3.0881432">
<ele>112.05</ele>
<time>2016-10-18T12:00:26Z</time>
</trkpt>
<trkpt lat="39.6070085" lon="3.0883982">
<ele>112.58</ele>
<time>2016-10-18T12:00:29Z</time>
</trkpt>
<trkpt lat="39.6070730" lon="3.0886429">
<ele>112.68</ele>
<time>2016-10-18T12:00:32Z</time>
</trkpt>
<trkpt lat="39.6071423" lon="3.0888919">
<ele>112.20</ele>
<time>2016-10-18T12:00:35Z</time>
</trkpt>
<trkpt lat="39.6072140" lon="3.0891364">
<ele>112.10</ele>
<time>2016-10-18T12:00:38Z</time>
</trkpt>
<trkpt lat="39.6072898" lon="3.0894012">
<ele>111.88</ele>
<time>2016-10-18T12:00:41Z</time>
</trkpt>
<trkpt lat="39.6073656" lon="3.0896567">
<ele>111.49</ele>
<time>2016-10-18T12:00:44Z</time>
</trkpt>
<trkpt lat="39.6074351" lon="3.0899201">
<ele>110.28</ele>
<time>2016-10-18T12:00:47Z</time>
</trkpt>
<trkpt lat="39.6075057" lon="3.0901771">
<ele>107.94</ele>
<time>2016-10-18T12:00:50Z</time>
</trkpt>
<trkpt lat="39.6075761" lon="3.0904140">
<ele>106.77</ele>
<time>2016-10-18T12:00:53Z</time>
</trkpt>
<trkpt lat="39.6076502" lon="3.0906730">
<ele>106.57</ele>
<time>2016-10-18T12:00:56Z</time>
</trkpt>
<trkpt lat="39.6077177" lon="3.0909394">
<ele>106.74</ele>
<time>2016-10-18T12:00:59Z</time>
</trkpt>
<trkpt lat="39.6077869" lon="3.0911933">
<ele>106.77</ele>
<time>2016-10-18T12:01:02Z</time>
</trkpt>
<trkpt lat="39.6078598" lon="3.0914597">
<ele>106.35</ele>
<time>2016-10-18T12:01:05Z</time>
</trkpt>
<trkpt lat="39.6079235" lon="3.0917097">
<ele>105.60</ele>
<time>2016-10-18T12:01:08Z</time>
</trkpt>
<trkpt lat="39.6080054" lon="3.0919785">
<ele>104.63</ele>
<time>2016-10-18T12:01:11Z</time>
</trkpt>
<trkpt lat="39.6080999" lon="3.0922360">
<ele>103.68</ele>
<time>2016-10-18T12:01:14Z</time>
</trkpt>
<trkpt lat="39.6081946" lon="3.0924672">
<ele>103.48</ele>
<time>2016-10-18T12:01:17Z</time>
</trkpt>
<trkpt lat="39.6082963" lon="3.0927210">
<ele>103.47</ele>
<time>2016-10-18T12:01:20Z</time>
</trkpt>
<trkpt lat="39.6083843" lon="3.0929584">
<ele>102.95</ele>
<time>2016-10-18T12:01:23Z</time>
</trkpt>
<trkpt lat="39.6084843" lon="3.0932101">
<ele>103.64</ele>
<time>2016-10-18T12:01:26Z</time>
</trkpt>
<trkpt lat="39.6085845" lon="3.0934551">
<ele>104.91</ele>
<time>2016-10-18T12:01:29Z</time>
</trkpt>
<trkpt lat="39.6086865" lon="3.0936933">
<ele>104.71</ele>
<time>2016-10-18T12:01:32Z</time>
</trkpt>
<trkpt lat="39.6087853" lon="3.0939167">
<ele>104.58</ele>
<time>2016-10-18T12:01:35Z</time>
</trkpt>
<trkpt lat="39.6088810" lon="3.0941438">
<ele>105.13</ele>
<time>2016-10-18T12:01:38Z</time>
</trkpt>
<trkpt lat="39.6089833" lon="3.0943910">
<ele>105.26</ele>
<time>2016-10-18T12:01:41Z</time>
</trkpt>
<trkpt lat="39.6090865" lon="3.0946159">
<ele>104.60</ele>
<time>2016-10-18T12:01:44Z</time>
</trkpt>
<trkpt lat="39.6092042" lon="3.0948201">
<ele>103.51</ele>
<time>2016-10-18T12:01:47Z</time>
</trkpt>
<trkpt lat="39.6093386" lon="3.0950200">
<ele>103.40</ele>
<time>2016-10-18T12:01:50Z</time>
</trkpt>
<trkpt lat="39.6094741" lon="3.0952159">
<ele>103.37</ele>
<time>2016-10-18T12:01:53Z</time>
</trkpt>
<trkpt lat="39.6096118" lon="3.0954057">
<ele>103.47</ele>
<time>2016-10-18T12:01:56Z</time>
</trkpt>
<trkpt lat="39.6097407" lon="3.0955973">
<ele>103.16</ele>
<time>2016-10-18T12:01:59Z</time>
</trkpt>
<trkpt lat="39.6098667" lon="3.0957986">
<ele>102.74</ele>
<time>2016-10-18T12:02:02Z</time>
</trkpt>
<trkpt lat="39.6099999" lon="3.0960012">
<ele>101.84</ele>
<time>2016-10-18T12:02:05Z</time>
</trkpt>
<trkpt lat="39.6101339" lon="3.0961969">
<ele>101.84</ele>
<time>2016-10-18T12:02:08Z</time>
</trkpt>
<trkpt lat="39.6102660" lon="3.0963931">
<ele>101.70</ele>
<time>2016-10-18T12:02:11Z</time>
</trkpt>
<trkpt lat="39.6104004" lon="3.0965902">
<ele>101.71</ele>
<time>2016-10-18T12:02:14Z</time>
</trkpt>
<trkpt lat="39.6105314" lon="3.0967877">
<ele>101.72</ele>
<time>2016-10-18T12:02:17Z</time>
</trkpt>
<trkpt lat="39.6106573" lon="3.0969863">
<ele>101.62</ele>
<time>2016-10-18T12:02:20Z</time>
</trkpt>
<trkpt lat="39.6107882" lon="3.0971838">
<ele>101.22</ele>
<time>2016-10-18T12:02:23Z</time>
</trkpt>
<trkpt lat="39.6109171" lon="3.0973815">
<ele>100.48</ele>
<time>2016-10-18T12:02:26Z</time>
</trkpt>
<trkpt lat="39.6110466" lon="3.0975975">
<ele>99.28</ele>
<time>2016-10-18T12:02:29Z</time>
</trkpt>
<trkpt lat="39.6111222" lon="3.0978351">
<ele>98.49</ele>
<time>2016-10-18T12:02:32Z</time>
</trkpt>
<trkpt lat="39.6111851" lon="3.0980771">
<ele>99.66</ele>
<time>2016-10-18T12:02:35Z</time>
</trkpt>
<trkpt lat="39.6112450" lon="3.0983413">
<ele>100.83</ele>
<time>2016-10-18T12:02:38Z</time>
</trkpt>
<trkpt lat="39.6113065" lon="3.0986010">
<ele>101.89</ele>
<time>2016-10-18T12:02:41Z</time>
</trkpt>
<trkpt lat="39.6113693" lon="3.0988478">
<ele>102.36</ele>
<time>2016-10-18T12:02:44Z</time>
</trkpt>
<trkpt lat="39.6114371" lon="3.0991241">
<ele>102.79</ele>
<time>2016-10-18T12:02:47Z</time>
</trkpt>
<trkpt lat="39.6114977" lon="3.0993791">
<ele>101.59</ele>
<time>2016-10-18T12:02:50Z</time>
</trkpt>
<trkpt lat="39.6115685" lon="3.0996325">
<ele>100.17</ele>
<time>2016-10-18T12:02:53Z</time>
</trkpt>
<trkpt lat="39.6116398" lon="3.0999134">
<ele>100.20</ele>
<time>2016-10-18T12:02:56Z</time>
</trkpt>
<trkpt lat="39.6117013" lon="3.1001536">
<ele>99.81</ele>
<time>2016-10-18T12:02:59Z</time>
</trkpt>
<trkpt lat="39.6117652" lon="3.1004163">
<ele>97.91</ele>
<time>2016-10-18T12:03:02Z</time>
</trkpt>
<trkpt lat="39.6118265" lon="3.1006822">
<ele>96.41</ele>
<time>2016-10-18T12:03:05Z</time>
</trkpt>
<trkpt lat="39.6118829" lon="3.1009193">
<ele>95.54</ele>
<time>2016-10-18T12:03:08Z</time>
</trkpt>
<trkpt lat="39.6119405" lon="3.1011586">
<ele>94.66</ele>
<time>2016-10-18T12:03:11Z</time>
</trkpt>
<trkpt lat="39.6120025" lon="3.1013970">
<ele>94.71</ele>
<time>2016-10-18T12:03:14Z</time>
</trkpt>
<trkpt lat="39.6120565" lon="3.1016504">
<ele>94.19</ele>
<time>2016-10-18T12:03:17Z</time>
</trkpt>
<trkpt lat="39.6120774" lon="3.1018925">
<ele>93.66</ele>
<time>2016-10-18T12:03:20Z</time>
</trkpt>
<trkpt lat="39.6120697" lon="3.1021928">
<ele>95.20</ele>
<time>2016-10-18T12:03:24Z</time>
</trkpt>
<trkpt lat="39.6120769" lon="3.1024849">
<ele>96.42</ele>
<time>2016-10-18T12:03:27Z</time>
</trkpt>
<trkpt lat="39.6121380" lon="3.1027199">
<ele>96.58</ele>
<time>2016-10-18T12:03:30Z</time>
</trkpt>
<trkpt lat="39.6122054" lon="3.1029785">
<ele>95.69</ele>
<time>2016-10-18T12:03:33Z</time>
</trkpt>
<trkpt lat="39.6122670" lon="3.1032313">
<ele>95.52</ele>
<time>2016-10-18T12:03:36Z</time>
</trkpt>
<trkpt lat="39.6123267" lon="3.1034700">
<ele>96.69</ele>
<time>2016-10-18T12:03:39Z</time>
</trkpt>
<trkpt lat="39.6123921" lon="3.1037073">
<ele>96.35</ele>
<time>2016-10-18T12:03:42Z</time>
</trkpt>
<trkpt lat="39.6124590" lon="3.1039603">
<ele>96.43</ele>
<time>2016-10-18T12:03:45Z</time>
</trkpt>
<trkpt lat="39.6125375" lon="3.1042535">
<ele>97.73</ele>
<time>2016-10-18T12:03:49Z</time>
</trkpt>
<trkpt lat="39.6126090" lon="3.1045124">
<ele>98.53</ele>
<time>2016-10-18T12:03:52Z</time>
</trkpt>
<trkpt lat="39.6126711" lon="3.1047652">
<ele>99.71</ele>
<time>2016-10-18T12:03:55Z</time>
</trkpt>
<trkpt lat="39.6127272" lon="3.1049982">
<ele>100.97</ele>
<time>2016-10-18T12:03:58Z</time>
</trkpt>
<trkpt lat="39.6127886" lon="3.1052522">
<ele>101.23</ele>
<time>2016-10-18T12:04:01Z</time>
</trkpt>
<trkpt lat="39.6128417" lon="3.1054809">
<ele>101.28</ele>
<time>2016-10-18T12:04:04Z</time>
</trkpt>
<trkpt lat="39.6128935" lon="3.1057196">
<ele>103.08</ele>
<time>2016-10-18T12:04:07Z</time>
</trkpt>
<trkpt lat="39.6129427" lon="3.1059513">
<ele>103.45</ele>
<time>2016-10-18T12:04:10Z</time>
</trkpt>
<trkpt lat="39.6129918" lon="3.1062061">
<ele>103.23</ele>
<time>2016-10-18T12:04:13Z</time>
</trkpt>
<trkpt lat="39.6130423" lon="3.1064518">
<ele>103.83</ele>
<time>2016-10-18T12:04:16Z</time>
</trkpt>
<trkpt lat="39.6130874" lon="3.1066901">
<ele>102.69</ele>
<time>2016-10-18T12:04:19Z</time>
</trkpt>
<trkpt lat="39.6131675" lon="3.1069795">
<ele>100.94</ele>
<time>2016-10-18T12:04:23Z</time>
</trkpt>
<trkpt lat="39.6132431" lon="3.1072266">
<ele>100.30</ele>
<time>2016-10-18T12:04:26Z</time>
</trkpt>
<trkpt lat="39.6133378" lon="3.1075087">
<ele>99.82</ele>
<time>2016-10-18T12:04:30Z</time>
</trkpt>
<trkpt lat="39.6134143" lon="3.1077241">
<ele>98.37</ele>
<time>2016-10-18T12:04:33Z</time>
</trkpt>
<trkpt lat="39.6134900" lon="3.1079496">
<ele>97.59</ele>
<time>2016-10-18T12:04:36Z</time>
</trkpt>
<trkpt lat="39.6135743" lon="3.1082301">
<ele>95.96</ele>
<time>2016-10-18T12:04:40Z</time>
</trkpt>
<trkpt lat="39.6136549" lon="3.1084969">
<ele>93.06</ele>
<time>2016-10-18T12:04:45Z</time>
</trkpt>
<trkpt lat="39.6137233" lon="3.1087373">
<ele>91.34</ele>
<time>2016-10-18T12:04:49Z</time>
</trkpt>
<trkpt lat="39.6137902" lon="3.1090111">
<ele>92.41</ele>
<time>2016-10-18T12:04:54Z</time>
</trkpt>
<trkpt lat="39.6138556" lon="3.1092587">
<ele>94.49</ele>
<time>2016-10-18T12:04:58Z</time>
</trkpt>
<trkpt lat="39.6139188" lon="3.1094884">
<ele>93.75</ele>
<time>2016-10-18T12:05:02Z</time>
</trkpt>
<trkpt lat="39.6139947" lon="3.1097531">
<ele>95.68</ele>
<time>2016-10-18T12:05:07Z</time>
</trkpt>
<trkpt lat="39.6140525" lon="3.1099824">
<ele>96.95</ele>
<time>2016-10-18T12:05:13Z</time>
</trkpt>
<trkpt lat="39.6140957" lon="3.1102119">
<ele>98.02</ele>
<time>2016-10-18T12:05:24Z</time>
</trkpt>
<trkpt lat="39.6141638" lon="3.1104879">
<ele>102.98</ele>
<time>2016-10-18T12:05:29Z</time>
</trkpt>
<trkpt lat="39.6142207" lon="3.1107526">
<ele>102.77</ele>
<time>2016-10-18T12:05:34Z</time>
</trkpt>
<trkpt lat="39.6142787" lon="3.1110333">
<ele>102.53</ele>
<time>2016-10-18T12:05:40Z</time>
</trkpt>
<trkpt lat="39.6143565" lon="3.1112740">
<ele>102.40</ele>
<time>2016-10-18T12:05:47Z</time>
</trkpt>
<trkpt lat="39.6143890" lon="3.1115470">
<ele>102.26</ele>
<time>2016-10-18T12:05:53Z</time>
</trkpt>
<trkpt lat="39.6144277" lon="3.1117944">
<ele>102.35</ele>
<time>2016-10-18T12:05:58Z</time>
</trkpt>
<trkpt lat="39.6145037" lon="3.1120198">
<ele>102.12</ele>
<time>2016-10-18T12:06:07Z</time>
</trkpt>
<trkpt lat="39.6143018" lon="3.1121149">
<ele>101.81</ele>
<time>2016-10-18T12:06:16Z</time>
</trkpt>
<trkpt lat="39.6143116" lon="3.1123633">
<ele>101.14</ele>
<time>2016-10-18T12:06:28Z</time>
</trkpt>
<trkpt lat="39.6142886" lon="3.1126973">
<ele>101.89</ele>
<time>2016-10-18T12:07:28Z</time>
</trkpt>
<trkpt lat="39.6144466" lon="3.1128243">
<ele>111.49</ele>
<time>2016-10-18T12:55:55Z</time>
</trkpt>
<trkpt lat="39.6146094" lon="3.1129478">
<ele>111.38</ele>
<time>2016-10-18T12:56:02Z</time>
</trkpt>
<trkpt lat="39.6147889" lon="3.1130921">
<ele>110.28</ele>
<time>2016-10-18T12:56:07Z</time>
</trkpt>
<trkpt lat="39.6148501" lon="3.1133167">
<ele>109.45</ele>
<time>2016-10-18T12:56:13Z</time>
</trkpt>
<trkpt lat="39.6149928" lon="3.1134654">
<ele>107.99</ele>
<time>2016-10-18T12:56:22Z</time>
</trkpt>
<trkpt lat="39.6151999" lon="3.1134001">
<ele>101.16</ele>
<time>2016-10-18T12:56:29Z</time>
</trkpt>
<trkpt lat="39.6154027" lon="3.1133208">
<ele>99.02</ele>
<time>2016-10-18T12:56:35Z</time>
</trkpt>
<trkpt lat="39.6155899" lon="3.1132616">
<ele>97.53</ele>
<time>2016-10-18T12:56:45Z</time>
</trkpt>
<trkpt lat="39.6157816" lon="3.1132020">
<ele>96.32</ele>
<time>2016-10-18T12:56:51Z</time>
</trkpt>
<trkpt lat="39.6159752" lon="3.1131799">
<ele>97.47</ele>
<time>2016-10-18T12:57:00Z</time>
</trkpt>
<trkpt lat="39.6161523" lon="3.1131005">
<ele>103.52</ele>
<time>2016-10-18T12:57:06Z</time>
</trkpt>
<trkpt lat="39.6163493" lon="3.1130440">
<ele>112.31</ele>
<time>2016-10-18T12:57:11Z</time>
</trkpt>
<trkpt lat="39.6165241" lon="3.1129828">
<ele>115.40</ele>
<time>2016-10-18T12:57:15Z</time>
</trkpt>
<trkpt lat="39.6167213" lon="3.1129231">
<ele>113.87</ele>
<time>2016-10-18T12:57:19Z</time>
</trkpt>
<trkpt lat="39.6168095" lon="3.1126845">
<ele>107.82</ele>
<time>2016-10-18T12:57:24Z</time>
</trkpt>
<trkpt lat="39.6168165" lon="3.1124246">
<ele>103.29</ele>
<time>2016-10-18T12:57:29Z</time>
</trkpt>
<trkpt lat="39.6168319" lon="3.1121583">
<ele>102.53</ele>
<time>2016-10-18T12:57:35Z</time>
</trkpt>
<trkpt lat="39.6170323" lon="3.1122396">
<ele>99.87</ele>
<time>2016-10-18T12:57:43Z</time>
</trkpt>
<trkpt lat="39.6171519" lon="3.1124544">
<ele>96.11</ele>
<time>2016-10-18T12:57:47Z</time>
</trkpt>
<trkpt lat="39.6172893" lon="3.1126712">
<ele>94.71</ele>
<time>2016-10-18T12:57:51Z</time>
</trkpt>
<trkpt lat="39.6174069" lon="3.1129168">
<ele>96.00</ele>
<time>2016-10-18T12:57:55Z</time>
</trkpt>
<trkpt lat="39.6175189" lon="3.1131684">
<ele>98.20</ele>
<time>2016-10-18T12:58:00Z</time>
</trkpt>
<trkpt lat="39.6176327" lon="3.1134125">
<ele>97.73</ele>
<time>2016-10-18T12:58:05Z</time>
</trkpt>
<trkpt lat="39.6177322" lon="3.1136123">
<ele>97.51</ele>
<time>2016-10-18T12:58:09Z</time>
</trkpt>
<trkpt lat="39.6178613" lon="3.1138422">
<ele>97.37</ele>
<time>2016-10-18T12:58:14Z</time>
</trkpt>
<trkpt lat="39.6179742" lon="3.1140423">
<ele>98.38</ele>
<time>2016-10-18T12:58:18Z</time>
</trkpt>
<trkpt lat="39.6181213" lon="3.1142568">
<ele>99.44</ele>
<time>2016-10-18T12:58:23Z</time>
</trkpt>
<trkpt lat="39.6182798" lon="3.1144422">
<ele>101.33</ele>
<time>2016-10-18T12:58:28Z</time>
</trkpt>
<trkpt lat="39.6184269" lon="3.1146093">
<ele>102.08</ele>
<time>2016-10-18T12:58:33Z</time>
</trkpt>
<trkpt lat="39.6183263" lon="3.1148334">
<ele>100.71</ele>
<time>2016-10-18T12:58:42Z</time>
</trkpt>
<trkpt lat="39.6181133" lon="3.1149082">
<ele>97.84</ele>
<time>2016-10-18T12:58:47Z</time>
</trkpt>
<trkpt lat="39.6179330" lon="3.1150100">
<ele>96.07</ele>
<time>2016-10-18T12:58:52Z</time>
</trkpt>
<trkpt lat="39.6177388" lon="3.1151088">
<ele>95.50</ele>
<time>2016-10-18T12:58:57Z</time>
</trkpt>
<trkpt lat="39.6175303" lon="3.1151976">
<ele>96.50</ele>
<time>2016-10-18T12:59:02Z</time>
</trkpt>
<trkpt lat="39.6173274" lon="3.1152915">
<ele>96.73</ele>
<time>2016-10-18T12:59:07Z</time>
</trkpt>
<trkpt lat="39.6171340" lon="3.1153821">
<ele>96.01</ele>
<time>2016-10-18T12:59:12Z</time>
</trkpt>
<trkpt lat="39.6169585" lon="3.1154604">
<ele>98.21</ele>
<time>2016-10-18T12:59:17Z</time>
</trkpt>
<trkpt lat="39.6167537" lon="3.1155593">
<ele>100.60</ele>
<time>2016-10-18T12:59:22Z</time>
</trkpt>
<trkpt lat="39.6165563" lon="3.1156498">
<ele>100.53</ele>
<time>2016-10-18T12:59:27Z</time>
</trkpt>
<trkpt lat="39.6163433" lon="3.1157303">
<ele>98.41</ele>
<time>2016-10-18T12:59:32Z</time>
</trkpt>
<trkpt lat="39.6161410" lon="3.1158175">
<ele>95.77</ele>
<time>2016-10-18T12:59:37Z</time>
</trkpt>
<trkpt lat="39.6159672" lon="3.1158951">
<ele>96.25</ele>
<time>2016-10-18T12:59:41Z</time>
</trkpt>
<trkpt lat="39.6157872" lon="3.1159808">
<ele>98.09</ele>
<time>2016-10-18T12:59:46Z</time>
</trkpt>
<trkpt lat="39.6156260" lon="3.1160866">
<ele>98.33</ele>
<time>2016-10-18T12:59:52Z</time>
</trkpt>
<trkpt lat="39.6156284" lon="3.1163223">
<ele>97.07</ele>
<time>2016-10-18T12:59:57Z</time>
</trkpt>
<trkpt lat="39.6156609" lon="3.1166017">
<ele>95.57</ele>
<time>2016-10-18T13:00:02Z</time>
</trkpt>
<trkpt lat="39.6156651" lon="3.1168656">
<ele>97.93</ele>
<time>2016-10-18T13:00:06Z</time>
</trkpt>
<trkpt lat="39.6156741" lon="3.1171143">
<ele>100.07</ele>
<time>2016-10-18T13:00:10Z</time>
</trkpt>
<trkpt lat="39.6156917" lon="3.1173534">
<ele>103.41</ele>
<time>2016-10-18T13:00:14Z</time>
</trkpt>
<trkpt lat="39.6157059" lon="3.1176026">
<ele>104.16</ele>
<time>2016-10-18T13:00:18Z</time>
</trkpt>
<trkpt lat="39.6157340" lon="3.1178524">
<ele>104.56</ele>
<time>2016-10-18T13:00:22Z</time>
</trkpt>
<trkpt lat="39.6157762" lon="3.1181320">
<ele>104.29</ele>
<time>2016-10-18T13:00:27Z</time>
</trkpt>
<trkpt lat="39.6158078" lon="3.1183995">
<ele>104.67</ele>
<time>2016-10-18T13:00:31Z</time>
</trkpt>
<trkpt lat="39.6158362" lon="3.1186365">
<ele>105.92</ele>
<time>2016-10-18T13:00:35Z</time>
</trkpt>
<trkpt lat="39.6158742" lon="3.1188792">
<ele>105.07</ele>
<time>2016-10-18T13:00:39Z</time>
</trkpt>
<trkpt lat="39.6159147" lon="3.1191350">
<ele>104.22</ele>
<time>2016-10-18T13:00:43Z</time>
</trkpt>
<trkpt lat="39.6159571" lon="3.1193985">
<ele>103.32</ele>
<time>2016-10-18T13:00:47Z</time>
</trkpt>
<trkpt lat="39.6160166" lon="3.1196850">
<ele>102.97</ele>
<time>2016-10-18T13:00:51Z</time>
</trkpt>
<trkpt lat="39.6160743" lon="3.1199607">
<ele>103.04</ele>
<time>2016-10-18T13:00:55Z</time>
</trkpt>
<trkpt lat="39.6161223" lon="3.1202440">
<ele>103.76</ele>
<time>2016-10-18T13:01:00Z</time>
</trkpt>
<trkpt lat="39.6161914" lon="3.1205099">
<ele>105.26</ele>
<time>2016-10-18T13:01:04Z</time>
</trkpt>
<trkpt lat="39.6162959" lon="3.1207777">
<ele>106.29</ele>
<time>2016-10-18T13:01:08Z</time>
</trkpt>
<trkpt lat="39.6163881" lon="3.1209808">
<ele>105.66</ele>
<time>2016-10-18T13:01:11Z</time>
</trkpt>
<trkpt lat="39.6164997" lon="3.1212049">
<ele>104.55</ele>
<time>2016-10-18T13:01:14Z</time>
</trkpt>
<trkpt lat="39.6166109" lon="3.1214106">
<ele>101.78</ele>
<time>2016-10-18T13:01:17Z</time>
</trkpt>
<trkpt lat="39.6167275" lon="3.1215892">
<ele>99.81</ele>
<time>2016-10-18T13:01:20Z</time>
</trkpt>
<trkpt lat="39.6168510" lon="3.1218487">
<ele>97.33</ele>
<time>2016-10-18T13:01:24Z</time>
</trkpt>
<trkpt lat="39.6169578" lon="3.1220758">
<ele>96.85</ele>
<time>2016-10-18T13:01:28Z</time>
</trkpt>
<trkpt lat="39.6171426" lon="3.1220392">
<ele>95.40</ele>
<time>2016-10-18T13:01:32Z</time>
</trkpt>
<trkpt lat="39.6172580" lon="3.1218320">
<ele>94.63</ele>
<time>2016-10-18T13:01:35Z</time>
</trkpt>
<trkpt lat="39.6173730" lon="3.1216142">
<ele>94.51</ele>
<time>2016-10-18T13:01:38Z</time>
</trkpt>
<trkpt lat="39.6175071" lon="3.1214498">
<ele>94.10</ele>
<time>2016-10-18T13:01:41Z</time>
</trkpt>
<trkpt lat="39.6176568" lon="3.1212927">
<ele>94.94</ele>
<time>2016-10-18T13:01:44Z</time>
</trkpt>
<trkpt lat="39.6178239" lon="3.1211064">
<ele>96.51</ele>
<time>2016-10-18T13:01:47Z</time>
</trkpt>
<trkpt lat="39.6179769" lon="3.1209140">
<ele>97.44</ele>
<time>2016-10-18T13:01:50Z</time>
</trkpt>
<trkpt lat="39.6181323" lon="3.1207099">
<ele>97.09</ele>
<time>2016-10-18T13:01:53Z</time>
</trkpt>
<trkpt lat="39.6182704" lon="3.1205094">
<ele>96.98</ele>
<time>2016-10-18T13:01:56Z</time>
</trkpt>
<trkpt lat="39.6183905" lon="3.1203263">
<ele>97.74</ele>
<time>2016-10-18T13:01:59Z</time>
</trkpt>
<trkpt lat="39.6185356" lon="3.1200862">
<ele>97.89</ele>
<time>2016-10-18T13:02:03Z</time>
</trkpt>
<trkpt lat="39.6186695" lon="3.1198352">
<ele>97.14</ele>
<time>2016-10-18T13:02:07Z</time>
</trkpt>
<trkpt lat="39.6187740" lon="3.1196371">
<ele>95.92</ele>
<time>2016-10-18T13:02:10Z</time>
</trkpt>
<trkpt lat="39.6188990" lon="3.1193841">
<ele>94.94</ele>
<time>2016-10-18T13:02:14Z</time>
</trkpt>
<trkpt lat="39.6190155" lon="3.1191146">
<ele>94.10</ele>
<time>2016-10-18T13:02:18Z</time>
</trkpt>
<trkpt lat="39.6191014" lon="3.1188861">
<ele>93.93</ele>
<time>2016-10-18T13:02:21Z</time>
</trkpt>
<trkpt lat="39.6191988" lon="3.1186263">
<ele>93.41</ele>
<time>2016-10-18T13:02:25Z</time>
</trkpt>
<trkpt lat="39.6192833" lon="3.1183488">
<ele>92.50</ele>
<time>2016-10-18T13:02:29Z</time>
</trkpt>
<trkpt lat="39.6193627" lon="3.1180525">
<ele>94.07</ele>
<time>2016-10-18T13:02:33Z</time>
</trkpt>
<trkpt lat="39.6194221" lon="3.1178225">
<ele>95.37</ele>
<time>2016-10-18T13:02:36Z</time>
</trkpt>
<trkpt lat="39.6194781" lon="3.1175863">
<ele>95.62</ele>
<time>2016-10-18T13:02:39Z</time>
</trkpt>
<trkpt lat="39.6195477" lon="3.1173010">
<ele>95.01</ele>
<time>2016-10-18T13:02:43Z</time>
</trkpt>
<trkpt lat="39.6196129" lon="3.1170033">
<ele>94.86</ele>
<time>2016-10-18T13:02:47Z</time>
</trkpt>
<trkpt lat="39.6196558" lon="3.1167524">
<ele>95.06</ele>
<time>2016-10-18T13:02:50Z</time>
</trkpt>
<trkpt lat="39.6196939" lon="3.1164452">
<ele>94.39</ele>
<time>2016-10-18T13:02:54Z</time>
</trkpt>
<trkpt lat="39.6197259" lon="3.1161379">
<ele>94.63</ele>
<time>2016-10-18T13:02:58Z</time>
</trkpt>
<trkpt lat="39.6197500" lon="3.1158827">
<ele>94.70</ele>
<time>2016-10-18T13:03:01Z</time>
</trkpt>
<trkpt lat="39.6197478" lon="3.1156401">
<ele>93.69</ele>
<time>2016-10-18T13:03:04Z</time>
</trkpt>
<trkpt lat="39.6197460" lon="3.1153721">
<ele>90.43</ele>
<time>2016-10-18T13:03:07Z</time>
</trkpt>
<trkpt lat="39.6197481" lon="3.1151108">
<ele>88.03</ele>
<time>2016-10-18T13:03:10Z</time>
</trkpt>
<trkpt lat="39.6197590" lon="3.1148505">
<ele>86.17</ele>
<time>2016-10-18T13:03:13Z</time>
</trkpt>
<trkpt lat="39.6197747" lon="3.1145918">
<ele>84.84</ele>
<time>2016-10-18T13:03:16Z</time>
</trkpt>
<trkpt lat="39.6197948" lon="3.1143479">
<ele>84.71</ele>
<time>2016-10-18T13:03:19Z</time>
</trkpt>
<trkpt lat="39.6198238" lon="3.1141133">
<ele>86.40</ele>
<time>2016-10-18T13:03:22Z</time>
</trkpt>
<trkpt lat="39.6198411" lon="3.1138640">
<ele>86.67</ele>
<time>2016-10-18T13:03:25Z</time>
</trkpt>
<trkpt lat="39.6198539" lon="3.1135969">
<ele>85.85</ele>
<time>2016-10-18T13:03:28Z</time>
</trkpt>
<trkpt lat="39.6198657" lon="3.1133231">
<ele>83.81</ele>
<time>2016-10-18T13:03:31Z</time>
</trkpt>
<trkpt lat="39.6198953" lon="3.1130802">
<ele>83.00</ele>
<time>2016-10-18T13:03:34Z</time>
</trkpt>
<trkpt lat="39.6199367" lon="3.1128367">
<ele>82.97</ele>
<time>2016-10-18T13:03:37Z</time>
</trkpt>
<trkpt lat="39.6199897" lon="3.1125859">
<ele>82.19</ele>
<time>2016-10-18T13:03:40Z</time>
</trkpt>
<trkpt lat="39.6200534" lon="3.1123458">
<ele>82.45</ele>
<time>2016-10-18T13:03:43Z</time>
</trkpt>
<trkpt lat="39.6201363" lon="3.1121057">
<ele>82.43</ele>
<time>2016-10-18T13:03:46Z</time>
</trkpt>
<trkpt lat="39.6202290" lon="3.1118796">
<ele>81.91</ele>
<time>2016-10-18T13:03:49Z</time>
</trkpt>
<trkpt lat="39.6203254" lon="3.1116810">
<ele>81.47</ele>
<time>2016-10-18T13:03:52Z</time>
</trkpt>
<trkpt lat="39.6204736" lon="3.1114394">
<ele>81.52</ele>
<time>2016-10-18T13:03:56Z</time>
</trkpt>
<trkpt lat="39.6206066" lon="3.1112466">
<ele>81.75</ele>
<time>2016-10-18T13:03:59Z</time>
</trkpt>
<trkpt lat="39.6207406" lon="3.1110704">
<ele>82.35</ele>
<time>2016-10-18T13:04:02Z</time>
</trkpt>
<trkpt lat="39.6208910" lon="3.1108982">
<ele>81.68</ele>
<time>2016-10-18T13:04:05Z</time>
</trkpt>
<trkpt lat="39.6210722" lon="3.1107251">
<ele>81.30</ele>
<time>2016-10-18T13:04:09Z</time>
</trkpt>
<trkpt lat="39.6212439" lon="3.1106057">
<ele>84.07</ele>
<time>2016-10-18T13:04:12Z</time>
</trkpt>
<trkpt lat="39.6214095" lon="3.1105112">
<ele>86.78</ele>
<time>2016-10-18T13:04:15Z</time>
</trkpt>
<trkpt lat="39.6216288" lon="3.1104209">
<ele>88.82</ele>
<time>2016-10-18T13:04:19Z</time>
</trkpt>
<trkpt lat="39.6218024" lon="3.1103496">
<ele>90.84</ele>
<time>2016-10-18T13:04:22Z</time>
</trkpt>
<trkpt lat="39.6220085" lon="3.1102920">
<ele>92.12</ele>
<time>2016-10-18T13:04:26Z</time>
</trkpt>
<trkpt lat="39.6221942" lon="3.1102510">
<ele>92.13</ele>
<time>2016-10-18T13:04:29Z</time>
</trkpt>
<trkpt lat="39.6224148" lon="3.1102014">
<ele>92.97</ele>
<time>2016-10-18T13:04:33Z</time>
</trkpt>
<trkpt lat="39.6226338" lon="3.1101619">
<ele>95.11</ele>
<time>2016-10-18T13:04:37Z</time>
</trkpt>
<trkpt lat="39.6228575" lon="3.1101260">
<ele>96.64</ele>
<time>2016-10-18T13:04:41Z</time>
</trkpt>
<trkpt lat="39.6230622" lon="3.1100902">
<ele>97.31</ele>
<time>2016-10-18T13:04:45Z</time>
</trkpt>
<trkpt lat="39.6232826" lon="3.1100592">
<ele>97.59</ele>
<time>2016-10-18T13:04:49Z</time>
</trkpt>
<trkpt lat="39.6234949" lon="3.1100224">
<ele>97.08</ele>
<time>2016-10-18T13:04:52Z</time>
</trkpt>
<trkpt lat="39.6236951" lon="3.1099821">
<ele>97.74</ele>
<time>2016-10-18T13:04:56Z</time>
</trkpt>
<trkpt lat="39.6238859" lon="3.1099381">
<ele>98.44</ele>
<time>2016-10-18T13:05:00Z</time>
</trkpt>
<trkpt lat="39.6240706" lon="3.1098680">
<ele>98.74</ele>
<time>2016-10-18T13:05:03Z</time>
</trkpt>
<trkpt lat="39.6242886" lon="3.1097658">
<ele>99.34</ele>
<time>2016-10-18T13:05:07Z</time>
</trkpt>
<trkpt lat="39.6245005" lon="3.1096668">
<ele>97.39</ele>
<time>2016-10-18T13:05:11Z</time>
</trkpt>
<trkpt lat="39.6247145" lon="3.1095584">
<ele>96.93</ele>
<time>2016-10-18T13:05:15Z</time>
</trkpt>
<trkpt lat="39.6249290" lon="3.1094504">
<ele>96.30</ele>
<time>2016-10-18T13:05:19Z</time>
</trkpt>
<trkpt lat="39.6251431" lon="3.1093385">
<ele>96.19</ele>
<time>2016-10-18T13:05:23Z</time>
</trkpt>
<trkpt lat="39.6253092" lon="3.1092462">
<ele>96.92</ele>
<time>2016-10-18T13:05:26Z</time>
</trkpt>
<trkpt lat="39.6254782" lon="3.1091598">
<ele>97.88</ele>
<time>2016-10-18T13:05:29Z</time>
</trkpt>
<trkpt lat="39.6256530" lon="3.1090638">
<ele>99.37</ele>
<time>2016-10-18T13:05:32Z</time>
</trkpt>
<trkpt lat="39.6258276" lon="3.1089710">
<ele>100.32</ele>
<time>2016-10-18T13:05:35Z</time>
</trkpt>
<trkpt lat="39.6260010" lon="3.1088711">
<ele>100.65</ele>
<time>2016-10-18T13:05:38Z</time>
</trkpt>
<trkpt lat="39.6261983" lon="3.1087708">
<ele>99.98</ele>
<time>2016-10-18T13:05:41Z</time>
</trkpt>
<trkpt lat="39.6263960" lon="3.1086730">
<ele>98.63</ele>
<time>2016-10-18T13:05:44Z</time>
</trkpt>
<trkpt lat="39.6265712" lon="3.1085902">
<ele>98.06</ele>
<time>2016-10-18T13:05:47Z</time>
</trkpt>
<trkpt lat="39.6267977" lon="3.1084814">
<ele>97.66</ele>
<time>2016-10-18T13:05:51Z</time>
</trkpt>
<trkpt lat="39.6269747" lon="3.1084103">
<ele>96.04</ele>
<time>2016-10-18T13:05:54Z</time>
</trkpt>
<trkpt lat="39.6271551" lon="3.1083376">
<ele>94.66</ele>
<time>2016-10-18T13:05:57Z</time>
</trkpt>
<trkpt lat="39.6273390" lon="3.1082505">
<ele>93.27</ele>
<time>2016-10-18T13:06:00Z</time>
</trkpt>
<trkpt lat="39.6275096" lon="3.1081715">
<ele>92.82</ele>
<time>2016-10-18T13:06:03Z</time>
</trkpt>
<trkpt lat="39.6277245" lon="3.1080721">
<ele>93.28</ele>
<time>2016-10-18T13:06:07Z</time>
</trkpt>
<trkpt lat="39.6279436" lon="3.1079643">
<ele>92.77</ele>
<time>2016-10-18T13:06:11Z</time>
</trkpt>
<trkpt lat="39.6281656" lon="3.1078582">
<ele>92.47</ele>
<time>2016-10-18T13:06:15Z</time>
</trkpt>
<trkpt lat="39.6283469" lon="3.1077618">
<ele>91.79</ele>
<time>2016-10-18T13:06:18Z</time>
</trkpt>
<trkpt lat="39.6285165" lon="3.1076734">
<ele>91.12</ele>
<time>2016-10-18T13:06:21Z</time>
</trkpt>
<trkpt lat="39.6287315" lon="3.1075392">
<ele>93.40</ele>
<time>2016-10-18T13:06:25Z</time>
</trkpt>
<trkpt lat="39.6288987" lon="3.1074347">
<ele>94.91</ele>
<time>2016-10-18T13:06:28Z</time>
</trkpt>
<trkpt lat="39.6290755" lon="3.1073307">
<ele>95.58</ele>
<time>2016-10-18T13:06:31Z</time>
</trkpt>
<trkpt lat="39.6292526" lon="3.1072233">
<ele>95.99</ele>
<time>2016-10-18T13:06:34Z</time>
</trkpt>
<trkpt lat="39.6294387" lon="3.1071126">
<ele>95.64</ele>
<time>2016-10-18T13:06:37Z</time>
</trkpt>
<trkpt lat="39.6296225" lon="3.1069899">
<ele>95.29</ele>
<time>2016-10-18T13:06:40Z</time>
</trkpt>
<trkpt lat="39.6298018" lon="3.1068749">
<ele>95.28</ele>
<time>2016-10-18T13:06:43Z</time>
</trkpt>
<trkpt lat="39.6299742" lon="3.1067603">
<ele>95.46</ele>
<time>2016-10-18T13:06:46Z</time>
</trkpt>
<trkpt lat="39.6301432" lon="3.1066574">
<ele>95.09</ele>
<time>2016-10-18T13:06:49Z</time>
</trkpt>
<trkpt lat="39.6303131" lon="3.1065614">
<ele>95.30</ele>
<time>2016-10-18T13:06:52Z</time>
</trkpt>
<trkpt lat="39.6304951" lon="3.1064741">
<ele>95.71</ele>
<time>2016-10-18T13:06:55Z</time>
</trkpt>
<trkpt lat="39.6306880" lon="3.1063886">
<ele>95.92</ele>
<time>2016-10-18T13:06:58Z</time>
</trkpt>
<trkpt lat="39.6308799" lon="3.1063171">
<ele>95.79</ele>
<time>2016-10-18T13:07:01Z</time>
</trkpt>
<trkpt lat="39.6310699" lon="3.1062579">
<ele>95.94</ele>
<time>2016-10-18T13:07:04Z</time>
</trkpt>
<trkpt lat="39.6312558" lon="3.1062101">
<ele>96.05</ele>
<time>2016-10-18T13:07:07Z</time>
</trkpt>
<trkpt lat="39.6314363" lon="3.1061612">
<ele>96.77</ele>
<time>2016-10-18T13:07:10Z</time>
</trkpt>
<trkpt lat="39.6316709" lon="3.1061025">
<ele>97.25</ele>
<time>2016-10-18T13:07:14Z</time>
</trkpt>
<trkpt lat="39.6318520" lon="3.1060562">
<ele>97.36</ele>
<time>2016-10-18T13:07:17Z</time>
</trkpt>
<trkpt lat="39.6320427" lon="3.1060171">
<ele>97.18</ele>
<time>2016-10-18T13:07:20Z</time>
</trkpt>
<trkpt lat="39.6322199" lon="3.1059725">
<ele>97.16</ele>
<time>2016-10-18T13:07:23Z</time>
</trkpt>
<trkpt lat="39.6324140" lon="3.1059123">
<ele>97.91</ele>
<time>2016-10-18T13:07:26Z</time>
</trkpt>
<trkpt lat="39.6326023" lon="3.1058382">
<ele>98.17</ele>
<time>2016-10-18T13:07:29Z</time>
</trkpt>
<trkpt lat="39.6328009" lon="3.1057492">
<ele>97.50</ele>
<time>2016-10-18T13:07:32Z</time>
</trkpt>
<trkpt lat="39.6329855" lon="3.1056564">
<ele>96.44</ele>
<time>2016-10-18T13:07:35Z</time>
</trkpt>
<trkpt lat="39.6331661" lon="3.1055534">
<ele>95.47</ele>
<time>2016-10-18T13:07:38Z</time>
</trkpt>
<trkpt lat="39.6333513" lon="3.1054349">
<ele>94.92</ele>
<time>2016-10-18T13:07:41Z</time>
</trkpt>
<trkpt lat="39.6335303" lon="3.1053014">
<ele>92.94</ele>
<time>2016-10-18T13:07:44Z</time>
</trkpt>
<trkpt lat="39.6337013" lon="3.1051681">
<ele>91.12</ele>
<time>2016-10-18T13:07:47Z</time>
</trkpt>
<trkpt lat="39.6338700" lon="3.1050415">
<ele>91.51</ele>
<time>2016-10-18T13:07:50Z</time>
</trkpt>
<trkpt lat="39.6340346" lon="3.1049233">
<ele>92.00</ele>
<time>2016-10-18T13:07:53Z</time>
</trkpt>
<trkpt lat="39.6342061" lon="3.1047987">
<ele>92.64</ele>
<time>2016-10-18T13:07:56Z</time>
</trkpt>
<trkpt lat="39.6343864" lon="3.1046609">
<ele>92.18</ele>
<time>2016-10-18T13:07:59Z</time>
</trkpt>
<trkpt lat="39.6345717" lon="3.1045284">
<ele>92.14</ele>
<time>2016-10-18T13:08:02Z</time>
</trkpt>
<trkpt lat="39.6347433" lon="3.1044064">
<ele>90.81</ele>
<time>2016-10-18T13:08:05Z</time>
</trkpt>
<trkpt lat="39.6349417" lon="3.1042670">
<ele>88.73</ele>
<time>2016-10-18T13:08:08Z</time>
</trkpt>
<trkpt lat="39.6351303" lon="3.1041367">
<ele>87.54</ele>
<time>2016-10-18T13:08:11Z</time>
</trkpt>
<trkpt lat="39.6352906" lon="3.1040182">
<ele>87.50</ele>
<time>2016-10-18T13:08:14Z</time>
</trkpt>
<trkpt lat="39.6354782" lon="3.1038876">
<ele>88.88</ele>
<time>2016-10-18T13:08:17Z</time>
</trkpt>
<trkpt lat="39.6356526" lon="3.1037695">
<ele>90.67</ele>
<time>2016-10-18T13:08:20Z</time>
</trkpt>
<trkpt lat="39.6358344" lon="3.1036568">
<ele>91.18</ele>
<time>2016-10-18T13:08:23Z</time>
</trkpt>
<trkpt lat="39.6360149" lon="3.1035489">
<ele>91.47</ele>
<time>2016-10-18T13:08:26Z</time>
</trkpt>
<trkpt lat="39.6362017" lon="3.1034398">
<ele>91.75</ele>
<time>2016-10-18T13:08:29Z</time>
</trkpt>
<trkpt lat="39.6363684" lon="3.1033503">
<ele>91.40</ele>
<time>2016-10-18T13:08:32Z</time>
</trkpt>
<trkpt lat="39.6365526" lon="3.1032656">
<ele>90.45</ele>
<time>2016-10-18T13:08:35Z</time>
</trkpt>
<trkpt lat="39.6367417" lon="3.1031856">
<ele>89.13</ele>
<time>2016-10-18T13:08:38Z</time>
</trkpt>
<trkpt lat="39.6369143" lon="3.1031146">
<ele>88.42</ele>
<time>2016-10-18T13:08:41Z</time>
</trkpt>
<trkpt lat="39.6370989" lon="3.1030345">
<ele>88.57</ele>
<time>2016-10-18T13:08:44Z</time>
</trkpt>
<trkpt lat="39.6372788" lon="3.1029611">
<ele>89.94</ele>
<time>2016-10-18T13:08:47Z</time>
</trkpt>
<trkpt lat="39.6374650" lon="3.1028987">
<ele>90.95</ele>
<time>2016-10-18T13:08:50Z</time>
</trkpt>
<trkpt lat="39.6376460" lon="3.1028435">
<ele>90.94</ele>
<time>2016-10-18T13:08:53Z</time>
</trkpt>
<trkpt lat="39.6378267" lon="3.1027919">
<ele>91.14</ele>
<time>2016-10-18T13:08:56Z</time>
</trkpt>
<trkpt lat="39.6380666" lon="3.1027527">
<ele>88.58</ele>
<time>2016-10-18T13:09:00Z</time>
</trkpt>
<trkpt lat="39.6382572" lon="3.1027173">
<ele>89.22</ele>
<time>2016-10-18T13:09:03Z</time>
</trkpt>
<trkpt lat="39.6384527" lon="3.1026885">
<ele>89.22</ele>
<time>2016-10-18T13:09:06Z</time>
</trkpt>
<trkpt lat="39.6386466" lon="3.1026654">
<ele>89.59</ele>
<time>2016-10-18T13:09:09Z</time>
</trkpt>
<trkpt lat="39.6388470" lon="3.1026420">
<ele>89.20</ele>
<time>2016-10-18T13:09:12Z</time>
</trkpt>
<trkpt lat="39.6390394" lon="3.1026074">
<ele>89.58</ele>
<time>2016-10-18T13:09:15Z</time>
</trkpt>
<trkpt lat="39.6392322" lon="3.1025676">
<ele>89.20</ele>
<time>2016-10-18T13:09:18Z</time>
</trkpt>
<trkpt lat="39.6394129" lon="3.1025231">
<ele>88.95</ele>
<time>2016-10-18T13:09:21Z</time>
</trkpt>
<trkpt lat="39.6396043" lon="3.1024637">
<ele>89.32</ele>
<time>2016-10-18T13:09:24Z</time>
</trkpt>
<trkpt lat="39.6398022" lon="3.1023908">
<ele>89.53</ele>
<time>2016-10-18T13:09:27Z</time>
</trkpt>
<trkpt lat="39.6399976" lon="3.1023068">
<ele>90.06</ele>
<time>2016-10-18T13:09:30Z</time>
</trkpt>
<trkpt lat="39.6401840" lon="3.1022142">
<ele>90.08</ele>
<time>2016-10-18T13:09:33Z</time>
</trkpt>
<trkpt lat="39.6403582" lon="3.1021124">
<ele>90.31</ele>
<time>2016-10-18T13:09:36Z</time>
</trkpt>
<trkpt lat="39.6405268" lon="3.1020045">
<ele>90.07</ele>
<time>2016-10-18T13:09:39Z</time>
</trkpt>
<trkpt lat="39.6406994" lon="3.1018900">
<ele>89.25</ele>
<time>2016-10-18T13:09:42Z</time>
</trkpt>
<trkpt lat="39.6408768" lon="3.1017676">
<ele>87.73</ele>
<time>2016-10-18T13:09:45Z</time>
</trkpt>
<trkpt lat="39.6410622" lon="3.1016302">
<ele>85.69</ele>
<time>2016-10-18T13:09:48Z</time>
</trkpt>
<trkpt lat="39.6412637" lon="3.1014918">
<ele>83.16</ele>
<time>2016-10-18T13:09:52Z</time>
</trkpt>
<trkpt lat="39.6414434" lon="3.1013697">
<ele>82.04</ele>
<time>2016-10-18T13:09:55Z</time>
</trkpt>
<trkpt lat="39.6416019" lon="3.1012442">
<ele>82.82</ele>
<time>2016-10-18T13:09:58Z</time>
</trkpt>
<trkpt lat="39.6417550" lon="3.1011187">
<ele>84.50</ele>
<time>2016-10-18T13:10:01Z</time>
</trkpt>
<trkpt lat="39.6419269" lon="3.1009813">
<ele>84.85</ele>
<time>2016-10-18T13:10:04Z</time>
</trkpt>
<trkpt lat="39.6420954" lon="3.1008561">
<ele>85.00</ele>
<time>2016-10-18T13:10:07Z</time>
</trkpt>
<trkpt lat="39.6422631" lon="3.1007284">
<ele>85.54</ele>
<time>2016-10-18T13:10:10Z</time>
</trkpt>
<trkpt lat="39.6424693" lon="3.1005841">
<ele>86.47</ele>
<time>2016-10-18T13:10:14Z</time>
</trkpt>
<trkpt lat="39.6426431" lon="3.1004700">
<ele>87.04</ele>
<time>2016-10-18T13:10:17Z</time>
</trkpt>
<trkpt lat="39.6428191" lon="3.1003650">
<ele>88.07</ele>
<time>2016-10-18T13:10:20Z</time>
</trkpt>
<trkpt lat="39.6429995" lon="3.1002757">
<ele>88.69</ele>
<time>2016-10-18T13:10:23Z</time>
</trkpt>
<trkpt lat="39.6431732" lon="3.1002083">
<ele>88.79</ele>
<time>2016-10-18T13:10:26Z</time>
</trkpt>
<trkpt lat="39.6434075" lon="3.1001533">
<ele>89.09</ele>
<time>2016-10-18T13:10:30Z</time>
</trkpt>
<trkpt lat="39.6436389" lon="3.1001426">
<ele>89.28</ele>
<time>2016-10-18T13:10:34Z</time>
</trkpt>
<trkpt lat="39.6438553" lon="3.1001465">
<ele>92.10</ele>
<time>2016-10-18T13:10:38Z</time>
</trkpt>
<trkpt lat="39.6440679" lon="3.1001731">
<ele>93.76</ele>
<time>2016-10-18T13:10:42Z</time>
</trkpt>
<trkpt lat="39.6442907" lon="3.1002111">
<ele>93.46</ele>
<time>2016-10-18T13:10:46Z</time>
</trkpt>
<trkpt lat="39.6445063" lon="3.1002616">
<ele>93.21</ele>
<time>2016-10-18T13:10:50Z</time>
</trkpt>
<trkpt lat="39.6447349" lon="3.1003144">
<ele>92.36</ele>
<time>2016-10-18T13:10:54Z</time>
</trkpt>
<trkpt lat="39.6449614" lon="3.1003596">
<ele>90.01</ele>
<time>2016-10-18T13:10:58Z</time>
</trkpt>
<trkpt lat="39.6451762" lon="3.1003983">
<ele>88.81</ele>
<time>2016-10-18T13:11:02Z</time>
</trkpt>
<trkpt lat="39.6453758" lon="3.1004180">
<ele>90.41</ele>
<time>2016-10-18T13:11:06Z</time>
</trkpt>
<trkpt lat="39.6456144" lon="3.1004391">
<ele>91.79</ele>
<time>2016-10-18T13:11:10Z</time>
</trkpt>
<trkpt lat="39.6457917" lon="3.1005309">
<ele>91.47</ele>
<time>2016-10-18T13:11:13Z</time>
</trkpt>
<trkpt lat="39.6459969" lon="3.1006732">
<ele>88.43</ele>
<time>2016-10-18T13:11:17Z</time>
</trkpt>
<trkpt lat="39.6462044" lon="3.1006211">
<ele>83.60</ele>
<time>2016-10-18T13:11:21Z</time>
</trkpt>
<trkpt lat="39.6464066" lon="3.1004864">
<ele>82.16</ele>
<time>2016-10-18T13:11:25Z</time>
</trkpt>
<trkpt lat="39.6466413" lon="3.1004395">
<ele>83.93</ele>
<time>2016-10-18T13:11:29Z</time>
</trkpt>
<trkpt lat="39.6468262" lon="3.1004235">
<ele>86.33</ele>
<time>2016-10-18T13:11:32Z</time>
</trkpt>
<trkpt lat="39.6470386" lon="3.1003987">
<ele>90.01</ele>
<time>2016-10-18T13:11:36Z</time>
</trkpt>
<trkpt lat="39.6472673" lon="3.1003814">
<ele>91.92</ele>
<time>2016-10-18T13:11:40Z</time>
</trkpt>
<trkpt lat="39.6475012" lon="3.1003706">
<ele>91.61</ele>
<time>2016-10-18T13:11:44Z</time>
</trkpt>
<trkpt lat="39.6477218" lon="3.1003575">
<ele>91.45</ele>
<time>2016-10-18T13:11:48Z</time>
</trkpt>
<trkpt lat="39.6479301" lon="3.1003536">
<ele>92.63</ele>
<time>2016-10-18T13:11:52Z</time>
</trkpt>
<trkpt lat="39.6481417" lon="3.1003781">
<ele>94.03</ele>
<time>2016-10-18T13:11:56Z</time>
</trkpt>
<trkpt lat="39.6483645" lon="3.1004201">
<ele>93.82</ele>
<time>2016-10-18T13:12:00Z</time>
</trkpt>
<trkpt lat="39.6485662" lon="3.1005042">
<ele>91.50</ele>
<time>2016-10-18T13:12:04Z</time>
</trkpt>
<trkpt lat="39.6487446" lon="3.1005808">
<ele>89.69</ele>
<time>2016-10-18T13:12:07Z</time>
</trkpt>
<trkpt lat="39.6489577" lon="3.1006827">
<ele>86.82</ele>
<time>2016-10-18T13:12:11Z</time>
</trkpt>
<trkpt lat="39.6491391" lon="3.1007768">
<ele>80.39</ele>
<time>2016-10-18T13:12:15Z</time>
</trkpt>
<trkpt lat="39.6493193" lon="3.1008701">
<ele>73.53</ele>
<time>2016-10-18T13:12:19Z</time>
</trkpt>
<trkpt lat="39.6495073" lon="3.1009644">
<ele>67.78</ele>
<time>2016-10-18T13:12:23Z</time>
</trkpt>
<trkpt lat="39.6496847" lon="3.1010435">
<ele>63.60</ele>
<time>2016-10-18T13:12:27Z</time>
</trkpt>
<trkpt lat="39.6498753" lon="3.1011076">
<ele>62.58</ele>
<time>2016-10-18T13:12:32Z</time>
</trkpt>
<trkpt lat="39.6500724" lon="3.1011375">
<ele>63.33</ele>
<time>2016-10-18T13:12:38Z</time>
</trkpt>
<trkpt lat="39.6502522" lon="3.1011557">
<ele>63.84</ele>
<time>2016-10-18T13:12:44Z</time>
</trkpt>
<trkpt lat="39.6504409" lon="3.1011473">
<ele>64.50</ele>
<time>2016-10-18T13:12:50Z</time>
</trkpt>
<trkpt lat="39.6506295" lon="3.1011113">
<ele>67.23</ele>
<time>2016-10-18T13:12:55Z</time>
</trkpt>
<trkpt lat="39.6508192" lon="3.1010747">
<ele>68.31</ele>
<time>2016-10-18T13:13:00Z</time>
</trkpt>
<trkpt lat="39.6510320" lon="3.1010340">
<ele>68.28</ele>
<time>2016-10-18T13:13:05Z</time>
</trkpt>
<trkpt lat="39.6512080" lon="3.1009666">
<ele>68.21</ele>
<time>2016-10-18T13:13:10Z</time>
</trkpt>
<trkpt lat="39.6514004" lon="3.1008722">
<ele>69.04</ele>
<time>2016-10-18T13:13:17Z</time>
</trkpt>
<trkpt lat="39.6515806" lon="3.1009148">
<ele>69.05</ele>
<time>2016-10-18T13:13:25Z</time>
</trkpt>
<trkpt lat="39.6516636" lon="3.1006979">
<ele>74.19</ele>
<time>2016-10-18T13:15:11Z</time>
</trkpt>
<trkpt lat="39.6518239" lon="3.1005653">
<ele>91.34</ele>
<time>2016-10-18T13:15:15Z</time>
</trkpt>
<trkpt lat="39.6519933" lon="3.1004303">
<ele>97.59</ele>
<time>2016-10-18T13:15:19Z</time>
</trkpt>
<trkpt lat="39.6521588" lon="3.1003145">
<ele>99.18</ele>
<time>2016-10-18T13:15:22Z</time>
</trkpt>
<trkpt lat="39.6523375" lon="3.1001950">
<ele>99.59</ele>
<time>2016-10-18T13:15:25Z</time>
</trkpt>
<trkpt lat="39.6525315" lon="3.1000561">
<ele>99.82</ele>
<time>2016-10-18T13:15:28Z</time>
</trkpt>
<trkpt lat="39.6527415" lon="3.0998949">
<ele>99.71</ele>
<time>2016-10-18T13:15:31Z</time>
</trkpt>
<trkpt lat="39.6529711" lon="3.0997136">
<ele>99.29</ele>
<time>2016-10-18T13:15:34Z</time>
</trkpt>
<trkpt lat="39.6531361" lon="3.0995863">
<ele>97.96</ele>
<time>2016-10-18T13:15:36Z</time>
</trkpt>
<trkpt lat="39.6533693" lon="3.0994018">
<ele>96.82</ele>
<time>2016-10-18T13:15:39Z</time>
</trkpt>
<trkpt lat="39.6535399" lon="3.0992694">
<ele>95.90</ele>
<time>2016-10-18T13:15:41Z</time>
</trkpt>
<trkpt lat="39.6537148" lon="3.0991359">
<ele>95.09</ele>
<time>2016-10-18T13:15:43Z</time>
</trkpt>
<trkpt lat="39.6538970" lon="3.0989998">
<ele>94.20</ele>
<time>2016-10-18T13:15:45Z</time>
</trkpt>
<trkpt lat="39.6540846" lon="3.0988608">
<ele>93.06</ele>
<time>2016-10-18T13:15:47Z</time>
</trkpt>
<trkpt lat="39.6542802" lon="3.0987245">
<ele>91.73</ele>
<time>2016-10-18T13:15:49Z</time>
</trkpt>
<trkpt lat="39.6544815" lon="3.0985885">
<ele>90.29</ele>
<time>2016-10-18T13:15:51Z</time>
</trkpt>
<trkpt lat="39.6546843" lon="3.0984600">
<ele>88.59</ele>
<time>2016-10-18T13:15:53Z</time>
</trkpt>
<trkpt lat="39.6548840" lon="3.0983401">
<ele>87.08</ele>
<time>2016-10-18T13:15:55Z</time>
</trkpt>
<trkpt lat="39.6550992" lon="3.0982198">
<ele>85.29</ele>
<time>2016-10-18T13:15:57Z</time>
</trkpt>
<trkpt lat="39.6553198" lon="3.0980966">
<ele>83.30</ele>
<time>2016-10-18T13:15:59Z</time>
</trkpt>
<trkpt lat="39.6555415" lon="3.0979828">
<ele>81.59</ele>
<time>2016-10-18T13:16:01Z</time>
</trkpt>
<trkpt lat="39.6557641" lon="3.0978776">
<ele>80.14</ele>
<time>2016-10-18T13:16:03Z</time>
</trkpt>
<trkpt lat="39.6559884" lon="3.0977769">
<ele>78.92</ele>
<time>2016-10-18T13:16:05Z</time>
</trkpt>
<trkpt lat="39.6562015" lon="3.0976911">
<ele>77.88</ele>
<time>2016-10-18T13:16:07Z</time>
</trkpt>
<trkpt lat="39.6564079" lon="3.0976196">
<ele>76.92</ele>
<time>2016-10-18T13:16:09Z</time>
</trkpt>
<trkpt lat="39.6566043" lon="3.0975571">
<ele>75.94</ele>
<time>2016-10-18T13:16:11Z</time>
</trkpt>
<trkpt lat="39.6568010" lon="3.0974933">
<ele>75.22</ele>
<time>2016-10-18T13:16:13Z</time>
</trkpt>
<trkpt lat="39.6569809" lon="3.0974350">
<ele>74.82</ele>
<time>2016-10-18T13:16:15Z</time>
</trkpt>
<trkpt lat="39.6572431" lon="3.0973504">
<ele>74.51</ele>
<time>2016-10-18T13:16:18Z</time>
</trkpt>
<trkpt lat="39.6574897" lon="3.0972675">
<ele>74.75</ele>
<time>2016-10-18T13:16:21Z</time>
</trkpt>
<trkpt lat="39.6577217" lon="3.0971895">
<ele>74.79</ele>
<time>2016-10-18T13:16:24Z</time>
</trkpt>
<trkpt lat="39.6579474" lon="3.0971186">
<ele>74.21</ele>
<time>2016-10-18T13:16:27Z</time>
</trkpt>
<trkpt lat="39.6581790" lon="3.0970474">
<ele>74.32</ele>
<time>2016-10-18T13:16:30Z</time>
</trkpt>
<trkpt lat="39.6583832" lon="3.0970065">
<ele>74.46</ele>
<time>2016-10-18T13:16:33Z</time>
</trkpt>
<trkpt lat="39.6585976" lon="3.0969841">
<ele>74.15</ele>
<time>2016-10-18T13:16:36Z</time>
</trkpt>
<trkpt lat="39.6588100" lon="3.0969746">
<ele>73.57</ele>
<time>2016-10-18T13:16:39Z</time>
</trkpt>
<trkpt lat="39.6590244" lon="3.0969831">
<ele>73.25</ele>
<time>2016-10-18T13:16:42Z</time>
</trkpt>
<trkpt lat="39.6592350" lon="3.0970089">
<ele>73.21</ele>
<time>2016-10-18T13:16:45Z</time>
</trkpt>
<trkpt lat="39.6594521" lon="3.0970525">
<ele>70.66</ele>
<time>2016-10-18T13:16:48Z</time>
</trkpt>
<trkpt lat="39.6596571" lon="3.0970984">
<ele>68.14</ele>
<time>2016-10-18T13:16:51Z</time>
</trkpt>
<trkpt lat="39.6598389" lon="3.0971419">
<ele>67.97</ele>
<time>2016-10-18T13:16:54Z</time>
</trkpt>
<trkpt lat="39.6600264" lon="3.0971798">
<ele>69.21</ele>
<time>2016-10-18T13:16:57Z</time>
</trkpt>
<trkpt lat="39.6602241" lon="3.0972174">
<ele>69.76</ele>
<time>2016-10-18T13:17:00Z</time>
</trkpt>
<trkpt lat="39.6604109" lon="3.0972497">
<ele>70.30</ele>
<time>2016-10-18T13:17:03Z</time>
</trkpt>
<trkpt lat="39.6606054" lon="3.0972846">
<ele>70.45</ele>
<time>2016-10-18T13:17:06Z</time>
</trkpt>
<trkpt lat="39.6607958" lon="3.0973235">
<ele>69.15</ele>
<time>2016-10-18T13:17:09Z</time>
</trkpt>
<trkpt lat="39.6609852" lon="3.0973576">
<ele>68.55</ele>
<time>2016-10-18T13:17:12Z</time>
</trkpt>
<trkpt lat="39.6611661" lon="3.0973822">
<ele>69.17</ele>
<time>2016-10-18T13:17:15Z</time>
</trkpt>
<trkpt lat="39.6613459" lon="3.0974023">
<ele>70.89</ele>
<time>2016-10-18T13:17:18Z</time>
</trkpt>
<trkpt lat="39.6615792" lon="3.0974357">
<ele>73.36</ele>
<time>2016-10-18T13:17:22Z</time>
</trkpt>
<trkpt lat="39.6618180" lon="3.0974817">
<ele>72.73</ele>
<time>2016-10-18T13:17:26Z</time>
</trkpt>
<trkpt lat="39.6619974" lon="3.0975126">
<ele>72.83</ele>
<time>2016-10-18T13:17:29Z</time>
</trkpt>
<trkpt lat="39.6621811" lon="3.0975376">
<ele>73.34</ele>
<time>2016-10-18T13:17:32Z</time>
</trkpt>
<trkpt lat="39.6624002" lon="3.0975757">
<ele>73.18</ele>
<time>2016-10-18T13:17:36Z</time>
</trkpt>
<trkpt lat="39.6625975" lon="3.0976068">
<ele>72.99</ele>
<time>2016-10-18T13:17:39Z</time>
</trkpt>
<trkpt lat="39.6627775" lon="3.0976318">
<ele>73.30</ele>
<time>2016-10-18T13:17:42Z</time>
</trkpt>
<trkpt lat="39.6629709" lon="3.0976649">
<ele>72.78</ele>
<time>2016-10-18T13:17:45Z</time>
</trkpt>
<trkpt lat="39.6631661" lon="3.0976962">
<ele>73.05</ele>
<time>2016-10-18T13:17:48Z</time>
</trkpt>
<trkpt lat="39.6633636" lon="3.0977268">
<ele>73.92</ele>
<time>2016-10-18T13:17:51Z</time>
</trkpt>
<trkpt lat="39.6635474" lon="3.0977703">
<ele>73.00</ele>
<time>2016-10-18T13:17:54Z</time>
</trkpt>
<trkpt lat="39.6637316" lon="3.0978045">
<ele>71.96</ele>
<time>2016-10-18T13:17:57Z</time>
</trkpt>
<trkpt lat="39.6639521" lon="3.0978423">
<ele>73.14</ele>
<time>2016-10-18T13:18:01Z</time>
</trkpt>
<trkpt lat="39.6641452" lon="3.0978708">
<ele>74.07</ele>
<time>2016-10-18T13:18:04Z</time>
</trkpt>
<trkpt lat="39.6643328" lon="3.0978989">
<ele>74.85</ele>
<time>2016-10-18T13:18:07Z</time>
</trkpt>
<trkpt lat="39.6645182" lon="3.0979291">
<ele>75.19</ele>
<time>2016-10-18T13:18:10Z</time>
</trkpt>
<trkpt lat="39.6647025" lon="3.0979596">
<ele>75.02</ele>
<time>2016-10-18T13:18:13Z</time>
</trkpt>
<trkpt lat="39.6648889" lon="3.0979863">
<ele>75.09</ele>
<time>2016-10-18T13:18:16Z</time>
</trkpt>
<trkpt lat="39.6650867" lon="3.0980192">
<ele>75.20</ele>
<time>2016-10-18T13:18:19Z</time>
</trkpt>
<trkpt lat="39.6652922" lon="3.0980531">
<ele>76.00</ele>
<time>2016-10-18T13:18:22Z</time>
</trkpt>
<trkpt lat="39.6655069" lon="3.0980874">
<ele>75.47</ele>
<time>2016-10-18T13:18:25Z</time>
</trkpt>
<trkpt lat="39.6657317" lon="3.0981257">
<ele>75.26</ele>
<time>2016-10-18T13:18:28Z</time>
</trkpt>
<trkpt lat="39.6659632" lon="3.0981547">
<ele>75.49</ele>
<time>2016-10-18T13:18:31Z</time>
</trkpt>
<trkpt lat="39.6661717" lon="3.0981881">
<ele>75.39</ele>
<time>2016-10-18T13:18:34Z</time>
</trkpt>
<trkpt lat="39.6663652" lon="3.0982219">
<ele>74.63</ele>
<time>2016-10-18T13:18:37Z</time>
</trkpt>
<trkpt lat="39.6665479" lon="3.0982554">
<ele>73.77</ele>
<time>2016-10-18T13:18:40Z</time>
</trkpt>
<trkpt lat="39.6667270" lon="3.0982855">
<ele>73.02</ele>
<time>2016-10-18T13:18:43Z</time>
</trkpt>
<trkpt lat="39.6669076" lon="3.0983186">
<ele>72.25</ele>
<time>2016-10-18T13:18:46Z</time>
</trkpt>
<trkpt lat="39.6670919" lon="3.0983483">
<ele>71.88</ele>
<time>2016-10-18T13:18:49Z</time>
</trkpt>
<trkpt lat="39.6673296" lon="3.0983947">
<ele>71.30</ele>
<time>2016-10-18T13:18:53Z</time>
</trkpt>
<trkpt lat="39.6675161" lon="3.0984291">
<ele>71.04</ele>
<time>2016-10-18T13:18:56Z</time>
</trkpt>
<trkpt lat="39.6677034" lon="3.0984546">
<ele>71.34</ele>
<time>2016-10-18T13:18:59Z</time>
</trkpt>
<trkpt lat="39.6678910" lon="3.0984808">
<ele>71.97</ele>
<time>2016-10-18T13:19:02Z</time>
</trkpt>
<trkpt lat="39.6680726" lon="3.0985093">
<ele>71.98</ele>
<time>2016-10-18T13:19:05Z</time>
</trkpt>
<trkpt lat="39.6682526" lon="3.0985361">
<ele>71.95</ele>
<time>2016-10-18T13:19:08Z</time>
</trkpt>
<trkpt lat="39.6684463" lon="3.0985732">
<ele>71.67</ele>
<time>2016-10-18T13:19:11Z</time>
</trkpt>
<trkpt lat="39.6686682" lon="3.0986106">
<ele>71.38</ele>
<time>2016-10-18T13:19:15Z</time>
</trkpt>
<trkpt lat="39.6688497" lon="3.0986539">
<ele>71.26</ele>
<time>2016-10-18T13:19:18Z</time>
</trkpt>
<trkpt lat="39.6690788" lon="3.0987184">
<ele>68.67</ele>
<time>2016-10-18T13:19:22Z</time>
</trkpt>
<trkpt lat="39.6692615" lon="3.0987700">
<ele>66.87</ele>
<time>2016-10-18T13:19:25Z</time>
</trkpt>
<trkpt lat="39.6694556" lon="3.0988160">
<ele>65.80</ele>
<time>2016-10-18T13:19:28Z</time>
</trkpt>
<trkpt lat="39.6696357" lon="3.0988580">
<ele>63.97</ele>
<time>2016-10-18T13:19:31Z</time>
</trkpt>
<trkpt lat="39.6698722" lon="3.0989226">
<ele>61.07</ele>
<time>2016-10-18T13:19:35Z</time>
</trkpt>
<trkpt lat="39.6700556" lon="3.0989696">
<ele>59.94</ele>
<time>2016-10-18T13:19:38Z</time>
</trkpt>
<trkpt lat="39.6702700" lon="3.0989980">
<ele>56.84</ele>
<time>2016-10-18T13:19:41Z</time>
</trkpt>
<trkpt lat="39.6704819" lon="3.0990224">
<ele>51.19</ele>
<time>2016-10-18T13:19:44Z</time>
</trkpt>
<trkpt lat="39.6706839" lon="3.0990433">
<ele>44.83</ele>
<time>2016-10-18T13:19:47Z</time>
</trkpt>
<trkpt lat="39.6708708" lon="3.0990628">
<ele>40.78</ele>
<time>2016-10-18T13:19:50Z</time>
</trkpt>
<trkpt lat="39.6710944" lon="3.0990871">
<ele>35.83</ele>
<time>2016-10-18T13:19:54Z</time>
</trkpt>
<trkpt lat="39.6712757" lon="3.0991100">
<ele>32.09</ele>
<time>2016-10-18T13:19:57Z</time>
</trkpt>
<trkpt lat="39.6715070" lon="3.0991680">
<ele>27.96</ele>
<time>2016-10-18T13:20:01Z</time>
</trkpt>
<trkpt lat="39.6716970" lon="3.0991974">
<ele>27.82</ele>
<time>2016-10-18T13:20:05Z</time>
</trkpt>
<trkpt lat="39.6719141" lon="3.0992445">
<ele>27.92</ele>
<time>2016-10-18T13:20:10Z</time>
</trkpt>
<trkpt lat="39.6721202" lon="3.0992865">
<ele>26.78</ele>
<time>2016-10-18T13:20:15Z</time>
</trkpt>
<trkpt lat="39.6723120" lon="3.0993338">
<ele>26.51</ele>
<time>2016-10-18T13:20:19Z</time>
</trkpt>
<trkpt lat="39.6725312" lon="3.0993682">
<ele>25.86</ele>
<time>2016-10-18T13:20:24Z</time>
</trkpt>
<trkpt lat="39.6727332" lon="3.0994206">
<ele>27.61</ele>
<time>2016-10-18T13:20:29Z</time>
</trkpt>
<trkpt lat="39.6729108" lon="3.0994633">
<ele>28.25</ele>
<time>2016-10-18T13:20:33Z</time>
</trkpt>
<trkpt lat="39.6731276" lon="3.0994966">
<ele>32.34</ele>
<time>2016-10-18T13:20:38Z</time>
</trkpt>
<trkpt lat="39.6733131" lon="3.0995379">
<ele>32.83</ele>
<time>2016-10-18T13:20:42Z</time>
</trkpt>
<trkpt lat="39.6735192" lon="3.0995729">
<ele>31.97</ele>
<time>2016-10-18T13:20:46Z</time>
</trkpt>
<trkpt lat="39.6737325" lon="3.0995942">
<ele>29.44</ele>
<time>2016-10-18T13:20:50Z</time>
</trkpt>
<trkpt lat="39.6739228" lon="3.0996093">
<ele>27.08</ele>
<time>2016-10-18T13:20:54Z</time>
</trkpt>
<trkpt lat="39.6741201" lon="3.0996306">
<ele>28.01</ele>
<time>2016-10-18T13:20:59Z</time>
</trkpt>
<trkpt lat="39.6743032" lon="3.0996639">
<ele>30.34</ele>
<time>2016-10-18T13:21:03Z</time>
</trkpt>
<trkpt lat="39.6745146" lon="3.0996835">
<ele>38.19</ele>
<time>2016-10-18T13:21:09Z</time>
</trkpt>
<trkpt lat="39.6747279" lon="3.0996837">
<ele>54.71</ele>
<time>2016-10-18T13:21:14Z</time>
</trkpt>
<trkpt lat="39.6749151" lon="3.0996902">
<ele>67.30</ele>
<time>2016-10-18T13:21:18Z</time>
</trkpt>
<trkpt lat="39.6751013" lon="3.0996878">
<ele>75.00</ele>
<time>2016-10-18T13:21:22Z</time>
</trkpt>
<trkpt lat="39.6753179" lon="3.0997075">
<ele>79.29</ele>
<time>2016-10-18T13:21:26Z</time>
</trkpt>
<trkpt lat="39.6755466" lon="3.0997394">
<ele>81.43</ele>
<time>2016-10-18T13:21:30Z</time>
</trkpt>
<trkpt lat="39.6757833" lon="3.0997673">
<ele>80.88</ele>
<time>2016-10-18T13:21:34Z</time>
</trkpt>
<trkpt lat="39.6760152" lon="3.0998041">
<ele>80.52</ele>
<time>2016-10-18T13:21:37Z</time>
</trkpt>
<trkpt lat="39.6762475" lon="3.0998428">
<ele>80.30</ele>
<time>2016-10-18T13:21:41Z</time>
</trkpt>
<trkpt lat="39.6764722" lon="3.0998920">
<ele>81.31</ele>
<time>2016-10-18T13:21:45Z</time>
</trkpt>
<trkpt lat="39.6767023" lon="3.0999350">
<ele>82.80</ele>
<time>2016-10-18T13:21:49Z</time>
</trkpt>
<trkpt lat="39.6769303" lon="3.0999748">
<ele>81.81</ele>
<time>2016-10-18T13:21:53Z</time>
</trkpt>
<trkpt lat="39.6771622" lon="3.1000254">
<ele>79.43</ele>
<time>2016-10-18T13:21:57Z</time>
</trkpt>
<trkpt lat="39.6773779" lon="3.1000676">
<ele>77.71</ele>
<time>2016-10-18T13:22:01Z</time>
</trkpt>
<trkpt lat="39.6776020" lon="3.1000887">
<ele>79.64</ele>
<time>2016-10-18T13:22:05Z</time>
</trkpt>
<trkpt lat="39.6778271" lon="3.1000844">
<ele>82.21</ele>
<time>2016-10-18T13:22:09Z</time>
</trkpt>
<trkpt lat="39.6780645" lon="3.1000710">
<ele>83.53</ele>
<time>2016-10-18T13:22:13Z</time>
</trkpt>
<trkpt lat="39.6782537" lon="3.1000586">
<ele>83.79</ele>
<time>2016-10-18T13:22:16Z</time>
</trkpt>
<trkpt lat="39.6784864" lon="3.1000457">
<ele>84.19</ele>
<time>2016-10-18T13:22:20Z</time>
</trkpt>
<trkpt lat="39.6787146" lon="3.1000349">
<ele>85.53</ele>
<time>2016-10-18T13:22:24Z</time>
</trkpt>
<trkpt lat="39.6789437" lon="3.1000289">
<ele>85.03</ele>
<time>2016-10-18T13:22:28Z</time>
</trkpt>
<trkpt lat="39.6791770" lon="3.1000194">
<ele>83.25</ele>
<time>2016-10-18T13:22:32Z</time>
</trkpt>
<trkpt lat="39.6794150" lon="3.1000101">
<ele>82.46</ele>
<time>2016-10-18T13:22:36Z</time>
</trkpt>
<trkpt lat="39.6796414" lon="3.0999872">
<ele>83.41</ele>
<time>2016-10-18T13:22:40Z</time>
</trkpt>
<trkpt lat="39.6798633" lon="3.0999748">
<ele>82.01</ele>
<time>2016-10-18T13:22:44Z</time>
</trkpt>
<trkpt lat="39.6800654" lon="3.0999733">
<ele>78.98</ele>
<time>2016-10-18T13:22:48Z</time>
</trkpt>
<trkpt lat="39.6802652" lon="3.0999769">
<ele>76.10</ele>
<time>2016-10-18T13:22:51Z</time>
</trkpt>
<trkpt lat="39.6804968" lon="3.0999989">
<ele>76.79</ele>
<time>2016-10-18T13:22:55Z</time>
</trkpt>
<trkpt lat="39.6807109" lon="3.1000316">
<ele>79.29</ele>
<time>2016-10-18T13:22:59Z</time>
</trkpt>
<trkpt lat="39.6809448" lon="3.1000769">
<ele>82.41</ele>
<time>2016-10-18T13:23:03Z</time>
</trkpt>
<trkpt lat="39.6811742" lon="3.1001305">
<ele>79.22</ele>
<time>2016-10-18T13:23:07Z</time>
</trkpt>
<trkpt lat="39.6814046" lon="3.1001619">
<ele>75.06</ele>
<time>2016-10-18T13:23:11Z</time>
</trkpt>
<trkpt lat="39.6815821" lon="3.1002008">
<ele>70.81</ele>
<time>2016-10-18T13:23:14Z</time>
</trkpt>
<trkpt lat="39.6817734" lon="3.1002557">
<ele>65.71</ele>
<time>2016-10-18T13:23:17Z</time>
</trkpt>
<trkpt lat="39.6819912" lon="3.1003194">
<ele>58.41</ele>
<time>2016-10-18T13:23:20Z</time>
</trkpt>
<trkpt lat="39.6821963" lon="3.1003850">
<ele>52.84</ele>
<time>2016-10-18T13:23:23Z</time>
</trkpt>
<trkpt lat="39.6824006" lon="3.1004494">
<ele>49.09</ele>
<time>2016-10-18T13:23:26Z</time>
</trkpt>
<trkpt lat="39.6825862" lon="3.1005001">
<ele>45.67</ele>
<time>2016-10-18T13:23:29Z</time>
</trkpt>
<trkpt lat="39.6827791" lon="3.1005500">
<ele>43.61</ele>
<time>2016-10-18T13:23:32Z</time>
</trkpt>
<trkpt lat="39.6829707" lon="3.1005964">
<ele>41.99</ele>
<time>2016-10-18T13:23:35Z</time>
</trkpt>
<trkpt lat="39.6832022" lon="3.1006441">
<ele>40.33</ele>
<time>2016-10-18T13:23:39Z</time>
</trkpt>
<trkpt lat="39.6834383" lon="3.1006933">
<ele>40.99</ele>
<time>2016-10-18T13:23:43Z</time>
</trkpt>
<trkpt lat="39.6836287" lon="3.1007439">
<ele>41.42</ele>
<time>2016-10-18T13:23:46Z</time>
</trkpt>
<trkpt lat="39.6838134" lon="3.1007889">
<ele>40.66</ele>
<time>2016-10-18T13:23:49Z</time>
</trkpt>
<trkpt lat="39.6840131" lon="3.1008421">
<ele>39.17</ele>
<time>2016-10-18T13:23:52Z</time>
</trkpt>
<trkpt lat="39.6842328" lon="3.1008896">
<ele>37.64</ele>
<time>2016-10-18T13:23:56Z</time>
</trkpt>
<trkpt lat="39.6844540" lon="3.1009323">
<ele>39.07</ele>
<time>2016-10-18T13:24:00Z</time>
</trkpt>
<trkpt lat="39.6846900" lon="3.1009729">
<ele>41.16</ele>
<time>2016-10-18T13:24:04Z</time>
</trkpt>
<trkpt lat="39.6848714" lon="3.1010032">
<ele>42.31</ele>
<time>2016-10-18T13:24:07Z</time>
</trkpt>
<trkpt lat="39.6850648" lon="3.1010411">
<ele>42.90</ele>
<time>2016-10-18T13:24:10Z</time>
</trkpt>
<trkpt lat="39.6852708" lon="3.1010940">
<ele>41.81</ele>
<time>2016-10-18T13:24:13Z</time>
</trkpt>
<trkpt lat="39.6854514" lon="3.1011412">
<ele>40.72</ele>
<time>2016-10-18T13:24:16Z</time>
</trkpt>
<trkpt lat="39.6856810" lon="3.1011911">
<ele>40.30</ele>
<time>2016-10-18T13:24:20Z</time>
</trkpt>
<trkpt lat="39.6858612" lon="3.1012373">
<ele>40.31</ele>
<time>2016-10-18T13:24:23Z</time>
</trkpt>
<trkpt lat="39.6860530" lon="3.1012783">
<ele>40.05</ele>
<time>2016-10-18T13:24:26Z</time>
</trkpt>
<trkpt lat="39.6862733" lon="3.1013206">
<ele>40.92</ele>
<time>2016-10-18T13:24:30Z</time>
</trkpt>
<trkpt lat="39.6864956" lon="3.1013603">
<ele>42.29</ele>
<time>2016-10-18T13:24:34Z</time>
</trkpt>
<trkpt lat="39.6866753" lon="3.1013945">
<ele>42.77</ele>
<time>2016-10-18T13:24:37Z</time>
</trkpt>
<trkpt lat="39.6868658" lon="3.1014390">
<ele>43.24</ele>
<time>2016-10-18T13:24:40Z</time>
</trkpt>
<trkpt lat="39.6870562" lon="3.1014808">
<ele>43.35</ele>
<time>2016-10-18T13:24:43Z</time>
</trkpt>
<trkpt lat="39.6872673" lon="3.1015335">
<ele>42.36</ele>
<time>2016-10-18T13:24:46Z</time>
</trkpt>
<trkpt lat="39.6874580" lon="3.1015797">
<ele>40.02</ele>
<time>2016-10-18T13:24:49Z</time>
</trkpt>
<trkpt lat="39.6876838" lon="3.1016268">
<ele>40.35</ele>
<time>2016-10-18T13:24:53Z</time>
</trkpt>
<trkpt lat="39.6878736" lon="3.1016673">
<ele>41.31</ele>
<time>2016-10-18T13:24:56Z</time>
</trkpt>
<trkpt lat="39.6880637" lon="3.1017110">
<ele>41.01</ele>
<time>2016-10-18T13:24:59Z</time>
</trkpt>
<trkpt lat="39.6882557" lon="3.1017528">
<ele>40.77</ele>
<time>2016-10-18T13:25:02Z</time>
</trkpt>
<trkpt lat="39.6884586" lon="3.1018030">
<ele>39.93</ele>
<time>2016-10-18T13:25:05Z</time>
</trkpt>
<trkpt lat="39.6886391" lon="3.1018375">
<ele>38.87</ele>
<time>2016-10-18T13:25:08Z</time>
</trkpt>
<trkpt lat="39.6888566" lon="3.1018735">
<ele>41.35</ele>
<time>2016-10-18T13:25:12Z</time>
</trkpt>
<trkpt lat="39.6890528" lon="3.1019163">
<ele>42.28</ele>
<time>2016-10-18T13:25:15Z</time>
</trkpt>
<trkpt lat="39.6892471" lon="3.1019596">
<ele>41.63</ele>
<time>2016-10-18T13:25:18Z</time>
</trkpt>
<trkpt lat="39.6894413" lon="3.1020075">
<ele>40.21</ele>
<time>2016-10-18T13:25:21Z</time>
</trkpt>
<trkpt lat="39.6896730" lon="3.1020545">
<ele>39.39</ele>
<time>2016-10-18T13:25:25Z</time>
</trkpt>
<trkpt lat="39.6898605" lon="3.1020930">
<ele>40.21</ele>
<time>2016-10-18T13:25:28Z</time>
</trkpt>
<trkpt lat="39.6901003" lon="3.1021461">
<ele>40.87</ele>
<time>2016-10-18T13:25:32Z</time>
</trkpt>
<trkpt lat="39.6903299" lon="3.1021948">
<ele>40.27</ele>
<time>2016-10-18T13:25:36Z</time>
</trkpt>
<trkpt lat="39.6905166" lon="3.1022321">
<ele>40.23</ele>
<time>2016-10-18T13:25:39Z</time>
</trkpt>
<trkpt lat="39.6906982" lon="3.1022673">
<ele>39.92</ele>
<time>2016-10-18T13:25:42Z</time>
</trkpt>
<trkpt lat="39.6909358" lon="3.1023118">
<ele>41.73</ele>
<time>2016-10-18T13:25:46Z</time>
</trkpt>
<trkpt lat="39.6911164" lon="3.1023480">
<ele>43.19</ele>
<time>2016-10-18T13:25:49Z</time>
</trkpt>
<trkpt lat="39.6913406" lon="3.1023954">
<ele>44.67</ele>
<time>2016-10-18T13:25:53Z</time>
</trkpt>
<trkpt lat="39.6915745" lon="3.1024444">
<ele>46.44</ele>
<time>2016-10-18T13:25:57Z</time>
</trkpt>
<trkpt lat="39.6917550" lon="3.1024804">
<ele>46.62</ele>
<time>2016-10-18T13:26:00Z</time>
</trkpt>
<trkpt lat="39.6919341" lon="3.1025200">
<ele>46.62</ele>
<time>2016-10-18T13:26:03Z</time>
</trkpt>
<trkpt lat="39.6921171" lon="3.1025622">
<ele>47.02</ele>
<time>2016-10-18T13:26:06Z</time>
</trkpt>
<trkpt lat="39.6922984" lon="3.1025986">
<ele>46.93</ele>
<time>2016-10-18T13:26:09Z</time>
</trkpt>
<trkpt lat="39.6924835" lon="3.1026251">
<ele>46.61</ele>
<time>2016-10-18T13:26:12Z</time>
</trkpt>
<trkpt lat="39.6926754" lon="3.1026537">
<ele>46.73</ele>
<time>2016-10-18T13:26:15Z</time>
</trkpt>
<trkpt lat="39.6928546" lon="3.1026819">
<ele>47.77</ele>
<time>2016-10-18T13:26:18Z</time>
</trkpt>
<trkpt lat="39.6930856" lon="3.1027270">
<ele>49.04</ele>
<time>2016-10-18T13:26:22Z</time>
</trkpt>
<trkpt lat="39.6933246" lon="3.1027845">
<ele>49.77</ele>
<time>2016-10-18T13:26:26Z</time>
</trkpt>
<trkpt lat="39.6935223" lon="3.1028350">
<ele>48.75</ele>
<time>2016-10-18T13:26:29Z</time>
</trkpt>
<trkpt lat="39.6937115" lon="3.1028852">
<ele>47.71</ele>
<time>2016-10-18T13:26:32Z</time>
</trkpt>
<trkpt lat="39.6939436" lon="3.1029363">
<ele>48.48</ele>
<time>2016-10-18T13:26:36Z</time>
</trkpt>
<trkpt lat="39.6941782" lon="3.1029795">
<ele>49.68</ele>
<time>2016-10-18T13:26:40Z</time>
</trkpt>
<trkpt lat="39.6943654" lon="3.1030063">
<ele>50.28</ele>
<time>2016-10-18T13:26:43Z</time>
</trkpt>
<trkpt lat="39.6945500" lon="3.1030162">
<ele>49.39</ele>
<time>2016-10-18T13:26:46Z</time>
</trkpt>
<trkpt lat="39.6947365" lon="3.1029757">
<ele>47.38</ele>
<time>2016-10-18T13:26:49Z</time>
</trkpt>
<trkpt lat="39.6949217" lon="3.1028765">
<ele>46.20</ele>
<time>2016-10-18T13:26:52Z</time>
</trkpt>
<trkpt lat="39.6951101" lon="3.1027492">
<ele>44.87</ele>
<time>2016-10-18T13:26:55Z</time>
</trkpt>
<trkpt lat="39.6952882" lon="3.1025944">
<ele>44.19</ele>
<time>2016-10-18T13:26:58Z</time>
</trkpt>
<trkpt lat="39.6954608" lon="3.1024150">
<ele>43.27</ele>
<time>2016-10-18T13:27:01Z</time>
</trkpt>
<trkpt lat="39.6956219" lon="3.1022428">
<ele>44.11</ele>
<time>2016-10-18T13:27:04Z</time>
</trkpt>
<trkpt lat="39.6957654" lon="3.1020797">
<ele>46.67</ele>
<time>2016-10-18T13:27:07Z</time>
</trkpt>
<trkpt lat="39.6959177" lon="3.1019200">
<ele>50.65</ele>
<time>2016-10-18T13:27:10Z</time>
</trkpt>
<trkpt lat="39.6960632" lon="3.1017555">
<ele>52.99</ele>
<time>2016-10-18T13:27:13Z</time>
</trkpt>
<trkpt lat="39.6962133" lon="3.1015763">
<ele>55.44</ele>
<time>2016-10-18T13:27:16Z</time>
</trkpt>
<trkpt lat="39.6963627" lon="3.1014094">
<ele>58.69</ele>
<time>2016-10-18T13:27:19Z</time>
</trkpt>
<trkpt lat="39.6965518" lon="3.1012252">
<ele>60.41</ele>
<time>2016-10-18T13:27:23Z</time>
</trkpt>
<trkpt lat="39.6967101" lon="3.1010810">
<ele>59.11</ele>
<time>2016-10-18T13:27:26Z</time>
</trkpt>
<trkpt lat="39.6968827" lon="3.1009236">
<ele>57.41</ele>
<time>2016-10-18T13:27:29Z</time>
</trkpt>
<trkpt lat="39.6970735" lon="3.1007781">
<ele>53.29</ele>
<time>2016-10-18T13:27:32Z</time>
</trkpt>
<trkpt lat="39.6972977" lon="3.1007329">
<ele>51.13</ele>
<time>2016-10-18T13:27:36Z</time>
</trkpt>
<trkpt lat="39.6974785" lon="3.1007300">
<ele>54.25</ele>
<time>2016-10-18T13:27:39Z</time>
</trkpt>
<trkpt lat="39.6976996" lon="3.1007629">
<ele>55.99</ele>
<time>2016-10-18T13:27:42Z</time>
</trkpt>
<trkpt lat="39.6979066" lon="3.1008305">
<ele>58.14</ele>
<time>2016-10-18T13:27:45Z</time>
</trkpt>
<trkpt lat="39.6980898" lon="3.1009090">
<ele>62.48</ele>
<time>2016-10-18T13:27:48Z</time>
</trkpt>
<trkpt lat="39.6982764" lon="3.1009960">
<ele>68.54</ele>
<time>2016-10-18T13:27:51Z</time>
</trkpt>
<trkpt lat="39.6984556" lon="3.1010699">
<ele>74.92</ele>
<time>2016-10-18T13:27:54Z</time>
</trkpt>
<trkpt lat="39.6986461" lon="3.1011496">
<ele>79.60</ele>
<time>2016-10-18T13:27:57Z</time>
</trkpt>
<trkpt lat="39.6988274" lon="3.1012041">
<ele>82.54</ele>
<time>2016-10-18T13:28:00Z</time>
</trkpt>
<trkpt lat="39.6990215" lon="3.1012263">
<ele>84.63</ele>
<time>2016-10-18T13:28:03Z</time>
</trkpt>
<trkpt lat="39.6992408" lon="3.1012311">
<ele>86.09</ele>
<time>2016-10-18T13:28:06Z</time>
</trkpt>
<trkpt lat="39.6994255" lon="3.1012274">
<ele>86.66</ele>
<time>2016-10-18T13:28:09Z</time>
</trkpt>
<trkpt lat="39.6996172" lon="3.1012261">
<ele>86.98</ele>
<time>2016-10-18T13:28:12Z</time>
</trkpt>
<trkpt lat="39.6998076" lon="3.1012256">
<ele>86.48</ele>
<time>2016-10-18T13:28:15Z</time>
</trkpt>
<trkpt lat="39.6999932" lon="3.1012107">
<ele>85.00</ele>
<time>2016-10-18T13:28:18Z</time>
</trkpt>
<trkpt lat="39.7001794" lon="3.1012008">
<ele>83.98</ele>
<time>2016-10-18T13:28:21Z</time>
</trkpt>
<trkpt lat="39.7003794" lon="3.1011904">
<ele>84.24</ele>
<time>2016-10-18T13:28:24Z</time>
</trkpt>
<trkpt lat="39.7005730" lon="3.1011766">
<ele>83.86</ele>
<time>2016-10-18T13:28:27Z</time>
</trkpt>
<trkpt lat="39.7007725" lon="3.1011698">
<ele>83.19</ele>
<time>2016-10-18T13:28:30Z</time>
</trkpt>
<trkpt lat="39.7009579" lon="3.1011643">
<ele>81.85</ele>
<time>2016-10-18T13:28:33Z</time>
</trkpt>
<trkpt lat="39.7011490" lon="3.1011520">
<ele>81.24</ele>
<time>2016-10-18T13:28:36Z</time>
</trkpt>
<trkpt lat="39.7013388" lon="3.1011495">
<ele>81.47</ele>
<time>2016-10-18T13:28:39Z</time>
</trkpt>
<trkpt lat="39.7015327" lon="3.1011487">
<ele>81.61</ele>
<time>2016-10-18T13:28:42Z</time>
</trkpt>
<trkpt lat="39.7017208" lon="3.1011458">
<ele>82.62</ele>
<time>2016-10-18T13:28:45Z</time>
</trkpt>
<trkpt lat="39.7019565" lon="3.1011235">
<ele>84.51</ele>
<time>2016-10-18T13:28:49Z</time>
</trkpt>
<trkpt lat="39.7021687" lon="3.1010809">
<ele>79.68</ele>
<time>2016-10-18T13:28:53Z</time>
</trkpt>
<trkpt lat="39.7024035" lon="3.1010182">
<ele>71.85</ele>
<time>2016-10-18T13:28:56Z</time>
</trkpt>
<trkpt lat="39.7026408" lon="3.1009405">
<ele>66.69</ele>
<time>2016-10-18T13:28:59Z</time>
</trkpt>
<trkpt lat="39.7028782" lon="3.1008542">
<ele>63.35</ele>
<time>2016-10-18T13:29:02Z</time>
</trkpt>
<trkpt lat="39.7031015" lon="3.1007589">
<ele>60.75</ele>
<time>2016-10-18T13:29:05Z</time>
</trkpt>
<trkpt lat="39.7033301" lon="3.1006518">
<ele>59.87</ele>
<time>2016-10-18T13:29:08Z</time>
</trkpt>
<trkpt lat="39.7035274" lon="3.1005641">
<ele>61.12</ele>
<time>2016-10-18T13:29:10Z</time>
</trkpt>
<trkpt lat="39.7037022" lon="3.1004894">
<ele>63.65</ele>
<time>2016-10-18T13:29:12Z</time>
</trkpt>
<trkpt lat="39.7038819" lon="3.1004637">
<ele>65.57</ele>
<time>2016-10-18T13:29:14Z</time>
</trkpt>
<trkpt lat="39.7041420" lon="3.1004898">
<ele>67.49</ele>
<time>2016-10-18T13:29:17Z</time>
</trkpt>
<trkpt lat="39.7043901" lon="3.1005555">
<ele>70.14</ele>
<time>2016-10-18T13:29:20Z</time>
</trkpt>
<trkpt lat="39.7046375" lon="3.1006498">
<ele>71.77</ele>
<time>2016-10-18T13:29:23Z</time>
</trkpt>
<trkpt lat="39.7048886" lon="3.1007355">
<ele>72.11</ele>
<time>2016-10-18T13:29:26Z</time>
</trkpt>
<trkpt lat="39.7051261" lon="3.1007493">
<ele>72.39</ele>
<time>2016-10-18T13:29:29Z</time>
</trkpt>
<trkpt lat="39.7053554" lon="3.1006787">
<ele>72.16</ele>
<time>2016-10-18T13:29:32Z</time>
</trkpt>
<trkpt lat="39.7055737" lon="3.1005208">
<ele>71.05</ele>
<time>2016-10-18T13:29:35Z</time>
</trkpt>
<trkpt lat="39.7057619" lon="3.1003118">
<ele>69.01</ele>
<time>2016-10-18T13:29:38Z</time>
</trkpt>
<trkpt lat="39.7059366" lon="3.1000703">
<ele>65.63</ele>
<time>2016-10-18T13:29:41Z</time>
</trkpt>
<trkpt lat="39.7060921" lon="3.0998338">
<ele>62.87</ele>
<time>2016-10-18T13:29:44Z</time>
</trkpt>
<trkpt lat="39.7062544" lon="3.0996940">
<ele>61.68</ele>
<time>2016-10-18T13:29:47Z</time>
</trkpt>
<trkpt lat="39.7064272" lon="3.0998716">
<ele>61.04</ele>
<time>2016-10-18T13:29:52Z</time>
</trkpt>
<trkpt lat="39.7065113" lon="3.1001493">
<ele>61.07</ele>
<time>2016-10-18T13:29:56Z</time>
</trkpt>
<trkpt lat="39.7065756" lon="3.1004353">
<ele>62.08</ele>
<time>2016-10-18T13:30:00Z</time>
</trkpt>
<trkpt lat="39.7066301" lon="3.1007142">
<ele>63.15</ele>
<time>2016-10-18T13:30:04Z</time>
</trkpt>
<trkpt lat="39.7066817" lon="3.1009883">
<ele>64.94</ele>
<time>2016-10-18T13:30:08Z</time>
</trkpt>
<trkpt lat="39.7067274" lon="3.1012305">
<ele>65.42</ele>
<time>2016-10-18T13:30:11Z</time>
</trkpt>
<trkpt lat="39.7067708" lon="3.1014621">
<ele>65.35</ele>
<time>2016-10-18T13:30:14Z</time>
</trkpt>
<trkpt lat="39.7068196" lon="3.1017473">
<ele>65.18</ele>
<time>2016-10-18T13:30:18Z</time>
</trkpt>
<trkpt lat="39.7068725" lon="3.1019920">
<ele>65.46</ele>
<time>2016-10-18T13:30:22Z</time>
</trkpt>
<trkpt lat="39.7069205" lon="3.1022351">
<ele>65.57</ele>
<time>2016-10-18T13:30:26Z</time>
</trkpt>
<trkpt lat="39.7069814" lon="3.1025160">
<ele>65.96</ele>
<time>2016-10-18T13:30:31Z</time>
</trkpt>
<trkpt lat="39.7070336" lon="3.1027479">
<ele>67.52</ele>
<time>2016-10-18T13:30:35Z</time>
</trkpt>
<trkpt lat="39.7070854" lon="3.1030143">
<ele>68.49</ele>
<time>2016-10-18T13:30:40Z</time>
</trkpt>
<trkpt lat="39.7071477" lon="3.1032580">
<ele>68.63</ele>
<time>2016-10-18T13:30:44Z</time>
</trkpt>
<trkpt lat="39.7072387" lon="3.1035108">
<ele>70.50</ele>
<time>2016-10-18T13:30:48Z</time>
</trkpt>
<trkpt lat="39.7073437" lon="3.1037338">
<ele>69.89</ele>
<time>2016-10-18T13:30:52Z</time>
</trkpt>
<trkpt lat="39.7074597" lon="3.1039582">
<ele>68.98</ele>
<time>2016-10-18T13:30:56Z</time>
</trkpt>
<trkpt lat="39.7075919" lon="3.1041693">
<ele>68.63</ele>
<time>2016-10-18T13:31:00Z</time>
</trkpt>
<trkpt lat="39.7077612" lon="3.1043863">
<ele>69.43</ele>
<time>2016-10-18T13:31:04Z</time>
</trkpt>
<trkpt lat="39.7079042" lon="3.1045489">
<ele>69.97</ele>
<time>2016-10-18T13:31:07Z</time>
</trkpt>
<trkpt lat="39.7080503" lon="3.1047158">
<ele>69.55</ele>
<time>2016-10-18T13:31:10Z</time>
</trkpt>
<trkpt lat="39.7081892" lon="3.1048782">
<ele>68.57</ele>
<time>2016-10-18T13:31:13Z</time>
</trkpt>
<trkpt lat="39.7083617" lon="3.1050771">
<ele>67.85</ele>
<time>2016-10-18T13:31:17Z</time>
</trkpt>
<trkpt lat="39.7084985" lon="3.1052308">
<ele>67.91</ele>
<time>2016-10-18T13:31:20Z</time>
</trkpt>
<trkpt lat="39.7086367" lon="3.1053850">
<ele>67.35</ele>
<time>2016-10-18T13:31:23Z</time>
</trkpt>
<trkpt lat="39.7087722" lon="3.1055397">
<ele>67.05</ele>
<time>2016-10-18T13:31:26Z</time>
</trkpt>
<trkpt lat="39.7089323" lon="3.1057366">
<ele>67.04</ele>
<time>2016-10-18T13:31:30Z</time>
</trkpt>
<trkpt lat="39.7090974" lon="3.1059379">
<ele>67.48</ele>
<time>2016-10-18T13:31:34Z</time>
</trkpt>
<trkpt lat="39.7092532" lon="3.1061172">
<ele>67.44</ele>
<time>2016-10-18T13:31:38Z</time>
</trkpt>
<trkpt lat="39.7094123" lon="3.1062909">
<ele>66.95</ele>
<time>2016-10-18T13:31:42Z</time>
</trkpt>
<trkpt lat="39.7095681" lon="3.1064715">
<ele>68.55</ele>
<time>2016-10-18T13:31:47Z</time>
</trkpt>
<trkpt lat="39.7097186" lon="3.1066270">
<ele>71.00</ele>
<time>2016-10-18T13:31:52Z</time>
</trkpt>
<trkpt lat="39.7098687" lon="3.1067709">
<ele>72.07</ele>
<time>2016-10-18T13:31:57Z</time>
</trkpt>
<trkpt lat="39.7100365" lon="3.1069042">
<ele>73.52</ele>
<time>2016-10-18T13:32:02Z</time>
</trkpt>
<trkpt lat="39.7102175" lon="3.1070244">
<ele>74.15</ele>
<time>2016-10-18T13:32:07Z</time>
</trkpt>
<trkpt lat="39.7103813" lon="3.1071302">
<ele>75.85</ele>
<time>2016-10-18T13:32:12Z</time>
</trkpt>
<trkpt lat="39.7105593" lon="3.1072385">
<ele>72.81</ele>
<time>2016-10-18T13:32:17Z</time>
</trkpt>
<trkpt lat="39.7107450" lon="3.1073681">
<ele>64.78</ele>
<time>2016-10-18T13:32:21Z</time>
</trkpt>
<trkpt lat="39.7109434" lon="3.1074899">
<ele>57.26</ele>
<time>2016-10-18T13:32:25Z</time>
</trkpt>
<trkpt lat="39.7111125" lon="3.1075994">
<ele>55.26</ele>
<time>2016-10-18T13:32:29Z</time>
</trkpt>
<trkpt lat="39.7112711" lon="3.1077170">
<ele>56.11</ele>
<time>2016-10-18T13:32:33Z</time>
</trkpt>
<trkpt lat="39.7114514" lon="3.1078224">
<ele>63.26</ele>
<time>2016-10-18T13:32:37Z</time>
</trkpt>
<trkpt lat="39.7116487" lon="3.1079349">
<ele>69.02</ele>
<time>2016-10-18T13:32:41Z</time>
</trkpt>
<trkpt lat="39.7118499" lon="3.1080782">
<ele>73.00</ele>
<time>2016-10-18T13:32:45Z</time>
</trkpt>
<trkpt lat="39.7120107" lon="3.1081959">
<ele>75.57</ele>
<time>2016-10-18T13:32:48Z</time>
</trkpt>
<trkpt lat="39.7121748" lon="3.1083107">
<ele>76.36</ele>
<time>2016-10-18T13:32:51Z</time>
</trkpt>
<trkpt lat="39.7123832" lon="3.1084622">
<ele>76.25</ele>
<time>2016-10-18T13:32:55Z</time>
</trkpt>
<trkpt lat="39.7125863" lon="3.1086140">
<ele>75.62</ele>
<time>2016-10-18T13:32:59Z</time>
</trkpt>
<trkpt lat="39.7127516" lon="3.1087353">
<ele>74.99</ele>
<time>2016-10-18T13:33:02Z</time>
</trkpt>
<trkpt lat="39.7129125" lon="3.1088489">
<ele>73.54</ele>
<time>2016-10-18T13:33:05Z</time>
</trkpt>
<trkpt lat="39.7130715" lon="3.1089584">
<ele>72.19</ele>
<time>2016-10-18T13:33:08Z</time>
</trkpt>
<trkpt lat="39.7132819" lon="3.1090927">
<ele>71.08</ele>
<time>2016-10-18T13:33:12Z</time>
</trkpt>
<trkpt lat="39.7134951" lon="3.1092010">
<ele>71.43</ele>
<time>2016-10-18T13:33:16Z</time>
</trkpt>
<trkpt lat="39.7137093" lon="3.1092901">
<ele>72.11</ele>
<time>2016-10-18T13:33:20Z</time>
</trkpt>
<trkpt lat="39.7138920" lon="3.1093430">
<ele>72.84</ele>
<time>2016-10-18T13:33:23Z</time>
</trkpt>
<trkpt lat="39.7140920" lon="3.1093862">
<ele>73.41</ele>
<time>2016-10-18T13:33:26Z</time>
</trkpt>
<trkpt lat="39.7143118" lon="3.1094175">
<ele>73.24</ele>
<time>2016-10-18T13:33:29Z</time>
</trkpt>
<trkpt lat="39.7145640" lon="3.1094369">
<ele>73.06</ele>
<time>2016-10-18T13:33:32Z</time>
</trkpt>
<trkpt lat="39.7147472" lon="3.1094494">
<ele>72.16</ele>
<time>2016-10-18T13:33:34Z</time>
</trkpt>
<trkpt lat="39.7149329" lon="3.1094571">
<ele>71.37</ele>
<time>2016-10-18T13:33:36Z</time>
</trkpt>
<trkpt lat="39.7151216" lon="3.1094656">
<ele>70.86</ele>
<time>2016-10-18T13:33:38Z</time>
</trkpt>
<trkpt lat="39.7153103" lon="3.1094774">
<ele>70.42</ele>
<time>2016-10-18T13:33:40Z</time>
</trkpt>
<trkpt lat="39.7154952" lon="3.1094921">
<ele>69.70</ele>
<time>2016-10-18T13:33:42Z</time>
</trkpt>
<trkpt lat="39.7156822" lon="3.1095081">
<ele>68.50</ele>
<time>2016-10-18T13:33:44Z</time>
</trkpt>
<trkpt lat="39.7158668" lon="3.1095224">
<ele>66.86</ele>
<time>2016-10-18T13:33:46Z</time>
</trkpt>
<trkpt lat="39.7160461" lon="3.1095437">
<ele>65.18</ele>
<time>2016-10-18T13:33:48Z</time>
</trkpt>
<trkpt lat="39.7162273" lon="3.1095651">
<ele>63.61</ele>
<time>2016-10-18T13:33:50Z</time>
</trkpt>
<trkpt lat="39.7164922" lon="3.1096159">
<ele>61.34</ele>
<time>2016-10-18T13:33:53Z</time>
</trkpt>
<trkpt lat="39.7167387" lon="3.1096969">
<ele>59.64</ele>
<time>2016-10-18T13:33:56Z</time>
</trkpt>
<trkpt lat="39.7169760" lon="3.1097970">
<ele>58.41</ele>
<time>2016-10-18T13:33:59Z</time>
</trkpt>
<trkpt lat="39.7172024" lon="3.1099012">
<ele>57.17</ele>
<time>2016-10-18T13:34:02Z</time>
</trkpt>
<trkpt lat="39.7174223" lon="3.1100038">
<ele>55.98</ele>
<time>2016-10-18T13:34:05Z</time>
</trkpt>
<trkpt lat="39.7176315" lon="3.1100976">
<ele>55.18</ele>
<time>2016-10-18T13:34:08Z</time>
</trkpt>
<trkpt lat="39.7178382" lon="3.1101889">
<ele>54.47</ele>
<time>2016-10-18T13:34:11Z</time>
</trkpt>
<trkpt lat="39.7180417" lon="3.1102778">
<ele>54.08</ele>
<time>2016-10-18T13:34:14Z</time>
</trkpt>
<trkpt lat="39.7182399" lon="3.1103771">
<ele>54.33</ele>
<time>2016-10-18T13:34:17Z</time>
</trkpt>
<trkpt lat="39.7184460" lon="3.1104911">
<ele>54.27</ele>
<time>2016-10-18T13:34:20Z</time>
</trkpt>
<trkpt lat="39.7186522" lon="3.1106152">
<ele>53.05</ele>
<time>2016-10-18T13:34:23Z</time>
</trkpt>
<trkpt lat="39.7188530" lon="3.1107432">
<ele>51.92</ele>
<time>2016-10-18T13:34:26Z</time>
</trkpt>
<trkpt lat="39.7190497" lon="3.1108856">
<ele>51.22</ele>
<time>2016-10-18T13:34:29Z</time>
</trkpt>
<trkpt lat="39.7192451" lon="3.1110343">
<ele>50.17</ele>
<time>2016-10-18T13:34:32Z</time>
</trkpt>
<trkpt lat="39.7194254" lon="3.1111802">
<ele>49.77</ele>
<time>2016-10-18T13:34:35Z</time>
</trkpt>
<trkpt lat="39.7196050" lon="3.1113240">
<ele>49.53</ele>
<time>2016-10-18T13:34:38Z</time>
</trkpt>
<trkpt lat="39.7197806" lon="3.1114649">
<ele>48.25</ele>
<time>2016-10-18T13:34:41Z</time>
</trkpt>
<trkpt lat="39.7199591" lon="3.1116196">
<ele>44.60</ele>
<time>2016-10-18T13:34:44Z</time>
</trkpt>
<trkpt lat="39.7201390" lon="3.1117599">
<ele>44.58</ele>
<time>2016-10-18T13:34:47Z</time>
</trkpt>
<trkpt lat="39.7203076" lon="3.1118852">
<ele>46.77</ele>
<time>2016-10-18T13:34:50Z</time>
</trkpt>
<trkpt lat="39.7204685" lon="3.1120057">
<ele>48.20</ele>
<time>2016-10-18T13:34:53Z</time>
</trkpt>
<trkpt lat="39.7206262" lon="3.1121314">
<ele>49.31</ele>
<time>2016-10-18T13:34:56Z</time>
</trkpt>
<trkpt lat="39.7207797" lon="3.1122536">
<ele>50.82</ele>
<time>2016-10-18T13:34:59Z</time>
</trkpt>
<trkpt lat="39.7209411" lon="3.1123784">
<ele>52.04</ele>
<time>2016-10-18T13:35:02Z</time>
</trkpt>
<trkpt lat="39.7211111" lon="3.1125152">
<ele>52.66</ele>
<time>2016-10-18T13:35:05Z</time>
</trkpt>
<trkpt lat="39.7212837" lon="3.1126520">
<ele>53.37</ele>
<time>2016-10-18T13:35:08Z</time>
</trkpt>
<trkpt lat="39.7214582" lon="3.1127902">
<ele>53.16</ele>
<time>2016-10-18T13:35:11Z</time>
</trkpt>
<trkpt lat="39.7216344" lon="3.1129278">
<ele>52.10</ele>
<time>2016-10-18T13:35:14Z</time>
</trkpt>
<trkpt lat="39.7218000" lon="3.1130539">
<ele>51.64</ele>
<time>2016-10-18T13:35:17Z</time>
</trkpt>
<trkpt lat="39.7219730" lon="3.1131907">
<ele>50.68</ele>
<time>2016-10-18T13:35:20Z</time>
</trkpt>
<trkpt lat="39.7221298" lon="3.1133234">
<ele>49.17</ele>
<time>2016-10-18T13:35:23Z</time>
</trkpt>
<trkpt lat="39.7222880" lon="3.1134597">
<ele>46.88</ele>
<time>2016-10-18T13:35:26Z</time>
</trkpt>
<trkpt lat="39.7224857" lon="3.1136174">
<ele>45.56</ele>
<time>2016-10-18T13:35:30Z</time>
</trkpt>
<trkpt lat="39.7226560" lon="3.1137466">
<ele>49.24</ele>
<time>2016-10-18T13:35:34Z</time>
</trkpt>
<trkpt lat="39.7228127" lon="3.1138674">
<ele>52.07</ele>
<time>2016-10-18T13:35:38Z</time>
</trkpt>
<trkpt lat="39.7229900" lon="3.1139970">
<ele>56.14</ele>
<time>2016-10-18T13:35:43Z</time>
</trkpt>
<trkpt lat="39.7231748" lon="3.1141483">
<ele>59.77</ele>
<time>2016-10-18T13:35:48Z</time>
</trkpt>
<trkpt lat="39.7233635" lon="3.1142977">
<ele>61.39</ele>
<time>2016-10-18T13:35:53Z</time>
</trkpt>
<trkpt lat="39.7235431" lon="3.1144333">
<ele>60.60</ele>
<time>2016-10-18T13:35:58Z</time>
</trkpt>
<trkpt lat="39.7237234" lon="3.1145643">
<ele>58.44</ele>
<time>2016-10-18T13:36:03Z</time>
</trkpt>
<trkpt lat="39.7239049" lon="3.1147189">
<ele>57.47</ele>
<time>2016-10-18T13:36:08Z</time>
</trkpt>
<trkpt lat="39.7240841" lon="3.1148544">
<ele>58.96</ele>
<time>2016-10-18T13:36:14Z</time>
</trkpt>
<trkpt lat="39.7242439" lon="3.1149866">
<ele>59.90</ele>
<time>2016-10-18T13:36:21Z</time>
</trkpt>
<trkpt lat="39.7244240" lon="3.1151204">
<ele>60.83</ele>
<time>2016-10-18T13:36:27Z</time>
</trkpt>
<trkpt lat="39.7245846" lon="3.1152433">
<ele>61.53</ele>
<time>2016-10-18T13:36:33Z</time>
</trkpt>
<trkpt lat="39.7247630" lon="3.1153729">
<ele>62.62</ele>
<time>2016-10-18T13:36:40Z</time>
</trkpt>
<trkpt lat="39.7249432" lon="3.1154976">
<ele>63.49</ele>
<time>2016-10-18T13:36:47Z</time>
</trkpt>
<trkpt lat="39.7251335" lon="3.1156023">
<ele>64.28</ele>
<time>2016-10-18T13:36:54Z</time>
</trkpt>
<trkpt lat="39.7253203" lon="3.1156651">
<ele>65.45</ele>
<time>2016-10-18T13:37:01Z</time>
</trkpt>
<trkpt lat="39.7255068" lon="3.1157275">
<ele>66.70</ele>
<time>2016-10-18T13:37:07Z</time>
</trkpt>
<trkpt lat="39.7257011" lon="3.1157747">
<ele>67.60</ele>
<time>2016-10-18T13:37:13Z</time>
</trkpt>
<trkpt lat="39.7258971" lon="3.1158155">
<ele>68.40</ele>
<time>2016-10-18T13:37:19Z</time>
</trkpt>
<trkpt lat="39.7261025" lon="3.1158630">
<ele>69.18</ele>
<time>2016-10-18T13:37:25Z</time>
</trkpt>
<trkpt lat="39.7262990" lon="3.1158963">
<ele>74.66</ele>
<time>2016-10-18T13:37:30Z</time>
</trkpt>
<trkpt lat="39.7265195" lon="3.1159478">
<ele>75.73</ele>
<time>2016-10-18T13:37:35Z</time>
</trkpt>
<trkpt lat="39.7267060" lon="3.1160147">
<ele>76.51</ele>
<time>2016-10-18T13:37:39Z</time>
</trkpt>
<trkpt lat="39.7269138" lon="3.1161097">
<ele>77.07</ele>
<time>2016-10-18T13:37:43Z</time>
</trkpt>
<trkpt lat="39.7270830" lon="3.1162081">
<ele>76.93</ele>
<time>2016-10-18T13:37:46Z</time>
</trkpt>
<trkpt lat="39.7272539" lon="3.1163118">
<ele>76.53</ele>
<time>2016-10-18T13:37:49Z</time>
</trkpt>
<trkpt lat="39.7274764" lon="3.1164519">
<ele>76.52</ele>
<time>2016-10-18T13:37:53Z</time>
</trkpt>
<trkpt lat="39.7276412" lon="3.1165545">
<ele>76.99</ele>
<time>2016-10-18T13:37:56Z</time>
</trkpt>
<trkpt lat="39.7278124" lon="3.1166604">
<ele>77.84</ele>
<time>2016-10-18T13:37:59Z</time>
</trkpt>
<trkpt lat="39.7279862" lon="3.1167675">
<ele>78.59</ele>
<time>2016-10-18T13:38:02Z</time>
</trkpt>
<trkpt lat="39.7281681" lon="3.1168764">
<ele>79.40</ele>
<time>2016-10-18T13:38:05Z</time>
</trkpt>
<trkpt lat="39.7283474" lon="3.1169847">
<ele>80.10</ele>
<time>2016-10-18T13:38:08Z</time>
</trkpt>
<trkpt lat="39.7285216" lon="3.1170903">
<ele>80.22</ele>
<time>2016-10-18T13:38:10Z</time>
</trkpt>
<trkpt lat="39.7286900" lon="3.1171974">
<ele>80.51</ele>
<time>2016-10-18T13:38:13Z</time>
</trkpt>
<trkpt lat="39.7288533" lon="3.1173012">
<ele>80.85</ele>
<time>2016-10-18T13:38:16Z</time>
</trkpt>
<trkpt lat="39.7290176" lon="3.1174078">
<ele>81.02</ele>
<time>2016-10-18T13:38:19Z</time>
</trkpt>
<trkpt lat="39.7292313" lon="3.1175404">
<ele>81.12</ele>
<time>2016-10-18T13:38:23Z</time>
</trkpt>
<trkpt lat="39.7294447" lon="3.1176711">
<ele>81.99</ele>
<time>2016-10-18T13:38:27Z</time>
</trkpt>
<trkpt lat="39.7296562" lon="3.1177964">
<ele>82.48</ele>
<time>2016-10-18T13:38:31Z</time>
</trkpt>
<trkpt lat="39.7298233" lon="3.1178992">
<ele>82.67</ele>
<time>2016-10-18T13:38:34Z</time>
</trkpt>
<trkpt lat="39.7299865" lon="3.1179979">
<ele>82.79</ele>
<time>2016-10-18T13:38:37Z</time>
</trkpt>
<trkpt lat="39.7301528" lon="3.1181020">
<ele>82.40</ele>
<time>2016-10-18T13:38:40Z</time>
</trkpt>
<trkpt lat="39.7303699" lon="3.1182324">
<ele>80.77</ele>
<time>2016-10-18T13:38:44Z</time>
</trkpt>
<trkpt lat="39.7305433" lon="3.1183328">
<ele>79.43</ele>
<time>2016-10-18T13:38:47Z</time>
</trkpt>
<trkpt lat="39.7307130" lon="3.1184284">
<ele>78.41</ele>
<time>2016-10-18T13:38:50Z</time>
</trkpt>
<trkpt lat="39.7308821" lon="3.1185271">
<ele>77.77</ele>
<time>2016-10-18T13:38:53Z</time>
</trkpt>
<trkpt lat="39.7310766" lon="3.1186357">
<ele>77.18</ele>
<time>2016-10-18T13:38:56Z</time>
</trkpt>
<trkpt lat="39.7312708" lon="3.1187400">
<ele>75.98</ele>
<time>2016-10-18T13:38:59Z</time>
</trkpt>
<trkpt lat="39.7314616" lon="3.1188313">
<ele>75.31</ele>
<time>2016-10-18T13:39:02Z</time>
</trkpt>
<trkpt lat="39.7316554" lon="3.1189282">
<ele>75.99</ele>
<time>2016-10-18T13:39:05Z</time>
</trkpt>
<trkpt lat="39.7318579" lon="3.1190200">
<ele>76.24</ele>
<time>2016-10-18T13:39:08Z</time>
</trkpt>
<trkpt lat="39.7320757" lon="3.1191155">
<ele>75.25</ele>
<time>2016-10-18T13:39:11Z</time>
</trkpt>
<trkpt lat="39.7322859" lon="3.1192151">
<ele>74.83</ele>
<time>2016-10-18T13:39:14Z</time>
</trkpt>
<trkpt lat="39.7325001" lon="3.1193267">
<ele>74.40</ele>
<time>2016-10-18T13:39:17Z</time>
</trkpt>
<trkpt lat="39.7327217" lon="3.1194556">
<ele>74.22</ele>
<time>2016-10-18T13:39:20Z</time>
</trkpt>
<trkpt lat="39.7329424" lon="3.1195864">
<ele>74.21</ele>
<time>2016-10-18T13:39:23Z</time>
</trkpt>
<trkpt lat="39.7331457" lon="3.1197108">
<ele>74.02</ele>
<time>2016-10-18T13:39:26Z</time>
</trkpt>
<trkpt lat="39.7333447" lon="3.1198301">
<ele>73.85</ele>
<time>2016-10-18T13:39:29Z</time>
</trkpt>
<trkpt lat="39.7335443" lon="3.1199584">
<ele>73.57</ele>
<time>2016-10-18T13:39:32Z</time>
</trkpt>
<trkpt lat="39.7337491" lon="3.1200842">
<ele>72.20</ele>
<time>2016-10-18T13:39:35Z</time>
</trkpt>
<trkpt lat="39.7339546" lon="3.1202033">
<ele>71.47</ele>
<time>2016-10-18T13:39:38Z</time>
</trkpt>
<trkpt lat="39.7341525" lon="3.1203263">
<ele>71.33</ele>
<time>2016-10-18T13:39:41Z</time>
</trkpt>
<trkpt lat="39.7343465" lon="3.1204416">
<ele>71.52</ele>
<time>2016-10-18T13:39:44Z</time>
</trkpt>
<trkpt lat="39.7345560" lon="3.1205525">
<ele>72.37</ele>
<time>2016-10-18T13:39:47Z</time>
</trkpt>
<trkpt lat="39.7347510" lon="3.1206598">
<ele>73.48</ele>
<time>2016-10-18T13:39:50Z</time>
</trkpt>
<trkpt lat="39.7349521" lon="3.1207749">
<ele>74.24</ele>
<time>2016-10-18T13:39:53Z</time>
</trkpt>
<trkpt lat="39.7351572" lon="3.1208985">
<ele>75.49</ele>
<time>2016-10-18T13:39:56Z</time>
</trkpt>
<trkpt lat="39.7353706" lon="3.1210250">
<ele>75.70</ele>
<time>2016-10-18T13:39:59Z</time>
</trkpt>
<trkpt lat="39.7355930" lon="3.1211611">
<ele>74.96</ele>
<time>2016-10-18T13:40:02Z</time>
</trkpt>
<trkpt lat="39.7358175" lon="3.1213051">
<ele>74.49</ele>
<time>2016-10-18T13:40:05Z</time>
</trkpt>
<trkpt lat="39.7360619" lon="3.1214645">
<ele>71.79</ele>
<time>2016-10-18T13:40:08Z</time>
</trkpt>
<trkpt lat="39.7363019" lon="3.1216143">
<ele>67.59</ele>
<time>2016-10-18T13:40:11Z</time>
</trkpt>
<trkpt lat="39.7365323" lon="3.1217543">
<ele>64.99</ele>
<time>2016-10-18T13:40:14Z</time>
</trkpt>
<trkpt lat="39.7367541" lon="3.1218893">
<ele>64.18</ele>
<time>2016-10-18T13:40:17Z</time>
</trkpt>
<trkpt lat="39.7369932" lon="3.1220335">
<ele>62.77</ele>
<time>2016-10-18T13:40:20Z</time>
</trkpt>
<trkpt lat="39.7372188" lon="3.1221759">
<ele>60.37</ele>
<time>2016-10-18T13:40:23Z</time>
</trkpt>
<trkpt lat="39.7374534" lon="3.1223140">
<ele>58.86</ele>
<time>2016-10-18T13:40:26Z</time>
</trkpt>
<trkpt lat="39.7376820" lon="3.1224405">
<ele>58.75</ele>
<time>2016-10-18T13:40:29Z</time>
</trkpt>
<trkpt lat="39.7379112" lon="3.1225656">
<ele>58.47</ele>
<time>2016-10-18T13:40:32Z</time>
</trkpt>
<trkpt lat="39.7381359" lon="3.1226902">
<ele>57.68</ele>
<time>2016-10-18T13:40:35Z</time>
</trkpt>
<trkpt lat="39.7383558" lon="3.1228168">
<ele>57.08</ele>
<time>2016-10-18T13:40:38Z</time>
</trkpt>
<trkpt lat="39.7385767" lon="3.1229455">
<ele>56.34</ele>
<time>2016-10-18T13:40:41Z</time>
</trkpt>
<trkpt lat="39.7387845" lon="3.1230725">
<ele>56.93</ele>
<time>2016-10-18T13:40:44Z</time>
</trkpt>
<trkpt lat="39.7389969" lon="3.1232028">
<ele>57.77</ele>
<time>2016-10-18T13:40:47Z</time>
</trkpt>
<trkpt lat="39.7391960" lon="3.1233277">
<ele>57.37</ele>
<time>2016-10-18T13:40:50Z</time>
</trkpt>
<trkpt lat="39.7393853" lon="3.1234380">
<ele>57.39</ele>
<time>2016-10-18T13:40:53Z</time>
</trkpt>
<trkpt lat="39.7395900" lon="3.1235541">
<ele>57.74</ele>
<time>2016-10-18T13:40:56Z</time>
</trkpt>
<trkpt lat="39.7397806" lon="3.1236666">
<ele>57.28</ele>
<time>2016-10-18T13:40:59Z</time>
</trkpt>
<trkpt lat="39.7399465" lon="3.1237685">
<ele>57.56</ele>
<time>2016-10-18T13:41:02Z</time>
</trkpt>
<trkpt lat="39.7400575" lon="3.1239674">
<ele>58.44</ele>
<time>2016-10-18T13:41:05Z</time>
</trkpt>
<trkpt lat="39.7401368" lon="3.1242167">
<ele>59.74</ele>
<time>2016-10-18T13:41:08Z</time>
</trkpt>
<trkpt lat="39.7402251" lon="3.1245225">
<ele>58.74</ele>
<time>2016-10-18T13:41:11Z</time>
</trkpt>
<trkpt lat="39.7403168" lon="3.1248440">
<ele>58.24</ele>
<time>2016-10-18T13:41:14Z</time>
</trkpt>
<trkpt lat="39.7404066" lon="3.1251787">
<ele>57.64</ele>
<time>2016-10-18T13:41:17Z</time>
</trkpt>
<trkpt lat="39.7404620" lon="3.1254115">
<ele>57.37</ele>
<time>2016-10-18T13:41:19Z</time>
</trkpt>
<trkpt lat="39.7405522" lon="3.1257489">
<ele>56.77</ele>
<time>2016-10-18T13:41:22Z</time>
</trkpt>
<trkpt lat="39.7406180" lon="3.1259740">
<ele>56.09</ele>
<time>2016-10-18T13:41:24Z</time>
</trkpt>
<trkpt lat="39.7407036" lon="3.1262870">
<ele>55.59</ele>
<time>2016-10-18T13:41:27Z</time>
</trkpt>
<trkpt lat="39.7407924" lon="3.1266044">
<ele>54.36</ele>
<time>2016-10-18T13:41:30Z</time>
</trkpt>
<trkpt lat="39.7408555" lon="3.1268337">
<ele>52.67</ele>
<time>2016-10-18T13:41:32Z</time>
</trkpt>
<trkpt lat="39.7409144" lon="3.1270596">
<ele>51.27</ele>
<time>2016-10-18T13:41:34Z</time>
</trkpt>
<trkpt lat="39.7409752" lon="3.1273010">
<ele>50.47</ele>
<time>2016-10-18T13:41:36Z</time>
</trkpt>
<trkpt lat="39.7410613" lon="3.1276149">
<ele>49.52</ele>
<time>2016-10-18T13:41:39Z</time>
</trkpt>
<trkpt lat="39.7411560" lon="3.1279409">
<ele>48.76</ele>
<time>2016-10-18T13:41:42Z</time>
</trkpt>
<trkpt lat="39.7412167" lon="3.1281613">
<ele>49.12</ele>
<time>2016-10-18T13:41:44Z</time>
</trkpt>
<trkpt lat="39.7412945" lon="3.1284643">
<ele>49.81</ele>
<time>2016-10-18T13:41:47Z</time>
</trkpt>
<trkpt lat="39.7413630" lon="3.1287476">
<ele>50.54</ele>
<time>2016-10-18T13:41:50Z</time>
</trkpt>
<trkpt lat="39.7414346" lon="3.1290493">
<ele>51.24</ele>
<time>2016-10-18T13:41:53Z</time>
</trkpt>
<trkpt lat="39.7415111" lon="3.1293358">
<ele>51.67</ele>
<time>2016-10-18T13:41:56Z</time>
</trkpt>
<trkpt lat="39.7415837" lon="3.1296223">
<ele>51.51</ele>
<time>2016-10-18T13:41:59Z</time>
</trkpt>
<trkpt lat="39.7416617" lon="3.1299201">
<ele>51.63</ele>
<time>2016-10-18T13:42:02Z</time>
</trkpt>
<trkpt lat="39.7417501" lon="3.1302238">
<ele>50.89</ele>
<time>2016-10-18T13:42:05Z</time>
</trkpt>
<trkpt lat="39.7418436" lon="3.1305540">
<ele>49.42</ele>
<time>2016-10-18T13:42:08Z</time>
</trkpt>
<trkpt lat="39.7419030" lon="3.1307807">
<ele>48.82</ele>
<time>2016-10-18T13:42:10Z</time>
</trkpt>
<trkpt lat="39.7419789" lon="3.1310815">
<ele>48.69</ele>
<time>2016-10-18T13:42:13Z</time>
</trkpt>
<trkpt lat="39.7420624" lon="3.1313863">
<ele>48.13</ele>
<time>2016-10-18T13:42:16Z</time>
</trkpt>
<trkpt lat="39.7421428" lon="3.1316824">
<ele>46.89</ele>
<time>2016-10-18T13:42:19Z</time>
</trkpt>
<trkpt lat="39.7422300" lon="3.1319868">
<ele>45.72</ele>
<time>2016-10-18T13:42:22Z</time>
</trkpt>
<trkpt lat="39.7423090" lon="3.1322655">
<ele>45.57</ele>
<time>2016-10-18T13:42:25Z</time>
</trkpt>
<trkpt lat="39.7423871" lon="3.1325509">
<ele>45.15</ele>
<time>2016-10-18T13:42:28Z</time>
</trkpt>
<trkpt lat="39.7424634" lon="3.1328243">
<ele>44.45</ele>
<time>2016-10-18T13:42:31Z</time>
</trkpt>
<trkpt lat="39.7425315" lon="3.1330858">
<ele>45.28</ele>
<time>2016-10-18T13:42:34Z</time>
</trkpt>
<trkpt lat="39.7425966" lon="3.1333483">
<ele>45.92</ele>
<time>2016-10-18T13:42:37Z</time>
</trkpt>
<trkpt lat="39.7426674" lon="3.1336169">
<ele>45.33</ele>
<time>2016-10-18T13:42:40Z</time>
</trkpt>
<trkpt lat="39.7427442" lon="3.1339110">
<ele>44.23</ele>
<time>2016-10-18T13:42:43Z</time>
</trkpt>
<trkpt lat="39.7428233" lon="3.1342053">
<ele>42.80</ele>
<time>2016-10-18T13:42:46Z</time>
</trkpt>
<trkpt lat="39.7429019" lon="3.1344906">
<ele>40.73</ele>
<time>2016-10-18T13:42:49Z</time>
</trkpt>
<trkpt lat="39.7429785" lon="3.1347716">
<ele>38.90</ele>
<time>2016-10-18T13:42:52Z</time>
</trkpt>
<trkpt lat="39.7430541" lon="3.1350440">
<ele>38.09</ele>
<time>2016-10-18T13:42:55Z</time>
</trkpt>
<trkpt lat="39.7431337" lon="3.1353425">
<ele>37.64</ele>
<time>2016-10-18T13:42:58Z</time>
</trkpt>
<trkpt lat="39.7432215" lon="3.1356155">
<ele>36.87</ele>
<time>2016-10-18T13:43:01Z</time>
</trkpt>
<trkpt lat="39.7433040" lon="3.1358973">
<ele>36.55</ele>
<time>2016-10-18T13:43:04Z</time>
</trkpt>
<trkpt lat="39.7433830" lon="3.1361712">
<ele>37.68</ele>
<time>2016-10-18T13:43:07Z</time>
</trkpt>
<trkpt lat="39.7434630" lon="3.1364610">
<ele>37.83</ele>
<time>2016-10-18T13:43:10Z</time>
</trkpt>
<trkpt lat="39.7435431" lon="3.1367404">
<ele>37.78</ele>
<time>2016-10-18T13:43:13Z</time>
</trkpt>
<trkpt lat="39.7436214" lon="3.1370214">
<ele>37.94</ele>
<time>2016-10-18T13:43:16Z</time>
</trkpt>
<trkpt lat="39.7436895" lon="3.1372880">
<ele>38.22</ele>
<time>2016-10-18T13:43:19Z</time>
</trkpt>
<trkpt lat="39.7437607" lon="3.1375682">
<ele>39.13</ele>
<time>2016-10-18T13:43:22Z</time>
</trkpt>
<trkpt lat="39.7438272" lon="3.1378491">
<ele>39.03</ele>
<time>2016-10-18T13:43:25Z</time>
</trkpt>
<trkpt lat="39.7438989" lon="3.1381330">
<ele>39.24</ele>
<time>2016-10-18T13:43:28Z</time>
</trkpt>
<trkpt lat="39.7439739" lon="3.1384066">
<ele>39.30</ele>
<time>2016-10-18T13:43:31Z</time>
</trkpt>
<trkpt lat="39.7440486" lon="3.1386712">
<ele>38.73</ele>
<time>2016-10-18T13:43:34Z</time>
</trkpt>
<trkpt lat="39.7441389" lon="3.1389406">
<ele>38.51</ele>
<time>2016-10-18T13:43:37Z</time>
</trkpt>
<trkpt lat="39.7442690" lon="3.1391587">
<ele>38.18</ele>
<time>2016-10-18T13:43:40Z</time>
</trkpt>
<trkpt lat="39.7444065" lon="3.1393717">
<ele>37.70</ele>
<time>2016-10-18T13:43:43Z</time>
</trkpt>
<trkpt lat="39.7445441" lon="3.1395720">
<ele>37.64</ele>
<time>2016-10-18T13:43:46Z</time>
</trkpt>
<trkpt lat="39.7446742" lon="3.1397589">
<ele>37.89</ele>
<time>2016-10-18T13:43:49Z</time>
</trkpt>
<trkpt lat="39.7448046" lon="3.1399568">
<ele>36.95</ele>
<time>2016-10-18T13:43:52Z</time>
</trkpt>
<trkpt lat="39.7449355" lon="3.1401555">
<ele>36.67</ele>
<time>2016-10-18T13:43:55Z</time>
</trkpt>
<trkpt lat="39.7450722" lon="3.1403607">
<ele>36.48</ele>
<time>2016-10-18T13:43:58Z</time>
</trkpt>
<trkpt lat="39.7452041" lon="3.1405523">
<ele>36.28</ele>
<time>2016-10-18T13:44:01Z</time>
</trkpt>
<trkpt lat="39.7453197" lon="3.1407621">
<ele>37.16</ele>
<time>2016-10-18T13:44:04Z</time>
</trkpt>
<trkpt lat="39.7454238" lon="3.1409851">
<ele>38.30</ele>
<time>2016-10-18T13:44:07Z</time>
</trkpt>
<trkpt lat="39.7455069" lon="3.1412245">
<ele>38.69</ele>
<time>2016-10-18T13:44:10Z</time>
</trkpt>
<trkpt lat="39.7455862" lon="3.1414734">
<ele>38.04</ele>
<time>2016-10-18T13:44:13Z</time>
</trkpt>
<trkpt lat="39.7456578" lon="3.1417013">
<ele>38.26</ele>
<time>2016-10-18T13:44:16Z</time>
</trkpt>
<trkpt lat="39.7457237" lon="3.1419316">
<ele>38.94</ele>
<time>2016-10-18T13:44:19Z</time>
</trkpt>
<trkpt lat="39.7457904" lon="3.1421591">
<ele>39.26</ele>
<time>2016-10-18T13:44:22Z</time>
</trkpt>
<trkpt lat="39.7458611" lon="3.1423869">
<ele>39.39</ele>
<time>2016-10-18T13:44:25Z</time>
</trkpt>
<trkpt lat="39.7459302" lon="3.1426074">
<ele>39.70</ele>
<time>2016-10-18T13:44:28Z</time>
</trkpt>
<trkpt lat="39.7460170" lon="3.1428881">
<ele>40.72</ele>
<time>2016-10-18T13:44:32Z</time>
</trkpt>
<trkpt lat="39.7461094" lon="3.1431728">
<ele>43.18</ele>
<time>2016-10-18T13:44:36Z</time>
</trkpt>
<trkpt lat="39.7461824" lon="3.1434119">
<ele>43.42</ele>
<time>2016-10-18T13:44:39Z</time>
</trkpt>
<trkpt lat="39.7462522" lon="3.1436593">
<ele>41.95</ele>
<time>2016-10-18T13:44:42Z</time>
</trkpt>
<trkpt lat="39.7463297" lon="3.1439117">
<ele>40.89</ele>
<time>2016-10-18T13:44:45Z</time>
</trkpt>
<trkpt lat="39.7464134" lon="3.1441645">
<ele>40.50</ele>
<time>2016-10-18T13:44:48Z</time>
</trkpt>
<trkpt lat="39.7464953" lon="3.1444161">
<ele>40.48</ele>
<time>2016-10-18T13:44:51Z</time>
</trkpt>
<trkpt lat="39.7465796" lon="3.1446594">
<ele>39.95</ele>
<time>2016-10-18T13:44:54Z</time>
</trkpt>
<trkpt lat="39.7466572" lon="3.1448918">
<ele>39.85</ele>
<time>2016-10-18T13:44:57Z</time>
</trkpt>
<trkpt lat="39.7467356" lon="3.1451530">
<ele>40.50</ele>
<time>2016-10-18T13:45:00Z</time>
</trkpt>
<trkpt lat="39.7468104" lon="3.1454135">
<ele>41.00</ele>
<time>2016-10-18T13:45:03Z</time>
</trkpt>
<trkpt lat="39.7469030" lon="3.1456339">
<ele>41.42</ele>
<time>2016-10-18T13:45:06Z</time>
</trkpt>
<trkpt lat="39.7470410" lon="3.1458405">
<ele>41.76</ele>
<time>2016-10-18T13:45:09Z</time>
</trkpt>
<trkpt lat="39.7472000" lon="3.1460375">
<ele>41.76</ele>
<time>2016-10-18T13:45:12Z</time>
</trkpt>
<trkpt lat="39.7473504" lon="3.1462225">
<ele>42.00</ele>
<time>2016-10-18T13:45:15Z</time>
</trkpt>
<trkpt lat="39.7474996" lon="3.1463996">
<ele>42.35</ele>
<time>2016-10-18T13:45:18Z</time>
</trkpt>
<trkpt lat="39.7476458" lon="3.1465818">
<ele>42.35</ele>
<time>2016-10-18T13:45:21Z</time>
</trkpt>
<trkpt lat="39.7477950" lon="3.1467707">
<ele>42.44</ele>
<time>2016-10-18T13:45:24Z</time>
</trkpt>
<trkpt lat="39.7479604" lon="3.1469661">
<ele>43.04</ele>
<time>2016-10-18T13:45:27Z</time>
</trkpt>
<trkpt lat="39.7480973" lon="3.1471398">
<ele>43.96</ele>
<time>2016-10-18T13:45:30Z</time>
</trkpt>
<trkpt lat="39.7482456" lon="3.1473296">
<ele>44.24</ele>
<time>2016-10-18T13:45:33Z</time>
</trkpt>
<trkpt lat="39.7483934" lon="3.1475194">
<ele>44.32</ele>
<time>2016-10-18T13:45:36Z</time>
</trkpt>
<trkpt lat="39.7485416" lon="3.1477172">
<ele>43.60</ele>
<time>2016-10-18T13:45:39Z</time>
</trkpt>
<trkpt lat="39.7486834" lon="3.1478962">
<ele>44.09</ele>
<time>2016-10-18T13:45:42Z</time>
</trkpt>
<trkpt lat="39.7488310" lon="3.1480898">
<ele>44.61</ele>
<time>2016-10-18T13:45:45Z</time>
</trkpt>
<trkpt lat="39.7489748" lon="3.1482771">
<ele>43.88</ele>
<time>2016-10-18T13:45:48Z</time>
</trkpt>
<trkpt lat="39.7491219" lon="3.1484829">
<ele>40.99</ele>
<time>2016-10-18T13:45:51Z</time>
</trkpt>
<trkpt lat="39.7492668" lon="3.1486633">
<ele>38.60</ele>
<time>2016-10-18T13:45:54Z</time>
</trkpt>
<trkpt lat="39.7494074" lon="3.1488437">
<ele>38.07</ele>
<time>2016-10-18T13:45:57Z</time>
</trkpt>
<trkpt lat="39.7495594" lon="3.1490311">
<ele>39.11</ele>
<time>2016-10-18T13:46:00Z</time>
</trkpt>
<trkpt lat="39.7497089" lon="3.1492254">
<ele>39.11</ele>
<time>2016-10-18T13:46:03Z</time>
</trkpt>
<trkpt lat="39.7498621" lon="3.1494225">
<ele>37.82</ele>
<time>2016-10-18T13:46:06Z</time>
</trkpt>
<trkpt lat="39.7500027" lon="3.1496127">
<ele>36.86</ele>
<time>2016-10-18T13:46:09Z</time>
</trkpt>
<trkpt lat="39.7501536" lon="3.1498088">
<ele>36.32</ele>
<time>2016-10-18T13:46:12Z</time>
</trkpt>
<trkpt lat="39.7503079" lon="3.1500159">
<ele>35.70</ele>
<time>2016-10-18T13:46:15Z</time>
</trkpt>
<trkpt lat="39.7504577" lon="3.1502136">
<ele>35.13</ele>
<time>2016-10-18T13:46:18Z</time>
</trkpt>
<trkpt lat="39.7506109" lon="3.1504082">
<ele>34.60</ele>
<time>2016-10-18T13:46:21Z</time>
</trkpt>
<trkpt lat="39.7507632" lon="3.1506049">
<ele>35.16</ele>
<time>2016-10-18T13:46:24Z</time>
</trkpt>
<trkpt lat="39.7509225" lon="3.1508078">
<ele>35.07</ele>
<time>2016-10-18T13:46:27Z</time>
</trkpt>
<trkpt lat="39.7510926" lon="3.1510258">
<ele>32.23</ele>
<time>2016-10-18T13:46:31Z</time>
</trkpt>
<trkpt lat="39.7512467" lon="3.1512275">
<ele>30.01</ele>
<time>2016-10-18T13:46:34Z</time>
</trkpt>
<trkpt lat="39.7514064" lon="3.1514349">
<ele>29.27</ele>
<time>2016-10-18T13:46:37Z</time>
</trkpt>
<trkpt lat="39.7515641" lon="3.1516436">
<ele>29.04</ele>
<time>2016-10-18T13:46:40Z</time>
</trkpt>
<trkpt lat="39.7517208" lon="3.1518529">
<ele>30.02</ele>
<time>2016-10-18T13:46:43Z</time>
</trkpt>
<trkpt lat="39.7518726" lon="3.1520612">
<ele>32.17</ele>
<time>2016-10-18T13:46:46Z</time>
</trkpt>
<trkpt lat="39.7520386" lon="3.1522598">
<ele>33.76</ele>
<time>2016-10-18T13:46:49Z</time>
</trkpt>
<trkpt lat="39.7522005" lon="3.1524685">
<ele>34.36</ele>
<time>2016-10-18T13:46:52Z</time>
</trkpt>
<trkpt lat="39.7523744" lon="3.1526987">
<ele>33.87</ele>
<time>2016-10-18T13:46:55Z</time>
</trkpt>
<trkpt lat="39.7525533" lon="3.1529329">
<ele>33.16</ele>
<time>2016-10-18T13:46:58Z</time>
</trkpt>
<trkpt lat="39.7527362" lon="3.1531669">
<ele>30.35</ele>
<time>2016-10-18T13:47:01Z</time>
</trkpt>
<trkpt lat="39.7529109" lon="3.1533798">
<ele>29.73</ele>
<time>2016-10-18T13:47:04Z</time>
</trkpt>
<trkpt lat="39.7530923" lon="3.1535777">
<ele>29.89</ele>
<time>2016-10-18T13:47:07Z</time>
</trkpt>
<trkpt lat="39.7532753" lon="3.1537510">
<ele>29.61</ele>
<time>2016-10-18T13:47:10Z</time>
</trkpt>
<trkpt lat="39.7534659" lon="3.1539308">
<ele>29.06</ele>
<time>2016-10-18T13:47:13Z</time>
</trkpt>
<trkpt lat="39.7536576" lon="3.1540941">
<ele>29.05</ele>
<time>2016-10-18T13:47:16Z</time>
</trkpt>
<trkpt lat="39.7538456" lon="3.1542585">
<ele>28.93</ele>
<time>2016-10-18T13:47:19Z</time>
</trkpt>
<trkpt lat="39.7540219" lon="3.1544154">
<ele>29.58</ele>
<time>2016-10-18T13:47:22Z</time>
</trkpt>
<trkpt lat="39.7541971" lon="3.1545642">
<ele>31.47</ele>
<time>2016-10-18T13:47:25Z</time>
</trkpt>
<trkpt lat="39.7543663" lon="3.1547110">
<ele>34.37</ele>
<time>2016-10-18T13:47:28Z</time>
</trkpt>
<trkpt lat="39.7545257" lon="3.1548486">
<ele>36.18</ele>
<time>2016-10-18T13:47:31Z</time>
</trkpt>
<trkpt lat="39.7546976" lon="3.1550084">
<ele>37.52</ele>
<time>2016-10-18T13:47:34Z</time>
</trkpt>
<trkpt lat="39.7548652" lon="3.1551426">
<ele>37.93</ele>
<time>2016-10-18T13:47:37Z</time>
</trkpt>
<trkpt lat="39.7550393" lon="3.1552962">
<ele>37.00</ele>
<time>2016-10-18T13:47:40Z</time>
</trkpt>
<trkpt lat="39.7552012" lon="3.1554683">
<ele>34.49</ele>
<time>2016-10-18T13:47:43Z</time>
</trkpt>
<trkpt lat="39.7553622" lon="3.1556283">
<ele>32.97</ele>
<time>2016-10-18T13:47:46Z</time>
</trkpt>
<trkpt lat="39.7555310" lon="3.1558186">
<ele>31.21</ele>
<time>2016-10-18T13:47:49Z</time>
</trkpt>
<trkpt lat="39.7557113" lon="3.1560061">
<ele>28.74</ele>
<time>2016-10-18T13:47:52Z</time>
</trkpt>
<trkpt lat="39.7558648" lon="3.1561547">
<ele>23.71</ele>
<time>2016-10-18T13:47:55Z</time>
</trkpt>
<trkpt lat="39.7560333" lon="3.1563038">
<ele>19.72</ele>
<time>2016-10-18T13:47:58Z</time>
</trkpt>
<trkpt lat="39.7561957" lon="3.1564618">
<ele>17.50</ele>
<time>2016-10-18T13:48:01Z</time>
</trkpt>
<trkpt lat="39.7563768" lon="3.1566187">
<ele>15.83</ele>
<time>2016-10-18T13:48:04Z</time>
</trkpt>
<trkpt lat="39.7565352" lon="3.1567585">
<ele>15.78</ele>
<time>2016-10-18T13:48:07Z</time>
</trkpt>
<trkpt lat="39.7567114" lon="3.1569232">
<ele>18.48</ele>
<time>2016-10-18T13:48:11Z</time>
</trkpt>
<trkpt lat="39.7568854" lon="3.1571228">
<ele>18.53</ele>
<time>2016-10-18T13:48:15Z</time>
</trkpt>
<trkpt lat="39.7569871" lon="3.1573489">
<ele>18.90</ele>
<time>2016-10-18T13:48:18Z</time>
</trkpt>
<trkpt lat="39.7571306" lon="3.1575640">
<ele>21.39</ele>
<time>2016-10-18T13:48:22Z</time>
</trkpt>
<trkpt lat="39.7573364" lon="3.1574610">
<ele>23.07</ele>
<time>2016-10-18T13:48:26Z</time>
</trkpt>
<trkpt lat="39.7574449" lon="3.1572543">
<ele>24.63</ele>
<time>2016-10-18T13:48:29Z</time>
</trkpt>
<trkpt lat="39.7575994" lon="3.1570109">
<ele>26.00</ele>
<time>2016-10-18T13:48:33Z</time>
</trkpt>
<trkpt lat="39.7577575" lon="3.1568398">
<ele>24.61</ele>
<time>2016-10-18T13:48:36Z</time>
</trkpt>
<trkpt lat="39.7579155" lon="3.1566895">
<ele>22.08</ele>
<time>2016-10-18T13:48:39Z</time>
</trkpt>
<trkpt lat="39.7580761" lon="3.1565441">
<ele>19.03</ele>
<time>2016-10-18T13:48:42Z</time>
</trkpt>
<trkpt lat="39.7582464" lon="3.1563778">
<ele>16.31</ele>
<time>2016-10-18T13:48:45Z</time>
</trkpt>
<trkpt lat="39.7584209" lon="3.1562005">
<ele>16.07</ele>
<time>2016-10-18T13:48:48Z</time>
</trkpt>
<trkpt lat="39.7585863" lon="3.1560304">
<ele>17.12</ele>
<time>2016-10-18T13:48:51Z</time>
</trkpt>
<trkpt lat="39.7587559" lon="3.1558574">
<ele>17.81</ele>
<time>2016-10-18T13:48:54Z</time>
</trkpt>
<trkpt lat="39.7589185" lon="3.1556677">
<ele>19.59</ele>
<time>2016-10-18T13:48:57Z</time>
</trkpt>
<trkpt lat="39.7590891" lon="3.1554739">
<ele>21.94</ele>
<time>2016-10-18T13:49:00Z</time>
</trkpt>
<trkpt lat="39.7592511" lon="3.1552871">
<ele>24.80</ele>
<time>2016-10-18T13:49:03Z</time>
</trkpt>
<trkpt lat="39.7593937" lon="3.1551164">
<ele>27.29</ele>
<time>2016-10-18T13:49:06Z</time>
</trkpt>
<trkpt lat="39.7595418" lon="3.1549489">
<ele>29.07</ele>
<time>2016-10-18T13:49:09Z</time>
</trkpt>
<trkpt lat="39.7597071" lon="3.1547762">
<ele>28.93</ele>
<time>2016-10-18T13:49:12Z</time>
</trkpt>
<trkpt lat="39.7598715" lon="3.1546016">
<ele>28.21</ele>
<time>2016-10-18T13:49:15Z</time>
</trkpt>
<trkpt lat="39.7600592" lon="3.1543956">
<ele>27.51</ele>
<time>2016-10-18T13:49:18Z</time>
</trkpt>
<trkpt lat="39.7602027" lon="3.1542489">
<ele>27.86</ele>
<time>2016-10-18T13:49:21Z</time>
</trkpt>
<trkpt lat="39.7603697" lon="3.1540837">
<ele>27.48</ele>
<time>2016-10-18T13:49:26Z</time>
</trkpt>
<trkpt lat="39.7605297" lon="3.1539376">
<ele>26.51</ele>
<time>2016-10-18T13:49:34Z</time>
</trkpt>
<trkpt lat="39.7606922" lon="3.1537738">
<ele>23.97</ele>
<time>2016-10-18T13:49:40Z</time>
</trkpt>
<trkpt lat="39.7608802" lon="3.1536240">
<ele>19.10</ele>
<time>2016-10-18T13:49:44Z</time>
</trkpt>
<trkpt lat="39.7610968" lon="3.1534935">
<ele>10.88</ele>
<time>2016-10-18T13:49:49Z</time>
</trkpt>
<trkpt lat="39.7612828" lon="3.1533503">
<ele>6.21</ele>
<time>2016-10-18T13:49:53Z</time>
</trkpt>
<trkpt lat="39.7614342" lon="3.1531891">
<ele>6.25</ele>
<time>2016-10-18T13:49:57Z</time>
</trkpt>
<trkpt lat="39.7615934" lon="3.1530178">
<ele>6.70</ele>
<time>2016-10-18T13:50:02Z</time>
</trkpt>
<trkpt lat="39.7617509" lon="3.1528416">
<ele>3.43</ele>
<time>2016-10-18T13:50:06Z</time>
</trkpt>
<trkpt lat="39.7619168" lon="3.1526652">
<ele>2.76</ele>
<time>2016-10-18T13:50:10Z</time>
</trkpt>
<trkpt lat="39.7620883" lon="3.1524642">
<ele>7.33</ele>
<time>2016-10-18T13:50:14Z</time>
</trkpt>
<trkpt lat="39.7622313" lon="3.1523026">
<ele>10.26</ele>
<time>2016-10-18T13:50:17Z</time>
</trkpt>
<trkpt lat="39.7624086" lon="3.1521292">
<ele>10.95</ele>
<time>2016-10-18T13:50:21Z</time>
</trkpt>
<trkpt lat="39.7625667" lon="3.1519470">
<ele>10.53</ele>
<time>2016-10-18T13:50:26Z</time>
</trkpt>
<trkpt lat="39.7626819" lon="3.1517505">
<ele>10.89</ele>
<time>2016-10-18T13:50:36Z</time>
</trkpt>
<trkpt lat="39.7628276" lon="3.1515995">
<ele>11.10</ele>
<time>2016-10-18T13:50:41Z</time>
</trkpt>
<trkpt lat="39.7629999" lon="3.1514527">
<ele>12.93</ele>
<time>2016-10-18T13:50:45Z</time>
</trkpt>
<trkpt lat="39.7631780" lon="3.1512888">
<ele>9.64</ele>
<time>2016-10-18T13:50:50Z</time>
</trkpt>
<trkpt lat="39.7633370" lon="3.1511287">
<ele>8.44</ele>
<time>2016-10-18T13:50:54Z</time>
</trkpt>
<trkpt lat="39.7634995" lon="3.1509748">
<ele>5.30</ele>
<time>2016-10-18T13:50:58Z</time>
</trkpt>
<trkpt lat="39.7636499" lon="3.1508434">
<ele>2.61</ele>
<time>2016-10-18T13:51:02Z</time>
</trkpt>
<trkpt lat="39.7638256" lon="3.1506904">
<ele>0.80</ele>
<time>2016-10-18T13:51:07Z</time>
</trkpt>
<trkpt lat="39.7639829" lon="3.1504970">
<ele>-0.50</ele>
<time>2016-10-18T13:51:12Z</time>
</trkpt>
<trkpt lat="39.7641337" lon="3.1503469">
<ele>-1.77</ele>
<time>2016-10-18T13:51:16Z</time>
</trkpt>
<trkpt lat="39.7642930" lon="3.1502101">
<ele>-2.00</ele>
<time>2016-10-18T13:51:20Z</time>
</trkpt>
<trkpt lat="39.7644595" lon="3.1500219">
<ele>-2.02</ele>
<time>2016-10-18T13:51:24Z</time>
</trkpt>
<trkpt lat="39.7646106" lon="3.1498553">
<ele>0.13</ele>
<time>2016-10-18T13:51:28Z</time>
</trkpt>
<trkpt lat="39.7647745" lon="3.1497005">
<ele>0.23</ele>
<time>2016-10-18T13:51:32Z</time>
</trkpt>
<trkpt lat="39.7649405" lon="3.1495253">
<ele>0.42</ele>
<time>2016-10-18T13:51:36Z</time>
</trkpt>
<trkpt lat="39.7650961" lon="3.1493480">
<ele>0.93</ele>
<time>2016-10-18T13:51:40Z</time>
</trkpt>
<trkpt lat="39.7652359" lon="3.1491868">
<ele>3.28</ele>
<time>2016-10-18T13:51:44Z</time>
</trkpt>
<trkpt lat="39.7653912" lon="3.1490182">
<ele>4.63</ele>
<time>2016-10-18T13:51:49Z</time>
</trkpt>
<trkpt lat="39.7654433" lon="3.1487652">
<ele>4.10</ele>
<time>2016-10-18T13:51:54Z</time>
</trkpt>
<trkpt lat="39.7655125" lon="3.1485235">
<ele>4.35</ele>
<time>2016-10-18T13:52:05Z</time>
</trkpt>
<trkpt lat="39.7653456" lon="3.1486608">
<ele>9.73</ele>
<time>2016-10-18T13:53:07Z</time>
</trkpt>
<trkpt lat="39.7655088" lon="3.1487681">
<ele>11.31</ele>
<time>2016-10-18T13:53:22Z</time>
</trkpt>
<trkpt lat="39.7653350" lon="3.1486880">
<ele>11.27</ele>
<time>2016-10-18T13:53:48Z</time>
</trkpt>
<trkpt lat="39.7653277" lon="3.1489657">
<ele>13.27</ele>
<time>2016-10-18T13:53:54Z</time>
</trkpt>
<trkpt lat="39.7652511" lon="3.1492316">
<ele>15.19</ele>
<time>2016-10-18T13:53:59Z</time>
</trkpt>
<trkpt lat="39.7651298" lon="3.1494775">
<ele>16.65</ele>
<time>2016-10-18T13:54:04Z</time>
</trkpt>
<trkpt lat="39.7649872" lon="3.1496941">
<ele>16.80</ele>
<time>2016-10-18T13:54:09Z</time>
</trkpt>
<trkpt lat="39.7649697" lon="3.1499424">
<ele>18.19</ele>
<time>2016-10-18T13:54:14Z</time>
</trkpt>
<trkpt lat="39.7651211" lon="3.1501677">
<ele>14.97</ele>
<time>2016-10-18T13:54:19Z</time>
</trkpt>
<trkpt lat="39.7653002" lon="3.1503202">
<ele>11.63</ele>
<time>2016-10-18T13:54:24Z</time>
</trkpt>
<trkpt lat="39.7652335" lon="3.1505868">
<ele>12.96</ele>
<time>2016-10-18T13:54:31Z</time>
</trkpt>
<trkpt lat="39.7651209" lon="3.1508051">
<ele>15.26</ele>
<time>2016-10-18T13:54:36Z</time>
</trkpt>
<trkpt lat="39.7652314" lon="3.1510360">
<ele>14.53</ele>
<time>2016-10-18T13:54:42Z</time>
</trkpt>
<trkpt lat="39.7653801" lon="3.1511760">
<ele>13.27</ele>
<time>2016-10-18T13:54:46Z</time>
</trkpt>
<trkpt lat="39.7655582" lon="3.1513342">
<ele>10.00</ele>
<time>2016-10-18T13:54:49Z</time>
</trkpt>
<trkpt lat="39.7657218" lon="3.1514898">
<ele>7.57</ele>
<time>2016-10-18T13:54:53Z</time>
</trkpt>
<trkpt lat="39.7658782" lon="3.1516345">
<ele>6.96</ele>
<time>2016-10-18T13:54:58Z</time>
</trkpt>
<trkpt lat="39.7660500" lon="3.1517868">
<ele>4.17</ele>
<time>2016-10-18T13:55:03Z</time>
</trkpt>
<trkpt lat="39.7662402" lon="3.1519578">
<ele>1.28</ele>
<time>2016-10-18T13:55:08Z</time>
</trkpt>
<trkpt lat="39.7664329" lon="3.1521256">
<ele>-0.50</ele>
<time>2016-10-18T13:55:12Z</time>
</trkpt>
<trkpt lat="39.7666141" lon="3.1522790">
<ele>-2.18</ele>
<time>2016-10-18T13:55:16Z</time>
</trkpt>
<trkpt lat="39.7667683" lon="3.1524150">
<ele>-1.09</ele>
<time>2016-10-18T13:55:20Z</time>
</trkpt>
<trkpt lat="39.7669339" lon="3.1525380">
<ele>-0.61</ele>
<time>2016-10-18T13:55:25Z</time>
</trkpt>
<trkpt lat="39.7670793" lon="3.1526798">
<ele>0.61</ele>
<time>2016-10-18T13:55:35Z</time>
</trkpt>
<trkpt lat="39.7672284" lon="3.1528241">
<ele>1.46</ele>
<time>2016-10-18T13:55:45Z</time>
</trkpt>
<trkpt lat="39.7673867" lon="3.1529366">
<ele>2.24</ele>
<time>2016-10-18T13:56:02Z</time>
</trkpt>
<trkpt lat="39.7675605" lon="3.1530013">
<ele>1.71</ele>
<time>2016-10-18T13:56:38Z</time>
</trkpt>
<trkpt lat="39.7677121" lon="3.1528721">
<ele>-0.47</ele>
<time>2016-10-18T13:57:22Z</time>
</trkpt>
<trkpt lat="39.7678389" lon="3.1526986">
<ele>-1.92</ele>
<time>2016-10-18T13:57:40Z</time>
</trkpt>
<trkpt lat="39.7679842" lon="3.1525271">
<ele>-3.87</ele>
<time>2016-10-18T13:57:59Z</time>
</trkpt>
<trkpt lat="39.7680519" lon="3.1523047">
<ele>-5.07</ele>
<time>2016-10-18T13:58:10Z</time>
</trkpt>
<trkpt lat="39.7681726" lon="3.1521286">
<ele>-5.44</ele>
<time>2016-10-18T13:58:31Z</time>
</trkpt>
<trkpt lat="39.7682938" lon="3.1519556">
<ele>-5.51</ele>
<time>2016-10-18T13:58:47Z</time>
</trkpt>
<trkpt lat="39.7684275" lon="3.1517895">
<ele>-5.51</ele>
<time>2016-10-18T13:59:11Z</time>
</trkpt>
<trkpt lat="39.7685258" lon="3.1515654">
<ele>-4.78</ele>
<time>2016-10-18T13:59:39Z</time>
</trkpt>
<trkpt lat="39.7686660" lon="3.1514083">
<ele>-3.40</ele>
<time>2016-10-18T13:59:58Z</time>
</trkpt>
<trkpt lat="39.7687960" lon="3.1512455">
<ele>-2.21</ele>
<time>2016-10-18T14:00:20Z</time>
</trkpt>
<trkpt lat="39.7689080" lon="3.1510549">
<ele>-1.69</ele>
<time>2016-10-18T14:00:34Z</time>
</trkpt>
<trkpt lat="39.7690366" lon="3.1508823">
<ele>-0.80</ele>
<time>2016-10-18T14:00:53Z</time>
</trkpt>
<trkpt lat="39.7691728" lon="3.1507110">
<ele>-2.83</ele>
<time>2016-10-18T14:01:15Z</time>
</trkpt>
<trkpt lat="39.7692801" lon="3.1505156">
<ele>-2.21</ele>
<time>2016-10-18T14:01:48Z</time>
</trkpt>
<trkpt lat="39.7694134" lon="3.1503441">
<ele>-1.99</ele>
<time>2016-10-18T14:02:32Z</time>
</trkpt>
<trkpt lat="39.7694665" lon="3.1501168">
<ele>0.72</ele>
<time>2016-10-18T14:05:27Z</time>
</trkpt>
<trkpt lat="39.7693143" lon="3.1502505">
<ele>4.27</ele>
<time>2016-10-18T15:11:10Z</time>
</trkpt>
<trkpt lat="39.7691732" lon="3.1503968">
<ele>-2.48</ele>
<time>2016-10-18T15:12:37Z</time>
</trkpt>
<trkpt lat="39.7690052" lon="3.1502934">
<ele>-0.59</ele>
<time>2016-10-18T15:13:06Z</time>
</trkpt>
<trkpt lat="39.7688793" lon="3.1501183">
<ele>-0.11</ele>
<time>2016-10-18T15:13:21Z</time>
</trkpt>
<trkpt lat="39.7687766" lon="3.1499174">
<ele>0.85</ele>
<time>2016-10-18T15:13:37Z</time>
</trkpt>
<trkpt lat="39.7686842" lon="3.1497021">
<ele>1.43</ele>
<time>2016-10-18T15:13:52Z</time>
</trkpt>
<trkpt lat="39.7685489" lon="3.1495329">
<ele>1.52</ele>
<time>2016-10-18T15:14:07Z</time>
</trkpt>
<trkpt lat="39.7683913" lon="3.1494141">
<ele>1.15</ele>
<time>2016-10-18T15:14:30Z</time>
</trkpt>
<trkpt lat="39.7682950" lon="3.1492009">
<ele>-0.33</ele>
<time>2016-10-18T15:16:50Z</time>
</trkpt>
<trkpt lat="39.7681850" lon="3.1490029">
<ele>0.54</ele>
<time>2016-10-18T15:17:04Z</time>
</trkpt>
<trkpt lat="39.7680241" lon="3.1488960">
<ele>0.33</ele>
<time>2016-10-18T15:17:15Z</time>
</trkpt>
<trkpt lat="39.7679010" lon="3.1487058">
<ele>2.11</ele>
<time>2016-10-18T15:17:32Z</time>
</trkpt>
<trkpt lat="39.7677497" lon="3.1485540">
<ele>4.36</ele>
<time>2016-10-18T15:17:48Z</time>
</trkpt>
<trkpt lat="39.7676428" lon="3.1483584">
<ele>5.68</ele>
<time>2016-10-18T15:18:00Z</time>
</trkpt>
<trkpt lat="39.7675179" lon="3.1481885">
<ele>7.92</ele>
<time>2016-10-18T15:18:17Z</time>
</trkpt>
<trkpt lat="39.7673942" lon="3.1480109">
<ele>8.13</ele>
<time>2016-10-18T15:18:31Z</time>
</trkpt>
<trkpt lat="39.7672616" lon="3.1478423">
<ele>7.97</ele>
<time>2016-10-18T15:18:43Z</time>
</trkpt>
<trkpt lat="39.7671341" lon="3.1476671">
<ele>9.19</ele>
<time>2016-10-18T15:19:04Z</time>
</trkpt>
<trkpt lat="39.7669905" lon="3.1475067">
<ele>9.98</ele>
<time>2016-10-18T15:19:16Z</time>
</trkpt>
<trkpt lat="39.7668509" lon="3.1473566">
<ele>10.03</ele>
<time>2016-10-18T15:19:28Z</time>
</trkpt>
<trkpt lat="39.7666829" lon="3.1472580">
<ele>10.12</ele>
<time>2016-10-18T15:19:42Z</time>
</trkpt>
<trkpt lat="39.7665185" lon="3.1474315">
<ele>9.57</ele>
<time>2016-10-18T15:20:11Z</time>
</trkpt>
<trkpt lat="39.7663656" lon="3.1475792">
<ele>11.49</ele>
<time>2016-10-18T15:20:16Z</time>
</trkpt>
<trkpt lat="39.7662115" lon="3.1477166">
<ele>14.00</ele>
<time>2016-10-18T15:20:20Z</time>
</trkpt>
<trkpt lat="39.7660639" lon="3.1478699">
<ele>14.74</ele>
<time>2016-10-18T15:20:24Z</time>
</trkpt>
<trkpt lat="39.7659279" lon="3.1480251">
<ele>15.45</ele>
<time>2016-10-18T15:20:29Z</time>
</trkpt>
<trkpt lat="39.7657795" lon="3.1481758">
<ele>14.65</ele>
<time>2016-10-18T15:20:33Z</time>
</trkpt>
<trkpt lat="39.7656104" lon="3.1482701">
<ele>13.58</ele>
<time>2016-10-18T15:20:40Z</time>
</trkpt>
<trkpt lat="39.7654458" lon="3.1481725">
<ele>9.72</ele>
<time>2016-10-18T15:21:38Z</time>
</trkpt>
<trkpt lat="39.7653237" lon="3.1479982">
<ele>5.78</ele>
<time>2016-10-18T15:22:01Z</time>
</trkpt>
<trkpt lat="39.7652289" lon="3.1477906">
<ele>5.81</ele>
<time>2016-10-18T15:22:20Z</time>
</trkpt>
<trkpt lat="39.7654001" lon="3.1477095">
<ele>-15.98</ele>
<time>2016-10-18T15:26:52Z</time>
</trkpt>
<trkpt lat="39.7655923" lon="3.1476451">
<ele>-16.72</ele>
<time>2016-10-18T15:27:19Z</time>
</trkpt>
<trkpt lat="39.7657298" lon="3.1474911">
<ele>-12.81</ele>
<time>2016-10-18T15:27:37Z</time>
</trkpt>
<trkpt lat="39.7658392" lon="3.1472955">
<ele>-8.15</ele>
<time>2016-10-18T15:27:54Z</time>
</trkpt>
<trkpt lat="39.7659400" lon="3.1470942">
<ele>-4.63</ele>
<time>2016-10-18T15:28:09Z</time>
</trkpt>
<trkpt lat="39.7659470" lon="3.1468501">
<ele>-0.54</ele>
<time>2016-10-18T15:28:35Z</time>
</trkpt>
<trkpt lat="39.7655721" lon="3.1461430">
<ele>-19.80</ele>
<time>2016-10-18T15:30:20Z</time>
</trkpt>
<trkpt lat="39.7656936" lon="3.1459105">
<ele>-23.23</ele>
<time>2016-10-18T15:30:25Z</time>
</trkpt>
<trkpt lat="39.7660470" lon="3.1459824">
<ele>-17.93</ele>
<time>2016-10-18T15:30:52Z</time>
</trkpt>
<trkpt lat="39.7658659" lon="3.1459855">
<ele>-13.86</ele>
<time>2016-10-18T15:31:08Z</time>
</trkpt>
</trkseg>
</trk>
</gpx>
